<?xml version="1.0" encoding="UTF-8" standalone="no" ?>
<gpx xmlns="http://www.topografix.com/GPX/1/1" xmlns:xsi="http://www.w3.org/2001/XMLSchema-instance" xsi:schemaLocation="http://www.topografix.com/GPX/1/1 http://www.topografix.com/GPX/1/1/gpx.xsd" version="1.1" creator="VisuGPX - https://www.visugpx.com">
  <metadata>
    <name>Rando Bonchamp 08.04.18</name>
    <desc><![CDATA[Partick, Totor, Marc
Rando VTT Bochamp
Dimanche 8 avril 2018]]></desc>
  </metadata>
  <trk>
    <name><![CDATA[20180412000220-iLEls]]></name>
    <trkseg>
      <trkpt lat="48.08116" lon="-0.69219">
        <ele>87.2</ele>
        <time>2018-04-08T09:33:59Z</time>
      </trkpt>
      <trkpt lat="48.08126" lon="-0.69217">
        <ele>87.5</ele>
        <time>2018-04-08T09:34:03Z</time>
      </trkpt>
      <trkpt lat="48.08136" lon="-0.69215">
        <ele>87.7</ele>
        <time>2018-04-08T09:34:07Z</time>
      </trkpt>
      <trkpt lat="48.08147" lon="-0.69214">
        <ele>88</ele>
        <time>2018-04-08T09:34:11Z</time>
      </trkpt>
      <trkpt lat="48.08157" lon="-0.69212">
        <ele>88.1</ele>
        <time>2018-04-08T09:34:15Z</time>
      </trkpt>
      <trkpt lat="48.08166" lon="-0.69211">
        <ele>88.2</ele>
        <time>2018-04-08T09:34:19Z</time>
      </trkpt>
      <trkpt lat="48.08176" lon="-0.69211">
        <ele>90.8</ele>
        <time>2018-04-08T09:34:23Z</time>
      </trkpt>
      <trkpt lat="48.08185" lon="-0.6921">
        <ele>91</ele>
        <time>2018-04-08T09:34:27Z</time>
      </trkpt>
      <trkpt lat="48.08194" lon="-0.69211">
        <ele>91.1</ele>
        <time>2018-04-08T09:34:31Z</time>
      </trkpt>
      <trkpt lat="48.08201" lon="-0.69211">
        <ele>91.3</ele>
        <time>2018-04-08T09:34:35Z</time>
      </trkpt>
      <trkpt lat="48.08209" lon="-0.69209">
        <ele>91.5</ele>
        <time>2018-04-08T09:34:39Z</time>
      </trkpt>
      <trkpt lat="48.08217" lon="-0.69208">
        <ele>91.7</ele>
        <time>2018-04-08T09:34:43Z</time>
      </trkpt>
      <trkpt lat="48.08226" lon="-0.69207">
        <ele>91.9</ele>
        <time>2018-04-08T09:34:47Z</time>
      </trkpt>
      <trkpt lat="48.08234" lon="-0.69206">
        <ele>92.1</ele>
        <time>2018-04-08T09:34:51Z</time>
      </trkpt>
      <trkpt lat="48.08242" lon="-0.69205">
        <ele>92.2</ele>
        <time>2018-04-08T09:34:55Z</time>
      </trkpt>
      <trkpt lat="48.08249" lon="-0.69203">
        <ele>92.3</ele>
        <time>2018-04-08T09:34:59Z</time>
      </trkpt>
      <trkpt lat="48.08256" lon="-0.69202">
        <ele>94.4</ele>
        <time>2018-04-08T09:35:03Z</time>
      </trkpt>
      <trkpt lat="48.08263" lon="-0.69199">
        <ele>94.4</ele>
        <time>2018-04-08T09:35:07Z</time>
      </trkpt>
      <trkpt lat="48.08269" lon="-0.69198">
        <ele>94.5</ele>
        <time>2018-04-08T09:35:11Z</time>
      </trkpt>
      <trkpt lat="48.08277" lon="-0.69195">
        <ele>94.6</ele>
        <time>2018-04-08T09:35:15Z</time>
      </trkpt>
      <trkpt lat="48.08285" lon="-0.69193">
        <ele>94.8</ele>
        <time>2018-04-08T09:35:19Z</time>
      </trkpt>
      <trkpt lat="48.08293" lon="-0.69191">
        <ele>94.9</ele>
        <time>2018-04-08T09:35:23Z</time>
      </trkpt>
      <trkpt lat="48.083" lon="-0.69189">
        <ele>95.1</ele>
        <time>2018-04-08T09:35:27Z</time>
      </trkpt>
      <trkpt lat="48.08308" lon="-0.69186">
        <ele>95.3</ele>
        <time>2018-04-08T09:35:31Z</time>
      </trkpt>
      <trkpt lat="48.08316" lon="-0.69181">
        <ele>95.6</ele>
        <time>2018-04-08T09:35:35Z</time>
      </trkpt>
      <trkpt lat="48.08323" lon="-0.69177">
        <ele>96</ele>
        <time>2018-04-08T09:35:39Z</time>
      </trkpt>
      <trkpt lat="48.08329" lon="-0.69173">
        <ele>96.4</ele>
        <time>2018-04-08T09:35:43Z</time>
      </trkpt>
      <trkpt lat="48.08335" lon="-0.69167">
        <ele>97</ele>
        <time>2018-04-08T09:35:47Z</time>
      </trkpt>
      <trkpt lat="48.08341" lon="-0.69161">
        <ele>97.5</ele>
        <time>2018-04-08T09:35:51Z</time>
      </trkpt>
      <trkpt lat="48.08346" lon="-0.69153">
        <ele>97.8</ele>
        <time>2018-04-08T09:35:55Z</time>
      </trkpt>
      <trkpt lat="48.0835" lon="-0.69144">
        <ele>98</ele>
        <time>2018-04-08T09:35:59Z</time>
      </trkpt>
      <trkpt lat="48.08353" lon="-0.69138">
        <ele>98.1</ele>
        <time>2018-04-08T09:36:03Z</time>
      </trkpt>
      <trkpt lat="48.08357" lon="-0.69131">
        <ele>98.2</ele>
        <time>2018-04-08T09:36:07Z</time>
      </trkpt>
      <trkpt lat="48.0836" lon="-0.69123">
        <ele>98.3</ele>
        <time>2018-04-08T09:36:11Z</time>
      </trkpt>
      <trkpt lat="48.08365" lon="-0.69115">
        <ele>98.4</ele>
        <time>2018-04-08T09:36:15Z</time>
      </trkpt>
      <trkpt lat="48.08371" lon="-0.69107">
        <ele>98.5</ele>
        <time>2018-04-08T09:36:19Z</time>
      </trkpt>
      <trkpt lat="48.08376" lon="-0.69102">
        <ele>98.6</ele>
        <time>2018-04-08T09:36:23Z</time>
      </trkpt>
      <trkpt lat="48.08382" lon="-0.69096">
        <ele>98.8</ele>
        <time>2018-04-08T09:36:27Z</time>
      </trkpt>
      <trkpt lat="48.08387" lon="-0.6909">
        <ele>98.9</ele>
        <time>2018-04-08T09:36:31Z</time>
      </trkpt>
      <trkpt lat="48.08394" lon="-0.69085">
        <ele>99.1</ele>
        <time>2018-04-08T09:36:35Z</time>
      </trkpt>
      <trkpt lat="48.08402" lon="-0.69084">
        <ele>99.3</ele>
        <time>2018-04-08T09:36:39Z</time>
      </trkpt>
      <trkpt lat="48.08412" lon="-0.69083">
        <ele>99.8</ele>
        <time>2018-04-08T09:36:43Z</time>
      </trkpt>
      <trkpt lat="48.08421" lon="-0.69082">
        <ele>100.1</ele>
        <time>2018-04-08T09:36:47Z</time>
      </trkpt>
      <trkpt lat="48.08431" lon="-0.69082">
        <ele>100.3</ele>
        <time>2018-04-08T09:36:51Z</time>
      </trkpt>
      <trkpt lat="48.0844" lon="-0.69084">
        <ele>100.1</ele>
        <time>2018-04-08T09:36:55Z</time>
      </trkpt>
      <trkpt lat="48.0845" lon="-0.69086">
        <ele>100.1</ele>
        <time>2018-04-08T09:36:59Z</time>
      </trkpt>
      <trkpt lat="48.08461" lon="-0.69088">
        <ele>100.2</ele>
        <time>2018-04-08T09:37:03Z</time>
      </trkpt>
      <trkpt lat="48.08474" lon="-0.6909">
        <ele>100.3</ele>
        <time>2018-04-08T09:37:07Z</time>
      </trkpt>
      <trkpt lat="48.08488" lon="-0.69092">
        <ele>100.5</ele>
        <time>2018-04-08T09:37:11Z</time>
      </trkpt>
      <trkpt lat="48.085" lon="-0.69096">
        <ele>100.6</ele>
        <time>2018-04-08T09:37:15Z</time>
      </trkpt>
      <trkpt lat="48.08508" lon="-0.69104">
        <ele>100.4</ele>
        <time>2018-04-08T09:37:19Z</time>
      </trkpt>
      <trkpt lat="48.08512" lon="-0.69104">
        <ele>100.4</ele>
        <time>2018-04-08T09:37:39Z</time>
      </trkpt>
      <trkpt lat="48.08519" lon="-0.69103">
        <ele>100.3</ele>
        <time>2018-04-08T09:37:43Z</time>
      </trkpt>
      <trkpt lat="48.08531" lon="-0.69105">
        <ele>100.2</ele>
        <time>2018-04-08T09:37:47Z</time>
      </trkpt>
      <trkpt lat="48.08543" lon="-0.69106">
        <ele>100.1</ele>
        <time>2018-04-08T09:37:51Z</time>
      </trkpt>
      <trkpt lat="48.08555" lon="-0.69106">
        <ele>100</ele>
        <time>2018-04-08T09:37:55Z</time>
      </trkpt>
      <trkpt lat="48.08567" lon="-0.69106">
        <ele>100</ele>
        <time>2018-04-08T09:37:59Z</time>
      </trkpt>
      <trkpt lat="48.0858" lon="-0.69105">
        <ele>100</ele>
        <time>2018-04-08T09:38:03Z</time>
      </trkpt>
      <trkpt lat="48.08588" lon="-0.69094">
        <ele>100.2</ele>
        <time>2018-04-08T09:38:07Z</time>
      </trkpt>
      <trkpt lat="48.08586" lon="-0.69077">
        <ele>100.5</ele>
        <time>2018-04-08T09:38:11Z</time>
      </trkpt>
      <trkpt lat="48.08585" lon="-0.6906">
        <ele>101.4</ele>
        <time>2018-04-08T09:38:15Z</time>
      </trkpt>
      <trkpt lat="48.08582" lon="-0.69042">
        <ele>101.5</ele>
        <time>2018-04-08T09:38:19Z</time>
      </trkpt>
      <trkpt lat="48.08581" lon="-0.69024">
        <ele>102</ele>
        <time>2018-04-08T09:38:23Z</time>
      </trkpt>
      <trkpt lat="48.08579" lon="-0.69005">
        <ele>102.6</ele>
        <time>2018-04-08T09:38:27Z</time>
      </trkpt>
      <trkpt lat="48.08576" lon="-0.68987">
        <ele>103</ele>
        <time>2018-04-08T09:38:31Z</time>
      </trkpt>
      <trkpt lat="48.08574" lon="-0.68968">
        <ele>103</ele>
        <time>2018-04-08T09:38:35Z</time>
      </trkpt>
      <trkpt lat="48.08571" lon="-0.68949">
        <ele>103</ele>
        <time>2018-04-08T09:38:39Z</time>
      </trkpt>
      <trkpt lat="48.08569" lon="-0.68929">
        <ele>103</ele>
        <time>2018-04-08T09:38:43Z</time>
      </trkpt>
      <trkpt lat="48.08567" lon="-0.68907">
        <ele>103.7</ele>
        <time>2018-04-08T09:38:47Z</time>
      </trkpt>
      <trkpt lat="48.08564" lon="-0.68887">
        <ele>104</ele>
        <time>2018-04-08T09:38:51Z</time>
      </trkpt>
      <trkpt lat="48.08561" lon="-0.68867">
        <ele>104.3</ele>
        <time>2018-04-08T09:38:55Z</time>
      </trkpt>
      <trkpt lat="48.08559" lon="-0.68846">
        <ele>104.5</ele>
        <time>2018-04-08T09:38:59Z</time>
      </trkpt>
      <trkpt lat="48.08556" lon="-0.68826">
        <ele>105.2</ele>
        <time>2018-04-08T09:39:03Z</time>
      </trkpt>
      <trkpt lat="48.08553" lon="-0.68805">
        <ele>105.2</ele>
        <time>2018-04-08T09:39:07Z</time>
      </trkpt>
      <trkpt lat="48.08551" lon="-0.68783">
        <ele>105.3</ele>
        <time>2018-04-08T09:39:11Z</time>
      </trkpt>
      <trkpt lat="48.08548" lon="-0.68761">
        <ele>105.4</ele>
        <time>2018-04-08T09:39:15Z</time>
      </trkpt>
      <trkpt lat="48.08545" lon="-0.68738">
        <ele>105.7</ele>
        <time>2018-04-08T09:39:19Z</time>
      </trkpt>
      <trkpt lat="48.08543" lon="-0.68717">
        <ele>105.7</ele>
        <time>2018-04-08T09:39:23Z</time>
      </trkpt>
      <trkpt lat="48.08541" lon="-0.68701">
        <ele>105.8</ele>
        <time>2018-04-08T09:39:27Z</time>
      </trkpt>
      <trkpt lat="48.08536" lon="-0.68696">
        <ele>105.8</ele>
        <time>2018-04-08T09:39:31Z</time>
      </trkpt>
      <trkpt lat="48.08529" lon="-0.687">
        <ele>105.8</ele>
        <time>2018-04-08T09:39:35Z</time>
      </trkpt>
      <trkpt lat="48.08519" lon="-0.68703">
        <ele>105.7</ele>
        <time>2018-04-08T09:39:39Z</time>
      </trkpt>
      <trkpt lat="48.08508" lon="-0.68707">
        <ele>105.7</ele>
        <time>2018-04-08T09:39:43Z</time>
      </trkpt>
      <trkpt lat="48.08496" lon="-0.6871">
        <ele>104.8</ele>
        <time>2018-04-08T09:39:47Z</time>
      </trkpt>
      <trkpt lat="48.08483" lon="-0.68714">
        <ele>104.7</ele>
        <time>2018-04-08T09:39:51Z</time>
      </trkpt>
      <trkpt lat="48.08471" lon="-0.68719">
        <ele>104.6</ele>
        <time>2018-04-08T09:39:55Z</time>
      </trkpt>
      <trkpt lat="48.08457" lon="-0.68722">
        <ele>104.4</ele>
        <time>2018-04-08T09:39:59Z</time>
      </trkpt>
      <trkpt lat="48.08445" lon="-0.68725">
        <ele>104.2</ele>
        <time>2018-04-08T09:40:03Z</time>
      </trkpt>
      <trkpt lat="48.08429" lon="-0.6873">
        <ele>103.9</ele>
        <time>2018-04-08T09:40:07Z</time>
      </trkpt>
      <trkpt lat="48.08413" lon="-0.68734">
        <ele>102.5</ele>
        <time>2018-04-08T09:40:11Z</time>
      </trkpt>
      <trkpt lat="48.08395" lon="-0.68738">
        <ele>102.2</ele>
        <time>2018-04-08T09:40:15Z</time>
      </trkpt>
      <trkpt lat="48.08377" lon="-0.68748">
        <ele>101.7</ele>
        <time>2018-04-08T09:40:19Z</time>
      </trkpt>
      <trkpt lat="48.08358" lon="-0.6876">
        <ele>100.9</ele>
        <time>2018-04-08T09:40:23Z</time>
      </trkpt>
      <trkpt lat="48.08338" lon="-0.68772">
        <ele>100.6</ele>
        <time>2018-04-08T09:40:27Z</time>
      </trkpt>
      <trkpt lat="48.08316" lon="-0.68781">
        <ele>98</ele>
        <time>2018-04-08T09:40:31Z</time>
      </trkpt>
      <trkpt lat="48.08293" lon="-0.68788">
        <ele>97.3</ele>
        <time>2018-04-08T09:40:35Z</time>
      </trkpt>
      <trkpt lat="48.08276" lon="-0.68782">
        <ele>96.8</ele>
        <time>2018-04-08T09:40:39Z</time>
      </trkpt>
      <trkpt lat="48.08267" lon="-0.68763">
        <ele>96.3</ele>
        <time>2018-04-08T09:40:43Z</time>
      </trkpt>
      <trkpt lat="48.08259" lon="-0.68742">
        <ele>96</ele>
        <time>2018-04-08T09:40:47Z</time>
      </trkpt>
      <trkpt lat="48.08249" lon="-0.6872">
        <ele>94.2</ele>
        <time>2018-04-08T09:40:51Z</time>
      </trkpt>
      <trkpt lat="48.0824" lon="-0.68697">
        <ele>94.3</ele>
        <time>2018-04-08T09:40:55Z</time>
      </trkpt>
      <trkpt lat="48.08233" lon="-0.68672">
        <ele>94.7</ele>
        <time>2018-04-08T09:40:59Z</time>
      </trkpt>
      <trkpt lat="48.08226" lon="-0.68647">
        <ele>94.7</ele>
        <time>2018-04-08T09:41:03Z</time>
      </trkpt>
      <trkpt lat="48.0822" lon="-0.68621">
        <ele>94.5</ele>
        <time>2018-04-08T09:41:07Z</time>
      </trkpt>
      <trkpt lat="48.08214" lon="-0.68597">
        <ele>94.5</ele>
        <time>2018-04-08T09:41:11Z</time>
      </trkpt>
      <trkpt lat="48.08209" lon="-0.68581">
        <ele>94.5</ele>
        <time>2018-04-08T09:41:15Z</time>
      </trkpt>
      <trkpt lat="48.082" lon="-0.6856">
        <ele>94.3</ele>
        <time>2018-04-08T09:41:19Z</time>
      </trkpt>
      <trkpt lat="48.0819" lon="-0.68539">
        <ele>94.2</ele>
        <time>2018-04-08T09:41:23Z</time>
      </trkpt>
      <trkpt lat="48.08182" lon="-0.68518">
        <ele>93.9</ele>
        <time>2018-04-08T09:41:27Z</time>
      </trkpt>
      <trkpt lat="48.08177" lon="-0.68497">
        <ele>93.6</ele>
        <time>2018-04-08T09:41:31Z</time>
      </trkpt>
      <trkpt lat="48.08174" lon="-0.68474">
        <ele>94</ele>
        <time>2018-04-08T09:41:35Z</time>
      </trkpt>
      <trkpt lat="48.0817" lon="-0.68449">
        <ele>94.1</ele>
        <time>2018-04-08T09:41:39Z</time>
      </trkpt>
      <trkpt lat="48.08166" lon="-0.68424">
        <ele>92.6</ele>
        <time>2018-04-08T09:41:43Z</time>
      </trkpt>
      <trkpt lat="48.0816" lon="-0.68399">
        <ele>92.5</ele>
        <time>2018-04-08T09:41:47Z</time>
      </trkpt>
      <trkpt lat="48.08152" lon="-0.68375">
        <ele>92.3</ele>
        <time>2018-04-08T09:41:51Z</time>
      </trkpt>
      <trkpt lat="48.08142" lon="-0.68362">
        <ele>92.3</ele>
        <time>2018-04-08T09:41:55Z</time>
      </trkpt>
      <trkpt lat="48.08132" lon="-0.68349">
        <ele>92.2</ele>
        <time>2018-04-08T09:41:59Z</time>
      </trkpt>
      <trkpt lat="48.08123" lon="-0.68336">
        <ele>92.2</ele>
        <time>2018-04-08T09:42:03Z</time>
      </trkpt>
      <trkpt lat="48.08116" lon="-0.68326">
        <ele>92.9</ele>
        <time>2018-04-08T09:42:07Z</time>
      </trkpt>
      <trkpt lat="48.08109" lon="-0.68315">
        <ele>92.9</ele>
        <time>2018-04-08T09:42:11Z</time>
      </trkpt>
      <trkpt lat="48.08101" lon="-0.68303">
        <ele>93</ele>
        <time>2018-04-08T09:42:15Z</time>
      </trkpt>
      <trkpt lat="48.08092" lon="-0.68289">
        <ele>93.2</ele>
        <time>2018-04-08T09:42:19Z</time>
      </trkpt>
      <trkpt lat="48.08083" lon="-0.68275">
        <ele>93.3</ele>
        <time>2018-04-08T09:42:23Z</time>
      </trkpt>
      <trkpt lat="48.08075" lon="-0.68268">
        <ele>93.4</ele>
        <time>2018-04-08T09:42:27Z</time>
      </trkpt>
      <trkpt lat="48.08065" lon="-0.6827">
        <ele>93.3</ele>
        <time>2018-04-08T09:42:31Z</time>
      </trkpt>
      <trkpt lat="48.08056" lon="-0.68273">
        <ele>93.2</ele>
        <time>2018-04-08T09:42:35Z</time>
      </trkpt>
      <trkpt lat="48.08046" lon="-0.68273">
        <ele>93.2</ele>
        <time>2018-04-08T09:42:39Z</time>
      </trkpt>
      <trkpt lat="48.08036" lon="-0.68273">
        <ele>93.2</ele>
        <time>2018-04-08T09:42:43Z</time>
      </trkpt>
      <trkpt lat="48.08027" lon="-0.68273">
        <ele>93.2</ele>
        <time>2018-04-08T09:42:47Z</time>
      </trkpt>
      <trkpt lat="48.08016" lon="-0.6828">
        <ele>93.2</ele>
        <time>2018-04-08T09:42:51Z</time>
      </trkpt>
      <trkpt lat="48.08004" lon="-0.68287">
        <ele>93.1</ele>
        <time>2018-04-08T09:42:55Z</time>
      </trkpt>
      <trkpt lat="48.0799" lon="-0.68291">
        <ele>92.8</ele>
        <time>2018-04-08T09:42:59Z</time>
      </trkpt>
      <trkpt lat="48.07978" lon="-0.68288">
        <ele>92.9</ele>
        <time>2018-04-08T09:43:03Z</time>
      </trkpt>
      <trkpt lat="48.07975" lon="-0.68287">
        <ele>92.9</ele>
        <time>2018-04-08T09:43:15Z</time>
      </trkpt>
      <trkpt lat="48.07972" lon="-0.68286">
        <ele>92.9</ele>
        <time>2018-04-08T09:43:19Z</time>
      </trkpt>
      <trkpt lat="48.07963" lon="-0.68284">
        <ele>92.8</ele>
        <time>2018-04-08T09:43:23Z</time>
      </trkpt>
      <trkpt lat="48.07951" lon="-0.68281">
        <ele>92.8</ele>
        <time>2018-04-08T09:43:27Z</time>
      </trkpt>
      <trkpt lat="48.07935" lon="-0.68278">
        <ele>92.8</ele>
        <time>2018-04-08T09:43:31Z</time>
      </trkpt>
      <trkpt lat="48.07916" lon="-0.68274">
        <ele>92.5</ele>
        <time>2018-04-08T09:43:35Z</time>
      </trkpt>
      <trkpt lat="48.07894" lon="-0.68271">
        <ele>92.4</ele>
        <time>2018-04-08T09:43:39Z</time>
      </trkpt>
      <trkpt lat="48.07872" lon="-0.68267">
        <ele>92.3</ele>
        <time>2018-04-08T09:43:43Z</time>
      </trkpt>
      <trkpt lat="48.07849" lon="-0.68264">
        <ele>92.2</ele>
        <time>2018-04-08T09:43:47Z</time>
      </trkpt>
      <trkpt lat="48.07826" lon="-0.6826">
        <ele>91.8</ele>
        <time>2018-04-08T09:43:51Z</time>
      </trkpt>
      <trkpt lat="48.07803" lon="-0.68257">
        <ele>91.6</ele>
        <time>2018-04-08T09:43:55Z</time>
      </trkpt>
      <trkpt lat="48.07782" lon="-0.68255">
        <ele>91.4</ele>
        <time>2018-04-08T09:43:59Z</time>
      </trkpt>
      <trkpt lat="48.07764" lon="-0.68253">
        <ele>91.2</ele>
        <time>2018-04-08T09:44:03Z</time>
      </trkpt>
      <trkpt lat="48.07748" lon="-0.68251">
        <ele>90.9</ele>
        <time>2018-04-08T09:44:07Z</time>
      </trkpt>
      <trkpt lat="48.07735" lon="-0.68241">
        <ele>90.2</ele>
        <time>2018-04-08T09:44:11Z</time>
      </trkpt>
      <trkpt lat="48.07735" lon="-0.68215">
        <ele>89.9</ele>
        <time>2018-04-08T09:44:15Z</time>
      </trkpt>
      <trkpt lat="48.07739" lon="-0.68187">
        <ele>90.1</ele>
        <time>2018-04-08T09:44:19Z</time>
      </trkpt>
      <trkpt lat="48.07742" lon="-0.68159">
        <ele>90.5</ele>
        <time>2018-04-08T09:44:23Z</time>
      </trkpt>
      <trkpt lat="48.07744" lon="-0.68132">
        <ele>90.2</ele>
        <time>2018-04-08T09:44:27Z</time>
      </trkpt>
      <trkpt lat="48.07744" lon="-0.68105">
        <ele>90.6</ele>
        <time>2018-04-08T09:44:31Z</time>
      </trkpt>
      <trkpt lat="48.07745" lon="-0.68079">
        <ele>91.5</ele>
        <time>2018-04-08T09:44:35Z</time>
      </trkpt>
      <trkpt lat="48.07748" lon="-0.6805">
        <ele>90.8</ele>
        <time>2018-04-08T09:44:39Z</time>
      </trkpt>
      <trkpt lat="48.0775" lon="-0.68021">
        <ele>93.2</ele>
        <time>2018-04-08T09:44:43Z</time>
      </trkpt>
      <trkpt lat="48.07751" lon="-0.67999">
        <ele>93.1</ele>
        <time>2018-04-08T09:44:47Z</time>
      </trkpt>
      <trkpt lat="48.07752" lon="-0.67972">
        <ele>94</ele>
        <time>2018-04-08T09:44:51Z</time>
      </trkpt>
      <trkpt lat="48.07753" lon="-0.67942">
        <ele>94</ele>
        <time>2018-04-08T09:44:55Z</time>
      </trkpt>
      <trkpt lat="48.0775" lon="-0.67915">
        <ele>92.8</ele>
        <time>2018-04-08T09:44:59Z</time>
      </trkpt>
      <trkpt lat="48.07747" lon="-0.6789">
        <ele>91.4</ele>
        <time>2018-04-08T09:45:03Z</time>
      </trkpt>
      <trkpt lat="48.0774" lon="-0.67861">
        <ele>91.3</ele>
        <time>2018-04-08T09:45:07Z</time>
      </trkpt>
      <trkpt lat="48.07733" lon="-0.67832">
        <ele>91.6</ele>
        <time>2018-04-08T09:45:11Z</time>
      </trkpt>
      <trkpt lat="48.07724" lon="-0.67802">
        <ele>90.8</ele>
        <time>2018-04-08T09:45:15Z</time>
      </trkpt>
      <trkpt lat="48.07716" lon="-0.67771">
        <ele>90.5</ele>
        <time>2018-04-08T09:45:19Z</time>
      </trkpt>
      <trkpt lat="48.07711" lon="-0.67739">
        <ele>89.9</ele>
        <time>2018-04-08T09:45:23Z</time>
      </trkpt>
      <trkpt lat="48.07705" lon="-0.67705">
        <ele>89.6</ele>
        <time>2018-04-08T09:45:27Z</time>
      </trkpt>
      <trkpt lat="48.077" lon="-0.67668">
        <ele>89.3</ele>
        <time>2018-04-08T09:45:31Z</time>
      </trkpt>
      <trkpt lat="48.07697" lon="-0.67629">
        <ele>88.7</ele>
        <time>2018-04-08T09:45:35Z</time>
      </trkpt>
      <trkpt lat="48.07695" lon="-0.67592">
        <ele>88.2</ele>
        <time>2018-04-08T09:45:39Z</time>
      </trkpt>
      <trkpt lat="48.07692" lon="-0.67555">
        <ele>87.4</ele>
        <time>2018-04-08T09:45:43Z</time>
      </trkpt>
      <trkpt lat="48.0769" lon="-0.6752">
        <ele>87</ele>
        <time>2018-04-08T09:45:47Z</time>
      </trkpt>
      <trkpt lat="48.07689" lon="-0.67486">
        <ele>86.1</ele>
        <time>2018-04-08T09:45:51Z</time>
      </trkpt>
      <trkpt lat="48.07687" lon="-0.67452">
        <ele>86.1</ele>
        <time>2018-04-08T09:45:55Z</time>
      </trkpt>
      <trkpt lat="48.07686" lon="-0.67418">
        <ele>85.8</ele>
        <time>2018-04-08T09:45:59Z</time>
      </trkpt>
      <trkpt lat="48.07684" lon="-0.67383">
        <ele>85.4</ele>
        <time>2018-04-08T09:46:03Z</time>
      </trkpt>
      <trkpt lat="48.07682" lon="-0.67348">
        <ele>85.2</ele>
        <time>2018-04-08T09:46:07Z</time>
      </trkpt>
      <trkpt lat="48.07681" lon="-0.67311">
        <ele>84</ele>
        <time>2018-04-08T09:46:11Z</time>
      </trkpt>
      <trkpt lat="48.07679" lon="-0.67273">
        <ele>83</ele>
        <time>2018-04-08T09:46:15Z</time>
      </trkpt>
      <trkpt lat="48.07677" lon="-0.67229">
        <ele>81.5</ele>
        <time>2018-04-08T09:46:19Z</time>
      </trkpt>
      <trkpt lat="48.07675" lon="-0.67182">
        <ele>80.6</ele>
        <time>2018-04-08T09:46:23Z</time>
      </trkpt>
      <trkpt lat="48.07673" lon="-0.67135">
        <ele>81.4</ele>
        <time>2018-04-08T09:46:27Z</time>
      </trkpt>
      <trkpt lat="48.07671" lon="-0.67094">
        <ele>82.5</ele>
        <time>2018-04-08T09:46:31Z</time>
      </trkpt>
      <trkpt lat="48.0767" lon="-0.67059">
        <ele>84.5</ele>
        <time>2018-04-08T09:46:35Z</time>
      </trkpt>
      <trkpt lat="48.07669" lon="-0.67029">
        <ele>85.6</ele>
        <time>2018-04-08T09:46:39Z</time>
      </trkpt>
      <trkpt lat="48.07669" lon="-0.67">
        <ele>86.9</ele>
        <time>2018-04-08T09:46:43Z</time>
      </trkpt>
      <trkpt lat="48.07668" lon="-0.66971">
        <ele>86.8</ele>
        <time>2018-04-08T09:46:47Z</time>
      </trkpt>
      <trkpt lat="48.07667" lon="-0.66943">
        <ele>86.5</ele>
        <time>2018-04-08T09:46:51Z</time>
      </trkpt>
      <trkpt lat="48.07666" lon="-0.66915">
        <ele>86.1</ele>
        <time>2018-04-08T09:46:55Z</time>
      </trkpt>
      <trkpt lat="48.07663" lon="-0.66884">
        <ele>86.1</ele>
        <time>2018-04-08T09:46:59Z</time>
      </trkpt>
      <trkpt lat="48.07657" lon="-0.6685">
        <ele>85</ele>
        <time>2018-04-08T09:47:03Z</time>
      </trkpt>
      <trkpt lat="48.07647" lon="-0.66812">
        <ele>83.7</ele>
        <time>2018-04-08T09:47:07Z</time>
      </trkpt>
      <trkpt lat="48.07636" lon="-0.66772">
        <ele>83.4</ele>
        <time>2018-04-08T09:47:11Z</time>
      </trkpt>
      <trkpt lat="48.07625" lon="-0.6673">
        <ele>80.8</ele>
        <time>2018-04-08T09:47:15Z</time>
      </trkpt>
      <trkpt lat="48.07611" lon="-0.66686">
        <ele>79.8</ele>
        <time>2018-04-08T09:47:19Z</time>
      </trkpt>
      <trkpt lat="48.07597" lon="-0.66642">
        <ele>77.2</ele>
        <time>2018-04-08T09:47:23Z</time>
      </trkpt>
      <trkpt lat="48.07584" lon="-0.66599">
        <ele>75.8</ele>
        <time>2018-04-08T09:47:27Z</time>
      </trkpt>
      <trkpt lat="48.07572" lon="-0.66561">
        <ele>75.4</ele>
        <time>2018-04-08T09:47:31Z</time>
      </trkpt>
      <trkpt lat="48.0756" lon="-0.66532">
        <ele>75.3</ele>
        <time>2018-04-08T09:47:35Z</time>
      </trkpt>
      <trkpt lat="48.07544" lon="-0.66533">
        <ele>75.4</ele>
        <time>2018-04-08T09:47:39Z</time>
      </trkpt>
      <trkpt lat="48.07529" lon="-0.66538">
        <ele>75.5</ele>
        <time>2018-04-08T09:47:43Z</time>
      </trkpt>
      <trkpt lat="48.07515" lon="-0.66544">
        <ele>75.7</ele>
        <time>2018-04-08T09:47:47Z</time>
      </trkpt>
      <trkpt lat="48.07503" lon="-0.66556">
        <ele>76.2</ele>
        <time>2018-04-08T09:47:51Z</time>
      </trkpt>
      <trkpt lat="48.07492" lon="-0.66572">
        <ele>77.4</ele>
        <time>2018-04-08T09:47:55Z</time>
      </trkpt>
      <trkpt lat="48.07483" lon="-0.66585">
        <ele>79</ele>
        <time>2018-04-08T09:47:59Z</time>
      </trkpt>
      <trkpt lat="48.07474" lon="-0.66598">
        <ele>79.5</ele>
        <time>2018-04-08T09:48:03Z</time>
      </trkpt>
      <trkpt lat="48.07464" lon="-0.6661">
        <ele>79.9</ele>
        <time>2018-04-08T09:48:07Z</time>
      </trkpt>
      <trkpt lat="48.07454" lon="-0.66624">
        <ele>80.3</ele>
        <time>2018-04-08T09:48:11Z</time>
      </trkpt>
      <trkpt lat="48.07444" lon="-0.66636">
        <ele>80.7</ele>
        <time>2018-04-08T09:48:15Z</time>
      </trkpt>
      <trkpt lat="48.07434" lon="-0.66648">
        <ele>81.2</ele>
        <time>2018-04-08T09:48:19Z</time>
      </trkpt>
      <trkpt lat="48.07425" lon="-0.66661">
        <ele>82.1</ele>
        <time>2018-04-08T09:48:23Z</time>
      </trkpt>
      <trkpt lat="48.07415" lon="-0.66669">
        <ele>83.1</ele>
        <time>2018-04-08T09:48:27Z</time>
      </trkpt>
      <trkpt lat="48.07406" lon="-0.66662">
        <ele>82.3</ele>
        <time>2018-04-08T09:48:31Z</time>
      </trkpt>
      <trkpt lat="48.07401" lon="-0.66647">
        <ele>81.8</ele>
        <time>2018-04-08T09:48:35Z</time>
      </trkpt>
      <trkpt lat="48.07394" lon="-0.66632">
        <ele>81.4</ele>
        <time>2018-04-08T09:48:39Z</time>
      </trkpt>
      <trkpt lat="48.07386" lon="-0.66614">
        <ele>81</ele>
        <time>2018-04-08T09:48:43Z</time>
      </trkpt>
      <trkpt lat="48.07375" lon="-0.66594">
        <ele>80.7</ele>
        <time>2018-04-08T09:48:47Z</time>
      </trkpt>
      <trkpt lat="48.07362" lon="-0.6657">
        <ele>78.8</ele>
        <time>2018-04-08T09:48:51Z</time>
      </trkpt>
      <trkpt lat="48.07349" lon="-0.6654">
        <ele>78.4</ele>
        <time>2018-04-08T09:48:55Z</time>
      </trkpt>
      <trkpt lat="48.07336" lon="-0.66506">
        <ele>78.1</ele>
        <time>2018-04-08T09:48:59Z</time>
      </trkpt>
      <trkpt lat="48.07326" lon="-0.66467">
        <ele>75.8</ele>
        <time>2018-04-08T09:49:03Z</time>
      </trkpt>
      <trkpt lat="48.07315" lon="-0.66429">
        <ele>75</ele>
        <time>2018-04-08T09:49:07Z</time>
      </trkpt>
      <trkpt lat="48.07305" lon="-0.66392">
        <ele>73.9</ele>
        <time>2018-04-08T09:49:11Z</time>
      </trkpt>
      <trkpt lat="48.073" lon="-0.66356">
        <ele>73.6</ele>
        <time>2018-04-08T09:49:15Z</time>
      </trkpt>
      <trkpt lat="48.073" lon="-0.66325">
        <ele>73.3</ele>
        <time>2018-04-08T09:49:19Z</time>
      </trkpt>
      <trkpt lat="48.07302" lon="-0.66302">
        <ele>73.3</ele>
        <time>2018-04-08T09:49:23Z</time>
      </trkpt>
      <trkpt lat="48.07308" lon="-0.66277">
        <ele>73</ele>
        <time>2018-04-08T09:49:27Z</time>
      </trkpt>
      <trkpt lat="48.07314" lon="-0.66246">
        <ele>72.4</ele>
        <time>2018-04-08T09:49:31Z</time>
      </trkpt>
      <trkpt lat="48.07312" lon="-0.66201">
        <ele>72.7</ele>
        <time>2018-04-08T09:49:35Z</time>
      </trkpt>
      <trkpt lat="48.07306" lon="-0.66168">
        <ele>72.6</ele>
        <time>2018-04-08T09:49:39Z</time>
      </trkpt>
      <trkpt lat="48.07298" lon="-0.66138">
        <ele>70.9</ele>
        <time>2018-04-08T09:49:43Z</time>
      </trkpt>
      <trkpt lat="48.07286" lon="-0.66112">
        <ele>70.5</ele>
        <time>2018-04-08T09:49:47Z</time>
      </trkpt>
      <trkpt lat="48.0727" lon="-0.66093">
        <ele>70</ele>
        <time>2018-04-08T09:49:51Z</time>
      </trkpt>
      <trkpt lat="48.07255" lon="-0.66079">
        <ele>68.9</ele>
        <time>2018-04-08T09:49:55Z</time>
      </trkpt>
      <trkpt lat="48.07235" lon="-0.66071">
        <ele>70.1</ele>
        <time>2018-04-08T09:49:59Z</time>
      </trkpt>
      <trkpt lat="48.07211" lon="-0.66074">
        <ele>70.5</ele>
        <time>2018-04-08T09:50:03Z</time>
      </trkpt>
      <trkpt lat="48.07186" lon="-0.66087">
        <ele>69.7</ele>
        <time>2018-04-08T09:50:07Z</time>
      </trkpt>
      <trkpt lat="48.0716" lon="-0.66097">
        <ele>68.1</ele>
        <time>2018-04-08T09:50:11Z</time>
      </trkpt>
      <trkpt lat="48.07139" lon="-0.66107">
        <ele>67.3</ele>
        <time>2018-04-08T09:50:15Z</time>
      </trkpt>
      <trkpt lat="48.07118" lon="-0.66109">
        <ele>66.8</ele>
        <time>2018-04-08T09:50:19Z</time>
      </trkpt>
      <trkpt lat="48.071" lon="-0.66098">
        <ele>66.2</ele>
        <time>2018-04-08T09:50:23Z</time>
      </trkpt>
      <trkpt lat="48.0709" lon="-0.66081">
        <ele>66.3</ele>
        <time>2018-04-08T09:50:27Z</time>
      </trkpt>
      <trkpt lat="48.07081" lon="-0.66059">
        <ele>66.3</ele>
        <time>2018-04-08T09:50:31Z</time>
      </trkpt>
      <trkpt lat="48.07068" lon="-0.66034">
        <ele>67.3</ele>
        <time>2018-04-08T09:50:35Z</time>
      </trkpt>
      <trkpt lat="48.07049" lon="-0.66017">
        <ele>67.3</ele>
        <time>2018-04-08T09:50:39Z</time>
      </trkpt>
      <trkpt lat="48.07029" lon="-0.66006">
        <ele>66.7</ele>
        <time>2018-04-08T09:50:43Z</time>
      </trkpt>
      <trkpt lat="48.07007" lon="-0.65997">
        <ele>67.4</ele>
        <time>2018-04-08T09:50:47Z</time>
      </trkpt>
      <trkpt lat="48.06984" lon="-0.6599">
        <ele>65.8</ele>
        <time>2018-04-08T09:50:51Z</time>
      </trkpt>
      <trkpt lat="48.06961" lon="-0.65986">
        <ele>65.2</ele>
        <time>2018-04-08T09:50:55Z</time>
      </trkpt>
      <trkpt lat="48.06939" lon="-0.65982">
        <ele>64.3</ele>
        <time>2018-04-08T09:50:59Z</time>
      </trkpt>
      <trkpt lat="48.06917" lon="-0.6598">
        <ele>63.6</ele>
        <time>2018-04-08T09:51:03Z</time>
      </trkpt>
      <trkpt lat="48.06899" lon="-0.6599">
        <ele>60.6</ele>
        <time>2018-04-08T09:51:07Z</time>
      </trkpt>
      <trkpt lat="48.0689" lon="-0.66013">
        <ele>60.4</ele>
        <time>2018-04-08T09:51:11Z</time>
      </trkpt>
      <trkpt lat="48.06878" lon="-0.66034">
        <ele>60</ele>
        <time>2018-04-08T09:51:15Z</time>
      </trkpt>
      <trkpt lat="48.06864" lon="-0.66047">
        <ele>59.8</ele>
        <time>2018-04-08T09:51:19Z</time>
      </trkpt>
      <trkpt lat="48.0685" lon="-0.66061">
        <ele>59.6</ele>
        <time>2018-04-08T09:51:23Z</time>
      </trkpt>
      <trkpt lat="48.06838" lon="-0.66081">
        <ele>59.2</ele>
        <time>2018-04-08T09:51:27Z</time>
      </trkpt>
      <trkpt lat="48.06829" lon="-0.66103">
        <ele>59.4</ele>
        <time>2018-04-08T09:51:31Z</time>
      </trkpt>
      <trkpt lat="48.06822" lon="-0.66125">
        <ele>59.7</ele>
        <time>2018-04-08T09:51:35Z</time>
      </trkpt>
      <trkpt lat="48.06819" lon="-0.66148">
        <ele>59.8</ele>
        <time>2018-04-08T09:51:39Z</time>
      </trkpt>
      <trkpt lat="48.06819" lon="-0.6617">
        <ele>60</ele>
        <time>2018-04-08T09:51:43Z</time>
      </trkpt>
      <trkpt lat="48.06819" lon="-0.66195">
        <ele>60</ele>
        <time>2018-04-08T09:51:47Z</time>
      </trkpt>
      <trkpt lat="48.06818" lon="-0.66219">
        <ele>60</ele>
        <time>2018-04-08T09:51:51Z</time>
      </trkpt>
      <trkpt lat="48.06814" lon="-0.66243">
        <ele>60</ele>
        <time>2018-04-08T09:51:55Z</time>
      </trkpt>
      <trkpt lat="48.0681" lon="-0.66268">
        <ele>60</ele>
        <time>2018-04-08T09:51:59Z</time>
      </trkpt>
      <trkpt lat="48.06805" lon="-0.66293">
        <ele>60.1</ele>
        <time>2018-04-08T09:52:03Z</time>
      </trkpt>
      <trkpt lat="48.068" lon="-0.66316">
        <ele>60.1</ele>
        <time>2018-04-08T09:52:07Z</time>
      </trkpt>
      <trkpt lat="48.06796" lon="-0.66336">
        <ele>60.4</ele>
        <time>2018-04-08T09:52:11Z</time>
      </trkpt>
      <trkpt lat="48.06791" lon="-0.66352">
        <ele>60.4</ele>
        <time>2018-04-08T09:52:15Z</time>
      </trkpt>
      <trkpt lat="48.06782" lon="-0.66378">
        <ele>60.5</ele>
        <time>2018-04-08T09:52:19Z</time>
      </trkpt>
      <trkpt lat="48.06773" lon="-0.66392">
        <ele>60.6</ele>
        <time>2018-04-08T09:52:23Z</time>
      </trkpt>
      <trkpt lat="48.06763" lon="-0.66393">
        <ele>60.6</ele>
        <time>2018-04-08T09:52:27Z</time>
      </trkpt>
      <trkpt lat="48.06753" lon="-0.66379">
        <ele>60.4</ele>
        <time>2018-04-08T09:52:31Z</time>
      </trkpt>
      <trkpt lat="48.06745" lon="-0.66359">
        <ele>58.9</ele>
        <time>2018-04-08T09:52:35Z</time>
      </trkpt>
      <trkpt lat="48.06726" lon="-0.66354">
        <ele>58.7</ele>
        <time>2018-04-08T09:52:39Z</time>
      </trkpt>
      <trkpt lat="48.06704" lon="-0.6635">
        <ele>58.3</ele>
        <time>2018-04-08T09:52:43Z</time>
      </trkpt>
      <trkpt lat="48.06677" lon="-0.66347">
        <ele>57.7</ele>
        <time>2018-04-08T09:52:47Z</time>
      </trkpt>
      <trkpt lat="48.06651" lon="-0.66343">
        <ele>56.8</ele>
        <time>2018-04-08T09:52:51Z</time>
      </trkpt>
      <trkpt lat="48.06626" lon="-0.6634">
        <ele>56.7</ele>
        <time>2018-04-08T09:52:55Z</time>
      </trkpt>
      <trkpt lat="48.06606" lon="-0.66336">
        <ele>56.7</ele>
        <time>2018-04-08T09:52:59Z</time>
      </trkpt>
      <trkpt lat="48.06588" lon="-0.66332">
        <ele>57.1</ele>
        <time>2018-04-08T09:53:03Z</time>
      </trkpt>
      <trkpt lat="48.06572" lon="-0.66328">
        <ele>58.4</ele>
        <time>2018-04-08T09:53:07Z</time>
      </trkpt>
      <trkpt lat="48.06557" lon="-0.66327">
        <ele>59.3</ele>
        <time>2018-04-08T09:53:11Z</time>
      </trkpt>
      <trkpt lat="48.06542" lon="-0.66326">
        <ele>60</ele>
        <time>2018-04-08T09:53:15Z</time>
      </trkpt>
      <trkpt lat="48.06529" lon="-0.66324">
        <ele>60.4</ele>
        <time>2018-04-08T09:53:19Z</time>
      </trkpt>
      <trkpt lat="48.06516" lon="-0.66322">
        <ele>60.7</ele>
        <time>2018-04-08T09:53:23Z</time>
      </trkpt>
      <trkpt lat="48.06504" lon="-0.6632">
        <ele>60.9</ele>
        <time>2018-04-08T09:53:27Z</time>
      </trkpt>
      <trkpt lat="48.06493" lon="-0.66318">
        <ele>62.6</ele>
        <time>2018-04-08T09:53:31Z</time>
      </trkpt>
      <trkpt lat="48.06483" lon="-0.66317">
        <ele>63</ele>
        <time>2018-04-08T09:53:35Z</time>
      </trkpt>
      <trkpt lat="48.06472" lon="-0.66315">
        <ele>63.4</ele>
        <time>2018-04-08T09:53:39Z</time>
      </trkpt>
      <trkpt lat="48.06461" lon="-0.66314">
        <ele>63.8</ele>
        <time>2018-04-08T09:53:43Z</time>
      </trkpt>
      <trkpt lat="48.06449" lon="-0.66311">
        <ele>64</ele>
        <time>2018-04-08T09:53:47Z</time>
      </trkpt>
      <trkpt lat="48.06437" lon="-0.6631">
        <ele>64.2</ele>
        <time>2018-04-08T09:53:51Z</time>
      </trkpt>
      <trkpt lat="48.06424" lon="-0.66308">
        <ele>64.3</ele>
        <time>2018-04-08T09:53:55Z</time>
      </trkpt>
      <trkpt lat="48.0641" lon="-0.66306">
        <ele>64.5</ele>
        <time>2018-04-08T09:53:59Z</time>
      </trkpt>
      <trkpt lat="48.06395" lon="-0.66303">
        <ele>64.5</ele>
        <time>2018-04-08T09:54:03Z</time>
      </trkpt>
      <trkpt lat="48.06379" lon="-0.663">
        <ele>64.4</ele>
        <time>2018-04-08T09:54:07Z</time>
      </trkpt>
      <trkpt lat="48.06361" lon="-0.66298">
        <ele>64.2</ele>
        <time>2018-04-08T09:54:11Z</time>
      </trkpt>
      <trkpt lat="48.06341" lon="-0.66294">
        <ele>64.1</ele>
        <time>2018-04-08T09:54:15Z</time>
      </trkpt>
      <trkpt lat="48.06322" lon="-0.66292">
        <ele>63.8</ele>
        <time>2018-04-08T09:54:19Z</time>
      </trkpt>
      <trkpt lat="48.06303" lon="-0.66289">
        <ele>64</ele>
        <time>2018-04-08T09:54:23Z</time>
      </trkpt>
      <trkpt lat="48.06286" lon="-0.66286">
        <ele>64.1</ele>
        <time>2018-04-08T09:54:27Z</time>
      </trkpt>
      <trkpt lat="48.06272" lon="-0.66283">
        <ele>64.3</ele>
        <time>2018-04-08T09:54:31Z</time>
      </trkpt>
      <trkpt lat="48.06258" lon="-0.66282">
        <ele>64.4</ele>
        <time>2018-04-08T09:54:35Z</time>
      </trkpt>
      <trkpt lat="48.06245" lon="-0.6628">
        <ele>65.4</ele>
        <time>2018-04-08T09:54:39Z</time>
      </trkpt>
      <trkpt lat="48.06232" lon="-0.66278">
        <ele>65.6</ele>
        <time>2018-04-08T09:54:43Z</time>
      </trkpt>
      <trkpt lat="48.0622" lon="-0.66276">
        <ele>65.7</ele>
        <time>2018-04-08T09:54:47Z</time>
      </trkpt>
      <trkpt lat="48.06207" lon="-0.66273">
        <ele>65.9</ele>
        <time>2018-04-08T09:54:51Z</time>
      </trkpt>
      <trkpt lat="48.06196" lon="-0.6627">
        <ele>66.3</ele>
        <time>2018-04-08T09:54:55Z</time>
      </trkpt>
      <trkpt lat="48.06188" lon="-0.6626">
        <ele>66.9</ele>
        <time>2018-04-08T09:54:59Z</time>
      </trkpt>
      <trkpt lat="48.06182" lon="-0.66246">
        <ele>69.3</ele>
        <time>2018-04-08T09:55:03Z</time>
      </trkpt>
      <trkpt lat="48.06179" lon="-0.66232">
        <ele>69.5</ele>
        <time>2018-04-08T09:55:07Z</time>
      </trkpt>
      <trkpt lat="48.06175" lon="-0.66218">
        <ele>70</ele>
        <time>2018-04-08T09:55:11Z</time>
      </trkpt>
      <trkpt lat="48.06172" lon="-0.66203">
        <ele>70.6</ele>
        <time>2018-04-08T09:55:15Z</time>
      </trkpt>
      <trkpt lat="48.06169" lon="-0.66187">
        <ele>71.7</ele>
        <time>2018-04-08T09:55:19Z</time>
      </trkpt>
      <trkpt lat="48.06166" lon="-0.66172">
        <ele>74</ele>
        <time>2018-04-08T09:55:23Z</time>
      </trkpt>
      <trkpt lat="48.06163" lon="-0.66158">
        <ele>75.2</ele>
        <time>2018-04-08T09:55:27Z</time>
      </trkpt>
      <trkpt lat="48.0616" lon="-0.66144">
        <ele>76.3</ele>
        <time>2018-04-08T09:55:31Z</time>
      </trkpt>
      <trkpt lat="48.06157" lon="-0.66131">
        <ele>76.9</ele>
        <time>2018-04-08T09:55:35Z</time>
      </trkpt>
      <trkpt lat="48.06153" lon="-0.66117">
        <ele>77.2</ele>
        <time>2018-04-08T09:55:39Z</time>
      </trkpt>
      <trkpt lat="48.0615" lon="-0.66104">
        <ele>77.3</ele>
        <time>2018-04-08T09:55:43Z</time>
      </trkpt>
      <trkpt lat="48.06147" lon="-0.66092">
        <ele>77.3</ele>
        <time>2018-04-08T09:55:47Z</time>
      </trkpt>
      <trkpt lat="48.06144" lon="-0.66079">
        <ele>78.5</ele>
        <time>2018-04-08T09:55:51Z</time>
      </trkpt>
      <trkpt lat="48.0614" lon="-0.66067">
        <ele>79</ele>
        <time>2018-04-08T09:55:55Z</time>
      </trkpt>
      <trkpt lat="48.06137" lon="-0.66055">
        <ele>79.4</ele>
        <time>2018-04-08T09:55:59Z</time>
      </trkpt>
      <trkpt lat="48.06134" lon="-0.66042">
        <ele>79.7</ele>
        <time>2018-04-08T09:56:03Z</time>
      </trkpt>
      <trkpt lat="48.0613" lon="-0.66029">
        <ele>79.9</ele>
        <time>2018-04-08T09:56:07Z</time>
      </trkpt>
      <trkpt lat="48.06126" lon="-0.66015">
        <ele>80.2</ele>
        <time>2018-04-08T09:56:11Z</time>
      </trkpt>
      <trkpt lat="48.06121" lon="-0.66001">
        <ele>80.6</ele>
        <time>2018-04-08T09:56:15Z</time>
      </trkpt>
      <trkpt lat="48.06117" lon="-0.65986">
        <ele>81.6</ele>
        <time>2018-04-08T09:56:19Z</time>
      </trkpt>
      <trkpt lat="48.06113" lon="-0.65972">
        <ele>81.6</ele>
        <time>2018-04-08T09:56:23Z</time>
      </trkpt>
      <trkpt lat="48.06109" lon="-0.65957">
        <ele>81.7</ele>
        <time>2018-04-08T09:56:27Z</time>
      </trkpt>
      <trkpt lat="48.06104" lon="-0.65944">
        <ele>81.8</ele>
        <time>2018-04-08T09:56:31Z</time>
      </trkpt>
      <trkpt lat="48.06099" lon="-0.6593">
        <ele>82.1</ele>
        <time>2018-04-08T09:56:35Z</time>
      </trkpt>
      <trkpt lat="48.06095" lon="-0.65917">
        <ele>82.4</ele>
        <time>2018-04-08T09:56:39Z</time>
      </trkpt>
      <trkpt lat="48.06091" lon="-0.65904">
        <ele>82.9</ele>
        <time>2018-04-08T09:56:43Z</time>
      </trkpt>
      <trkpt lat="48.06086" lon="-0.65891">
        <ele>83</ele>
        <time>2018-04-08T09:56:47Z</time>
      </trkpt>
      <trkpt lat="48.06082" lon="-0.65879">
        <ele>85.5</ele>
        <time>2018-04-08T09:56:51Z</time>
      </trkpt>
      <trkpt lat="48.06078" lon="-0.65866">
        <ele>85.7</ele>
        <time>2018-04-08T09:56:55Z</time>
      </trkpt>
      <trkpt lat="48.06073" lon="-0.65852">
        <ele>85.7</ele>
        <time>2018-04-08T09:56:59Z</time>
      </trkpt>
      <trkpt lat="48.06069" lon="-0.65839">
        <ele>85.7</ele>
        <time>2018-04-08T09:57:03Z</time>
      </trkpt>
      <trkpt lat="48.06064" lon="-0.65825">
        <ele>85.8</ele>
        <time>2018-04-08T09:57:07Z</time>
      </trkpt>
      <trkpt lat="48.06059" lon="-0.6581">
        <ele>86</ele>
        <time>2018-04-08T09:57:11Z</time>
      </trkpt>
      <trkpt lat="48.06053" lon="-0.65793">
        <ele>86.1</ele>
        <time>2018-04-08T09:57:15Z</time>
      </trkpt>
      <trkpt lat="48.06047" lon="-0.65776">
        <ele>86.1</ele>
        <time>2018-04-08T09:57:19Z</time>
      </trkpt>
      <trkpt lat="48.06041" lon="-0.65758">
        <ele>86.2</ele>
        <time>2018-04-08T09:57:23Z</time>
      </trkpt>
      <trkpt lat="48.06035" lon="-0.6574">
        <ele>85.9</ele>
        <time>2018-04-08T09:57:27Z</time>
      </trkpt>
      <trkpt lat="48.06028" lon="-0.65719">
        <ele>85.9</ele>
        <time>2018-04-08T09:57:31Z</time>
      </trkpt>
      <trkpt lat="48.06022" lon="-0.65696">
        <ele>85.9</ele>
        <time>2018-04-08T09:57:35Z</time>
      </trkpt>
      <trkpt lat="48.06016" lon="-0.65667">
        <ele>85.9</ele>
        <time>2018-04-08T09:57:39Z</time>
      </trkpt>
      <trkpt lat="48.0601" lon="-0.65635">
        <ele>85.3</ele>
        <time>2018-04-08T09:57:43Z</time>
      </trkpt>
      <trkpt lat="48.06005" lon="-0.656">
        <ele>84.7</ele>
        <time>2018-04-08T09:57:47Z</time>
      </trkpt>
      <trkpt lat="48.05999" lon="-0.65564">
        <ele>83</ele>
        <time>2018-04-08T09:57:51Z</time>
      </trkpt>
      <trkpt lat="48.05996" lon="-0.65528">
        <ele>82.2</ele>
        <time>2018-04-08T09:57:55Z</time>
      </trkpt>
      <trkpt lat="48.05998" lon="-0.65491">
        <ele>81.5</ele>
        <time>2018-04-08T09:57:59Z</time>
      </trkpt>
      <trkpt lat="48.06" lon="-0.65456">
        <ele>82.4</ele>
        <time>2018-04-08T09:58:03Z</time>
      </trkpt>
      <trkpt lat="48.05998" lon="-0.65418">
        <ele>80.9</ele>
        <time>2018-04-08T09:58:07Z</time>
      </trkpt>
      <trkpt lat="48.05994" lon="-0.65379">
        <ele>79.1</ele>
        <time>2018-04-08T09:58:11Z</time>
      </trkpt>
      <trkpt lat="48.0599" lon="-0.65339">
        <ele>78.8</ele>
        <time>2018-04-08T09:58:15Z</time>
      </trkpt>
      <trkpt lat="48.05982" lon="-0.65299">
        <ele>78.1</ele>
        <time>2018-04-08T09:58:19Z</time>
      </trkpt>
      <trkpt lat="48.05973" lon="-0.6526">
        <ele>78.1</ele>
        <time>2018-04-08T09:58:23Z</time>
      </trkpt>
      <trkpt lat="48.05964" lon="-0.65223">
        <ele>78.5</ele>
        <time>2018-04-08T09:58:27Z</time>
      </trkpt>
      <trkpt lat="48.05957" lon="-0.65188">
        <ele>78.6</ele>
        <time>2018-04-08T09:58:31Z</time>
      </trkpt>
      <trkpt lat="48.05949" lon="-0.65155">
        <ele>79.3</ele>
        <time>2018-04-08T09:58:35Z</time>
      </trkpt>
      <trkpt lat="48.05942" lon="-0.65123">
        <ele>79.5</ele>
        <time>2018-04-08T09:58:39Z</time>
      </trkpt>
      <trkpt lat="48.05935" lon="-0.65091">
        <ele>79.7</ele>
        <time>2018-04-08T09:58:43Z</time>
      </trkpt>
      <trkpt lat="48.05928" lon="-0.65062">
        <ele>80</ele>
        <time>2018-04-08T09:58:47Z</time>
      </trkpt>
      <trkpt lat="48.05921" lon="-0.65034">
        <ele>80</ele>
        <time>2018-04-08T09:58:51Z</time>
      </trkpt>
      <trkpt lat="48.05915" lon="-0.65008">
        <ele>80.1</ele>
        <time>2018-04-08T09:58:55Z</time>
      </trkpt>
      <trkpt lat="48.05909" lon="-0.64983">
        <ele>80.4</ele>
        <time>2018-04-08T09:58:59Z</time>
      </trkpt>
      <trkpt lat="48.05904" lon="-0.6496">
        <ele>80.7</ele>
        <time>2018-04-08T09:59:03Z</time>
      </trkpt>
      <trkpt lat="48.05898" lon="-0.64937">
        <ele>80.8</ele>
        <time>2018-04-08T09:59:07Z</time>
      </trkpt>
      <trkpt lat="48.05893" lon="-0.64915">
        <ele>81.4</ele>
        <time>2018-04-08T09:59:11Z</time>
      </trkpt>
      <trkpt lat="48.05888" lon="-0.64894">
        <ele>81.6</ele>
        <time>2018-04-08T09:59:15Z</time>
      </trkpt>
      <trkpt lat="48.05884" lon="-0.64874">
        <ele>81.7</ele>
        <time>2018-04-08T09:59:19Z</time>
      </trkpt>
      <trkpt lat="48.05879" lon="-0.64856">
        <ele>81.9</ele>
        <time>2018-04-08T09:59:23Z</time>
      </trkpt>
      <trkpt lat="48.05875" lon="-0.64837">
        <ele>82</ele>
        <time>2018-04-08T09:59:27Z</time>
      </trkpt>
      <trkpt lat="48.0587" lon="-0.64818">
        <ele>82.5</ele>
        <time>2018-04-08T09:59:31Z</time>
      </trkpt>
      <trkpt lat="48.05864" lon="-0.64799">
        <ele>82.6</ele>
        <time>2018-04-08T09:59:35Z</time>
      </trkpt>
      <trkpt lat="48.05857" lon="-0.64781">
        <ele>82.6</ele>
        <time>2018-04-08T09:59:39Z</time>
      </trkpt>
      <trkpt lat="48.05851" lon="-0.64763">
        <ele>82.7</ele>
        <time>2018-04-08T09:59:43Z</time>
      </trkpt>
      <trkpt lat="48.05844" lon="-0.64746">
        <ele>82.7</ele>
        <time>2018-04-08T09:59:47Z</time>
      </trkpt>
      <trkpt lat="48.05837" lon="-0.6473">
        <ele>82.6</ele>
        <time>2018-04-08T09:59:51Z</time>
      </trkpt>
      <trkpt lat="48.05829" lon="-0.64715">
        <ele>82.9</ele>
        <time>2018-04-08T09:59:55Z</time>
      </trkpt>
      <trkpt lat="48.05821" lon="-0.647">
        <ele>82.8</ele>
        <time>2018-04-08T09:59:59Z</time>
      </trkpt>
      <trkpt lat="48.05814" lon="-0.64687">
        <ele>82.7</ele>
        <time>2018-04-08T10:00:03Z</time>
      </trkpt>
      <trkpt lat="48.05806" lon="-0.64675">
        <ele>82.8</ele>
        <time>2018-04-08T10:00:07Z</time>
      </trkpt>
      <trkpt lat="48.05795" lon="-0.64676">
        <ele>83</ele>
        <time>2018-04-08T10:00:11Z</time>
      </trkpt>
      <trkpt lat="48.05788" lon="-0.64692">
        <ele>83</ele>
        <time>2018-04-08T10:00:15Z</time>
      </trkpt>
      <trkpt lat="48.05781" lon="-0.64709">
        <ele>83.1</ele>
        <time>2018-04-08T10:00:19Z</time>
      </trkpt>
      <trkpt lat="48.05774" lon="-0.64727">
        <ele>83</ele>
        <time>2018-04-08T10:00:23Z</time>
      </trkpt>
      <trkpt lat="48.05766" lon="-0.64747">
        <ele>83</ele>
        <time>2018-04-08T10:00:27Z</time>
      </trkpt>
      <trkpt lat="48.05757" lon="-0.64768">
        <ele>83</ele>
        <time>2018-04-08T10:00:31Z</time>
      </trkpt>
      <trkpt lat="48.05748" lon="-0.64788">
        <ele>82.5</ele>
        <time>2018-04-08T10:00:35Z</time>
      </trkpt>
      <trkpt lat="48.05738" lon="-0.64807">
        <ele>82.5</ele>
        <time>2018-04-08T10:00:39Z</time>
      </trkpt>
      <trkpt lat="48.05729" lon="-0.64826">
        <ele>82.5</ele>
        <time>2018-04-08T10:00:43Z</time>
      </trkpt>
      <trkpt lat="48.0572" lon="-0.64844">
        <ele>81.7</ele>
        <time>2018-04-08T10:00:47Z</time>
      </trkpt>
      <trkpt lat="48.05712" lon="-0.64862">
        <ele>81.4</ele>
        <time>2018-04-08T10:00:51Z</time>
      </trkpt>
      <trkpt lat="48.05704" lon="-0.64881">
        <ele>81.2</ele>
        <time>2018-04-08T10:00:55Z</time>
      </trkpt>
      <trkpt lat="48.05695" lon="-0.64901">
        <ele>80.9</ele>
        <time>2018-04-08T10:00:59Z</time>
      </trkpt>
      <trkpt lat="48.05685" lon="-0.64924">
        <ele>80</ele>
        <time>2018-04-08T10:01:03Z</time>
      </trkpt>
      <trkpt lat="48.05672" lon="-0.64936">
        <ele>79.8</ele>
        <time>2018-04-08T10:01:07Z</time>
      </trkpt>
      <trkpt lat="48.05654" lon="-0.64936">
        <ele>78.6</ele>
        <time>2018-04-08T10:01:11Z</time>
      </trkpt>
      <trkpt lat="48.05636" lon="-0.64931">
        <ele>78.3</ele>
        <time>2018-04-08T10:01:15Z</time>
      </trkpt>
      <trkpt lat="48.05622" lon="-0.6492">
        <ele>78.2</ele>
        <time>2018-04-08T10:01:19Z</time>
      </trkpt>
      <trkpt lat="48.05607" lon="-0.64913">
        <ele>78.8</ele>
        <time>2018-04-08T10:01:23Z</time>
      </trkpt>
      <trkpt lat="48.05593" lon="-0.64903">
        <ele>78.6</ele>
        <time>2018-04-08T10:01:27Z</time>
      </trkpt>
      <trkpt lat="48.05578" lon="-0.64893">
        <ele>77.3</ele>
        <time>2018-04-08T10:01:31Z</time>
      </trkpt>
      <trkpt lat="48.05564" lon="-0.64882">
        <ele>77.1</ele>
        <time>2018-04-08T10:01:35Z</time>
      </trkpt>
      <trkpt lat="48.05548" lon="-0.64873">
        <ele>76.9</ele>
        <time>2018-04-08T10:01:39Z</time>
      </trkpt>
      <trkpt lat="48.05531" lon="-0.64861">
        <ele>76.6</ele>
        <time>2018-04-08T10:01:43Z</time>
      </trkpt>
      <trkpt lat="48.05514" lon="-0.64852">
        <ele>76.4</ele>
        <time>2018-04-08T10:01:47Z</time>
      </trkpt>
      <trkpt lat="48.05493" lon="-0.64852">
        <ele>75.8</ele>
        <time>2018-04-08T10:01:51Z</time>
      </trkpt>
      <trkpt lat="48.05476" lon="-0.6484">
        <ele>75.8</ele>
        <time>2018-04-08T10:01:55Z</time>
      </trkpt>
      <trkpt lat="48.05459" lon="-0.64833">
        <ele>76.5</ele>
        <time>2018-04-08T10:01:59Z</time>
      </trkpt>
      <trkpt lat="48.05445" lon="-0.64832">
        <ele>76.4</ele>
        <time>2018-04-08T10:02:03Z</time>
      </trkpt>
      <trkpt lat="48.05431" lon="-0.64827">
        <ele>76.4</ele>
        <time>2018-04-08T10:02:07Z</time>
      </trkpt>
      <trkpt lat="48.05421" lon="-0.64819">
        <ele>76.4</ele>
        <time>2018-04-08T10:02:11Z</time>
      </trkpt>
      <trkpt lat="48.05415" lon="-0.64816">
        <ele>76.8</ele>
        <time>2018-04-08T10:02:15Z</time>
      </trkpt>
      <trkpt lat="48.05409" lon="-0.64812">
        <ele>76.9</ele>
        <time>2018-04-08T10:02:19Z</time>
      </trkpt>
      <trkpt lat="48.05404" lon="-0.64811">
        <ele>77</ele>
        <time>2018-04-08T10:02:23Z</time>
      </trkpt>
      <trkpt lat="48.05399" lon="-0.64807">
        <ele>77.1</ele>
        <time>2018-04-08T10:02:27Z</time>
      </trkpt>
      <trkpt lat="48.05394" lon="-0.648">
        <ele>77.3</ele>
        <time>2018-04-08T10:02:31Z</time>
      </trkpt>
      <trkpt lat="48.05389" lon="-0.64796">
        <ele>77.4</ele>
        <time>2018-04-08T10:02:35Z</time>
      </trkpt>
      <trkpt lat="48.05386" lon="-0.64792">
        <ele>77.4</ele>
        <time>2018-04-08T10:02:39Z</time>
      </trkpt>
      <trkpt lat="48.05383" lon="-0.64788">
        <ele>77.5</ele>
        <time>2018-04-08T10:02:43Z</time>
      </trkpt>
      <trkpt lat="48.05378" lon="-0.6478">
        <ele>77.6</ele>
        <time>2018-04-08T10:02:51Z</time>
      </trkpt>
      <trkpt lat="48.05375" lon="-0.64774">
        <ele>77.7</ele>
        <time>2018-04-08T10:02:55Z</time>
      </trkpt>
      <trkpt lat="48.0537" lon="-0.64769">
        <ele>77.8</ele>
        <time>2018-04-08T10:02:59Z</time>
      </trkpt>
      <trkpt lat="48.05366" lon="-0.64764">
        <ele>77.9</ele>
        <time>2018-04-08T10:03:03Z</time>
      </trkpt>
      <trkpt lat="48.0536" lon="-0.64756">
        <ele>78</ele>
        <time>2018-04-08T10:03:07Z</time>
      </trkpt>
      <trkpt lat="48.05355" lon="-0.64743">
        <ele>78.9</ele>
        <time>2018-04-08T10:03:11Z</time>
      </trkpt>
      <trkpt lat="48.05346" lon="-0.64731">
        <ele>79</ele>
        <time>2018-04-08T10:03:15Z</time>
      </trkpt>
      <trkpt lat="48.05337" lon="-0.6472">
        <ele>79</ele>
        <time>2018-04-08T10:03:19Z</time>
      </trkpt>
      <trkpt lat="48.05331" lon="-0.64708">
        <ele>78.4</ele>
        <time>2018-04-08T10:03:23Z</time>
      </trkpt>
      <trkpt lat="48.05326" lon="-0.64697">
        <ele>78.4</ele>
        <time>2018-04-08T10:03:27Z</time>
      </trkpt>
      <trkpt lat="48.0532" lon="-0.6469">
        <ele>78.4</ele>
        <time>2018-04-08T10:03:31Z</time>
      </trkpt>
      <trkpt lat="48.05313" lon="-0.64684">
        <ele>78.3</ele>
        <time>2018-04-08T10:03:35Z</time>
      </trkpt>
      <trkpt lat="48.05306" lon="-0.64678">
        <ele>78.2</ele>
        <time>2018-04-08T10:03:39Z</time>
      </trkpt>
      <trkpt lat="48.05299" lon="-0.64677">
        <ele>78.1</ele>
        <time>2018-04-08T10:03:43Z</time>
      </trkpt>
      <trkpt lat="48.05292" lon="-0.64676">
        <ele>78</ele>
        <time>2018-04-08T10:03:47Z</time>
      </trkpt>
      <trkpt lat="48.05281" lon="-0.64676">
        <ele>77.8</ele>
        <time>2018-04-08T10:03:51Z</time>
      </trkpt>
      <trkpt lat="48.05274" lon="-0.64677">
        <ele>77.7</ele>
        <time>2018-04-08T10:03:55Z</time>
      </trkpt>
      <trkpt lat="48.05267" lon="-0.64677">
        <ele>77.6</ele>
        <time>2018-04-08T10:03:59Z</time>
      </trkpt>
      <trkpt lat="48.0526" lon="-0.64676">
        <ele>77.4</ele>
        <time>2018-04-08T10:04:03Z</time>
      </trkpt>
      <trkpt lat="48.05252" lon="-0.64673">
        <ele>77.2</ele>
        <time>2018-04-08T10:04:07Z</time>
      </trkpt>
      <trkpt lat="48.05245" lon="-0.6467">
        <ele>77.3</ele>
        <time>2018-04-08T10:04:11Z</time>
      </trkpt>
      <trkpt lat="48.05238" lon="-0.64667">
        <ele>77.9</ele>
        <time>2018-04-08T10:04:15Z</time>
      </trkpt>
      <trkpt lat="48.05233" lon="-0.64665">
        <ele>78.2</ele>
        <time>2018-04-08T10:04:19Z</time>
      </trkpt>
      <trkpt lat="48.05228" lon="-0.64665">
        <ele>78.5</ele>
        <time>2018-04-08T10:04:23Z</time>
      </trkpt>
      <trkpt lat="48.05222" lon="-0.64664">
        <ele>78.7</ele>
        <time>2018-04-08T10:04:27Z</time>
      </trkpt>
      <trkpt lat="48.05216" lon="-0.64663">
        <ele>78.9</ele>
        <time>2018-04-08T10:04:31Z</time>
      </trkpt>
      <trkpt lat="48.0521" lon="-0.64662">
        <ele>79.1</ele>
        <time>2018-04-08T10:04:35Z</time>
      </trkpt>
      <trkpt lat="48.05203" lon="-0.64659">
        <ele>79.3</ele>
        <time>2018-04-08T10:04:39Z</time>
      </trkpt>
      <trkpt lat="48.05199" lon="-0.64657">
        <ele>79.4</ele>
        <time>2018-04-08T10:04:43Z</time>
      </trkpt>
      <trkpt lat="48.05192" lon="-0.64655">
        <ele>79.5</ele>
        <time>2018-04-08T10:04:47Z</time>
      </trkpt>
      <trkpt lat="48.05186" lon="-0.64652">
        <ele>79.7</ele>
        <time>2018-04-08T10:04:51Z</time>
      </trkpt>
      <trkpt lat="48.0518" lon="-0.64649">
        <ele>79.7</ele>
        <time>2018-04-08T10:04:55Z</time>
      </trkpt>
      <trkpt lat="48.05171" lon="-0.64648">
        <ele>79.8</ele>
        <time>2018-04-08T10:04:59Z</time>
      </trkpt>
      <trkpt lat="48.05165" lon="-0.64646">
        <ele>81</ele>
        <time>2018-04-08T10:05:03Z</time>
      </trkpt>
      <trkpt lat="48.05156" lon="-0.64641">
        <ele>81.2</ele>
        <time>2018-04-08T10:05:07Z</time>
      </trkpt>
      <trkpt lat="48.05148" lon="-0.64637">
        <ele>81.4</ele>
        <time>2018-04-08T10:05:11Z</time>
      </trkpt>
      <trkpt lat="48.05141" lon="-0.64633">
        <ele>81.5</ele>
        <time>2018-04-08T10:05:15Z</time>
      </trkpt>
      <trkpt lat="48.05135" lon="-0.64631">
        <ele>81.6</ele>
        <time>2018-04-08T10:05:19Z</time>
      </trkpt>
      <trkpt lat="48.05128" lon="-0.64629">
        <ele>81.7</ele>
        <time>2018-04-08T10:05:23Z</time>
      </trkpt>
      <trkpt lat="48.05123" lon="-0.64625">
        <ele>81.8</ele>
        <time>2018-04-08T10:05:27Z</time>
      </trkpt>
      <trkpt lat="48.05117" lon="-0.64622">
        <ele>81.9</ele>
        <time>2018-04-08T10:05:31Z</time>
      </trkpt>
      <trkpt lat="48.05112" lon="-0.64622">
        <ele>81.9</ele>
        <time>2018-04-08T10:05:35Z</time>
      </trkpt>
      <trkpt lat="48.05107" lon="-0.64621">
        <ele>81.9</ele>
        <time>2018-04-08T10:05:43Z</time>
      </trkpt>
      <trkpt lat="48.05101" lon="-0.64617">
        <ele>82</ele>
        <time>2018-04-08T10:05:47Z</time>
      </trkpt>
      <trkpt lat="48.05094" lon="-0.64613">
        <ele>82.1</ele>
        <time>2018-04-08T10:05:51Z</time>
      </trkpt>
      <trkpt lat="48.05088" lon="-0.64613">
        <ele>82.2</ele>
        <time>2018-04-08T10:05:55Z</time>
      </trkpt>
      <trkpt lat="48.05082" lon="-0.64611">
        <ele>83</ele>
        <time>2018-04-08T10:05:59Z</time>
      </trkpt>
      <trkpt lat="48.05079" lon="-0.64613">
        <ele>83</ele>
        <time>2018-04-08T10:06:03Z</time>
      </trkpt>
      <trkpt lat="48.05074" lon="-0.64612">
        <ele>83.1</ele>
        <time>2018-04-08T10:06:07Z</time>
      </trkpt>
      <trkpt lat="48.05068" lon="-0.64611">
        <ele>83.1</ele>
        <time>2018-04-08T10:06:11Z</time>
      </trkpt>
      <trkpt lat="48.05061" lon="-0.64612">
        <ele>83.1</ele>
        <time>2018-04-08T10:06:15Z</time>
      </trkpt>
      <trkpt lat="48.05054" lon="-0.64611">
        <ele>83.2</ele>
        <time>2018-04-08T10:06:19Z</time>
      </trkpt>
      <trkpt lat="48.05047" lon="-0.64612">
        <ele>83.2</ele>
        <time>2018-04-08T10:06:23Z</time>
      </trkpt>
      <trkpt lat="48.0504" lon="-0.64614">
        <ele>83.3</ele>
        <time>2018-04-08T10:06:27Z</time>
      </trkpt>
      <trkpt lat="48.05033" lon="-0.64614">
        <ele>83.4</ele>
        <time>2018-04-08T10:06:31Z</time>
      </trkpt>
      <trkpt lat="48.05026" lon="-0.64615">
        <ele>83.4</ele>
        <time>2018-04-08T10:06:35Z</time>
      </trkpt>
      <trkpt lat="48.0502" lon="-0.64615">
        <ele>83.5</ele>
        <time>2018-04-08T10:06:39Z</time>
      </trkpt>
      <trkpt lat="48.05013" lon="-0.64617">
        <ele>83.5</ele>
        <time>2018-04-08T10:06:43Z</time>
      </trkpt>
      <trkpt lat="48.05006" lon="-0.64618">
        <ele>83.5</ele>
        <time>2018-04-08T10:06:47Z</time>
      </trkpt>
      <trkpt lat="48.04999" lon="-0.6462">
        <ele>84.3</ele>
        <time>2018-04-08T10:06:51Z</time>
      </trkpt>
      <trkpt lat="48.04992" lon="-0.6462">
        <ele>84.3</ele>
        <time>2018-04-08T10:06:55Z</time>
      </trkpt>
      <trkpt lat="48.04986" lon="-0.6462">
        <ele>84.3</ele>
        <time>2018-04-08T10:06:59Z</time>
      </trkpt>
      <trkpt lat="48.04981" lon="-0.6462">
        <ele>84.4</ele>
        <time>2018-04-08T10:07:03Z</time>
      </trkpt>
      <trkpt lat="48.04973" lon="-0.64621">
        <ele>84.4</ele>
        <time>2018-04-08T10:07:07Z</time>
      </trkpt>
      <trkpt lat="48.04966" lon="-0.64621">
        <ele>84.5</ele>
        <time>2018-04-08T10:07:11Z</time>
      </trkpt>
      <trkpt lat="48.04959" lon="-0.64623">
        <ele>84.5</ele>
        <time>2018-04-08T10:07:15Z</time>
      </trkpt>
      <trkpt lat="48.04953" lon="-0.64623">
        <ele>84.5</ele>
        <time>2018-04-08T10:07:19Z</time>
      </trkpt>
      <trkpt lat="48.04947" lon="-0.64624">
        <ele>84.6</ele>
        <time>2018-04-08T10:07:23Z</time>
      </trkpt>
      <trkpt lat="48.04939" lon="-0.64627">
        <ele>84.6</ele>
        <time>2018-04-08T10:07:27Z</time>
      </trkpt>
      <trkpt lat="48.04931" lon="-0.64628">
        <ele>84.6</ele>
        <time>2018-04-08T10:07:31Z</time>
      </trkpt>
      <trkpt lat="48.04924" lon="-0.64629">
        <ele>84.7</ele>
        <time>2018-04-08T10:07:35Z</time>
      </trkpt>
      <trkpt lat="48.04917" lon="-0.64631">
        <ele>84.7</ele>
        <time>2018-04-08T10:07:39Z</time>
      </trkpt>
      <trkpt lat="48.0491" lon="-0.64632">
        <ele>86</ele>
        <time>2018-04-08T10:07:43Z</time>
      </trkpt>
      <trkpt lat="48.04902" lon="-0.64633">
        <ele>86</ele>
        <time>2018-04-08T10:07:47Z</time>
      </trkpt>
      <trkpt lat="48.04896" lon="-0.64634">
        <ele>86.1</ele>
        <time>2018-04-08T10:07:51Z</time>
      </trkpt>
      <trkpt lat="48.0489" lon="-0.64636">
        <ele>86.2</ele>
        <time>2018-04-08T10:07:55Z</time>
      </trkpt>
      <trkpt lat="48.04883" lon="-0.64639">
        <ele>86.4</ele>
        <time>2018-04-08T10:07:59Z</time>
      </trkpt>
      <trkpt lat="48.04877" lon="-0.64644">
        <ele>86.5</ele>
        <time>2018-04-08T10:08:03Z</time>
      </trkpt>
      <trkpt lat="48.04871" lon="-0.64643">
        <ele>86.6</ele>
        <time>2018-04-08T10:08:07Z</time>
      </trkpt>
      <trkpt lat="48.04865" lon="-0.64641">
        <ele>86.7</ele>
        <time>2018-04-08T10:08:11Z</time>
      </trkpt>
      <trkpt lat="48.04859" lon="-0.64641">
        <ele>86.8</ele>
        <time>2018-04-08T10:08:15Z</time>
      </trkpt>
      <trkpt lat="48.04851" lon="-0.64643">
        <ele>87</ele>
        <time>2018-04-08T10:08:19Z</time>
      </trkpt>
      <trkpt lat="48.04842" lon="-0.64644">
        <ele>87.1</ele>
        <time>2018-04-08T10:08:23Z</time>
      </trkpt>
      <trkpt lat="48.04833" lon="-0.64645">
        <ele>88.8</ele>
        <time>2018-04-08T10:08:27Z</time>
      </trkpt>
      <trkpt lat="48.04825" lon="-0.64647">
        <ele>88.8</ele>
        <time>2018-04-08T10:08:31Z</time>
      </trkpt>
      <trkpt lat="48.04815" lon="-0.64648">
        <ele>89</ele>
        <time>2018-04-08T10:08:35Z</time>
      </trkpt>
      <trkpt lat="48.04806" lon="-0.64649">
        <ele>89.2</ele>
        <time>2018-04-08T10:08:39Z</time>
      </trkpt>
      <trkpt lat="48.04796" lon="-0.64651">
        <ele>89.4</ele>
        <time>2018-04-08T10:08:43Z</time>
      </trkpt>
      <trkpt lat="48.04785" lon="-0.64652">
        <ele>89.7</ele>
        <time>2018-04-08T10:08:47Z</time>
      </trkpt>
      <trkpt lat="48.04774" lon="-0.64653">
        <ele>89.9</ele>
        <time>2018-04-08T10:08:51Z</time>
      </trkpt>
      <trkpt lat="48.04763" lon="-0.64654">
        <ele>90.2</ele>
        <time>2018-04-08T10:08:55Z</time>
      </trkpt>
      <trkpt lat="48.04753" lon="-0.64655">
        <ele>90.5</ele>
        <time>2018-04-08T10:08:59Z</time>
      </trkpt>
      <trkpt lat="48.04743" lon="-0.64655">
        <ele>91.5</ele>
        <time>2018-04-08T10:09:03Z</time>
      </trkpt>
      <trkpt lat="48.04731" lon="-0.64654">
        <ele>91.7</ele>
        <time>2018-04-08T10:09:07Z</time>
      </trkpt>
      <trkpt lat="48.04721" lon="-0.64653">
        <ele>92</ele>
        <time>2018-04-08T10:09:11Z</time>
      </trkpt>
      <trkpt lat="48.0471" lon="-0.64653">
        <ele>92.2</ele>
        <time>2018-04-08T10:09:15Z</time>
      </trkpt>
      <trkpt lat="48.04697" lon="-0.64652">
        <ele>92.4</ele>
        <time>2018-04-08T10:09:19Z</time>
      </trkpt>
      <trkpt lat="48.04685" lon="-0.64651">
        <ele>92.5</ele>
        <time>2018-04-08T10:09:23Z</time>
      </trkpt>
      <trkpt lat="48.04674" lon="-0.6465">
        <ele>92.7</ele>
        <time>2018-04-08T10:09:27Z</time>
      </trkpt>
      <trkpt lat="48.04664" lon="-0.64649">
        <ele>92.9</ele>
        <time>2018-04-08T10:09:31Z</time>
      </trkpt>
      <trkpt lat="48.04655" lon="-0.64649">
        <ele>92.9</ele>
        <time>2018-04-08T10:09:35Z</time>
      </trkpt>
      <trkpt lat="48.04642" lon="-0.6465">
        <ele>92.8</ele>
        <time>2018-04-08T10:09:39Z</time>
      </trkpt>
      <trkpt lat="48.04629" lon="-0.64648">
        <ele>92.7</ele>
        <time>2018-04-08T10:09:43Z</time>
      </trkpt>
      <trkpt lat="48.04616" lon="-0.64648">
        <ele>92.6</ele>
        <time>2018-04-08T10:09:47Z</time>
      </trkpt>
      <trkpt lat="48.04604" lon="-0.64647">
        <ele>92.5</ele>
        <time>2018-04-08T10:09:51Z</time>
      </trkpt>
      <trkpt lat="48.0459" lon="-0.64649">
        <ele>92.4</ele>
        <time>2018-04-08T10:09:55Z</time>
      </trkpt>
      <trkpt lat="48.04577" lon="-0.6465">
        <ele>92.2</ele>
        <time>2018-04-08T10:09:59Z</time>
      </trkpt>
      <trkpt lat="48.04563" lon="-0.64651">
        <ele>92.3</ele>
        <time>2018-04-08T10:10:03Z</time>
      </trkpt>
      <trkpt lat="48.0455" lon="-0.64651">
        <ele>92.4</ele>
        <time>2018-04-08T10:10:07Z</time>
      </trkpt>
      <trkpt lat="48.04539" lon="-0.64657">
        <ele>92.5</ele>
        <time>2018-04-08T10:10:11Z</time>
      </trkpt>
      <trkpt lat="48.04535" lon="-0.64668">
        <ele>92.9</ele>
        <time>2018-04-08T10:10:15Z</time>
      </trkpt>
      <trkpt lat="48.04534" lon="-0.64684">
        <ele>92.9</ele>
        <time>2018-04-08T10:10:19Z</time>
      </trkpt>
      <trkpt lat="48.04533" lon="-0.647">
        <ele>93</ele>
        <time>2018-04-08T10:10:23Z</time>
      </trkpt>
      <trkpt lat="48.04532" lon="-0.64715">
        <ele>93.1</ele>
        <time>2018-04-08T10:10:27Z</time>
      </trkpt>
      <trkpt lat="48.0453" lon="-0.6473">
        <ele>93.2</ele>
        <time>2018-04-08T10:10:31Z</time>
      </trkpt>
      <trkpt lat="48.04529" lon="-0.64745">
        <ele>93.3</ele>
        <time>2018-04-08T10:10:35Z</time>
      </trkpt>
      <trkpt lat="48.04528" lon="-0.64759">
        <ele>94.1</ele>
        <time>2018-04-08T10:10:39Z</time>
      </trkpt>
      <trkpt lat="48.04526" lon="-0.64774">
        <ele>94.2</ele>
        <time>2018-04-08T10:10:43Z</time>
      </trkpt>
      <trkpt lat="48.04525" lon="-0.64788">
        <ele>94.3</ele>
        <time>2018-04-08T10:10:47Z</time>
      </trkpt>
      <trkpt lat="48.04524" lon="-0.64802">
        <ele>94.4</ele>
        <time>2018-04-08T10:10:51Z</time>
      </trkpt>
      <trkpt lat="48.04521" lon="-0.64816">
        <ele>94.5</ele>
        <time>2018-04-08T10:10:55Z</time>
      </trkpt>
      <trkpt lat="48.04518" lon="-0.6483">
        <ele>94.7</ele>
        <time>2018-04-08T10:10:59Z</time>
      </trkpt>
      <trkpt lat="48.04516" lon="-0.64844">
        <ele>94.7</ele>
        <time>2018-04-08T10:11:03Z</time>
      </trkpt>
      <trkpt lat="48.04511" lon="-0.64856">
        <ele>94.7</ele>
        <time>2018-04-08T10:11:07Z</time>
      </trkpt>
      <trkpt lat="48.04506" lon="-0.64868">
        <ele>94.6</ele>
        <time>2018-04-08T10:11:11Z</time>
      </trkpt>
      <trkpt lat="48.04502" lon="-0.6488">
        <ele>94.5</ele>
        <time>2018-04-08T10:11:15Z</time>
      </trkpt>
      <trkpt lat="48.04496" lon="-0.64892">
        <ele>93.7</ele>
        <time>2018-04-08T10:11:19Z</time>
      </trkpt>
      <trkpt lat="48.0449" lon="-0.64906">
        <ele>93.7</ele>
        <time>2018-04-08T10:11:23Z</time>
      </trkpt>
      <trkpt lat="48.04483" lon="-0.64922">
        <ele>93.5</ele>
        <time>2018-04-08T10:11:27Z</time>
      </trkpt>
      <trkpt lat="48.04476" lon="-0.64939">
        <ele>93.3</ele>
        <time>2018-04-08T10:11:31Z</time>
      </trkpt>
      <trkpt lat="48.04469" lon="-0.64956">
        <ele>93.1</ele>
        <time>2018-04-08T10:11:35Z</time>
      </trkpt>
      <trkpt lat="48.0446" lon="-0.64976">
        <ele>93</ele>
        <time>2018-04-08T10:11:39Z</time>
      </trkpt>
      <trkpt lat="48.04452" lon="-0.64995">
        <ele>92.9</ele>
        <time>2018-04-08T10:11:43Z</time>
      </trkpt>
      <trkpt lat="48.04443" lon="-0.65015">
        <ele>92.8</ele>
        <time>2018-04-08T10:11:47Z</time>
      </trkpt>
      <trkpt lat="48.04434" lon="-0.65036">
        <ele>92.7</ele>
        <time>2018-04-08T10:11:51Z</time>
      </trkpt>
      <trkpt lat="48.04424" lon="-0.65058">
        <ele>92.6</ele>
        <time>2018-04-08T10:11:55Z</time>
      </trkpt>
      <trkpt lat="48.04415" lon="-0.6508">
        <ele>91.9</ele>
        <time>2018-04-08T10:11:59Z</time>
      </trkpt>
      <trkpt lat="48.04405" lon="-0.65102">
        <ele>91.4</ele>
        <time>2018-04-08T10:12:03Z</time>
      </trkpt>
      <trkpt lat="48.04397" lon="-0.65126">
        <ele>91.2</ele>
        <time>2018-04-08T10:12:07Z</time>
      </trkpt>
      <trkpt lat="48.04389" lon="-0.6515">
        <ele>91.2</ele>
        <time>2018-04-08T10:12:11Z</time>
      </trkpt>
      <trkpt lat="48.04382" lon="-0.65175">
        <ele>91.1</ele>
        <time>2018-04-08T10:12:15Z</time>
      </trkpt>
      <trkpt lat="48.04376" lon="-0.65199">
        <ele>91</ele>
        <time>2018-04-08T10:12:19Z</time>
      </trkpt>
      <trkpt lat="48.0437" lon="-0.65223">
        <ele>90.9</ele>
        <time>2018-04-08T10:12:23Z</time>
      </trkpt>
      <trkpt lat="48.04363" lon="-0.65249">
        <ele>90.8</ele>
        <time>2018-04-08T10:12:27Z</time>
      </trkpt>
      <trkpt lat="48.04357" lon="-0.65276">
        <ele>90</ele>
        <time>2018-04-08T10:12:31Z</time>
      </trkpt>
      <trkpt lat="48.0435" lon="-0.65303">
        <ele>89.5</ele>
        <time>2018-04-08T10:12:35Z</time>
      </trkpt>
      <trkpt lat="48.04342" lon="-0.65331">
        <ele>88.6</ele>
        <time>2018-04-08T10:12:39Z</time>
      </trkpt>
      <trkpt lat="48.04336" lon="-0.6536">
        <ele>88.1</ele>
        <time>2018-04-08T10:12:43Z</time>
      </trkpt>
      <trkpt lat="48.04334" lon="-0.65393">
        <ele>87.7</ele>
        <time>2018-04-08T10:12:47Z</time>
      </trkpt>
      <trkpt lat="48.04333" lon="-0.65427">
        <ele>86.3</ele>
        <time>2018-04-08T10:12:51Z</time>
      </trkpt>
      <trkpt lat="48.0433" lon="-0.65462">
        <ele>85.3</ele>
        <time>2018-04-08T10:12:55Z</time>
      </trkpt>
      <trkpt lat="48.04327" lon="-0.65496">
        <ele>85</ele>
        <time>2018-04-08T10:12:59Z</time>
      </trkpt>
      <trkpt lat="48.04324" lon="-0.65531">
        <ele>84.4</ele>
        <time>2018-04-08T10:13:03Z</time>
      </trkpt>
      <trkpt lat="48.04321" lon="-0.65564">
        <ele>84.2</ele>
        <time>2018-04-08T10:13:07Z</time>
      </trkpt>
      <trkpt lat="48.04319" lon="-0.65597">
        <ele>83.7</ele>
        <time>2018-04-08T10:13:11Z</time>
      </trkpt>
      <trkpt lat="48.04319" lon="-0.65632">
        <ele>83.3</ele>
        <time>2018-04-08T10:13:15Z</time>
      </trkpt>
      <trkpt lat="48.04321" lon="-0.65664">
        <ele>82.6</ele>
        <time>2018-04-08T10:13:19Z</time>
      </trkpt>
      <trkpt lat="48.04328" lon="-0.65696">
        <ele>82.5</ele>
        <time>2018-04-08T10:13:23Z</time>
      </trkpt>
      <trkpt lat="48.04337" lon="-0.65724">
        <ele>83</ele>
        <time>2018-04-08T10:13:27Z</time>
      </trkpt>
      <trkpt lat="48.04347" lon="-0.65751">
        <ele>82.6</ele>
        <time>2018-04-08T10:13:31Z</time>
      </trkpt>
      <trkpt lat="48.04356" lon="-0.65777">
        <ele>83.1</ele>
        <time>2018-04-08T10:13:35Z</time>
      </trkpt>
      <trkpt lat="48.04365" lon="-0.65802">
        <ele>83.3</ele>
        <time>2018-04-08T10:13:39Z</time>
      </trkpt>
      <trkpt lat="48.04373" lon="-0.65826">
        <ele>83.5</ele>
        <time>2018-04-08T10:13:43Z</time>
      </trkpt>
      <trkpt lat="48.04382" lon="-0.65849">
        <ele>83.7</ele>
        <time>2018-04-08T10:13:47Z</time>
      </trkpt>
      <trkpt lat="48.0439" lon="-0.65871">
        <ele>83.8</ele>
        <time>2018-04-08T10:13:51Z</time>
      </trkpt>
      <trkpt lat="48.04398" lon="-0.65892">
        <ele>84</ele>
        <time>2018-04-08T10:13:55Z</time>
      </trkpt>
      <trkpt lat="48.04406" lon="-0.65914">
        <ele>84.4</ele>
        <time>2018-04-08T10:13:59Z</time>
      </trkpt>
      <trkpt lat="48.04414" lon="-0.65936">
        <ele>84.1</ele>
        <time>2018-04-08T10:14:03Z</time>
      </trkpt>
      <trkpt lat="48.04423" lon="-0.65957">
        <ele>84.2</ele>
        <time>2018-04-08T10:14:07Z</time>
      </trkpt>
      <trkpt lat="48.04431" lon="-0.65978">
        <ele>84</ele>
        <time>2018-04-08T10:14:11Z</time>
      </trkpt>
      <trkpt lat="48.04438" lon="-0.65999">
        <ele>83.9</ele>
        <time>2018-04-08T10:14:15Z</time>
      </trkpt>
      <trkpt lat="48.04447" lon="-0.66022">
        <ele>83.6</ele>
        <time>2018-04-08T10:14:19Z</time>
      </trkpt>
      <trkpt lat="48.04454" lon="-0.66044">
        <ele>83.5</ele>
        <time>2018-04-08T10:14:23Z</time>
      </trkpt>
      <trkpt lat="48.04462" lon="-0.66063">
        <ele>83.5</ele>
        <time>2018-04-08T10:14:27Z</time>
      </trkpt>
      <trkpt lat="48.04469" lon="-0.66083">
        <ele>83.4</ele>
        <time>2018-04-08T10:14:31Z</time>
      </trkpt>
      <trkpt lat="48.04476" lon="-0.66102">
        <ele>83</ele>
        <time>2018-04-08T10:14:35Z</time>
      </trkpt>
      <trkpt lat="48.04475" lon="-0.66121">
        <ele>82.9</ele>
        <time>2018-04-08T10:14:39Z</time>
      </trkpt>
      <trkpt lat="48.04478" lon="-0.66137">
        <ele>82.8</ele>
        <time>2018-04-08T10:14:43Z</time>
      </trkpt>
      <trkpt lat="48.04478" lon="-0.66154">
        <ele>82.6</ele>
        <time>2018-04-08T10:14:47Z</time>
      </trkpt>
      <trkpt lat="48.04479" lon="-0.6617">
        <ele>82.3</ele>
        <time>2018-04-08T10:14:51Z</time>
      </trkpt>
      <trkpt lat="48.0448" lon="-0.66188">
        <ele>82.3</ele>
        <time>2018-04-08T10:14:55Z</time>
      </trkpt>
      <trkpt lat="48.0448" lon="-0.66203">
        <ele>82.4</ele>
        <time>2018-04-08T10:14:59Z</time>
      </trkpt>
      <trkpt lat="48.0448" lon="-0.66217">
        <ele>82.4</ele>
        <time>2018-04-08T10:15:03Z</time>
      </trkpt>
      <trkpt lat="48.04481" lon="-0.66231">
        <ele>82.3</ele>
        <time>2018-04-08T10:15:07Z</time>
      </trkpt>
      <trkpt lat="48.04481" lon="-0.66244">
        <ele>82.3</ele>
        <time>2018-04-08T10:15:11Z</time>
      </trkpt>
      <trkpt lat="48.04481" lon="-0.66253">
        <ele>82.5</ele>
        <time>2018-04-08T10:15:15Z</time>
      </trkpt>
      <trkpt lat="48.04481" lon="-0.6626">
        <ele>82.6</ele>
        <time>2018-04-08T10:15:23Z</time>
      </trkpt>
      <trkpt lat="48.04481" lon="-0.66264">
        <ele>82.6</ele>
        <time>2018-04-08T10:15:27Z</time>
      </trkpt>
      <trkpt lat="48.04482" lon="-0.66267">
        <ele>82.6</ele>
        <time>2018-04-08T10:15:31Z</time>
      </trkpt>
      <trkpt lat="48.04482" lon="-0.6627">
        <ele>82.7</ele>
        <time>2018-04-08T10:15:39Z</time>
      </trkpt>
      <trkpt lat="48.04481" lon="-0.66276">
        <ele>82.7</ele>
        <time>2018-04-08T10:15:43Z</time>
      </trkpt>
      <trkpt lat="48.04481" lon="-0.66285">
        <ele>82.8</ele>
        <time>2018-04-08T10:15:47Z</time>
      </trkpt>
      <trkpt lat="48.04482" lon="-0.66295">
        <ele>82.9</ele>
        <time>2018-04-08T10:15:51Z</time>
      </trkpt>
      <trkpt lat="48.04482" lon="-0.66305">
        <ele>83</ele>
        <time>2018-04-08T10:15:55Z</time>
      </trkpt>
      <trkpt lat="48.04483" lon="-0.66314">
        <ele>83</ele>
        <time>2018-04-08T10:15:59Z</time>
      </trkpt>
      <trkpt lat="48.04484" lon="-0.66322">
        <ele>83</ele>
        <time>2018-04-08T10:16:03Z</time>
      </trkpt>
      <trkpt lat="48.04485" lon="-0.6633">
        <ele>83</ele>
        <time>2018-04-08T10:16:07Z</time>
      </trkpt>
      <trkpt lat="48.04486" lon="-0.66337">
        <ele>83</ele>
        <time>2018-04-08T10:16:11Z</time>
      </trkpt>
      <trkpt lat="48.04488" lon="-0.66343">
        <ele>83</ele>
        <time>2018-04-08T10:16:15Z</time>
      </trkpt>
      <trkpt lat="48.0449" lon="-0.66351">
        <ele>83</ele>
        <time>2018-04-08T10:16:19Z</time>
      </trkpt>
      <trkpt lat="48.04492" lon="-0.66358">
        <ele>82.9</ele>
        <time>2018-04-08T10:16:23Z</time>
      </trkpt>
      <trkpt lat="48.04494" lon="-0.66367">
        <ele>82.9</ele>
        <time>2018-04-08T10:16:27Z</time>
      </trkpt>
      <trkpt lat="48.04495" lon="-0.66372">
        <ele>82.8</ele>
        <time>2018-04-08T10:16:35Z</time>
      </trkpt>
      <trkpt lat="48.04497" lon="-0.66377">
        <ele>82.8</ele>
        <time>2018-04-08T10:16:39Z</time>
      </trkpt>
      <trkpt lat="48.04499" lon="-0.66386">
        <ele>82.7</ele>
        <time>2018-04-08T10:16:43Z</time>
      </trkpt>
      <trkpt lat="48.04501" lon="-0.66397">
        <ele>81.8</ele>
        <time>2018-04-08T10:16:47Z</time>
      </trkpt>
      <trkpt lat="48.04503" lon="-0.66407">
        <ele>81.8</ele>
        <time>2018-04-08T10:16:51Z</time>
      </trkpt>
      <trkpt lat="48.04507" lon="-0.66414">
        <ele>81.8</ele>
        <time>2018-04-08T10:16:55Z</time>
      </trkpt>
      <trkpt lat="48.04515" lon="-0.66414">
        <ele>81.7</ele>
        <time>2018-04-08T10:16:59Z</time>
      </trkpt>
      <trkpt lat="48.04523" lon="-0.66413">
        <ele>81.5</ele>
        <time>2018-04-08T10:17:03Z</time>
      </trkpt>
      <trkpt lat="48.04531" lon="-0.66411">
        <ele>81.4</ele>
        <time>2018-04-08T10:17:07Z</time>
      </trkpt>
      <trkpt lat="48.04538" lon="-0.66409">
        <ele>81.2</ele>
        <time>2018-04-08T10:17:11Z</time>
      </trkpt>
      <trkpt lat="48.04545" lon="-0.66408">
        <ele>81.1</ele>
        <time>2018-04-08T10:17:15Z</time>
      </trkpt>
      <trkpt lat="48.04552" lon="-0.66408">
        <ele>80.9</ele>
        <time>2018-04-08T10:17:19Z</time>
      </trkpt>
      <trkpt lat="48.04557" lon="-0.66412">
        <ele>80.7</ele>
        <time>2018-04-08T10:17:23Z</time>
      </trkpt>
      <trkpt lat="48.04561" lon="-0.6642">
        <ele>79.8</ele>
        <time>2018-04-08T10:17:27Z</time>
      </trkpt>
      <trkpt lat="48.0456" lon="-0.66428">
        <ele>79.9</ele>
        <time>2018-04-08T10:17:31Z</time>
      </trkpt>
      <trkpt lat="48.04558" lon="-0.66436">
        <ele>79.9</ele>
        <time>2018-04-08T10:17:35Z</time>
      </trkpt>
      <trkpt lat="48.04556" lon="-0.66445">
        <ele>80</ele>
        <time>2018-04-08T10:17:39Z</time>
      </trkpt>
      <trkpt lat="48.04554" lon="-0.66455">
        <ele>80</ele>
        <time>2018-04-08T10:17:43Z</time>
      </trkpt>
      <trkpt lat="48.04553" lon="-0.66465">
        <ele>80</ele>
        <time>2018-04-08T10:17:47Z</time>
      </trkpt>
      <trkpt lat="48.0455" lon="-0.66475">
        <ele>80</ele>
        <time>2018-04-08T10:17:51Z</time>
      </trkpt>
      <trkpt lat="48.04548" lon="-0.66485">
        <ele>80</ele>
        <time>2018-04-08T10:17:55Z</time>
      </trkpt>
      <trkpt lat="48.04546" lon="-0.66494">
        <ele>80</ele>
        <time>2018-04-08T10:17:59Z</time>
      </trkpt>
      <trkpt lat="48.04543" lon="-0.66503">
        <ele>79.8</ele>
        <time>2018-04-08T10:18:03Z</time>
      </trkpt>
      <trkpt lat="48.04542" lon="-0.66512">
        <ele>79.8</ele>
        <time>2018-04-08T10:18:07Z</time>
      </trkpt>
      <trkpt lat="48.0454" lon="-0.6652">
        <ele>79.9</ele>
        <time>2018-04-08T10:18:11Z</time>
      </trkpt>
      <trkpt lat="48.04539" lon="-0.66527">
        <ele>79.9</ele>
        <time>2018-04-08T10:18:15Z</time>
      </trkpt>
      <trkpt lat="48.04537" lon="-0.66535">
        <ele>79.9</ele>
        <time>2018-04-08T10:18:19Z</time>
      </trkpt>
      <trkpt lat="48.04536" lon="-0.66546">
        <ele>79.9</ele>
        <time>2018-04-08T10:18:23Z</time>
      </trkpt>
      <trkpt lat="48.04537" lon="-0.66559">
        <ele>79.9</ele>
        <time>2018-04-08T10:18:27Z</time>
      </trkpt>
      <trkpt lat="48.04539" lon="-0.66572">
        <ele>79.8</ele>
        <time>2018-04-08T10:18:31Z</time>
      </trkpt>
      <trkpt lat="48.04541" lon="-0.66581">
        <ele>79.7</ele>
        <time>2018-04-08T10:18:35Z</time>
      </trkpt>
      <trkpt lat="48.04543" lon="-0.66591">
        <ele>79.1</ele>
        <time>2018-04-08T10:18:39Z</time>
      </trkpt>
      <trkpt lat="48.04544" lon="-0.66601">
        <ele>79</ele>
        <time>2018-04-08T10:18:43Z</time>
      </trkpt>
      <trkpt lat="48.04545" lon="-0.66612">
        <ele>79</ele>
        <time>2018-04-08T10:18:47Z</time>
      </trkpt>
      <trkpt lat="48.04545" lon="-0.66622">
        <ele>78.9</ele>
        <time>2018-04-08T10:18:51Z</time>
      </trkpt>
      <trkpt lat="48.04545" lon="-0.66633">
        <ele>78.9</ele>
        <time>2018-04-08T10:18:55Z</time>
      </trkpt>
      <trkpt lat="48.04545" lon="-0.66642">
        <ele>78.8</ele>
        <time>2018-04-08T10:18:59Z</time>
      </trkpt>
      <trkpt lat="48.04544" lon="-0.66652">
        <ele>78.8</ele>
        <time>2018-04-08T10:19:03Z</time>
      </trkpt>
      <trkpt lat="48.04544" lon="-0.66663">
        <ele>78.8</ele>
        <time>2018-04-08T10:19:07Z</time>
      </trkpt>
      <trkpt lat="48.04546" lon="-0.66674">
        <ele>78.1</ele>
        <time>2018-04-08T10:19:11Z</time>
      </trkpt>
      <trkpt lat="48.04547" lon="-0.66686">
        <ele>78</ele>
        <time>2018-04-08T10:19:15Z</time>
      </trkpt>
      <trkpt lat="48.04549" lon="-0.66699">
        <ele>77.9</ele>
        <time>2018-04-08T10:19:19Z</time>
      </trkpt>
      <trkpt lat="48.04551" lon="-0.6671">
        <ele>77.8</ele>
        <time>2018-04-08T10:19:23Z</time>
      </trkpt>
      <trkpt lat="48.04553" lon="-0.66727">
        <ele>77.7</ele>
        <time>2018-04-08T10:19:27Z</time>
      </trkpt>
      <trkpt lat="48.04553" lon="-0.66739">
        <ele>77.6</ele>
        <time>2018-04-08T10:19:31Z</time>
      </trkpt>
      <trkpt lat="48.04552" lon="-0.66753">
        <ele>76.9</ele>
        <time>2018-04-08T10:19:35Z</time>
      </trkpt>
      <trkpt lat="48.04547" lon="-0.66766">
        <ele>77</ele>
        <time>2018-04-08T10:19:39Z</time>
      </trkpt>
      <trkpt lat="48.04542" lon="-0.6678">
        <ele>77.1</ele>
        <time>2018-04-08T10:19:43Z</time>
      </trkpt>
      <trkpt lat="48.04536" lon="-0.66796">
        <ele>77.1</ele>
        <time>2018-04-08T10:19:47Z</time>
      </trkpt>
      <trkpt lat="48.04533" lon="-0.66811">
        <ele>77.1</ele>
        <time>2018-04-08T10:19:51Z</time>
      </trkpt>
      <trkpt lat="48.04529" lon="-0.66825">
        <ele>77.1</ele>
        <time>2018-04-08T10:19:55Z</time>
      </trkpt>
      <trkpt lat="48.04526" lon="-0.66837">
        <ele>76.5</ele>
        <time>2018-04-08T10:19:59Z</time>
      </trkpt>
      <trkpt lat="48.04523" lon="-0.6685">
        <ele>76.4</ele>
        <time>2018-04-08T10:20:03Z</time>
      </trkpt>
      <trkpt lat="48.04521" lon="-0.66865">
        <ele>76.2</ele>
        <time>2018-04-08T10:20:07Z</time>
      </trkpt>
      <trkpt lat="48.04516" lon="-0.66879">
        <ele>76.1</ele>
        <time>2018-04-08T10:20:11Z</time>
      </trkpt>
      <trkpt lat="48.04517" lon="-0.66893">
        <ele>75.9</ele>
        <time>2018-04-08T10:20:15Z</time>
      </trkpt>
      <trkpt lat="48.0452" lon="-0.66907">
        <ele>75.8</ele>
        <time>2018-04-08T10:20:19Z</time>
      </trkpt>
      <trkpt lat="48.04523" lon="-0.66917">
        <ele>75.8</ele>
        <time>2018-04-08T10:20:23Z</time>
      </trkpt>
      <trkpt lat="48.04527" lon="-0.66928">
        <ele>74.9</ele>
        <time>2018-04-08T10:20:27Z</time>
      </trkpt>
      <trkpt lat="48.04531" lon="-0.66939">
        <ele>74.8</ele>
        <time>2018-04-08T10:20:31Z</time>
      </trkpt>
      <trkpt lat="48.04533" lon="-0.66953">
        <ele>74.6</ele>
        <time>2018-04-08T10:20:35Z</time>
      </trkpt>
      <trkpt lat="48.04534" lon="-0.66971">
        <ele>74.5</ele>
        <time>2018-04-08T10:20:39Z</time>
      </trkpt>
      <trkpt lat="48.04531" lon="-0.66985">
        <ele>74.5</ele>
        <time>2018-04-08T10:20:43Z</time>
      </trkpt>
      <trkpt lat="48.0453" lon="-0.66999">
        <ele>74.5</ele>
        <time>2018-04-08T10:20:47Z</time>
      </trkpt>
      <trkpt lat="48.04526" lon="-0.6701">
        <ele>74.1</ele>
        <time>2018-04-08T10:20:51Z</time>
      </trkpt>
      <trkpt lat="48.04518" lon="-0.67018">
        <ele>74.2</ele>
        <time>2018-04-08T10:20:55Z</time>
      </trkpt>
      <trkpt lat="48.04509" lon="-0.67027">
        <ele>74.2</ele>
        <time>2018-04-08T10:20:59Z</time>
      </trkpt>
      <trkpt lat="48.04501" lon="-0.67037">
        <ele>74.2</ele>
        <time>2018-04-08T10:21:03Z</time>
      </trkpt>
      <trkpt lat="48.04494" lon="-0.67049">
        <ele>75.9</ele>
        <time>2018-04-08T10:21:07Z</time>
      </trkpt>
      <trkpt lat="48.04485" lon="-0.67061">
        <ele>75.9</ele>
        <time>2018-04-08T10:21:11Z</time>
      </trkpt>
      <trkpt lat="48.04481" lon="-0.67067">
        <ele>75.9</ele>
        <time>2018-04-08T10:21:15Z</time>
      </trkpt>
      <trkpt lat="48.04476" lon="-0.67074">
        <ele>76</ele>
        <time>2018-04-08T10:21:19Z</time>
      </trkpt>
      <trkpt lat="48.0447" lon="-0.67083">
        <ele>76.1</ele>
        <time>2018-04-08T10:21:23Z</time>
      </trkpt>
      <trkpt lat="48.04466" lon="-0.67094">
        <ele>75.9</ele>
        <time>2018-04-08T10:21:27Z</time>
      </trkpt>
      <trkpt lat="48.04458" lon="-0.67103">
        <ele>76</ele>
        <time>2018-04-08T10:21:31Z</time>
      </trkpt>
      <trkpt lat="48.0445" lon="-0.6711">
        <ele>76.1</ele>
        <time>2018-04-08T10:21:35Z</time>
      </trkpt>
      <trkpt lat="48.04443" lon="-0.67119">
        <ele>76.2</ele>
        <time>2018-04-08T10:21:39Z</time>
      </trkpt>
      <trkpt lat="48.04435" lon="-0.67129">
        <ele>76.3</ele>
        <time>2018-04-08T10:21:43Z</time>
      </trkpt>
      <trkpt lat="48.04428" lon="-0.67142">
        <ele>76.4</ele>
        <time>2018-04-08T10:21:47Z</time>
      </trkpt>
      <trkpt lat="48.0442" lon="-0.67152">
        <ele>76.6</ele>
        <time>2018-04-08T10:21:51Z</time>
      </trkpt>
      <trkpt lat="48.04412" lon="-0.67163">
        <ele>77.1</ele>
        <time>2018-04-08T10:21:55Z</time>
      </trkpt>
      <trkpt lat="48.04406" lon="-0.67173">
        <ele>77.2</ele>
        <time>2018-04-08T10:21:59Z</time>
      </trkpt>
      <trkpt lat="48.04396" lon="-0.67182">
        <ele>77.3</ele>
        <time>2018-04-08T10:22:03Z</time>
      </trkpt>
      <trkpt lat="48.04384" lon="-0.67193">
        <ele>77.4</ele>
        <time>2018-04-08T10:22:07Z</time>
      </trkpt>
      <trkpt lat="48.04376" lon="-0.67203">
        <ele>77.5</ele>
        <time>2018-04-08T10:22:11Z</time>
      </trkpt>
      <trkpt lat="48.04368" lon="-0.67218">
        <ele>77.5</ele>
        <time>2018-04-08T10:22:15Z</time>
      </trkpt>
      <trkpt lat="48.04362" lon="-0.67232">
        <ele>77.6</ele>
        <time>2018-04-08T10:22:19Z</time>
      </trkpt>
      <trkpt lat="48.04355" lon="-0.67245">
        <ele>77.7</ele>
        <time>2018-04-08T10:22:23Z</time>
      </trkpt>
      <trkpt lat="48.04348" lon="-0.67255">
        <ele>77.6</ele>
        <time>2018-04-08T10:22:27Z</time>
      </trkpt>
      <trkpt lat="48.0434" lon="-0.67266">
        <ele>77.6</ele>
        <time>2018-04-08T10:22:31Z</time>
      </trkpt>
      <trkpt lat="48.04332" lon="-0.67277">
        <ele>77.6</ele>
        <time>2018-04-08T10:22:35Z</time>
      </trkpt>
      <trkpt lat="48.04323" lon="-0.67286">
        <ele>77.5</ele>
        <time>2018-04-08T10:22:39Z</time>
      </trkpt>
      <trkpt lat="48.04314" lon="-0.67293">
        <ele>77.5</ele>
        <time>2018-04-08T10:22:43Z</time>
      </trkpt>
      <trkpt lat="48.04304" lon="-0.67301">
        <ele>77.5</ele>
        <time>2018-04-08T10:22:47Z</time>
      </trkpt>
      <trkpt lat="48.04292" lon="-0.67311">
        <ele>77.5</ele>
        <time>2018-04-08T10:22:51Z</time>
      </trkpt>
      <trkpt lat="48.04281" lon="-0.67321">
        <ele>77.6</ele>
        <time>2018-04-08T10:22:55Z</time>
      </trkpt>
      <trkpt lat="48.0427" lon="-0.67332">
        <ele>77.7</ele>
        <time>2018-04-08T10:22:59Z</time>
      </trkpt>
      <trkpt lat="48.0426" lon="-0.67345">
        <ele>77.5</ele>
        <time>2018-04-08T10:23:03Z</time>
      </trkpt>
      <trkpt lat="48.04249" lon="-0.6736">
        <ele>77.4</ele>
        <time>2018-04-08T10:23:07Z</time>
      </trkpt>
      <trkpt lat="48.04239" lon="-0.67376">
        <ele>77.2</ele>
        <time>2018-04-08T10:23:11Z</time>
      </trkpt>
      <trkpt lat="48.0423" lon="-0.67391">
        <ele>77</ele>
        <time>2018-04-08T10:23:15Z</time>
      </trkpt>
      <trkpt lat="48.04221" lon="-0.67407">
        <ele>76.9</ele>
        <time>2018-04-08T10:23:19Z</time>
      </trkpt>
      <trkpt lat="48.04211" lon="-0.67423">
        <ele>76.2</ele>
        <time>2018-04-08T10:23:23Z</time>
      </trkpt>
      <trkpt lat="48.04203" lon="-0.67439">
        <ele>76.1</ele>
        <time>2018-04-08T10:23:27Z</time>
      </trkpt>
      <trkpt lat="48.04195" lon="-0.67454">
        <ele>75.9</ele>
        <time>2018-04-08T10:23:31Z</time>
      </trkpt>
      <trkpt lat="48.04185" lon="-0.67468">
        <ele>75.6</ele>
        <time>2018-04-08T10:23:35Z</time>
      </trkpt>
      <trkpt lat="48.04175" lon="-0.67482">
        <ele>75.1</ele>
        <time>2018-04-08T10:23:39Z</time>
      </trkpt>
      <trkpt lat="48.04165" lon="-0.67496">
        <ele>74.1</ele>
        <time>2018-04-08T10:23:43Z</time>
      </trkpt>
      <trkpt lat="48.04153" lon="-0.67509">
        <ele>73.8</ele>
        <time>2018-04-08T10:23:47Z</time>
      </trkpt>
      <trkpt lat="48.04141" lon="-0.67522">
        <ele>73.8</ele>
        <time>2018-04-08T10:23:51Z</time>
      </trkpt>
      <trkpt lat="48.0413" lon="-0.67533">
        <ele>73.7</ele>
        <time>2018-04-08T10:23:55Z</time>
      </trkpt>
      <trkpt lat="48.04126" lon="-0.67539">
        <ele>73.8</ele>
        <time>2018-04-08T10:23:59Z</time>
      </trkpt>
      <trkpt lat="48.04123" lon="-0.67543">
        <ele>73.8</ele>
        <time>2018-04-08T10:24:03Z</time>
      </trkpt>
      <trkpt lat="48.04118" lon="-0.67549">
        <ele>73.8</ele>
        <time>2018-04-08T10:24:07Z</time>
      </trkpt>
      <trkpt lat="48.0411" lon="-0.67556">
        <ele>73.9</ele>
        <time>2018-04-08T10:24:11Z</time>
      </trkpt>
      <trkpt lat="48.04103" lon="-0.67563">
        <ele>74.1</ele>
        <time>2018-04-08T10:24:15Z</time>
      </trkpt>
      <trkpt lat="48.041" lon="-0.67568">
        <ele>74.2</ele>
        <time>2018-04-08T10:24:19Z</time>
      </trkpt>
      <trkpt lat="48.04094" lon="-0.67577">
        <ele>74.5</ele>
        <time>2018-04-08T10:24:23Z</time>
      </trkpt>
      <trkpt lat="48.04086" lon="-0.67586">
        <ele>74.8</ele>
        <time>2018-04-08T10:24:27Z</time>
      </trkpt>
      <trkpt lat="48.04078" lon="-0.676">
        <ele>75</ele>
        <time>2018-04-08T10:24:31Z</time>
      </trkpt>
      <trkpt lat="48.04069" lon="-0.67613">
        <ele>75</ele>
        <time>2018-04-08T10:24:35Z</time>
      </trkpt>
      <trkpt lat="48.04061" lon="-0.67627">
        <ele>75</ele>
        <time>2018-04-08T10:24:39Z</time>
      </trkpt>
      <trkpt lat="48.04054" lon="-0.67638">
        <ele>75</ele>
        <time>2018-04-08T10:24:43Z</time>
      </trkpt>
      <trkpt lat="48.04044" lon="-0.67651">
        <ele>75</ele>
        <time>2018-04-08T10:24:47Z</time>
      </trkpt>
      <trkpt lat="48.04037" lon="-0.67664">
        <ele>75</ele>
        <time>2018-04-08T10:24:51Z</time>
      </trkpt>
      <trkpt lat="48.04032" lon="-0.67675">
        <ele>75</ele>
        <time>2018-04-08T10:24:55Z</time>
      </trkpt>
      <trkpt lat="48.04025" lon="-0.67687">
        <ele>75</ele>
        <time>2018-04-08T10:24:59Z</time>
      </trkpt>
      <trkpt lat="48.04019" lon="-0.677">
        <ele>75</ele>
        <time>2018-04-08T10:25:03Z</time>
      </trkpt>
      <trkpt lat="48.04015" lon="-0.6771">
        <ele>75</ele>
        <time>2018-04-08T10:25:07Z</time>
      </trkpt>
      <trkpt lat="48.04011" lon="-0.67718">
        <ele>75</ele>
        <time>2018-04-08T10:25:11Z</time>
      </trkpt>
      <trkpt lat="48.04006" lon="-0.67727">
        <ele>75</ele>
        <time>2018-04-08T10:25:15Z</time>
      </trkpt>
      <trkpt lat="48.04001" lon="-0.67735">
        <ele>75</ele>
        <time>2018-04-08T10:25:19Z</time>
      </trkpt>
      <trkpt lat="48.03995" lon="-0.67744">
        <ele>73.8</ele>
        <time>2018-04-08T10:25:23Z</time>
      </trkpt>
      <trkpt lat="48.03989" lon="-0.67755">
        <ele>72.5</ele>
        <time>2018-04-08T10:25:27Z</time>
      </trkpt>
      <trkpt lat="48.03982" lon="-0.67767">
        <ele>71</ele>
        <time>2018-04-08T10:25:31Z</time>
      </trkpt>
      <trkpt lat="48.03974" lon="-0.67779">
        <ele>69.9</ele>
        <time>2018-04-08T10:25:35Z</time>
      </trkpt>
      <trkpt lat="48.03968" lon="-0.6779">
        <ele>69.3</ele>
        <time>2018-04-08T10:25:39Z</time>
      </trkpt>
      <trkpt lat="48.03965" lon="-0.67798">
        <ele>69</ele>
        <time>2018-04-08T10:25:43Z</time>
      </trkpt>
      <trkpt lat="48.03962" lon="-0.67805">
        <ele>68.7</ele>
        <time>2018-04-08T10:25:47Z</time>
      </trkpt>
      <trkpt lat="48.03958" lon="-0.67813">
        <ele>68.4</ele>
        <time>2018-04-08T10:25:51Z</time>
      </trkpt>
      <trkpt lat="48.03954" lon="-0.67824">
        <ele>68.1</ele>
        <time>2018-04-08T10:25:55Z</time>
      </trkpt>
      <trkpt lat="48.0395" lon="-0.67834">
        <ele>66.7</ele>
        <time>2018-04-08T10:25:59Z</time>
      </trkpt>
      <trkpt lat="48.03945" lon="-0.67846">
        <ele>66.5</ele>
        <time>2018-04-08T10:26:03Z</time>
      </trkpt>
      <trkpt lat="48.03939" lon="-0.67862">
        <ele>66.4</ele>
        <time>2018-04-08T10:26:07Z</time>
      </trkpt>
      <trkpt lat="48.03928" lon="-0.67877">
        <ele>66.4</ele>
        <time>2018-04-08T10:26:11Z</time>
      </trkpt>
      <trkpt lat="48.03916" lon="-0.67895">
        <ele>66.1</ele>
        <time>2018-04-08T10:26:15Z</time>
      </trkpt>
      <trkpt lat="48.03913" lon="-0.67919">
        <ele>66.4</ele>
        <time>2018-04-08T10:26:19Z</time>
      </trkpt>
      <trkpt lat="48.03915" lon="-0.67942">
        <ele>67.6</ele>
        <time>2018-04-08T10:26:23Z</time>
      </trkpt>
      <trkpt lat="48.03915" lon="-0.67959">
        <ele>68.1</ele>
        <time>2018-04-08T10:26:27Z</time>
      </trkpt>
      <trkpt lat="48.03918" lon="-0.67975">
        <ele>67.6</ele>
        <time>2018-04-08T10:26:31Z</time>
      </trkpt>
      <trkpt lat="48.03921" lon="-0.67987">
        <ele>68.1</ele>
        <time>2018-04-08T10:26:35Z</time>
      </trkpt>
      <trkpt lat="48.03924" lon="-0.68001">
        <ele>68.5</ele>
        <time>2018-04-08T10:26:39Z</time>
      </trkpt>
      <trkpt lat="48.03926" lon="-0.68014">
        <ele>68.1</ele>
        <time>2018-04-08T10:26:43Z</time>
      </trkpt>
      <trkpt lat="48.03927" lon="-0.68026">
        <ele>67.8</ele>
        <time>2018-04-08T10:26:47Z</time>
      </trkpt>
      <trkpt lat="48.03929" lon="-0.68037">
        <ele>67.6</ele>
        <time>2018-04-08T10:26:51Z</time>
      </trkpt>
      <trkpt lat="48.0393" lon="-0.68053">
        <ele>67.6</ele>
        <time>2018-04-08T10:26:55Z</time>
      </trkpt>
      <trkpt lat="48.0393" lon="-0.68072">
        <ele>68</ele>
        <time>2018-04-08T10:26:59Z</time>
      </trkpt>
      <trkpt lat="48.03928" lon="-0.68091">
        <ele>67.5</ele>
        <time>2018-04-08T10:27:03Z</time>
      </trkpt>
      <trkpt lat="48.03926" lon="-0.68108">
        <ele>66.7</ele>
        <time>2018-04-08T10:27:07Z</time>
      </trkpt>
      <trkpt lat="48.03927" lon="-0.68122">
        <ele>66.2</ele>
        <time>2018-04-08T10:27:11Z</time>
      </trkpt>
      <trkpt lat="48.03927" lon="-0.68143">
        <ele>65.9</ele>
        <time>2018-04-08T10:27:15Z</time>
      </trkpt>
      <trkpt lat="48.03931" lon="-0.68158">
        <ele>65.8</ele>
        <time>2018-04-08T10:27:19Z</time>
      </trkpt>
      <trkpt lat="48.03935" lon="-0.68174">
        <ele>65</ele>
        <time>2018-04-08T10:27:23Z</time>
      </trkpt>
      <trkpt lat="48.03939" lon="-0.68194">
        <ele>64.6</ele>
        <time>2018-04-08T10:27:27Z</time>
      </trkpt>
      <trkpt lat="48.03944" lon="-0.68216">
        <ele>64.4</ele>
        <time>2018-04-08T10:27:31Z</time>
      </trkpt>
      <trkpt lat="48.03947" lon="-0.68237">
        <ele>64.4</ele>
        <time>2018-04-08T10:27:35Z</time>
      </trkpt>
      <trkpt lat="48.03952" lon="-0.68258">
        <ele>64.1</ele>
        <time>2018-04-08T10:27:39Z</time>
      </trkpt>
      <trkpt lat="48.03957" lon="-0.68279">
        <ele>64</ele>
        <time>2018-04-08T10:27:43Z</time>
      </trkpt>
      <trkpt lat="48.03962" lon="-0.68298">
        <ele>64</ele>
        <time>2018-04-08T10:27:47Z</time>
      </trkpt>
      <trkpt lat="48.03966" lon="-0.68317">
        <ele>63.9</ele>
        <time>2018-04-08T10:27:51Z</time>
      </trkpt>
      <trkpt lat="48.0397" lon="-0.68336">
        <ele>63.4</ele>
        <time>2018-04-08T10:27:55Z</time>
      </trkpt>
      <trkpt lat="48.03974" lon="-0.68355">
        <ele>63.3</ele>
        <time>2018-04-08T10:27:59Z</time>
      </trkpt>
      <trkpt lat="48.03979" lon="-0.68375">
        <ele>63.2</ele>
        <time>2018-04-08T10:28:03Z</time>
      </trkpt>
      <trkpt lat="48.03983" lon="-0.68395">
        <ele>63.1</ele>
        <time>2018-04-08T10:28:07Z</time>
      </trkpt>
      <trkpt lat="48.03987" lon="-0.68415">
        <ele>63</ele>
        <time>2018-04-08T10:28:11Z</time>
      </trkpt>
      <trkpt lat="48.03992" lon="-0.68435">
        <ele>62.2</ele>
        <time>2018-04-08T10:28:15Z</time>
      </trkpt>
      <trkpt lat="48.03996" lon="-0.68454">
        <ele>61.8</ele>
        <time>2018-04-08T10:28:19Z</time>
      </trkpt>
      <trkpt lat="48.04002" lon="-0.68476">
        <ele>60.9</ele>
        <time>2018-04-08T10:28:23Z</time>
      </trkpt>
      <trkpt lat="48.0401" lon="-0.68495">
        <ele>60.8</ele>
        <time>2018-04-08T10:28:27Z</time>
      </trkpt>
      <trkpt lat="48.04021" lon="-0.68514">
        <ele>59.2</ele>
        <time>2018-04-08T10:28:31Z</time>
      </trkpt>
      <trkpt lat="48.04032" lon="-0.68534">
        <ele>58.5</ele>
        <time>2018-04-08T10:28:35Z</time>
      </trkpt>
      <trkpt lat="48.04027" lon="-0.68558">
        <ele>58.2</ele>
        <time>2018-04-08T10:28:39Z</time>
      </trkpt>
      <trkpt lat="48.04011" lon="-0.68568">
        <ele>58.2</ele>
        <time>2018-04-08T10:28:43Z</time>
      </trkpt>
      <trkpt lat="48.03996" lon="-0.68577">
        <ele>58.2</ele>
        <time>2018-04-08T10:28:47Z</time>
      </trkpt>
      <trkpt lat="48.03981" lon="-0.68585">
        <ele>56.7</ele>
        <time>2018-04-08T10:28:51Z</time>
      </trkpt>
      <trkpt lat="48.03959" lon="-0.68582">
        <ele>58.1</ele>
        <time>2018-04-08T10:28:55Z</time>
      </trkpt>
      <trkpt lat="48.03934" lon="-0.68586">
        <ele>55.8</ele>
        <time>2018-04-08T10:28:59Z</time>
      </trkpt>
      <trkpt lat="48.03912" lon="-0.68603">
        <ele>57</ele>
        <time>2018-04-08T10:29:03Z</time>
      </trkpt>
      <trkpt lat="48.03894" lon="-0.68611">
        <ele>57.6</ele>
        <time>2018-04-08T10:29:07Z</time>
      </trkpt>
      <trkpt lat="48.03879" lon="-0.68615">
        <ele>58.2</ele>
        <time>2018-04-08T10:29:11Z</time>
      </trkpt>
      <trkpt lat="48.03869" lon="-0.68621">
        <ele>58.6</ele>
        <time>2018-04-08T10:29:15Z</time>
      </trkpt>
      <trkpt lat="48.03869" lon="-0.68636">
        <ele>58.4</ele>
        <time>2018-04-08T10:29:19Z</time>
      </trkpt>
      <trkpt lat="48.03868" lon="-0.68649">
        <ele>58.3</ele>
        <time>2018-04-08T10:29:23Z</time>
      </trkpt>
      <trkpt lat="48.03868" lon="-0.68661">
        <ele>58.3</ele>
        <time>2018-04-08T10:29:27Z</time>
      </trkpt>
      <trkpt lat="48.03867" lon="-0.6868">
        <ele>56.8</ele>
        <time>2018-04-08T10:29:31Z</time>
      </trkpt>
      <trkpt lat="48.03863" lon="-0.68696">
        <ele>56.7</ele>
        <time>2018-04-08T10:29:35Z</time>
      </trkpt>
      <trkpt lat="48.03856" lon="-0.68707">
        <ele>56.8</ele>
        <time>2018-04-08T10:29:39Z</time>
      </trkpt>
      <trkpt lat="48.03851" lon="-0.68714">
        <ele>56.8</ele>
        <time>2018-04-08T10:29:43Z</time>
      </trkpt>
      <trkpt lat="48.03847" lon="-0.6872">
        <ele>56.9</ele>
        <time>2018-04-08T10:29:47Z</time>
      </trkpt>
      <trkpt lat="48.03843" lon="-0.68726">
        <ele>57</ele>
        <time>2018-04-08T10:29:51Z</time>
      </trkpt>
      <trkpt lat="48.03838" lon="-0.68733">
        <ele>57.2</ele>
        <time>2018-04-08T10:29:55Z</time>
      </trkpt>
      <trkpt lat="48.03833" lon="-0.68743">
        <ele>58.6</ele>
        <time>2018-04-08T10:29:59Z</time>
      </trkpt>
      <trkpt lat="48.03829" lon="-0.68752">
        <ele>57.9</ele>
        <time>2018-04-08T10:30:03Z</time>
      </trkpt>
      <trkpt lat="48.03825" lon="-0.68759">
        <ele>57.7</ele>
        <time>2018-04-08T10:30:07Z</time>
      </trkpt>
      <trkpt lat="48.03822" lon="-0.68767">
        <ele>57.5</ele>
        <time>2018-04-08T10:30:11Z</time>
      </trkpt>
      <trkpt lat="48.03819" lon="-0.68775">
        <ele>57.3</ele>
        <time>2018-04-08T10:30:15Z</time>
      </trkpt>
      <trkpt lat="48.03815" lon="-0.68781">
        <ele>57.1</ele>
        <time>2018-04-08T10:30:19Z</time>
      </trkpt>
      <trkpt lat="48.03813" lon="-0.68786">
        <ele>57</ele>
        <time>2018-04-08T10:30:23Z</time>
      </trkpt>
      <trkpt lat="48.0381" lon="-0.68793">
        <ele>56.9</ele>
        <time>2018-04-08T10:30:27Z</time>
      </trkpt>
      <trkpt lat="48.03806" lon="-0.68799">
        <ele>56.7</ele>
        <time>2018-04-08T10:30:31Z</time>
      </trkpt>
      <trkpt lat="48.03802" lon="-0.68804">
        <ele>56.7</ele>
        <time>2018-04-08T10:30:35Z</time>
      </trkpt>
      <trkpt lat="48.03798" lon="-0.68808">
        <ele>56.7</ele>
        <time>2018-04-08T10:30:39Z</time>
      </trkpt>
      <trkpt lat="48.03794" lon="-0.68813">
        <ele>56.8</ele>
        <time>2018-04-08T10:30:43Z</time>
      </trkpt>
      <trkpt lat="48.0379" lon="-0.68818">
        <ele>56.8</ele>
        <time>2018-04-08T10:30:47Z</time>
      </trkpt>
      <trkpt lat="48.03786" lon="-0.68826">
        <ele>56.9</ele>
        <time>2018-04-08T10:30:51Z</time>
      </trkpt>
      <trkpt lat="48.03781" lon="-0.68836">
        <ele>55.7</ele>
        <time>2018-04-08T10:30:55Z</time>
      </trkpt>
      <trkpt lat="48.03778" lon="-0.68844">
        <ele>55.8</ele>
        <time>2018-04-08T10:30:59Z</time>
      </trkpt>
      <trkpt lat="48.03775" lon="-0.68855">
        <ele>55.8</ele>
        <time>2018-04-08T10:31:03Z</time>
      </trkpt>
      <trkpt lat="48.03771" lon="-0.68865">
        <ele>55.8</ele>
        <time>2018-04-08T10:31:07Z</time>
      </trkpt>
      <trkpt lat="48.03769" lon="-0.68877">
        <ele>55.9</ele>
        <time>2018-04-08T10:31:11Z</time>
      </trkpt>
      <trkpt lat="48.03768" lon="-0.68889">
        <ele>56.1</ele>
        <time>2018-04-08T10:31:15Z</time>
      </trkpt>
      <trkpt lat="48.03768" lon="-0.689">
        <ele>56.4</ele>
        <time>2018-04-08T10:31:19Z</time>
      </trkpt>
      <trkpt lat="48.03769" lon="-0.68911">
        <ele>56.6</ele>
        <time>2018-04-08T10:31:23Z</time>
      </trkpt>
      <trkpt lat="48.0377" lon="-0.68922">
        <ele>56.1</ele>
        <time>2018-04-08T10:31:27Z</time>
      </trkpt>
      <trkpt lat="48.03771" lon="-0.68932">
        <ele>55.7</ele>
        <time>2018-04-08T10:31:31Z</time>
      </trkpt>
      <trkpt lat="48.03772" lon="-0.68942">
        <ele>55.3</ele>
        <time>2018-04-08T10:31:35Z</time>
      </trkpt>
      <trkpt lat="48.03771" lon="-0.68947">
        <ele>55.2</ele>
        <time>2018-04-08T10:31:39Z</time>
      </trkpt>
      <trkpt lat="48.03769" lon="-0.68951">
        <ele>55.3</ele>
        <time>2018-04-08T10:31:43Z</time>
      </trkpt>
      <trkpt lat="48.03766" lon="-0.68957">
        <ele>55.3</ele>
        <time>2018-04-08T10:31:47Z</time>
      </trkpt>
      <trkpt lat="48.03765" lon="-0.68962">
        <ele>55.3</ele>
        <time>2018-04-08T10:31:51Z</time>
      </trkpt>
      <trkpt lat="48.03763" lon="-0.68968">
        <ele>55.4</ele>
        <time>2018-04-08T10:31:55Z</time>
      </trkpt>
      <trkpt lat="48.03759" lon="-0.68973">
        <ele>55.6</ele>
        <time>2018-04-08T10:31:59Z</time>
      </trkpt>
      <trkpt lat="48.03755" lon="-0.68982">
        <ele>56.1</ele>
        <time>2018-04-08T10:32:03Z</time>
      </trkpt>
      <trkpt lat="48.0375" lon="-0.68989">
        <ele>56.7</ele>
        <time>2018-04-08T10:32:07Z</time>
      </trkpt>
      <trkpt lat="48.03749" lon="-0.68996">
        <ele>59.1</ele>
        <time>2018-04-08T10:32:11Z</time>
      </trkpt>
      <trkpt lat="48.03747" lon="-0.69002">
        <ele>58.8</ele>
        <time>2018-04-08T10:32:15Z</time>
      </trkpt>
      <trkpt lat="48.03743" lon="-0.69007">
        <ele>59.8</ele>
        <time>2018-04-08T10:32:19Z</time>
      </trkpt>
      <trkpt lat="48.03742" lon="-0.69013">
        <ele>60.5</ele>
        <time>2018-04-08T10:32:23Z</time>
      </trkpt>
      <trkpt lat="48.03739" lon="-0.69022">
        <ele>61.2</ele>
        <time>2018-04-08T10:32:27Z</time>
      </trkpt>
      <trkpt lat="48.03736" lon="-0.6903">
        <ele>61.5</ele>
        <time>2018-04-08T10:32:31Z</time>
      </trkpt>
      <trkpt lat="48.03738" lon="-0.69045">
        <ele>61.3</ele>
        <time>2018-04-08T10:32:35Z</time>
      </trkpt>
      <trkpt lat="48.03738" lon="-0.69054">
        <ele>60.8</ele>
        <time>2018-04-08T10:32:39Z</time>
      </trkpt>
      <trkpt lat="48.03737" lon="-0.69064">
        <ele>60</ele>
        <time>2018-04-08T10:32:43Z</time>
      </trkpt>
      <trkpt lat="48.03735" lon="-0.69074">
        <ele>59.1</ele>
        <time>2018-04-08T10:32:47Z</time>
      </trkpt>
      <trkpt lat="48.03733" lon="-0.69085">
        <ele>58.1</ele>
        <time>2018-04-08T10:32:51Z</time>
      </trkpt>
      <trkpt lat="48.03732" lon="-0.69097">
        <ele>58.8</ele>
        <time>2018-04-08T10:32:55Z</time>
      </trkpt>
      <trkpt lat="48.0373" lon="-0.69104">
        <ele>59.4</ele>
        <time>2018-04-08T10:32:59Z</time>
      </trkpt>
      <trkpt lat="48.0373" lon="-0.69111">
        <ele>59.6</ele>
        <time>2018-04-08T10:33:03Z</time>
      </trkpt>
      <trkpt lat="48.0373" lon="-0.69121">
        <ele>59.7</ele>
        <time>2018-04-08T10:33:07Z</time>
      </trkpt>
      <trkpt lat="48.0373" lon="-0.69128">
        <ele>59.6</ele>
        <time>2018-04-08T10:33:11Z</time>
      </trkpt>
      <trkpt lat="48.03729" lon="-0.69136">
        <ele>59.4</ele>
        <time>2018-04-08T10:33:15Z</time>
      </trkpt>
      <trkpt lat="48.03727" lon="-0.69145">
        <ele>59.2</ele>
        <time>2018-04-08T10:33:19Z</time>
      </trkpt>
      <trkpt lat="48.03725" lon="-0.69152">
        <ele>59</ele>
        <time>2018-04-08T10:33:23Z</time>
      </trkpt>
      <trkpt lat="48.03725" lon="-0.6916">
        <ele>58.7</ele>
        <time>2018-04-08T10:33:28Z</time>
      </trkpt>
      <trkpt lat="48.03724" lon="-0.69169">
        <ele>57.8</ele>
        <time>2018-04-08T10:33:31Z</time>
      </trkpt>
      <trkpt lat="48.03724" lon="-0.69178">
        <ele>58</ele>
        <time>2018-04-08T10:33:35Z</time>
      </trkpt>
      <trkpt lat="48.03723" lon="-0.6919">
        <ele>58.5</ele>
        <time>2018-04-08T10:33:39Z</time>
      </trkpt>
      <trkpt lat="48.03724" lon="-0.69197">
        <ele>58.5</ele>
        <time>2018-04-08T10:33:43Z</time>
      </trkpt>
      <trkpt lat="48.03724" lon="-0.69206">
        <ele>58.5</ele>
        <time>2018-04-08T10:33:47Z</time>
      </trkpt>
      <trkpt lat="48.03725" lon="-0.69215">
        <ele>58.4</ele>
        <time>2018-04-08T10:33:51Z</time>
      </trkpt>
      <trkpt lat="48.03726" lon="-0.69224">
        <ele>58.1</ele>
        <time>2018-04-08T10:33:55Z</time>
      </trkpt>
      <trkpt lat="48.03727" lon="-0.69232">
        <ele>57.7</ele>
        <time>2018-04-08T10:33:59Z</time>
      </trkpt>
      <trkpt lat="48.03727" lon="-0.69241">
        <ele>57.3</ele>
        <time>2018-04-08T10:34:03Z</time>
      </trkpt>
      <trkpt lat="48.03725" lon="-0.6925">
        <ele>58.4</ele>
        <time>2018-04-08T10:34:07Z</time>
      </trkpt>
      <trkpt lat="48.03726" lon="-0.69259">
        <ele>58.6</ele>
        <time>2018-04-08T10:34:11Z</time>
      </trkpt>
      <trkpt lat="48.03726" lon="-0.69269">
        <ele>59.1</ele>
        <time>2018-04-08T10:34:15Z</time>
      </trkpt>
      <trkpt lat="48.03728" lon="-0.69279">
        <ele>59.6</ele>
        <time>2018-04-08T10:34:19Z</time>
      </trkpt>
      <trkpt lat="48.03731" lon="-0.69289">
        <ele>59.9</ele>
        <time>2018-04-08T10:34:23Z</time>
      </trkpt>
      <trkpt lat="48.03735" lon="-0.69299">
        <ele>60.1</ele>
        <time>2018-04-08T10:34:27Z</time>
      </trkpt>
      <trkpt lat="48.0374" lon="-0.6931">
        <ele>59.9</ele>
        <time>2018-04-08T10:34:31Z</time>
      </trkpt>
      <trkpt lat="48.03742" lon="-0.69319">
        <ele>59.6</ele>
        <time>2018-04-08T10:34:35Z</time>
      </trkpt>
      <trkpt lat="48.03746" lon="-0.69329">
        <ele>58.8</ele>
        <time>2018-04-08T10:34:39Z</time>
      </trkpt>
      <trkpt lat="48.03749" lon="-0.6934">
        <ele>59.4</ele>
        <time>2018-04-08T10:34:43Z</time>
      </trkpt>
      <trkpt lat="48.03751" lon="-0.69349">
        <ele>56.6</ele>
        <time>2018-04-08T10:34:47Z</time>
      </trkpt>
      <trkpt lat="48.03754" lon="-0.69358">
        <ele>56.2</ele>
        <time>2018-04-08T10:34:51Z</time>
      </trkpt>
      <trkpt lat="48.03757" lon="-0.69368">
        <ele>56</ele>
        <time>2018-04-08T10:34:55Z</time>
      </trkpt>
      <trkpt lat="48.03759" lon="-0.69376">
        <ele>56</ele>
        <time>2018-04-08T10:34:59Z</time>
      </trkpt>
      <trkpt lat="48.03761" lon="-0.69386">
        <ele>56.2</ele>
        <time>2018-04-08T10:35:03Z</time>
      </trkpt>
      <trkpt lat="48.03763" lon="-0.69395">
        <ele>56.6</ele>
        <time>2018-04-08T10:35:07Z</time>
      </trkpt>
      <trkpt lat="48.03765" lon="-0.69402">
        <ele>56.9</ele>
        <time>2018-04-08T10:35:11Z</time>
      </trkpt>
      <trkpt lat="48.03767" lon="-0.6941">
        <ele>57.1</ele>
        <time>2018-04-08T10:35:15Z</time>
      </trkpt>
      <trkpt lat="48.03768" lon="-0.69417">
        <ele>57</ele>
        <time>2018-04-08T10:35:19Z</time>
      </trkpt>
      <trkpt lat="48.0377" lon="-0.69425">
        <ele>57.9</ele>
        <time>2018-04-08T10:35:23Z</time>
      </trkpt>
      <trkpt lat="48.03772" lon="-0.69432">
        <ele>57.7</ele>
        <time>2018-04-08T10:35:27Z</time>
      </trkpt>
      <trkpt lat="48.03774" lon="-0.69438">
        <ele>57.6</ele>
        <time>2018-04-08T10:35:31Z</time>
      </trkpt>
      <trkpt lat="48.03776" lon="-0.69445">
        <ele>57.5</ele>
        <time>2018-04-08T10:35:35Z</time>
      </trkpt>
      <trkpt lat="48.03778" lon="-0.69452">
        <ele>57.5</ele>
        <time>2018-04-08T10:35:39Z</time>
      </trkpt>
      <trkpt lat="48.03779" lon="-0.69457">
        <ele>57.5</ele>
        <time>2018-04-08T10:35:43Z</time>
      </trkpt>
      <trkpt lat="48.03782" lon="-0.69464">
        <ele>57.5</ele>
        <time>2018-04-08T10:35:47Z</time>
      </trkpt>
      <trkpt lat="48.03786" lon="-0.69469">
        <ele>57.4</ele>
        <time>2018-04-08T10:35:51Z</time>
      </trkpt>
      <trkpt lat="48.03789" lon="-0.69475">
        <ele>57.3</ele>
        <time>2018-04-08T10:35:55Z</time>
      </trkpt>
      <trkpt lat="48.03792" lon="-0.69481">
        <ele>57.2</ele>
        <time>2018-04-08T10:35:59Z</time>
      </trkpt>
      <trkpt lat="48.03794" lon="-0.69487">
        <ele>57</ele>
        <time>2018-04-08T10:36:03Z</time>
      </trkpt>
      <trkpt lat="48.03797" lon="-0.69494">
        <ele>56.9</ele>
        <time>2018-04-08T10:36:07Z</time>
      </trkpt>
      <trkpt lat="48.03801" lon="-0.695">
        <ele>56.5</ele>
        <time>2018-04-08T10:36:11Z</time>
      </trkpt>
      <trkpt lat="48.03806" lon="-0.69507">
        <ele>57.9</ele>
        <time>2018-04-08T10:36:15Z</time>
      </trkpt>
      <trkpt lat="48.03812" lon="-0.69516">
        <ele>57.6</ele>
        <time>2018-04-08T10:36:19Z</time>
      </trkpt>
      <trkpt lat="48.0382" lon="-0.69526">
        <ele>57.6</ele>
        <time>2018-04-08T10:36:23Z</time>
      </trkpt>
      <trkpt lat="48.03826" lon="-0.69537">
        <ele>57.9</ele>
        <time>2018-04-08T10:36:27Z</time>
      </trkpt>
      <trkpt lat="48.03832" lon="-0.69544">
        <ele>58</ele>
        <time>2018-04-08T10:36:31Z</time>
      </trkpt>
      <trkpt lat="48.03838" lon="-0.69552">
        <ele>54.4</ele>
        <time>2018-04-08T10:36:35Z</time>
      </trkpt>
      <trkpt lat="48.03844" lon="-0.69558">
        <ele>54.6</ele>
        <time>2018-04-08T10:36:39Z</time>
      </trkpt>
      <trkpt lat="48.03852" lon="-0.69564">
        <ele>54.6</ele>
        <time>2018-04-08T10:36:43Z</time>
      </trkpt>
      <trkpt lat="48.03859" lon="-0.69568">
        <ele>54.4</ele>
        <time>2018-04-08T10:36:47Z</time>
      </trkpt>
      <trkpt lat="48.03863" lon="-0.69572">
        <ele>54.3</ele>
        <time>2018-04-08T10:36:51Z</time>
      </trkpt>
      <trkpt lat="48.03868" lon="-0.69574">
        <ele>54.1</ele>
        <time>2018-04-08T10:36:55Z</time>
      </trkpt>
      <trkpt lat="48.03873" lon="-0.69577">
        <ele>53.9</ele>
        <time>2018-04-08T10:36:59Z</time>
      </trkpt>
      <trkpt lat="48.03878" lon="-0.6958">
        <ele>53.7</ele>
        <time>2018-04-08T10:37:03Z</time>
      </trkpt>
      <trkpt lat="48.0388" lon="-0.69585">
        <ele>55.2</ele>
        <time>2018-04-08T10:37:07Z</time>
      </trkpt>
      <trkpt lat="48.03882" lon="-0.6959">
        <ele>55.1</ele>
        <time>2018-04-08T10:37:11Z</time>
      </trkpt>
      <trkpt lat="48.03884" lon="-0.6959">
        <ele>55.1</ele>
        <time>2018-04-08T10:37:27Z</time>
      </trkpt>
      <trkpt lat="48.03887" lon="-0.69591">
        <ele>54.9</ele>
        <time>2018-04-08T10:37:31Z</time>
      </trkpt>
      <trkpt lat="48.03891" lon="-0.69592">
        <ele>54.7</ele>
        <time>2018-04-08T10:37:39Z</time>
      </trkpt>
      <trkpt lat="48.03893" lon="-0.69594">
        <ele>54.6</ele>
        <time>2018-04-08T10:37:43Z</time>
      </trkpt>
      <trkpt lat="48.03897" lon="-0.69597">
        <ele>54.5</ele>
        <time>2018-04-08T10:37:47Z</time>
      </trkpt>
      <trkpt lat="48.03901" lon="-0.696">
        <ele>54.4</ele>
        <time>2018-04-08T10:37:51Z</time>
      </trkpt>
      <trkpt lat="48.03906" lon="-0.69602">
        <ele>54.3</ele>
        <time>2018-04-08T10:37:55Z</time>
      </trkpt>
      <trkpt lat="48.0391" lon="-0.69605">
        <ele>54.3</ele>
        <time>2018-04-08T10:37:59Z</time>
      </trkpt>
      <trkpt lat="48.03914" lon="-0.69609">
        <ele>54.4</ele>
        <time>2018-04-08T10:38:03Z</time>
      </trkpt>
      <trkpt lat="48.03919" lon="-0.69612">
        <ele>52.4</ele>
        <time>2018-04-08T10:38:07Z</time>
      </trkpt>
      <trkpt lat="48.03924" lon="-0.69616">
        <ele>52.5</ele>
        <time>2018-04-08T10:38:11Z</time>
      </trkpt>
      <trkpt lat="48.03928" lon="-0.69619">
        <ele>52.5</ele>
        <time>2018-04-08T10:38:15Z</time>
      </trkpt>
      <trkpt lat="48.03933" lon="-0.69622">
        <ele>52.5</ele>
        <time>2018-04-08T10:38:19Z</time>
      </trkpt>
      <trkpt lat="48.03937" lon="-0.69626">
        <ele>52.6</ele>
        <time>2018-04-08T10:38:23Z</time>
      </trkpt>
      <trkpt lat="48.03942" lon="-0.69629">
        <ele>52.6</ele>
        <time>2018-04-08T10:38:27Z</time>
      </trkpt>
      <trkpt lat="48.03946" lon="-0.69632">
        <ele>52.5</ele>
        <time>2018-04-08T10:38:31Z</time>
      </trkpt>
      <trkpt lat="48.03952" lon="-0.69637">
        <ele>52.5</ele>
        <time>2018-04-08T10:38:35Z</time>
      </trkpt>
      <trkpt lat="48.03957" lon="-0.69641">
        <ele>52.4</ele>
        <time>2018-04-08T10:38:39Z</time>
      </trkpt>
      <trkpt lat="48.03961" lon="-0.69644">
        <ele>52.3</ele>
        <time>2018-04-08T10:38:43Z</time>
      </trkpt>
      <trkpt lat="48.03966" lon="-0.69647">
        <ele>52.2</ele>
        <time>2018-04-08T10:38:47Z</time>
      </trkpt>
      <trkpt lat="48.03971" lon="-0.69652">
        <ele>52.1</ele>
        <time>2018-04-08T10:38:51Z</time>
      </trkpt>
      <trkpt lat="48.03976" lon="-0.69656">
        <ele>52</ele>
        <time>2018-04-08T10:38:55Z</time>
      </trkpt>
      <trkpt lat="48.03982" lon="-0.6966">
        <ele>51.8</ele>
        <time>2018-04-08T10:38:59Z</time>
      </trkpt>
      <trkpt lat="48.03986" lon="-0.69664">
        <ele>51.6</ele>
        <time>2018-04-08T10:39:03Z</time>
      </trkpt>
      <trkpt lat="48.0399" lon="-0.69668">
        <ele>52.2</ele>
        <time>2018-04-08T10:39:07Z</time>
      </trkpt>
      <trkpt lat="48.03995" lon="-0.69672">
        <ele>52</ele>
        <time>2018-04-08T10:39:11Z</time>
      </trkpt>
      <trkpt lat="48.03999" lon="-0.69675">
        <ele>52.1</ele>
        <time>2018-04-08T10:39:15Z</time>
      </trkpt>
      <trkpt lat="48.04003" lon="-0.69679">
        <ele>51.6</ele>
        <time>2018-04-08T10:39:19Z</time>
      </trkpt>
      <trkpt lat="48.04006" lon="-0.6968">
        <ele>51.7</ele>
        <time>2018-04-08T10:39:23Z</time>
      </trkpt>
      <trkpt lat="48.0401" lon="-0.69685">
        <ele>51.8</ele>
        <time>2018-04-08T10:39:39Z</time>
      </trkpt>
      <trkpt lat="48.04012" lon="-0.69687">
        <ele>51.9</ele>
        <time>2018-04-08T10:39:43Z</time>
      </trkpt>
      <trkpt lat="48.04016" lon="-0.6969">
        <ele>52</ele>
        <time>2018-04-08T10:39:47Z</time>
      </trkpt>
      <trkpt lat="48.04018" lon="-0.69691">
        <ele>52.1</ele>
        <time>2018-04-08T10:39:51Z</time>
      </trkpt>
      <trkpt lat="48.04022" lon="-0.69693">
        <ele>52.1</ele>
        <time>2018-04-08T10:39:55Z</time>
      </trkpt>
      <trkpt lat="48.04025" lon="-0.69697">
        <ele>52.2</ele>
        <time>2018-04-08T10:39:59Z</time>
      </trkpt>
      <trkpt lat="48.04028" lon="-0.69699">
        <ele>52.2</ele>
        <time>2018-04-08T10:40:03Z</time>
      </trkpt>
      <trkpt lat="48.04031" lon="-0.69703">
        <ele>52.3</ele>
        <time>2018-04-08T10:40:07Z</time>
      </trkpt>
      <trkpt lat="48.04033" lon="-0.69708">
        <ele>52.3</ele>
        <time>2018-04-08T10:40:11Z</time>
      </trkpt>
      <trkpt lat="48.04034" lon="-0.69709">
        <ele>52.3</ele>
        <time>2018-04-08T10:40:23Z</time>
      </trkpt>
      <trkpt lat="48.04037" lon="-0.69716">
        <ele>52.4</ele>
        <time>2018-04-08T10:40:27Z</time>
      </trkpt>
      <trkpt lat="48.04041" lon="-0.69723">
        <ele>52.4</ele>
        <time>2018-04-08T10:40:31Z</time>
      </trkpt>
      <trkpt lat="48.04044" lon="-0.69731">
        <ele>52.4</ele>
        <time>2018-04-08T10:40:35Z</time>
      </trkpt>
      <trkpt lat="48.04047" lon="-0.69738">
        <ele>52.3</ele>
        <time>2018-04-08T10:40:39Z</time>
      </trkpt>
      <trkpt lat="48.0405" lon="-0.69745">
        <ele>52.3</ele>
        <time>2018-04-08T10:40:43Z</time>
      </trkpt>
      <trkpt lat="48.04052" lon="-0.69751">
        <ele>52.8</ele>
        <time>2018-04-08T10:40:47Z</time>
      </trkpt>
      <trkpt lat="48.04055" lon="-0.69759">
        <ele>52.7</ele>
        <time>2018-04-08T10:40:51Z</time>
      </trkpt>
      <trkpt lat="48.04058" lon="-0.69765">
        <ele>52.6</ele>
        <time>2018-04-08T10:40:55Z</time>
      </trkpt>
      <trkpt lat="48.0406" lon="-0.69772">
        <ele>52.6</ele>
        <time>2018-04-08T10:40:59Z</time>
      </trkpt>
      <trkpt lat="48.04063" lon="-0.69778">
        <ele>52.6</ele>
        <time>2018-04-08T10:41:03Z</time>
      </trkpt>
      <trkpt lat="48.04065" lon="-0.69786">
        <ele>52.6</ele>
        <time>2018-04-08T10:41:07Z</time>
      </trkpt>
      <trkpt lat="48.04069" lon="-0.69794">
        <ele>52.6</ele>
        <time>2018-04-08T10:41:11Z</time>
      </trkpt>
      <trkpt lat="48.04072" lon="-0.698">
        <ele>52.5</ele>
        <time>2018-04-08T10:41:15Z</time>
      </trkpt>
      <trkpt lat="48.04074" lon="-0.69809">
        <ele>52.4</ele>
        <time>2018-04-08T10:41:19Z</time>
      </trkpt>
      <trkpt lat="48.04076" lon="-0.69816">
        <ele>52.2</ele>
        <time>2018-04-08T10:41:23Z</time>
      </trkpt>
      <trkpt lat="48.04079" lon="-0.69824">
        <ele>51.8</ele>
        <time>2018-04-08T10:41:27Z</time>
      </trkpt>
      <trkpt lat="48.04081" lon="-0.69831">
        <ele>51.3</ele>
        <time>2018-04-08T10:41:31Z</time>
      </trkpt>
      <trkpt lat="48.04084" lon="-0.69838">
        <ele>51</ele>
        <time>2018-04-08T10:41:35Z</time>
      </trkpt>
      <trkpt lat="48.04087" lon="-0.69844">
        <ele>51</ele>
        <time>2018-04-08T10:41:39Z</time>
      </trkpt>
      <trkpt lat="48.0409" lon="-0.69851">
        <ele>51.1</ele>
        <time>2018-04-08T10:41:43Z</time>
      </trkpt>
      <trkpt lat="48.04093" lon="-0.69857">
        <ele>51.1</ele>
        <time>2018-04-08T10:41:47Z</time>
      </trkpt>
      <trkpt lat="48.04095" lon="-0.69862">
        <ele>51.1</ele>
        <time>2018-04-08T10:41:51Z</time>
      </trkpt>
      <trkpt lat="48.04098" lon="-0.69868">
        <ele>51.1</ele>
        <time>2018-04-08T10:41:55Z</time>
      </trkpt>
      <trkpt lat="48.04101" lon="-0.69873">
        <ele>51.1</ele>
        <time>2018-04-08T10:41:59Z</time>
      </trkpt>
      <trkpt lat="48.04103" lon="-0.69877">
        <ele>51.1</ele>
        <time>2018-04-08T10:42:03Z</time>
      </trkpt>
      <trkpt lat="48.04105" lon="-0.69881">
        <ele>51.1</ele>
        <time>2018-04-08T10:42:07Z</time>
      </trkpt>
      <trkpt lat="48.04106" lon="-0.69886">
        <ele>51.2</ele>
        <time>2018-04-08T10:42:11Z</time>
      </trkpt>
      <trkpt lat="48.04107" lon="-0.69891">
        <ele>51.2</ele>
        <time>2018-04-08T10:42:15Z</time>
      </trkpt>
      <trkpt lat="48.04106" lon="-0.69897">
        <ele>51.2</ele>
        <time>2018-04-08T10:42:19Z</time>
      </trkpt>
      <trkpt lat="48.04103" lon="-0.699">
        <ele>51.3</ele>
        <time>2018-04-08T10:42:23Z</time>
      </trkpt>
      <trkpt lat="48.04099" lon="-0.69904">
        <ele>51.4</ele>
        <time>2018-04-08T10:42:27Z</time>
      </trkpt>
      <trkpt lat="48.04095" lon="-0.69908">
        <ele>51.5</ele>
        <time>2018-04-08T10:42:31Z</time>
      </trkpt>
      <trkpt lat="48.04091" lon="-0.69913">
        <ele>51.7</ele>
        <time>2018-04-08T10:42:35Z</time>
      </trkpt>
      <trkpt lat="48.04086" lon="-0.69918">
        <ele>51.9</ele>
        <time>2018-04-08T10:42:39Z</time>
      </trkpt>
      <trkpt lat="48.0408" lon="-0.69922">
        <ele>52.2</ele>
        <time>2018-04-08T10:42:43Z</time>
      </trkpt>
      <trkpt lat="48.04074" lon="-0.69925">
        <ele>52.3</ele>
        <time>2018-04-08T10:42:47Z</time>
      </trkpt>
      <trkpt lat="48.0407" lon="-0.69928">
        <ele>52.4</ele>
        <time>2018-04-08T10:42:51Z</time>
      </trkpt>
      <trkpt lat="48.04063" lon="-0.69931">
        <ele>52.5</ele>
        <time>2018-04-08T10:42:55Z</time>
      </trkpt>
      <trkpt lat="48.04058" lon="-0.69934">
        <ele>52.6</ele>
        <time>2018-04-08T10:42:59Z</time>
      </trkpt>
      <trkpt lat="48.04053" lon="-0.69936">
        <ele>52.7</ele>
        <time>2018-04-08T10:43:03Z</time>
      </trkpt>
      <trkpt lat="48.04051" lon="-0.69938">
        <ele>52.7</ele>
        <time>2018-04-08T10:43:39Z</time>
      </trkpt>
      <trkpt lat="48.04051" lon="-0.69935">
        <ele>52.7</ele>
        <time>2018-04-08T10:46:55Z</time>
      </trkpt>
      <trkpt lat="48.0405" lon="-0.69937">
        <ele>52.8</ele>
        <time>2018-04-08T10:47:03Z</time>
      </trkpt>
      <trkpt lat="48.04048" lon="-0.69937">
        <ele>52.8</ele>
        <time>2018-04-08T10:47:07Z</time>
      </trkpt>
      <trkpt lat="48.04046" lon="-0.69938">
        <ele>52.8</ele>
        <time>2018-04-08T10:47:11Z</time>
      </trkpt>
      <trkpt lat="48.04039" lon="-0.69941">
        <ele>53</ele>
        <time>2018-04-08T10:47:15Z</time>
      </trkpt>
      <trkpt lat="48.04035" lon="-0.69943">
        <ele>53</ele>
        <time>2018-04-08T10:47:23Z</time>
      </trkpt>
      <trkpt lat="48.04039" lon="-0.69941">
        <ele>53</ele>
        <time>2018-04-08T10:47:27Z</time>
      </trkpt>
      <trkpt lat="48.04042" lon="-0.69939">
        <ele>52.9</ele>
        <time>2018-04-08T10:48:11Z</time>
      </trkpt>
      <trkpt lat="48.0404" lon="-0.6994">
        <ele>52.9</ele>
        <time>2018-04-08T10:48:15Z</time>
      </trkpt>
      <trkpt lat="48.04036" lon="-0.69943">
        <ele>53</ele>
        <time>2018-04-08T10:48:19Z</time>
      </trkpt>
      <trkpt lat="48.0403" lon="-0.69946">
        <ele>53.1</ele>
        <time>2018-04-08T10:48:23Z</time>
      </trkpt>
      <trkpt lat="48.04021" lon="-0.6995">
        <ele>53.2</ele>
        <time>2018-04-08T10:48:27Z</time>
      </trkpt>
      <trkpt lat="48.04013" lon="-0.69952">
        <ele>53.2</ele>
        <time>2018-04-08T10:48:31Z</time>
      </trkpt>
      <trkpt lat="48.04007" lon="-0.69954">
        <ele>53.3</ele>
        <time>2018-04-08T10:48:35Z</time>
      </trkpt>
      <trkpt lat="48.04" lon="-0.69957">
        <ele>53.2</ele>
        <time>2018-04-08T10:48:39Z</time>
      </trkpt>
      <trkpt lat="48.03994" lon="-0.6996">
        <ele>56.1</ele>
        <time>2018-04-08T10:48:43Z</time>
      </trkpt>
      <trkpt lat="48.03986" lon="-0.69963">
        <ele>56.2</ele>
        <time>2018-04-08T10:48:47Z</time>
      </trkpt>
      <trkpt lat="48.03978" lon="-0.69965">
        <ele>56.4</ele>
        <time>2018-04-08T10:48:51Z</time>
      </trkpt>
      <trkpt lat="48.03972" lon="-0.69968">
        <ele>56.6</ele>
        <time>2018-04-08T10:48:55Z</time>
      </trkpt>
      <trkpt lat="48.03965" lon="-0.69972">
        <ele>56.8</ele>
        <time>2018-04-08T10:48:59Z</time>
      </trkpt>
      <trkpt lat="48.03958" lon="-0.69974">
        <ele>57.1</ele>
        <time>2018-04-08T10:49:03Z</time>
      </trkpt>
      <trkpt lat="48.03951" lon="-0.69977">
        <ele>57.4</ele>
        <time>2018-04-08T10:49:07Z</time>
      </trkpt>
      <trkpt lat="48.03944" lon="-0.69979">
        <ele>57.8</ele>
        <time>2018-04-08T10:49:11Z</time>
      </trkpt>
      <trkpt lat="48.03937" lon="-0.69981">
        <ele>58.1</ele>
        <time>2018-04-08T10:49:15Z</time>
      </trkpt>
      <trkpt lat="48.03931" lon="-0.69983">
        <ele>58.4</ele>
        <time>2018-04-08T10:49:19Z</time>
      </trkpt>
      <trkpt lat="48.03924" lon="-0.69984">
        <ele>58.7</ele>
        <time>2018-04-08T10:49:23Z</time>
      </trkpt>
      <trkpt lat="48.03918" lon="-0.69987">
        <ele>58.9</ele>
        <time>2018-04-08T10:49:27Z</time>
      </trkpt>
      <trkpt lat="48.03912" lon="-0.69989">
        <ele>60.7</ele>
        <time>2018-04-08T10:49:31Z</time>
      </trkpt>
      <trkpt lat="48.03906" lon="-0.6999">
        <ele>60.8</ele>
        <time>2018-04-08T10:49:35Z</time>
      </trkpt>
      <trkpt lat="48.03899" lon="-0.69991">
        <ele>61</ele>
        <time>2018-04-08T10:49:39Z</time>
      </trkpt>
      <trkpt lat="48.03893" lon="-0.69992">
        <ele>61.2</ele>
        <time>2018-04-08T10:49:43Z</time>
      </trkpt>
      <trkpt lat="48.03886" lon="-0.69994">
        <ele>61.4</ele>
        <time>2018-04-08T10:49:47Z</time>
      </trkpt>
      <trkpt lat="48.03877" lon="-0.69995">
        <ele>61.6</ele>
        <time>2018-04-08T10:49:51Z</time>
      </trkpt>
      <trkpt lat="48.03868" lon="-0.69998">
        <ele>61.9</ele>
        <time>2018-04-08T10:49:55Z</time>
      </trkpt>
      <trkpt lat="48.03856" lon="-0.70002">
        <ele>61.3</ele>
        <time>2018-04-08T10:49:59Z</time>
      </trkpt>
      <trkpt lat="48.03846" lon="-0.70005">
        <ele>61.8</ele>
        <time>2018-04-08T10:50:03Z</time>
      </trkpt>
      <trkpt lat="48.03834" lon="-0.7001">
        <ele>62.1</ele>
        <time>2018-04-08T10:50:07Z</time>
      </trkpt>
      <trkpt lat="48.03821" lon="-0.70015">
        <ele>61.9</ele>
        <time>2018-04-08T10:50:11Z</time>
      </trkpt>
      <trkpt lat="48.03809" lon="-0.70021">
        <ele>61.5</ele>
        <time>2018-04-08T10:50:15Z</time>
      </trkpt>
      <trkpt lat="48.03796" lon="-0.70027">
        <ele>61.3</ele>
        <time>2018-04-08T10:50:19Z</time>
      </trkpt>
      <trkpt lat="48.03784" lon="-0.70034">
        <ele>61.1</ele>
        <time>2018-04-08T10:50:23Z</time>
      </trkpt>
      <trkpt lat="48.03772" lon="-0.70042">
        <ele>61</ele>
        <time>2018-04-08T10:50:27Z</time>
      </trkpt>
      <trkpt lat="48.03761" lon="-0.70046">
        <ele>60.9</ele>
        <time>2018-04-08T10:50:31Z</time>
      </trkpt>
      <trkpt lat="48.03749" lon="-0.70053">
        <ele>60.2</ele>
        <time>2018-04-08T10:50:35Z</time>
      </trkpt>
      <trkpt lat="48.03733" lon="-0.70062">
        <ele>60</ele>
        <time>2018-04-08T10:50:39Z</time>
      </trkpt>
      <trkpt lat="48.03714" lon="-0.7007">
        <ele>59.8</ele>
        <time>2018-04-08T10:50:43Z</time>
      </trkpt>
      <trkpt lat="48.03695" lon="-0.70078">
        <ele>59.4</ele>
        <time>2018-04-08T10:50:47Z</time>
      </trkpt>
      <trkpt lat="48.0367" lon="-0.7008">
        <ele>58.3</ele>
        <time>2018-04-08T10:50:51Z</time>
      </trkpt>
      <trkpt lat="48.03641" lon="-0.70085">
        <ele>56.6</ele>
        <time>2018-04-08T10:50:55Z</time>
      </trkpt>
      <trkpt lat="48.03613" lon="-0.70089">
        <ele>56</ele>
        <time>2018-04-08T10:50:59Z</time>
      </trkpt>
      <trkpt lat="48.03583" lon="-0.70093">
        <ele>56</ele>
        <time>2018-04-08T10:51:03Z</time>
      </trkpt>
      <trkpt lat="48.03553" lon="-0.701">
        <ele>56</ele>
        <time>2018-04-08T10:51:07Z</time>
      </trkpt>
      <trkpt lat="48.03526" lon="-0.70106">
        <ele>56.3</ele>
        <time>2018-04-08T10:51:11Z</time>
      </trkpt>
      <trkpt lat="48.03505" lon="-0.70111">
        <ele>56.4</ele>
        <time>2018-04-08T10:51:15Z</time>
      </trkpt>
      <trkpt lat="48.03488" lon="-0.7012">
        <ele>58</ele>
        <time>2018-04-08T10:51:19Z</time>
      </trkpt>
      <trkpt lat="48.03472" lon="-0.70135">
        <ele>58.2</ele>
        <time>2018-04-08T10:51:23Z</time>
      </trkpt>
      <trkpt lat="48.03456" lon="-0.70147">
        <ele>58.3</ele>
        <time>2018-04-08T10:51:27Z</time>
      </trkpt>
      <trkpt lat="48.03438" lon="-0.70161">
        <ele>58.3</ele>
        <time>2018-04-08T10:51:31Z</time>
      </trkpt>
      <trkpt lat="48.03421" lon="-0.70176">
        <ele>57.7</ele>
        <time>2018-04-08T10:51:35Z</time>
      </trkpt>
      <trkpt lat="48.0341" lon="-0.70191">
        <ele>58.7</ele>
        <time>2018-04-08T10:51:39Z</time>
      </trkpt>
      <trkpt lat="48.03403" lon="-0.70211">
        <ele>58.7</ele>
        <time>2018-04-08T10:51:43Z</time>
      </trkpt>
      <trkpt lat="48.03394" lon="-0.70234">
        <ele>58.4</ele>
        <time>2018-04-08T10:51:47Z</time>
      </trkpt>
      <trkpt lat="48.03385" lon="-0.70258">
        <ele>57</ele>
        <time>2018-04-08T10:51:51Z</time>
      </trkpt>
      <trkpt lat="48.03376" lon="-0.70284">
        <ele>56.9</ele>
        <time>2018-04-08T10:51:55Z</time>
      </trkpt>
      <trkpt lat="48.03368" lon="-0.70305">
        <ele>56.7</ele>
        <time>2018-04-08T10:51:59Z</time>
      </trkpt>
      <trkpt lat="48.0336" lon="-0.70326">
        <ele>56.6</ele>
        <time>2018-04-08T10:52:03Z</time>
      </trkpt>
      <trkpt lat="48.03353" lon="-0.70347">
        <ele>55.3</ele>
        <time>2018-04-08T10:52:07Z</time>
      </trkpt>
      <trkpt lat="48.03347" lon="-0.70367">
        <ele>54.9</ele>
        <time>2018-04-08T10:52:11Z</time>
      </trkpt>
      <trkpt lat="48.03341" lon="-0.70384">
        <ele>54.7</ele>
        <time>2018-04-08T10:52:15Z</time>
      </trkpt>
      <trkpt lat="48.03336" lon="-0.70399">
        <ele>54.7</ele>
        <time>2018-04-08T10:52:19Z</time>
      </trkpt>
      <trkpt lat="48.03332" lon="-0.70412">
        <ele>56</ele>
        <time>2018-04-08T10:52:23Z</time>
      </trkpt>
      <trkpt lat="48.03327" lon="-0.7042">
        <ele>56.3</ele>
        <time>2018-04-08T10:52:27Z</time>
      </trkpt>
      <trkpt lat="48.03324" lon="-0.70426">
        <ele>57.1</ele>
        <time>2018-04-08T10:52:31Z</time>
      </trkpt>
      <trkpt lat="48.03319" lon="-0.7043">
        <ele>57.8</ele>
        <time>2018-04-08T10:52:35Z</time>
      </trkpt>
      <trkpt lat="48.03308" lon="-0.70429">
        <ele>58.7</ele>
        <time>2018-04-08T10:52:39Z</time>
      </trkpt>
      <trkpt lat="48.03301" lon="-0.70421">
        <ele>59.3</ele>
        <time>2018-04-08T10:52:43Z</time>
      </trkpt>
      <trkpt lat="48.03296" lon="-0.7041">
        <ele>60.1</ele>
        <time>2018-04-08T10:52:47Z</time>
      </trkpt>
      <trkpt lat="48.0329" lon="-0.70402">
        <ele>60.7</ele>
        <time>2018-04-08T10:52:51Z</time>
      </trkpt>
      <trkpt lat="48.03284" lon="-0.70392">
        <ele>61.1</ele>
        <time>2018-04-08T10:52:55Z</time>
      </trkpt>
      <trkpt lat="48.03278" lon="-0.70382">
        <ele>61.5</ele>
        <time>2018-04-08T10:52:59Z</time>
      </trkpt>
      <trkpt lat="48.03271" lon="-0.7037">
        <ele>61.9</ele>
        <time>2018-04-08T10:53:03Z</time>
      </trkpt>
      <trkpt lat="48.03264" lon="-0.70358">
        <ele>62.6</ele>
        <time>2018-04-08T10:53:07Z</time>
      </trkpt>
      <trkpt lat="48.03257" lon="-0.70347">
        <ele>63.7</ele>
        <time>2018-04-08T10:53:11Z</time>
      </trkpt>
      <trkpt lat="48.03251" lon="-0.70336">
        <ele>65.5</ele>
        <time>2018-04-08T10:53:15Z</time>
      </trkpt>
      <trkpt lat="48.03244" lon="-0.70325">
        <ele>67.4</ele>
        <time>2018-04-08T10:53:19Z</time>
      </trkpt>
      <trkpt lat="48.03238" lon="-0.70314">
        <ele>68.4</ele>
        <time>2018-04-08T10:53:23Z</time>
      </trkpt>
      <trkpt lat="48.03232" lon="-0.70304">
        <ele>69</ele>
        <time>2018-04-08T10:53:27Z</time>
      </trkpt>
      <trkpt lat="48.03226" lon="-0.70293">
        <ele>69.3</ele>
        <time>2018-04-08T10:53:31Z</time>
      </trkpt>
      <trkpt lat="48.0322" lon="-0.70282">
        <ele>69.5</ele>
        <time>2018-04-08T10:53:35Z</time>
      </trkpt>
      <trkpt lat="48.03213" lon="-0.70269">
        <ele>69.7</ele>
        <time>2018-04-08T10:53:39Z</time>
      </trkpt>
      <trkpt lat="48.03206" lon="-0.70258">
        <ele>70</ele>
        <time>2018-04-08T10:53:43Z</time>
      </trkpt>
      <trkpt lat="48.03199" lon="-0.70246">
        <ele>70.6</ele>
        <time>2018-04-08T10:53:47Z</time>
      </trkpt>
      <trkpt lat="48.03194" lon="-0.70235">
        <ele>70.8</ele>
        <time>2018-04-08T10:53:51Z</time>
      </trkpt>
      <trkpt lat="48.03186" lon="-0.70229">
        <ele>71</ele>
        <time>2018-04-08T10:53:55Z</time>
      </trkpt>
      <trkpt lat="48.0318" lon="-0.70221">
        <ele>71.1</ele>
        <time>2018-04-08T10:53:59Z</time>
      </trkpt>
      <trkpt lat="48.03175" lon="-0.70213">
        <ele>71.3</ele>
        <time>2018-04-08T10:54:03Z</time>
      </trkpt>
      <trkpt lat="48.0317" lon="-0.70206">
        <ele>71.5</ele>
        <time>2018-04-08T10:54:07Z</time>
      </trkpt>
      <trkpt lat="48.03166" lon="-0.70198">
        <ele>75.1</ele>
        <time>2018-04-08T10:54:11Z</time>
      </trkpt>
      <trkpt lat="48.0316" lon="-0.7019">
        <ele>75.2</ele>
        <time>2018-04-08T10:54:15Z</time>
      </trkpt>
      <trkpt lat="48.03156" lon="-0.70181">
        <ele>75.1</ele>
        <time>2018-04-08T10:54:19Z</time>
      </trkpt>
      <trkpt lat="48.03152" lon="-0.70174">
        <ele>75.2</ele>
        <time>2018-04-08T10:54:23Z</time>
      </trkpt>
      <trkpt lat="48.03149" lon="-0.70169">
        <ele>75.3</ele>
        <time>2018-04-08T10:54:27Z</time>
      </trkpt>
      <trkpt lat="48.03146" lon="-0.70162">
        <ele>77.2</ele>
        <time>2018-04-08T10:54:31Z</time>
      </trkpt>
      <trkpt lat="48.03143" lon="-0.70156">
        <ele>77.6</ele>
        <time>2018-04-08T10:54:35Z</time>
      </trkpt>
      <trkpt lat="48.03139" lon="-0.70151">
        <ele>78.1</ele>
        <time>2018-04-08T10:54:39Z</time>
      </trkpt>
      <trkpt lat="48.03136" lon="-0.70146">
        <ele>78.4</ele>
        <time>2018-04-08T10:54:43Z</time>
      </trkpt>
      <trkpt lat="48.03133" lon="-0.7014">
        <ele>78.8</ele>
        <time>2018-04-08T10:54:47Z</time>
      </trkpt>
      <trkpt lat="48.0313" lon="-0.70135">
        <ele>79.1</ele>
        <time>2018-04-08T10:54:51Z</time>
      </trkpt>
      <trkpt lat="48.03127" lon="-0.7013">
        <ele>79.3</ele>
        <time>2018-04-08T10:54:55Z</time>
      </trkpt>
      <trkpt lat="48.03124" lon="-0.70123">
        <ele>79.6</ele>
        <time>2018-04-08T10:54:59Z</time>
      </trkpt>
      <trkpt lat="48.0312" lon="-0.70118">
        <ele>79.9</ele>
        <time>2018-04-08T10:55:03Z</time>
      </trkpt>
      <trkpt lat="48.03116" lon="-0.70112">
        <ele>80.3</ele>
        <time>2018-04-08T10:55:07Z</time>
      </trkpt>
      <trkpt lat="48.03112" lon="-0.70106">
        <ele>80.6</ele>
        <time>2018-04-08T10:55:11Z</time>
      </trkpt>
      <trkpt lat="48.03109" lon="-0.701">
        <ele>81</ele>
        <time>2018-04-08T10:55:15Z</time>
      </trkpt>
      <trkpt lat="48.03105" lon="-0.70095">
        <ele>81.5</ele>
        <time>2018-04-08T10:55:19Z</time>
      </trkpt>
      <trkpt lat="48.03102" lon="-0.70089">
        <ele>82</ele>
        <time>2018-04-08T10:55:23Z</time>
      </trkpt>
      <trkpt lat="48.03098" lon="-0.70088">
        <ele>82.5</ele>
        <time>2018-04-08T10:55:27Z</time>
      </trkpt>
      <trkpt lat="48.0309" lon="-0.70089">
        <ele>83.4</ele>
        <time>2018-04-08T10:55:31Z</time>
      </trkpt>
      <trkpt lat="48.03084" lon="-0.7009">
        <ele>83.8</ele>
        <time>2018-04-08T10:55:35Z</time>
      </trkpt>
      <trkpt lat="48.0308" lon="-0.70091">
        <ele>85.2</ele>
        <time>2018-04-08T10:55:39Z</time>
      </trkpt>
      <trkpt lat="48.03073" lon="-0.7009">
        <ele>85.3</ele>
        <time>2018-04-08T10:55:47Z</time>
      </trkpt>
      <trkpt lat="48.03064" lon="-0.70091">
        <ele>85.5</ele>
        <time>2018-04-08T10:55:51Z</time>
      </trkpt>
      <trkpt lat="48.03057" lon="-0.7009">
        <ele>85.8</ele>
        <time>2018-04-08T10:55:55Z</time>
      </trkpt>
      <trkpt lat="48.03051" lon="-0.7009">
        <ele>86</ele>
        <time>2018-04-08T10:55:59Z</time>
      </trkpt>
      <trkpt lat="48.03046" lon="-0.70089">
        <ele>86.2</ele>
        <time>2018-04-08T10:56:03Z</time>
      </trkpt>
      <trkpt lat="48.03041" lon="-0.70087">
        <ele>86.4</ele>
        <time>2018-04-08T10:56:07Z</time>
      </trkpt>
      <trkpt lat="48.03034" lon="-0.70086">
        <ele>86.8</ele>
        <time>2018-04-08T10:56:15Z</time>
      </trkpt>
      <trkpt lat="48.03027" lon="-0.70082">
        <ele>88.3</ele>
        <time>2018-04-08T10:56:19Z</time>
      </trkpt>
      <trkpt lat="48.0302" lon="-0.7008">
        <ele>88.7</ele>
        <time>2018-04-08T10:56:27Z</time>
      </trkpt>
      <trkpt lat="48.03014" lon="-0.70079">
        <ele>88.9</ele>
        <time>2018-04-08T10:56:31Z</time>
      </trkpt>
      <trkpt lat="48.03005" lon="-0.70077">
        <ele>89.4</ele>
        <time>2018-04-08T10:56:35Z</time>
      </trkpt>
      <trkpt lat="48.03" lon="-0.70076">
        <ele>90.6</ele>
        <time>2018-04-08T10:56:39Z</time>
      </trkpt>
      <trkpt lat="48.02994" lon="-0.70076">
        <ele>90.8</ele>
        <time>2018-04-08T10:56:43Z</time>
      </trkpt>
      <trkpt lat="48.02986" lon="-0.70074">
        <ele>91.3</ele>
        <time>2018-04-08T10:56:47Z</time>
      </trkpt>
      <trkpt lat="48.02978" lon="-0.70074">
        <ele>91.6</ele>
        <time>2018-04-08T10:56:51Z</time>
      </trkpt>
      <trkpt lat="48.02973" lon="-0.70075">
        <ele>91.9</ele>
        <time>2018-04-08T10:57:07Z</time>
      </trkpt>
      <trkpt lat="48.02971" lon="-0.70075">
        <ele>92</ele>
        <time>2018-04-08T10:57:11Z</time>
      </trkpt>
      <trkpt lat="48.02969" lon="-0.70075">
        <ele>92</ele>
        <time>2018-04-08T10:57:15Z</time>
      </trkpt>
      <trkpt lat="48.02965" lon="-0.70075">
        <ele>92.2</ele>
        <time>2018-04-08T10:57:19Z</time>
      </trkpt>
      <trkpt lat="48.02961" lon="-0.70075">
        <ele>92.4</ele>
        <time>2018-04-08T10:57:23Z</time>
      </trkpt>
      <trkpt lat="48.02954" lon="-0.70075">
        <ele>92.7</ele>
        <time>2018-04-08T10:57:31Z</time>
      </trkpt>
      <trkpt lat="48.0295" lon="-0.70075">
        <ele>92.9</ele>
        <time>2018-04-08T10:57:35Z</time>
      </trkpt>
      <trkpt lat="48.02944" lon="-0.70074">
        <ele>93.1</ele>
        <time>2018-04-08T10:57:39Z</time>
      </trkpt>
      <trkpt lat="48.02939" lon="-0.70076">
        <ele>93.4</ele>
        <time>2018-04-08T10:57:43Z</time>
      </trkpt>
      <trkpt lat="48.02936" lon="-0.70078">
        <ele>93.6</ele>
        <time>2018-04-08T10:57:47Z</time>
      </trkpt>
      <trkpt lat="48.02931" lon="-0.7008">
        <ele>93.9</ele>
        <time>2018-04-08T10:57:51Z</time>
      </trkpt>
      <trkpt lat="48.02925" lon="-0.7008">
        <ele>94.2</ele>
        <time>2018-04-08T10:57:55Z</time>
      </trkpt>
      <trkpt lat="48.02924" lon="-0.70082">
        <ele>94.4</ele>
        <time>2018-04-08T10:57:59Z</time>
      </trkpt>
      <trkpt lat="48.02917" lon="-0.70082">
        <ele>94.9</ele>
        <time>2018-04-08T10:58:11Z</time>
      </trkpt>
      <trkpt lat="48.02916" lon="-0.70082">
        <ele>95.1</ele>
        <time>2018-04-08T10:58:15Z</time>
      </trkpt>
      <trkpt lat="48.02912" lon="-0.70083">
        <ele>95.3</ele>
        <time>2018-04-08T10:58:23Z</time>
      </trkpt>
      <trkpt lat="48.02908" lon="-0.70083">
        <ele>95.6</ele>
        <time>2018-04-08T10:58:27Z</time>
      </trkpt>
      <trkpt lat="48.02901" lon="-0.70084">
        <ele>95.5</ele>
        <time>2018-04-08T10:58:31Z</time>
      </trkpt>
      <trkpt lat="48.02895" lon="-0.70084">
        <ele>95.6</ele>
        <time>2018-04-08T10:58:35Z</time>
      </trkpt>
      <trkpt lat="48.02891" lon="-0.70083">
        <ele>96.4</ele>
        <time>2018-04-08T10:58:39Z</time>
      </trkpt>
      <trkpt lat="48.02887" lon="-0.70081">
        <ele>96.6</ele>
        <time>2018-04-08T10:58:43Z</time>
      </trkpt>
      <trkpt lat="48.02883" lon="-0.7008">
        <ele>96.7</ele>
        <time>2018-04-08T10:58:51Z</time>
      </trkpt>
      <trkpt lat="48.02879" lon="-0.70079">
        <ele>96.9</ele>
        <time>2018-04-08T10:58:55Z</time>
      </trkpt>
      <trkpt lat="48.02876" lon="-0.70077">
        <ele>97</ele>
        <time>2018-04-08T10:58:59Z</time>
      </trkpt>
      <trkpt lat="48.02871" lon="-0.70076">
        <ele>97.1</ele>
        <time>2018-04-08T10:59:03Z</time>
      </trkpt>
      <trkpt lat="48.02868" lon="-0.70075">
        <ele>97.3</ele>
        <time>2018-04-08T10:59:11Z</time>
      </trkpt>
      <trkpt lat="48.02865" lon="-0.70074">
        <ele>97.4</ele>
        <time>2018-04-08T10:59:15Z</time>
      </trkpt>
      <trkpt lat="48.0286" lon="-0.7007">
        <ele>97.5</ele>
        <time>2018-04-08T10:59:19Z</time>
      </trkpt>
      <trkpt lat="48.02855" lon="-0.70067">
        <ele>97.6</ele>
        <time>2018-04-08T10:59:23Z</time>
      </trkpt>
      <trkpt lat="48.02849" lon="-0.70062">
        <ele>97.7</ele>
        <time>2018-04-08T10:59:27Z</time>
      </trkpt>
      <trkpt lat="48.02842" lon="-0.70059">
        <ele>97.8</ele>
        <time>2018-04-08T10:59:35Z</time>
      </trkpt>
      <trkpt lat="48.02837" lon="-0.70057">
        <ele>97.9</ele>
        <time>2018-04-08T10:59:39Z</time>
      </trkpt>
      <trkpt lat="48.02829" lon="-0.7005">
        <ele>99</ele>
        <time>2018-04-08T10:59:43Z</time>
      </trkpt>
      <trkpt lat="48.02824" lon="-0.70045">
        <ele>99</ele>
        <time>2018-04-08T10:59:47Z</time>
      </trkpt>
      <trkpt lat="48.02819" lon="-0.7004">
        <ele>99</ele>
        <time>2018-04-08T10:59:51Z</time>
      </trkpt>
      <trkpt lat="48.02814" lon="-0.70039">
        <ele>99</ele>
        <time>2018-04-08T10:59:55Z</time>
      </trkpt>
      <trkpt lat="48.0281" lon="-0.70037">
        <ele>99</ele>
        <time>2018-04-08T10:59:59Z</time>
      </trkpt>
      <trkpt lat="48.02806" lon="-0.70033">
        <ele>99</ele>
        <time>2018-04-08T11:00:03Z</time>
      </trkpt>
      <trkpt lat="48.02802" lon="-0.7003">
        <ele>99</ele>
        <time>2018-04-08T11:00:07Z</time>
      </trkpt>
      <trkpt lat="48.02799" lon="-0.70027">
        <ele>99.1</ele>
        <time>2018-04-08T11:00:11Z</time>
      </trkpt>
      <trkpt lat="48.02795" lon="-0.70024">
        <ele>99.1</ele>
        <time>2018-04-08T11:00:15Z</time>
      </trkpt>
      <trkpt lat="48.0279" lon="-0.70021">
        <ele>99.1</ele>
        <time>2018-04-08T11:00:19Z</time>
      </trkpt>
      <trkpt lat="48.02786" lon="-0.70016">
        <ele>99.2</ele>
        <time>2018-04-08T11:00:23Z</time>
      </trkpt>
      <trkpt lat="48.02781" lon="-0.70011">
        <ele>99.2</ele>
        <time>2018-04-08T11:00:27Z</time>
      </trkpt>
      <trkpt lat="48.02775" lon="-0.70007">
        <ele>99.3</ele>
        <time>2018-04-08T11:00:31Z</time>
      </trkpt>
      <trkpt lat="48.02764" lon="-0.70001">
        <ele>99.6</ele>
        <time>2018-04-08T11:00:35Z</time>
      </trkpt>
      <trkpt lat="48.02756" lon="-0.69993">
        <ele>99.4</ele>
        <time>2018-04-08T11:00:39Z</time>
      </trkpt>
      <trkpt lat="48.0275" lon="-0.69985">
        <ele>99.2</ele>
        <time>2018-04-08T11:00:43Z</time>
      </trkpt>
      <trkpt lat="48.02744" lon="-0.69976">
        <ele>98.8</ele>
        <time>2018-04-08T11:00:47Z</time>
      </trkpt>
      <trkpt lat="48.02739" lon="-0.69967">
        <ele>98.5</ele>
        <time>2018-04-08T11:00:51Z</time>
      </trkpt>
      <trkpt lat="48.02737" lon="-0.69957">
        <ele>98.3</ele>
        <time>2018-04-08T11:00:55Z</time>
      </trkpt>
      <trkpt lat="48.02733" lon="-0.69945">
        <ele>98.1</ele>
        <time>2018-04-08T11:00:59Z</time>
      </trkpt>
      <trkpt lat="48.02731" lon="-0.69933">
        <ele>97.9</ele>
        <time>2018-04-08T11:01:03Z</time>
      </trkpt>
      <trkpt lat="48.02727" lon="-0.69917">
        <ele>97.8</ele>
        <time>2018-04-08T11:01:07Z</time>
      </trkpt>
      <trkpt lat="48.02725" lon="-0.69906">
        <ele>97.9</ele>
        <time>2018-04-08T11:01:11Z</time>
      </trkpt>
      <trkpt lat="48.02722" lon="-0.69892">
        <ele>98</ele>
        <time>2018-04-08T11:01:15Z</time>
      </trkpt>
      <trkpt lat="48.02718" lon="-0.69879">
        <ele>98.1</ele>
        <time>2018-04-08T11:01:19Z</time>
      </trkpt>
      <trkpt lat="48.02714" lon="-0.69858">
        <ele>98.3</ele>
        <time>2018-04-08T11:01:23Z</time>
      </trkpt>
      <trkpt lat="48.02711" lon="-0.69843">
        <ele>98.3</ele>
        <time>2018-04-08T11:01:27Z</time>
      </trkpt>
      <trkpt lat="48.0271" lon="-0.69826">
        <ele>98.3</ele>
        <time>2018-04-08T11:01:31Z</time>
      </trkpt>
      <trkpt lat="48.02711" lon="-0.69806">
        <ele>98.3</ele>
        <time>2018-04-08T11:01:35Z</time>
      </trkpt>
      <trkpt lat="48.02713" lon="-0.69787">
        <ele>98.2</ele>
        <time>2018-04-08T11:01:39Z</time>
      </trkpt>
      <trkpt lat="48.02712" lon="-0.69768">
        <ele>98.1</ele>
        <time>2018-04-08T11:01:43Z</time>
      </trkpt>
      <trkpt lat="48.02715" lon="-0.69749">
        <ele>97.9</ele>
        <time>2018-04-08T11:01:47Z</time>
      </trkpt>
      <trkpt lat="48.02719" lon="-0.69729">
        <ele>97.9</ele>
        <time>2018-04-08T11:01:51Z</time>
      </trkpt>
      <trkpt lat="48.02718" lon="-0.69707">
        <ele>97.9</ele>
        <time>2018-04-08T11:01:55Z</time>
      </trkpt>
      <trkpt lat="48.02718" lon="-0.69691">
        <ele>97.9</ele>
        <time>2018-04-08T11:01:59Z</time>
      </trkpt>
      <trkpt lat="48.02716" lon="-0.69673">
        <ele>97.9</ele>
        <time>2018-04-08T11:02:03Z</time>
      </trkpt>
      <trkpt lat="48.02713" lon="-0.69653">
        <ele>98.1</ele>
        <time>2018-04-08T11:02:07Z</time>
      </trkpt>
      <trkpt lat="48.0271" lon="-0.69632">
        <ele>98.2</ele>
        <time>2018-04-08T11:02:11Z</time>
      </trkpt>
      <trkpt lat="48.02708" lon="-0.69617">
        <ele>98.3</ele>
        <time>2018-04-08T11:02:15Z</time>
      </trkpt>
      <trkpt lat="48.02701" lon="-0.69604">
        <ele>98.4</ele>
        <time>2018-04-08T11:02:19Z</time>
      </trkpt>
      <trkpt lat="48.02693" lon="-0.69608">
        <ele>98.4</ele>
        <time>2018-04-08T11:02:23Z</time>
      </trkpt>
      <trkpt lat="48.0268" lon="-0.69611">
        <ele>98.5</ele>
        <time>2018-04-08T11:02:27Z</time>
      </trkpt>
      <trkpt lat="48.02667" lon="-0.69612">
        <ele>98.6</ele>
        <time>2018-04-08T11:02:31Z</time>
      </trkpt>
      <trkpt lat="48.02658" lon="-0.69609">
        <ele>97.6</ele>
        <time>2018-04-08T11:11:31Z</time>
      </trkpt>
      <trkpt lat="48.02654" lon="-0.6961">
        <ele>97.5</ele>
        <time>2018-04-08T11:11:35Z</time>
      </trkpt>
      <trkpt lat="48.0265" lon="-0.69616">
        <ele>97.4</ele>
        <time>2018-04-08T11:11:39Z</time>
      </trkpt>
      <trkpt lat="48.02641" lon="-0.69623">
        <ele>97.2</ele>
        <time>2018-04-08T11:11:43Z</time>
      </trkpt>
      <trkpt lat="48.02633" lon="-0.69629">
        <ele>97</ele>
        <time>2018-04-08T11:11:47Z</time>
      </trkpt>
      <trkpt lat="48.02624" lon="-0.69636">
        <ele>96.8</ele>
        <time>2018-04-08T11:11:51Z</time>
      </trkpt>
      <trkpt lat="48.02615" lon="-0.69643">
        <ele>96.5</ele>
        <time>2018-04-08T11:11:55Z</time>
      </trkpt>
      <trkpt lat="48.02605" lon="-0.69653">
        <ele>96.2</ele>
        <time>2018-04-08T11:11:59Z</time>
      </trkpt>
      <trkpt lat="48.02596" lon="-0.69665">
        <ele>95.7</ele>
        <time>2018-04-08T11:12:03Z</time>
      </trkpt>
      <trkpt lat="48.02588" lon="-0.69677">
        <ele>95.8</ele>
        <time>2018-04-08T11:12:07Z</time>
      </trkpt>
      <trkpt lat="48.02582" lon="-0.69687">
        <ele>94.5</ele>
        <time>2018-04-08T11:12:11Z</time>
      </trkpt>
      <trkpt lat="48.02575" lon="-0.69697">
        <ele>94.4</ele>
        <time>2018-04-08T11:12:15Z</time>
      </trkpt>
      <trkpt lat="48.02569" lon="-0.69706">
        <ele>94.4</ele>
        <time>2018-04-08T11:12:19Z</time>
      </trkpt>
      <trkpt lat="48.02562" lon="-0.69712">
        <ele>94.4</ele>
        <time>2018-04-08T11:12:23Z</time>
      </trkpt>
      <trkpt lat="48.02557" lon="-0.69718">
        <ele>94.4</ele>
        <time>2018-04-08T11:12:27Z</time>
      </trkpt>
      <trkpt lat="48.02552" lon="-0.69724">
        <ele>94.4</ele>
        <time>2018-04-08T11:12:31Z</time>
      </trkpt>
      <trkpt lat="48.02548" lon="-0.69731">
        <ele>94.4</ele>
        <time>2018-04-08T11:12:35Z</time>
      </trkpt>
      <trkpt lat="48.02544" lon="-0.69737">
        <ele>94.4</ele>
        <time>2018-04-08T11:12:39Z</time>
      </trkpt>
      <trkpt lat="48.02539" lon="-0.69744">
        <ele>94.3</ele>
        <time>2018-04-08T11:12:43Z</time>
      </trkpt>
      <trkpt lat="48.02535" lon="-0.69749">
        <ele>94.3</ele>
        <time>2018-04-08T11:12:51Z</time>
      </trkpt>
      <trkpt lat="48.02533" lon="-0.69754">
        <ele>95.5</ele>
        <time>2018-04-08T11:12:55Z</time>
      </trkpt>
      <trkpt lat="48.02529" lon="-0.69757">
        <ele>95.4</ele>
        <time>2018-04-08T11:13:03Z</time>
      </trkpt>
      <trkpt lat="48.02526" lon="-0.69761">
        <ele>95.4</ele>
        <time>2018-04-08T11:13:07Z</time>
      </trkpt>
      <trkpt lat="48.02522" lon="-0.69766">
        <ele>95.3</ele>
        <time>2018-04-08T11:13:11Z</time>
      </trkpt>
      <trkpt lat="48.02519" lon="-0.6977">
        <ele>95.3</ele>
        <time>2018-04-08T11:13:15Z</time>
      </trkpt>
      <trkpt lat="48.02513" lon="-0.69775">
        <ele>95.3</ele>
        <time>2018-04-08T11:13:19Z</time>
      </trkpt>
      <trkpt lat="48.0251" lon="-0.69777">
        <ele>95.4</ele>
        <time>2018-04-08T11:13:27Z</time>
      </trkpt>
      <trkpt lat="48.02508" lon="-0.69775">
        <ele>95.3</ele>
        <time>2018-04-08T11:13:31Z</time>
      </trkpt>
      <trkpt lat="48.02504" lon="-0.69776">
        <ele>95.3</ele>
        <time>2018-04-08T11:13:35Z</time>
      </trkpt>
      <trkpt lat="48.02502" lon="-0.69778">
        <ele>95.3</ele>
        <time>2018-04-08T11:13:39Z</time>
      </trkpt>
      <trkpt lat="48.02499" lon="-0.69784">
        <ele>94.1</ele>
        <time>2018-04-08T11:13:43Z</time>
      </trkpt>
      <trkpt lat="48.02495" lon="-0.69789">
        <ele>94.1</ele>
        <time>2018-04-08T11:13:47Z</time>
      </trkpt>
      <trkpt lat="48.02492" lon="-0.69795">
        <ele>94.2</ele>
        <time>2018-04-08T11:13:51Z</time>
      </trkpt>
      <trkpt lat="48.02487" lon="-0.69805">
        <ele>94.4</ele>
        <time>2018-04-08T11:13:55Z</time>
      </trkpt>
      <trkpt lat="48.02484" lon="-0.69812">
        <ele>94.5</ele>
        <time>2018-04-08T11:13:59Z</time>
      </trkpt>
      <trkpt lat="48.02483" lon="-0.69818">
        <ele>94.6</ele>
        <time>2018-04-08T11:14:03Z</time>
      </trkpt>
      <trkpt lat="48.02478" lon="-0.69825">
        <ele>94.7</ele>
        <time>2018-04-08T11:14:07Z</time>
      </trkpt>
      <trkpt lat="48.02471" lon="-0.69835">
        <ele>95.6</ele>
        <time>2018-04-08T11:14:11Z</time>
      </trkpt>
      <trkpt lat="48.02461" lon="-0.69845">
        <ele>95.5</ele>
        <time>2018-04-08T11:14:15Z</time>
      </trkpt>
      <trkpt lat="48.0245" lon="-0.69855">
        <ele>95.5</ele>
        <time>2018-04-08T11:14:19Z</time>
      </trkpt>
      <trkpt lat="48.0244" lon="-0.69866">
        <ele>95.5</ele>
        <time>2018-04-08T11:14:23Z</time>
      </trkpt>
      <trkpt lat="48.02428" lon="-0.69873">
        <ele>95.6</ele>
        <time>2018-04-08T11:14:27Z</time>
      </trkpt>
      <trkpt lat="48.02419" lon="-0.69875">
        <ele>95.6</ele>
        <time>2018-04-08T11:14:31Z</time>
      </trkpt>
      <trkpt lat="48.02405" lon="-0.69877">
        <ele>95.2</ele>
        <time>2018-04-08T11:14:35Z</time>
      </trkpt>
      <trkpt lat="48.02395" lon="-0.69879">
        <ele>95.2</ele>
        <time>2018-04-08T11:14:39Z</time>
      </trkpt>
      <trkpt lat="48.02386" lon="-0.69879">
        <ele>95.2</ele>
        <time>2018-04-08T11:14:43Z</time>
      </trkpt>
      <trkpt lat="48.02376" lon="-0.69877">
        <ele>95</ele>
        <time>2018-04-08T11:14:47Z</time>
      </trkpt>
      <trkpt lat="48.02369" lon="-0.69876">
        <ele>95</ele>
        <time>2018-04-08T11:14:51Z</time>
      </trkpt>
      <trkpt lat="48.02358" lon="-0.69877">
        <ele>95</ele>
        <time>2018-04-08T11:14:55Z</time>
      </trkpt>
      <trkpt lat="48.0235" lon="-0.69877">
        <ele>94.9</ele>
        <time>2018-04-08T11:14:59Z</time>
      </trkpt>
      <trkpt lat="48.02343" lon="-0.69879">
        <ele>95</ele>
        <time>2018-04-08T11:15:03Z</time>
      </trkpt>
      <trkpt lat="48.02333" lon="-0.69882">
        <ele>95</ele>
        <time>2018-04-08T11:15:07Z</time>
      </trkpt>
      <trkpt lat="48.02325" lon="-0.69884">
        <ele>95.1</ele>
        <time>2018-04-08T11:15:11Z</time>
      </trkpt>
      <trkpt lat="48.02316" lon="-0.69887">
        <ele>95.1</ele>
        <time>2018-04-08T11:15:15Z</time>
      </trkpt>
      <trkpt lat="48.02307" lon="-0.69888">
        <ele>95.2</ele>
        <time>2018-04-08T11:15:19Z</time>
      </trkpt>
      <trkpt lat="48.023" lon="-0.69889">
        <ele>95.2</ele>
        <time>2018-04-08T11:15:23Z</time>
      </trkpt>
      <trkpt lat="48.02293" lon="-0.69891">
        <ele>95.2</ele>
        <time>2018-04-08T11:15:27Z</time>
      </trkpt>
      <trkpt lat="48.02284" lon="-0.69894">
        <ele>95.4</ele>
        <time>2018-04-08T11:15:31Z</time>
      </trkpt>
      <trkpt lat="48.02274" lon="-0.69896">
        <ele>95.6</ele>
        <time>2018-04-08T11:15:35Z</time>
      </trkpt>
      <trkpt lat="48.02261" lon="-0.699">
        <ele>96.2</ele>
        <time>2018-04-08T11:15:39Z</time>
      </trkpt>
      <trkpt lat="48.02255" lon="-0.69901">
        <ele>96.4</ele>
        <time>2018-04-08T11:15:43Z</time>
      </trkpt>
      <trkpt lat="48.02246" lon="-0.69907">
        <ele>96.6</ele>
        <time>2018-04-08T11:15:47Z</time>
      </trkpt>
      <trkpt lat="48.02239" lon="-0.69912">
        <ele>96.4</ele>
        <time>2018-04-08T11:15:51Z</time>
      </trkpt>
      <trkpt lat="48.02234" lon="-0.69916">
        <ele>96.2</ele>
        <time>2018-04-08T11:15:55Z</time>
      </trkpt>
      <trkpt lat="48.02225" lon="-0.69919">
        <ele>97.5</ele>
        <time>2018-04-08T11:15:59Z</time>
      </trkpt>
      <trkpt lat="48.02218" lon="-0.69925">
        <ele>97.4</ele>
        <time>2018-04-08T11:16:03Z</time>
      </trkpt>
      <trkpt lat="48.02212" lon="-0.6993">
        <ele>97.3</ele>
        <time>2018-04-08T11:16:07Z</time>
      </trkpt>
      <trkpt lat="48.02206" lon="-0.69935">
        <ele>97.2</ele>
        <time>2018-04-08T11:16:11Z</time>
      </trkpt>
      <trkpt lat="48.0219" lon="-0.69943">
        <ele>96.9</ele>
        <time>2018-04-08T11:16:15Z</time>
      </trkpt>
      <trkpt lat="48.02179" lon="-0.6995">
        <ele>96.9</ele>
        <time>2018-04-08T11:16:19Z</time>
      </trkpt>
      <trkpt lat="48.02168" lon="-0.69959">
        <ele>96.9</ele>
        <time>2018-04-08T11:16:23Z</time>
      </trkpt>
      <trkpt lat="48.02159" lon="-0.69965">
        <ele>95.6</ele>
        <time>2018-04-08T11:16:27Z</time>
      </trkpt>
      <trkpt lat="48.02151" lon="-0.69972">
        <ele>95.7</ele>
        <time>2018-04-08T11:16:31Z</time>
      </trkpt>
      <trkpt lat="48.02142" lon="-0.69979">
        <ele>95.7</ele>
        <time>2018-04-08T11:16:35Z</time>
      </trkpt>
      <trkpt lat="48.02134" lon="-0.69985">
        <ele>95.7</ele>
        <time>2018-04-08T11:16:39Z</time>
      </trkpt>
      <trkpt lat="48.02129" lon="-0.69989">
        <ele>95.7</ele>
        <time>2018-04-08T11:16:43Z</time>
      </trkpt>
      <trkpt lat="48.02124" lon="-0.69992">
        <ele>95.7</ele>
        <time>2018-04-08T11:16:47Z</time>
      </trkpt>
      <trkpt lat="48.02123" lon="-0.69994">
        <ele>95.7</ele>
        <time>2018-04-08T11:16:51Z</time>
      </trkpt>
      <trkpt lat="48.02121" lon="-0.69999">
        <ele>95.7</ele>
        <time>2018-04-08T11:16:55Z</time>
      </trkpt>
      <trkpt lat="48.02117" lon="-0.70003">
        <ele>96.1</ele>
        <time>2018-04-08T11:16:59Z</time>
      </trkpt>
      <trkpt lat="48.0211" lon="-0.70007">
        <ele>96</ele>
        <time>2018-04-08T11:17:03Z</time>
      </trkpt>
      <trkpt lat="48.02105" lon="-0.70009">
        <ele>96</ele>
        <time>2018-04-08T11:17:07Z</time>
      </trkpt>
      <trkpt lat="48.021" lon="-0.70011">
        <ele>96</ele>
        <time>2018-04-08T11:17:11Z</time>
      </trkpt>
      <trkpt lat="48.02095" lon="-0.70016">
        <ele>95.9</ele>
        <time>2018-04-08T11:17:15Z</time>
      </trkpt>
      <trkpt lat="48.02089" lon="-0.70022">
        <ele>95.9</ele>
        <time>2018-04-08T11:17:19Z</time>
      </trkpt>
      <trkpt lat="48.02083" lon="-0.70027">
        <ele>93.7</ele>
        <time>2018-04-08T11:17:23Z</time>
      </trkpt>
      <trkpt lat="48.02079" lon="-0.70032">
        <ele>93.5</ele>
        <time>2018-04-08T11:17:27Z</time>
      </trkpt>
      <trkpt lat="48.02073" lon="-0.7004">
        <ele>93.2</ele>
        <time>2018-04-08T11:17:31Z</time>
      </trkpt>
      <trkpt lat="48.02068" lon="-0.7005">
        <ele>93</ele>
        <time>2018-04-08T11:17:35Z</time>
      </trkpt>
      <trkpt lat="48.02061" lon="-0.70059">
        <ele>92.8</ele>
        <time>2018-04-08T11:17:39Z</time>
      </trkpt>
      <trkpt lat="48.02055" lon="-0.70071">
        <ele>92.6</ele>
        <time>2018-04-08T11:17:43Z</time>
      </trkpt>
      <trkpt lat="48.02047" lon="-0.70087">
        <ele>92.3</ele>
        <time>2018-04-08T11:17:47Z</time>
      </trkpt>
      <trkpt lat="48.02032" lon="-0.70106">
        <ele>91.9</ele>
        <time>2018-04-08T11:17:51Z</time>
      </trkpt>
      <trkpt lat="48.02014" lon="-0.7012">
        <ele>91.7</ele>
        <time>2018-04-08T11:17:55Z</time>
      </trkpt>
      <trkpt lat="48.02004" lon="-0.70134">
        <ele>91.7</ele>
        <time>2018-04-08T11:17:59Z</time>
      </trkpt>
      <trkpt lat="48.02003" lon="-0.70148">
        <ele>91.5</ele>
        <time>2018-04-08T11:18:03Z</time>
      </trkpt>
      <trkpt lat="48.02003" lon="-0.70165">
        <ele>91.2</ele>
        <time>2018-04-08T11:18:07Z</time>
      </trkpt>
      <trkpt lat="48.02003" lon="-0.70183">
        <ele>92.2</ele>
        <time>2018-04-08T11:18:11Z</time>
      </trkpt>
      <trkpt lat="48.02003" lon="-0.70201">
        <ele>92.8</ele>
        <time>2018-04-08T11:18:15Z</time>
      </trkpt>
      <trkpt lat="48.02004" lon="-0.70217">
        <ele>93.1</ele>
        <time>2018-04-08T11:18:19Z</time>
      </trkpt>
      <trkpt lat="48.02004" lon="-0.70233">
        <ele>93.2</ele>
        <time>2018-04-08T11:18:23Z</time>
      </trkpt>
      <trkpt lat="48.02004" lon="-0.70247">
        <ele>93.1</ele>
        <time>2018-04-08T11:18:27Z</time>
      </trkpt>
      <trkpt lat="48.02005" lon="-0.70262">
        <ele>94.5</ele>
        <time>2018-04-08T11:18:31Z</time>
      </trkpt>
      <trkpt lat="48.02006" lon="-0.70275">
        <ele>95.5</ele>
        <time>2018-04-08T11:18:35Z</time>
      </trkpt>
      <trkpt lat="48.02006" lon="-0.70289">
        <ele>96.2</ele>
        <time>2018-04-08T11:18:39Z</time>
      </trkpt>
      <trkpt lat="48.02006" lon="-0.70303">
        <ele>96.8</ele>
        <time>2018-04-08T11:18:43Z</time>
      </trkpt>
      <trkpt lat="48.02007" lon="-0.70317">
        <ele>97.3</ele>
        <time>2018-04-08T11:18:47Z</time>
      </trkpt>
      <trkpt lat="48.02007" lon="-0.70332">
        <ele>97.7</ele>
        <time>2018-04-08T11:18:51Z</time>
      </trkpt>
      <trkpt lat="48.02008" lon="-0.70345">
        <ele>99.6</ele>
        <time>2018-04-08T11:18:55Z</time>
      </trkpt>
      <trkpt lat="48.02009" lon="-0.70356">
        <ele>100.3</ele>
        <time>2018-04-08T11:18:59Z</time>
      </trkpt>
      <trkpt lat="48.02003" lon="-0.70358">
        <ele>100.3</ele>
        <time>2018-04-08T11:19:03Z</time>
      </trkpt>
      <trkpt lat="48.01996" lon="-0.70357">
        <ele>98</ele>
        <time>2018-04-08T11:19:07Z</time>
      </trkpt>
      <trkpt lat="48.0199" lon="-0.70357">
        <ele>97.9</ele>
        <time>2018-04-08T11:19:11Z</time>
      </trkpt>
      <trkpt lat="48.01983" lon="-0.70358">
        <ele>97.9</ele>
        <time>2018-04-08T11:19:15Z</time>
      </trkpt>
      <trkpt lat="48.01978" lon="-0.70359">
        <ele>97.8</ele>
        <time>2018-04-08T11:19:19Z</time>
      </trkpt>
      <trkpt lat="48.0197" lon="-0.70359">
        <ele>97.6</ele>
        <time>2018-04-08T11:19:23Z</time>
      </trkpt>
      <trkpt lat="48.01961" lon="-0.70361">
        <ele>97.4</ele>
        <time>2018-04-08T11:19:27Z</time>
      </trkpt>
      <trkpt lat="48.0195" lon="-0.70362">
        <ele>97.1</ele>
        <time>2018-04-08T11:19:31Z</time>
      </trkpt>
      <trkpt lat="48.01939" lon="-0.70362">
        <ele>96.8</ele>
        <time>2018-04-08T11:19:35Z</time>
      </trkpt>
      <trkpt lat="48.01927" lon="-0.70362">
        <ele>96.5</ele>
        <time>2018-04-08T11:19:39Z</time>
      </trkpt>
      <trkpt lat="48.01912" lon="-0.7036">
        <ele>92.9</ele>
        <time>2018-04-08T11:19:43Z</time>
      </trkpt>
      <trkpt lat="48.01896" lon="-0.7036">
        <ele>92.3</ele>
        <time>2018-04-08T11:19:47Z</time>
      </trkpt>
      <trkpt lat="48.01879" lon="-0.70362">
        <ele>91.6</ele>
        <time>2018-04-08T11:19:51Z</time>
      </trkpt>
      <trkpt lat="48.01857" lon="-0.70359">
        <ele>90.6</ele>
        <time>2018-04-08T11:19:55Z</time>
      </trkpt>
      <trkpt lat="48.01832" lon="-0.70357">
        <ele>86.5</ele>
        <time>2018-04-08T11:19:59Z</time>
      </trkpt>
      <trkpt lat="48.01799" lon="-0.70358">
        <ele>85.3</ele>
        <time>2018-04-08T11:20:03Z</time>
      </trkpt>
      <trkpt lat="48.01764" lon="-0.70358">
        <ele>84.1</ele>
        <time>2018-04-08T11:20:07Z</time>
      </trkpt>
      <trkpt lat="48.01728" lon="-0.70356">
        <ele>80.2</ele>
        <time>2018-04-08T11:20:11Z</time>
      </trkpt>
      <trkpt lat="48.01687" lon="-0.70367">
        <ele>78.6</ele>
        <time>2018-04-08T11:20:15Z</time>
      </trkpt>
      <trkpt lat="48.0165" lon="-0.70395">
        <ele>75.2</ele>
        <time>2018-04-08T11:20:19Z</time>
      </trkpt>
      <trkpt lat="48.01614" lon="-0.70425">
        <ele>72.9</ele>
        <time>2018-04-08T11:20:23Z</time>
      </trkpt>
      <trkpt lat="48.01573" lon="-0.70457">
        <ele>69</ele>
        <time>2018-04-08T11:20:27Z</time>
      </trkpt>
      <trkpt lat="48.01532" lon="-0.70492">
        <ele>67.3</ele>
        <time>2018-04-08T11:20:31Z</time>
      </trkpt>
      <trkpt lat="48.01492" lon="-0.70529">
        <ele>64</ele>
        <time>2018-04-08T11:20:35Z</time>
      </trkpt>
      <trkpt lat="48.01452" lon="-0.70567">
        <ele>63.9</ele>
        <time>2018-04-08T11:20:39Z</time>
      </trkpt>
      <trkpt lat="48.0142" lon="-0.70596">
        <ele>64.7</ele>
        <time>2018-04-08T11:20:43Z</time>
      </trkpt>
      <trkpt lat="48.01388" lon="-0.70612">
        <ele>65.7</ele>
        <time>2018-04-08T11:20:47Z</time>
      </trkpt>
      <trkpt lat="48.01362" lon="-0.70612">
        <ele>65.6</ele>
        <time>2018-04-08T11:20:51Z</time>
      </trkpt>
      <trkpt lat="48.01342" lon="-0.70612">
        <ele>65.4</ele>
        <time>2018-04-08T11:20:55Z</time>
      </trkpt>
      <trkpt lat="48.01323" lon="-0.70602">
        <ele>63.7</ele>
        <time>2018-04-08T11:20:59Z</time>
      </trkpt>
      <trkpt lat="48.01309" lon="-0.70586">
        <ele>63.5</ele>
        <time>2018-04-08T11:21:03Z</time>
      </trkpt>
      <trkpt lat="48.01296" lon="-0.70571">
        <ele>64.8</ele>
        <time>2018-04-08T11:21:07Z</time>
      </trkpt>
      <trkpt lat="48.01284" lon="-0.70556">
        <ele>64.8</ele>
        <time>2018-04-08T11:21:11Z</time>
      </trkpt>
      <trkpt lat="48.0127" lon="-0.7054">
        <ele>65</ele>
        <time>2018-04-08T11:21:15Z</time>
      </trkpt>
      <trkpt lat="48.01256" lon="-0.70525">
        <ele>65.3</ele>
        <time>2018-04-08T11:21:19Z</time>
      </trkpt>
      <trkpt lat="48.01244" lon="-0.70511">
        <ele>64.1</ele>
        <time>2018-04-08T11:21:23Z</time>
      </trkpt>
      <trkpt lat="48.0123" lon="-0.70498">
        <ele>66.5</ele>
        <time>2018-04-08T11:21:27Z</time>
      </trkpt>
      <trkpt lat="48.01218" lon="-0.70484">
        <ele>66.7</ele>
        <time>2018-04-08T11:21:31Z</time>
      </trkpt>
      <trkpt lat="48.01205" lon="-0.70472">
        <ele>66.9</ele>
        <time>2018-04-08T11:21:35Z</time>
      </trkpt>
      <trkpt lat="48.01194" lon="-0.70462">
        <ele>67.2</ele>
        <time>2018-04-08T11:21:39Z</time>
      </trkpt>
      <trkpt lat="48.01184" lon="-0.70451">
        <ele>67.7</ele>
        <time>2018-04-08T11:21:43Z</time>
      </trkpt>
      <trkpt lat="48.01177" lon="-0.70441">
        <ele>68.4</ele>
        <time>2018-04-08T11:21:47Z</time>
      </trkpt>
      <trkpt lat="48.01172" lon="-0.70433">
        <ele>69.1</ele>
        <time>2018-04-08T11:21:51Z</time>
      </trkpt>
      <trkpt lat="48.01167" lon="-0.70427">
        <ele>69.8</ele>
        <time>2018-04-08T11:21:55Z</time>
      </trkpt>
      <trkpt lat="48.01163" lon="-0.7042">
        <ele>69.7</ele>
        <time>2018-04-08T11:21:59Z</time>
      </trkpt>
      <trkpt lat="48.01159" lon="-0.70413">
        <ele>71.5</ele>
        <time>2018-04-08T11:22:03Z</time>
      </trkpt>
      <trkpt lat="48.01155" lon="-0.70405">
        <ele>71.9</ele>
        <time>2018-04-08T11:22:07Z</time>
      </trkpt>
      <trkpt lat="48.01152" lon="-0.70401">
        <ele>72.1</ele>
        <time>2018-04-08T11:22:11Z</time>
      </trkpt>
      <trkpt lat="48.01148" lon="-0.70394">
        <ele>72.5</ele>
        <time>2018-04-08T11:22:15Z</time>
      </trkpt>
      <trkpt lat="48.01142" lon="-0.70383">
        <ele>72.9</ele>
        <time>2018-04-08T11:22:23Z</time>
      </trkpt>
      <trkpt lat="48.01138" lon="-0.70375">
        <ele>73.2</ele>
        <time>2018-04-08T11:22:27Z</time>
      </trkpt>
      <trkpt lat="48.01133" lon="-0.70369">
        <ele>73.4</ele>
        <time>2018-04-08T11:22:31Z</time>
      </trkpt>
      <trkpt lat="48.01127" lon="-0.70361">
        <ele>73.7</ele>
        <time>2018-04-08T11:22:35Z</time>
      </trkpt>
      <trkpt lat="48.01121" lon="-0.70355">
        <ele>73.8</ele>
        <time>2018-04-08T11:22:39Z</time>
      </trkpt>
      <trkpt lat="48.01113" lon="-0.70345">
        <ele>74.2</ele>
        <time>2018-04-08T11:22:43Z</time>
      </trkpt>
      <trkpt lat="48.01108" lon="-0.70337">
        <ele>74.4</ele>
        <time>2018-04-08T11:22:47Z</time>
      </trkpt>
      <trkpt lat="48.01103" lon="-0.70328">
        <ele>77.8</ele>
        <time>2018-04-08T11:22:51Z</time>
      </trkpt>
      <trkpt lat="48.01097" lon="-0.70321">
        <ele>77.9</ele>
        <time>2018-04-08T11:22:55Z</time>
      </trkpt>
      <trkpt lat="48.01091" lon="-0.70312">
        <ele>78.1</ele>
        <time>2018-04-08T11:22:59Z</time>
      </trkpt>
      <trkpt lat="48.01085" lon="-0.70305">
        <ele>78.5</ele>
        <time>2018-04-08T11:23:03Z</time>
      </trkpt>
      <trkpt lat="48.01077" lon="-0.70297">
        <ele>76.8</ele>
        <time>2018-04-08T11:23:07Z</time>
      </trkpt>
      <trkpt lat="48.01069" lon="-0.70288">
        <ele>77.1</ele>
        <time>2018-04-08T11:23:11Z</time>
      </trkpt>
      <trkpt lat="48.01063" lon="-0.70278">
        <ele>77.4</ele>
        <time>2018-04-08T11:23:15Z</time>
      </trkpt>
      <trkpt lat="48.01057" lon="-0.70269">
        <ele>77.6</ele>
        <time>2018-04-08T11:23:19Z</time>
      </trkpt>
      <trkpt lat="48.01053" lon="-0.70259">
        <ele>77.7</ele>
        <time>2018-04-08T11:23:23Z</time>
      </trkpt>
      <trkpt lat="48.01048" lon="-0.70254">
        <ele>77.7</ele>
        <time>2018-04-08T11:23:27Z</time>
      </trkpt>
      <trkpt lat="48.01044" lon="-0.70246">
        <ele>80.8</ele>
        <time>2018-04-08T11:23:31Z</time>
      </trkpt>
      <trkpt lat="48.01035" lon="-0.70236">
        <ele>80.8</ele>
        <time>2018-04-08T11:23:35Z</time>
      </trkpt>
      <trkpt lat="48.01032" lon="-0.70231">
        <ele>80.8</ele>
        <time>2018-04-08T11:23:39Z</time>
      </trkpt>
      <trkpt lat="48.01021" lon="-0.70222">
        <ele>80.9</ele>
        <time>2018-04-08T11:23:43Z</time>
      </trkpt>
      <trkpt lat="48.01016" lon="-0.70215">
        <ele>81.1</ele>
        <time>2018-04-08T11:23:47Z</time>
      </trkpt>
      <trkpt lat="48.01008" lon="-0.70203">
        <ele>81.6</ele>
        <time>2018-04-08T11:23:51Z</time>
      </trkpt>
      <trkpt lat="48.01001" lon="-0.70194">
        <ele>82</ele>
        <time>2018-04-08T11:23:55Z</time>
      </trkpt>
      <trkpt lat="48.00993" lon="-0.70183">
        <ele>81.6</ele>
        <time>2018-04-08T11:23:59Z</time>
      </trkpt>
      <trkpt lat="48.00988" lon="-0.70173">
        <ele>82.1</ele>
        <time>2018-04-08T11:24:03Z</time>
      </trkpt>
      <trkpt lat="48.00982" lon="-0.70166">
        <ele>83.7</ele>
        <time>2018-04-08T11:24:07Z</time>
      </trkpt>
      <trkpt lat="48.00976" lon="-0.70155">
        <ele>83.6</ele>
        <time>2018-04-08T11:24:11Z</time>
      </trkpt>
      <trkpt lat="48.00968" lon="-0.70148">
        <ele>83.5</ele>
        <time>2018-04-08T11:24:15Z</time>
      </trkpt>
      <trkpt lat="48.00962" lon="-0.70136">
        <ele>83.6</ele>
        <time>2018-04-08T11:24:19Z</time>
      </trkpt>
      <trkpt lat="48.00955" lon="-0.70125">
        <ele>83.7</ele>
        <time>2018-04-08T11:24:23Z</time>
      </trkpt>
      <trkpt lat="48.0095" lon="-0.70114">
        <ele>83.9</ele>
        <time>2018-04-08T11:24:27Z</time>
      </trkpt>
      <trkpt lat="48.00944" lon="-0.70101">
        <ele>84.1</ele>
        <time>2018-04-08T11:24:31Z</time>
      </trkpt>
      <trkpt lat="48.0094" lon="-0.70087">
        <ele>84.3</ele>
        <time>2018-04-08T11:24:35Z</time>
      </trkpt>
      <trkpt lat="48.00936" lon="-0.70074">
        <ele>85.6</ele>
        <time>2018-04-08T11:24:39Z</time>
      </trkpt>
      <trkpt lat="48.00933" lon="-0.70061">
        <ele>85.7</ele>
        <time>2018-04-08T11:24:43Z</time>
      </trkpt>
      <trkpt lat="48.00931" lon="-0.70047">
        <ele>85.9</ele>
        <time>2018-04-08T11:24:47Z</time>
      </trkpt>
      <trkpt lat="48.00926" lon="-0.70034">
        <ele>86.1</ele>
        <time>2018-04-08T11:24:51Z</time>
      </trkpt>
      <trkpt lat="48.0092" lon="-0.70021">
        <ele>86.4</ele>
        <time>2018-04-08T11:24:55Z</time>
      </trkpt>
      <trkpt lat="48.00916" lon="-0.70009">
        <ele>86.2</ele>
        <time>2018-04-08T11:24:59Z</time>
      </trkpt>
      <trkpt lat="48.00912" lon="-0.69995">
        <ele>86.9</ele>
        <time>2018-04-08T11:25:03Z</time>
      </trkpt>
      <trkpt lat="48.00908" lon="-0.69982">
        <ele>86.7</ele>
        <time>2018-04-08T11:25:07Z</time>
      </trkpt>
      <trkpt lat="48.00903" lon="-0.69967">
        <ele>86.7</ele>
        <time>2018-04-08T11:25:11Z</time>
      </trkpt>
      <trkpt lat="48.00898" lon="-0.69954">
        <ele>86.8</ele>
        <time>2018-04-08T11:25:15Z</time>
      </trkpt>
      <trkpt lat="48.00891" lon="-0.69943">
        <ele>86.9</ele>
        <time>2018-04-08T11:25:19Z</time>
      </trkpt>
      <trkpt lat="48.00883" lon="-0.69928">
        <ele>86.9</ele>
        <time>2018-04-08T11:25:23Z</time>
      </trkpt>
      <trkpt lat="48.00877" lon="-0.69914">
        <ele>88.1</ele>
        <time>2018-04-08T11:25:27Z</time>
      </trkpt>
      <trkpt lat="48.00872" lon="-0.69899">
        <ele>88.2</ele>
        <time>2018-04-08T11:25:31Z</time>
      </trkpt>
      <trkpt lat="48.00867" lon="-0.69886">
        <ele>88.3</ele>
        <time>2018-04-08T11:25:35Z</time>
      </trkpt>
      <trkpt lat="48.00862" lon="-0.69872">
        <ele>88.5</ele>
        <time>2018-04-08T11:25:39Z</time>
      </trkpt>
      <trkpt lat="48.00856" lon="-0.69859">
        <ele>88.8</ele>
        <time>2018-04-08T11:25:43Z</time>
      </trkpt>
      <trkpt lat="48.00853" lon="-0.69847">
        <ele>89.1</ele>
        <time>2018-04-08T11:25:47Z</time>
      </trkpt>
      <trkpt lat="48.00849" lon="-0.69832">
        <ele>90.3</ele>
        <time>2018-04-08T11:25:51Z</time>
      </trkpt>
      <trkpt lat="48.00846" lon="-0.69818">
        <ele>90.4</ele>
        <time>2018-04-08T11:25:55Z</time>
      </trkpt>
      <trkpt lat="48.00843" lon="-0.69804">
        <ele>90.7</ele>
        <time>2018-04-08T11:25:59Z</time>
      </trkpt>
      <trkpt lat="48.00839" lon="-0.69789">
        <ele>91.1</ele>
        <time>2018-04-08T11:26:03Z</time>
      </trkpt>
      <trkpt lat="48.00834" lon="-0.69775">
        <ele>91.5</ele>
        <time>2018-04-08T11:26:07Z</time>
      </trkpt>
      <trkpt lat="48.0083" lon="-0.69761">
        <ele>92.1</ele>
        <time>2018-04-08T11:26:11Z</time>
      </trkpt>
      <trkpt lat="48.00828" lon="-0.69748">
        <ele>92.7</ele>
        <time>2018-04-08T11:26:15Z</time>
      </trkpt>
      <trkpt lat="48.00825" lon="-0.69732">
        <ele>92.4</ele>
        <time>2018-04-08T11:26:19Z</time>
      </trkpt>
      <trkpt lat="48.00826" lon="-0.69718">
        <ele>92.3</ele>
        <time>2018-04-08T11:26:23Z</time>
      </trkpt>
      <trkpt lat="48.00826" lon="-0.69704">
        <ele>92.4</ele>
        <time>2018-04-08T11:26:27Z</time>
      </trkpt>
      <trkpt lat="48.00827" lon="-0.6969">
        <ele>92.7</ele>
        <time>2018-04-08T11:26:31Z</time>
      </trkpt>
      <trkpt lat="48.0083" lon="-0.69675">
        <ele>93.3</ele>
        <time>2018-04-08T11:26:35Z</time>
      </trkpt>
      <trkpt lat="48.00834" lon="-0.69661">
        <ele>94.1</ele>
        <time>2018-04-08T11:26:39Z</time>
      </trkpt>
      <trkpt lat="48.00839" lon="-0.69649">
        <ele>94.3</ele>
        <time>2018-04-08T11:26:43Z</time>
      </trkpt>
      <trkpt lat="48.0084" lon="-0.69637">
        <ele>94.5</ele>
        <time>2018-04-08T11:26:47Z</time>
      </trkpt>
      <trkpt lat="48.00843" lon="-0.69626">
        <ele>94.6</ele>
        <time>2018-04-08T11:26:51Z</time>
      </trkpt>
      <trkpt lat="48.00848" lon="-0.69615">
        <ele>94.8</ele>
        <time>2018-04-08T11:26:55Z</time>
      </trkpt>
      <trkpt lat="48.00853" lon="-0.69603">
        <ele>95</ele>
        <time>2018-04-08T11:26:59Z</time>
      </trkpt>
      <trkpt lat="48.00857" lon="-0.6959">
        <ele>95.1</ele>
        <time>2018-04-08T11:27:03Z</time>
      </trkpt>
      <trkpt lat="48.00863" lon="-0.69576">
        <ele>95.9</ele>
        <time>2018-04-08T11:27:07Z</time>
      </trkpt>
      <trkpt lat="48.00868" lon="-0.69562">
        <ele>95.9</ele>
        <time>2018-04-08T11:27:11Z</time>
      </trkpt>
      <trkpt lat="48.00871" lon="-0.6955">
        <ele>96</ele>
        <time>2018-04-08T11:27:15Z</time>
      </trkpt>
      <trkpt lat="48.00876" lon="-0.69537">
        <ele>96</ele>
        <time>2018-04-08T11:27:19Z</time>
      </trkpt>
      <trkpt lat="48.0088" lon="-0.69524">
        <ele>96.1</ele>
        <time>2018-04-08T11:27:23Z</time>
      </trkpt>
      <trkpt lat="48.00883" lon="-0.69513">
        <ele>96.2</ele>
        <time>2018-04-08T11:27:27Z</time>
      </trkpt>
      <trkpt lat="48.00886" lon="-0.69499">
        <ele>96.8</ele>
        <time>2018-04-08T11:27:31Z</time>
      </trkpt>
      <trkpt lat="48.0089" lon="-0.69488">
        <ele>96.8</ele>
        <time>2018-04-08T11:27:35Z</time>
      </trkpt>
      <trkpt lat="48.00892" lon="-0.69478">
        <ele>96.8</ele>
        <time>2018-04-08T11:27:39Z</time>
      </trkpt>
      <trkpt lat="48.00894" lon="-0.69466">
        <ele>96.9</ele>
        <time>2018-04-08T11:27:43Z</time>
      </trkpt>
      <trkpt lat="48.009" lon="-0.69452">
        <ele>97</ele>
        <time>2018-04-08T11:27:47Z</time>
      </trkpt>
      <trkpt lat="48.00905" lon="-0.69438">
        <ele>97.2</ele>
        <time>2018-04-08T11:27:51Z</time>
      </trkpt>
      <trkpt lat="48.0091" lon="-0.69424">
        <ele>97.6</ele>
        <time>2018-04-08T11:27:55Z</time>
      </trkpt>
      <trkpt lat="48.00914" lon="-0.69406">
        <ele>97.7</ele>
        <time>2018-04-08T11:27:59Z</time>
      </trkpt>
      <trkpt lat="48.00918" lon="-0.69391">
        <ele>98</ele>
        <time>2018-04-08T11:28:03Z</time>
      </trkpt>
      <trkpt lat="48.00918" lon="-0.69375">
        <ele>98</ele>
        <time>2018-04-08T11:28:07Z</time>
      </trkpt>
      <trkpt lat="48.00922" lon="-0.69361">
        <ele>98</ele>
        <time>2018-04-08T11:28:11Z</time>
      </trkpt>
      <trkpt lat="48.0093" lon="-0.69344">
        <ele>98</ele>
        <time>2018-04-08T11:28:15Z</time>
      </trkpt>
      <trkpt lat="48.00933" lon="-0.6933">
        <ele>98.1</ele>
        <time>2018-04-08T11:28:19Z</time>
      </trkpt>
      <trkpt lat="48.00936" lon="-0.69316">
        <ele>98.2</ele>
        <time>2018-04-08T11:28:23Z</time>
      </trkpt>
      <trkpt lat="48.00944" lon="-0.69299">
        <ele>98.3</ele>
        <time>2018-04-08T11:28:27Z</time>
      </trkpt>
      <trkpt lat="48.00951" lon="-0.69279">
        <ele>98.3</ele>
        <time>2018-04-08T11:28:31Z</time>
      </trkpt>
      <trkpt lat="48.0096" lon="-0.69258">
        <ele>98.3</ele>
        <time>2018-04-08T11:28:35Z</time>
      </trkpt>
      <trkpt lat="48.00964" lon="-0.69239">
        <ele>98.1</ele>
        <time>2018-04-08T11:28:39Z</time>
      </trkpt>
      <trkpt lat="48.00969" lon="-0.6922">
        <ele>98</ele>
        <time>2018-04-08T11:28:43Z</time>
      </trkpt>
      <trkpt lat="48.00975" lon="-0.69196">
        <ele>97.7</ele>
        <time>2018-04-08T11:28:47Z</time>
      </trkpt>
      <trkpt lat="48.0098" lon="-0.69173">
        <ele>97.2</ele>
        <time>2018-04-08T11:28:51Z</time>
      </trkpt>
      <trkpt lat="48.00986" lon="-0.69151">
        <ele>96.4</ele>
        <time>2018-04-08T11:28:55Z</time>
      </trkpt>
      <trkpt lat="48.00992" lon="-0.69129">
        <ele>96.4</ele>
        <time>2018-04-08T11:28:59Z</time>
      </trkpt>
      <trkpt lat="48.00996" lon="-0.69107">
        <ele>96</ele>
        <time>2018-04-08T11:29:03Z</time>
      </trkpt>
      <trkpt lat="48.01001" lon="-0.69083">
        <ele>94.9</ele>
        <time>2018-04-08T11:29:07Z</time>
      </trkpt>
      <trkpt lat="48.01006" lon="-0.69061">
        <ele>93.8</ele>
        <time>2018-04-08T11:29:11Z</time>
      </trkpt>
      <trkpt lat="48.01011" lon="-0.69037">
        <ele>93.5</ele>
        <time>2018-04-08T11:29:15Z</time>
      </trkpt>
      <trkpt lat="48.01015" lon="-0.69013">
        <ele>93.5</ele>
        <time>2018-04-08T11:29:19Z</time>
      </trkpt>
      <trkpt lat="48.01017" lon="-0.68992">
        <ele>93.6</ele>
        <time>2018-04-08T11:29:23Z</time>
      </trkpt>
      <trkpt lat="48.01027" lon="-0.68983">
        <ele>93.4</ele>
        <time>2018-04-08T11:29:27Z</time>
      </trkpt>
      <trkpt lat="48.01037" lon="-0.68984">
        <ele>93.3</ele>
        <time>2018-04-08T11:29:31Z</time>
      </trkpt>
      <trkpt lat="48.01048" lon="-0.68981">
        <ele>93.1</ele>
        <time>2018-04-08T11:29:35Z</time>
      </trkpt>
      <trkpt lat="48.01062" lon="-0.68978">
        <ele>92.9</ele>
        <time>2018-04-08T11:29:39Z</time>
      </trkpt>
      <trkpt lat="48.01076" lon="-0.68975">
        <ele>92.8</ele>
        <time>2018-04-08T11:29:43Z</time>
      </trkpt>
      <trkpt lat="48.01091" lon="-0.68972">
        <ele>91.1</ele>
        <time>2018-04-08T11:29:47Z</time>
      </trkpt>
      <trkpt lat="48.01108" lon="-0.68967">
        <ele>90.9</ele>
        <time>2018-04-08T11:29:51Z</time>
      </trkpt>
      <trkpt lat="48.01126" lon="-0.68963">
        <ele>90.5</ele>
        <time>2018-04-08T11:29:55Z</time>
      </trkpt>
      <trkpt lat="48.01145" lon="-0.68956">
        <ele>90.1</ele>
        <time>2018-04-08T11:29:59Z</time>
      </trkpt>
      <trkpt lat="48.01167" lon="-0.68946">
        <ele>89.8</ele>
        <time>2018-04-08T11:30:03Z</time>
      </trkpt>
      <trkpt lat="48.0119" lon="-0.68936">
        <ele>86.9</ele>
        <time>2018-04-08T11:30:07Z</time>
      </trkpt>
      <trkpt lat="48.01214" lon="-0.68927">
        <ele>86.1</ele>
        <time>2018-04-08T11:30:11Z</time>
      </trkpt>
      <trkpt lat="48.01235" lon="-0.68918">
        <ele>85.5</ele>
        <time>2018-04-08T11:30:15Z</time>
      </trkpt>
      <trkpt lat="48.01255" lon="-0.68909">
        <ele>84.9</ele>
        <time>2018-04-08T11:30:19Z</time>
      </trkpt>
      <trkpt lat="48.01275" lon="-0.68899">
        <ele>84.8</ele>
        <time>2018-04-08T11:30:23Z</time>
      </trkpt>
      <trkpt lat="48.01296" lon="-0.68885">
        <ele>84.6</ele>
        <time>2018-04-08T11:30:27Z</time>
      </trkpt>
      <trkpt lat="48.01315" lon="-0.68868">
        <ele>84.5</ele>
        <time>2018-04-08T11:30:31Z</time>
      </trkpt>
      <trkpt lat="48.01335" lon="-0.68852">
        <ele>84.1</ele>
        <time>2018-04-08T11:30:35Z</time>
      </trkpt>
      <trkpt lat="48.01354" lon="-0.68838">
        <ele>84.2</ele>
        <time>2018-04-08T11:30:39Z</time>
      </trkpt>
      <trkpt lat="48.01372" lon="-0.68829">
        <ele>85</ele>
        <time>2018-04-08T11:30:43Z</time>
      </trkpt>
      <trkpt lat="48.01387" lon="-0.6882">
        <ele>85.1</ele>
        <time>2018-04-08T11:30:47Z</time>
      </trkpt>
      <trkpt lat="48.01399" lon="-0.68813">
        <ele>85.2</ele>
        <time>2018-04-08T11:30:51Z</time>
      </trkpt>
      <trkpt lat="48.01407" lon="-0.68806">
        <ele>85.3</ele>
        <time>2018-04-08T11:30:55Z</time>
      </trkpt>
      <trkpt lat="48.01415" lon="-0.68797">
        <ele>85.5</ele>
        <time>2018-04-08T11:30:59Z</time>
      </trkpt>
      <trkpt lat="48.01422" lon="-0.68788">
        <ele>87.3</ele>
        <time>2018-04-08T11:31:03Z</time>
      </trkpt>
      <trkpt lat="48.01429" lon="-0.6878">
        <ele>87.5</ele>
        <time>2018-04-08T11:31:07Z</time>
      </trkpt>
      <trkpt lat="48.01437" lon="-0.68772">
        <ele>87.6</ele>
        <time>2018-04-08T11:31:11Z</time>
      </trkpt>
      <trkpt lat="48.01443" lon="-0.68764">
        <ele>87.8</ele>
        <time>2018-04-08T11:31:15Z</time>
      </trkpt>
      <trkpt lat="48.0145" lon="-0.68755">
        <ele>88</ele>
        <time>2018-04-08T11:31:19Z</time>
      </trkpt>
      <trkpt lat="48.01457" lon="-0.68747">
        <ele>88.9</ele>
        <time>2018-04-08T11:31:23Z</time>
      </trkpt>
      <trkpt lat="48.01464" lon="-0.68739">
        <ele>89.1</ele>
        <time>2018-04-08T11:31:27Z</time>
      </trkpt>
      <trkpt lat="48.0147" lon="-0.68731">
        <ele>89.3</ele>
        <time>2018-04-08T11:31:31Z</time>
      </trkpt>
      <trkpt lat="48.01478" lon="-0.68723">
        <ele>89.4</ele>
        <time>2018-04-08T11:31:35Z</time>
      </trkpt>
      <trkpt lat="48.01484" lon="-0.68714">
        <ele>89.6</ele>
        <time>2018-04-08T11:31:39Z</time>
      </trkpt>
      <trkpt lat="48.01489" lon="-0.68704">
        <ele>89.7</ele>
        <time>2018-04-08T11:31:43Z</time>
      </trkpt>
      <trkpt lat="48.01498" lon="-0.68694">
        <ele>89.9</ele>
        <time>2018-04-08T11:31:47Z</time>
      </trkpt>
      <trkpt lat="48.01503" lon="-0.68685">
        <ele>90.4</ele>
        <time>2018-04-08T11:31:51Z</time>
      </trkpt>
      <trkpt lat="48.01515" lon="-0.68674">
        <ele>90.4</ele>
        <time>2018-04-08T11:31:55Z</time>
      </trkpt>
      <trkpt lat="48.01527" lon="-0.68663">
        <ele>90</ele>
        <time>2018-04-08T11:31:59Z</time>
      </trkpt>
      <trkpt lat="48.01538" lon="-0.68653">
        <ele>89.7</ele>
        <time>2018-04-08T11:32:03Z</time>
      </trkpt>
      <trkpt lat="48.0155" lon="-0.68643">
        <ele>89.5</ele>
        <time>2018-04-08T11:32:07Z</time>
      </trkpt>
      <trkpt lat="48.01565" lon="-0.68632">
        <ele>89.3</ele>
        <time>2018-04-08T11:32:11Z</time>
      </trkpt>
      <trkpt lat="48.0158" lon="-0.68619">
        <ele>89.1</ele>
        <time>2018-04-08T11:32:15Z</time>
      </trkpt>
      <trkpt lat="48.01598" lon="-0.68605">
        <ele>87.4</ele>
        <time>2018-04-08T11:32:19Z</time>
      </trkpt>
      <trkpt lat="48.01616" lon="-0.68592">
        <ele>87.1</ele>
        <time>2018-04-08T11:32:23Z</time>
      </trkpt>
      <trkpt lat="48.01634" lon="-0.68577">
        <ele>85.9</ele>
        <time>2018-04-08T11:32:27Z</time>
      </trkpt>
      <trkpt lat="48.01652" lon="-0.68562">
        <ele>85.6</ele>
        <time>2018-04-08T11:32:31Z</time>
      </trkpt>
      <trkpt lat="48.01671" lon="-0.68548">
        <ele>84.2</ele>
        <time>2018-04-08T11:32:35Z</time>
      </trkpt>
      <trkpt lat="48.0169" lon="-0.68532">
        <ele>84.1</ele>
        <time>2018-04-08T11:32:39Z</time>
      </trkpt>
      <trkpt lat="48.01712" lon="-0.68516">
        <ele>84</ele>
        <time>2018-04-08T11:32:43Z</time>
      </trkpt>
      <trkpt lat="48.01735" lon="-0.68498">
        <ele>84.2</ele>
        <time>2018-04-08T11:32:47Z</time>
      </trkpt>
      <trkpt lat="48.01757" lon="-0.6848">
        <ele>83.6</ele>
        <time>2018-04-08T11:32:51Z</time>
      </trkpt>
      <trkpt lat="48.0178" lon="-0.68462">
        <ele>83.4</ele>
        <time>2018-04-08T11:32:55Z</time>
      </trkpt>
      <trkpt lat="48.01801" lon="-0.68447">
        <ele>83.2</ele>
        <time>2018-04-08T11:32:59Z</time>
      </trkpt>
      <trkpt lat="48.0182" lon="-0.68431">
        <ele>83.1</ele>
        <time>2018-04-08T11:33:03Z</time>
      </trkpt>
      <trkpt lat="48.0184" lon="-0.68416">
        <ele>83.1</ele>
        <time>2018-04-08T11:33:07Z</time>
      </trkpt>
      <trkpt lat="48.01858" lon="-0.68401">
        <ele>83.3</ele>
        <time>2018-04-08T11:33:11Z</time>
      </trkpt>
      <trkpt lat="48.01876" lon="-0.68387">
        <ele>83.4</ele>
        <time>2018-04-08T11:33:15Z</time>
      </trkpt>
      <trkpt lat="48.01895" lon="-0.68373">
        <ele>83.4</ele>
        <time>2018-04-08T11:33:19Z</time>
      </trkpt>
      <trkpt lat="48.01914" lon="-0.68358">
        <ele>83.6</ele>
        <time>2018-04-08T11:33:23Z</time>
      </trkpt>
      <trkpt lat="48.01933" lon="-0.68343">
        <ele>83.2</ele>
        <time>2018-04-08T11:33:27Z</time>
      </trkpt>
      <trkpt lat="48.01951" lon="-0.6833">
        <ele>84.2</ele>
        <time>2018-04-08T11:33:31Z</time>
      </trkpt>
      <trkpt lat="48.01968" lon="-0.68316">
        <ele>84.2</ele>
        <time>2018-04-08T11:33:35Z</time>
      </trkpt>
      <trkpt lat="48.01985" lon="-0.68304">
        <ele>84.2</ele>
        <time>2018-04-08T11:33:39Z</time>
      </trkpt>
      <trkpt lat="48.01999" lon="-0.68293">
        <ele>84.5</ele>
        <time>2018-04-08T11:33:43Z</time>
      </trkpt>
      <trkpt lat="48.02012" lon="-0.68282">
        <ele>84.4</ele>
        <time>2018-04-08T11:33:47Z</time>
      </trkpt>
      <trkpt lat="48.02025" lon="-0.68272">
        <ele>84.5</ele>
        <time>2018-04-08T11:33:51Z</time>
      </trkpt>
      <trkpt lat="48.02038" lon="-0.68262">
        <ele>84.5</ele>
        <time>2018-04-08T11:33:55Z</time>
      </trkpt>
      <trkpt lat="48.0205" lon="-0.68252">
        <ele>84.5</ele>
        <time>2018-04-08T11:33:59Z</time>
      </trkpt>
      <trkpt lat="48.02062" lon="-0.68243">
        <ele>85.7</ele>
        <time>2018-04-08T11:34:03Z</time>
      </trkpt>
      <trkpt lat="48.02074" lon="-0.68235">
        <ele>85.6</ele>
        <time>2018-04-08T11:34:07Z</time>
      </trkpt>
      <trkpt lat="48.02082" lon="-0.68226">
        <ele>85.7</ele>
        <time>2018-04-08T11:34:11Z</time>
      </trkpt>
      <trkpt lat="48.02089" lon="-0.68219">
        <ele>85.5</ele>
        <time>2018-04-08T11:34:15Z</time>
      </trkpt>
      <trkpt lat="48.02094" lon="-0.68226">
        <ele>85.5</ele>
        <time>2018-04-08T11:34:19Z</time>
      </trkpt>
      <trkpt lat="48.02102" lon="-0.68238">
        <ele>85.4</ele>
        <time>2018-04-08T11:34:23Z</time>
      </trkpt>
      <trkpt lat="48.0211" lon="-0.68252">
        <ele>84.4</ele>
        <time>2018-04-08T11:34:27Z</time>
      </trkpt>
      <trkpt lat="48.0212" lon="-0.68269">
        <ele>84.2</ele>
        <time>2018-04-08T11:34:31Z</time>
      </trkpt>
      <trkpt lat="48.0213" lon="-0.68288">
        <ele>84.1</ele>
        <time>2018-04-08T11:34:35Z</time>
      </trkpt>
      <trkpt lat="48.02142" lon="-0.68308">
        <ele>84</ele>
        <time>2018-04-08T11:34:39Z</time>
      </trkpt>
      <trkpt lat="48.02153" lon="-0.68329">
        <ele>83.9</ele>
        <time>2018-04-08T11:34:43Z</time>
      </trkpt>
      <trkpt lat="48.02164" lon="-0.68348">
        <ele>83.3</ele>
        <time>2018-04-08T11:34:47Z</time>
      </trkpt>
      <trkpt lat="48.02174" lon="-0.68366">
        <ele>84.1</ele>
        <time>2018-04-08T11:34:51Z</time>
      </trkpt>
      <trkpt lat="48.02182" lon="-0.68382">
        <ele>84</ele>
        <time>2018-04-08T11:34:55Z</time>
      </trkpt>
      <trkpt lat="48.02191" lon="-0.68398">
        <ele>83.9</ele>
        <time>2018-04-08T11:34:59Z</time>
      </trkpt>
      <trkpt lat="48.022" lon="-0.68414">
        <ele>84</ele>
        <time>2018-04-08T11:35:03Z</time>
      </trkpt>
      <trkpt lat="48.02209" lon="-0.6843">
        <ele>84.2</ele>
        <time>2018-04-08T11:35:07Z</time>
      </trkpt>
      <trkpt lat="48.02216" lon="-0.68445">
        <ele>84.3</ele>
        <time>2018-04-08T11:35:11Z</time>
      </trkpt>
      <trkpt lat="48.02223" lon="-0.68458">
        <ele>84.5</ele>
        <time>2018-04-08T11:35:15Z</time>
      </trkpt>
      <trkpt lat="48.02231" lon="-0.68472">
        <ele>84.9</ele>
        <time>2018-04-08T11:35:19Z</time>
      </trkpt>
      <trkpt lat="48.02239" lon="-0.68485">
        <ele>85.5</ele>
        <time>2018-04-08T11:35:23Z</time>
      </trkpt>
      <trkpt lat="48.02245" lon="-0.68497">
        <ele>86.4</ele>
        <time>2018-04-08T11:35:27Z</time>
      </trkpt>
      <trkpt lat="48.02252" lon="-0.6851">
        <ele>87.4</ele>
        <time>2018-04-08T11:35:31Z</time>
      </trkpt>
      <trkpt lat="48.02259" lon="-0.68522">
        <ele>87.8</ele>
        <time>2018-04-08T11:35:35Z</time>
      </trkpt>
      <trkpt lat="48.02266" lon="-0.68534">
        <ele>88</ele>
        <time>2018-04-08T11:35:39Z</time>
      </trkpt>
      <trkpt lat="48.02272" lon="-0.68547">
        <ele>88.2</ele>
        <time>2018-04-08T11:35:43Z</time>
      </trkpt>
      <trkpt lat="48.02281" lon="-0.68561">
        <ele>88.3</ele>
        <time>2018-04-08T11:35:47Z</time>
      </trkpt>
      <trkpt lat="48.02288" lon="-0.68575">
        <ele>88.6</ele>
        <time>2018-04-08T11:35:51Z</time>
      </trkpt>
      <trkpt lat="48.02296" lon="-0.68588">
        <ele>89.1</ele>
        <time>2018-04-08T11:35:55Z</time>
      </trkpt>
      <trkpt lat="48.02303" lon="-0.68601">
        <ele>89.3</ele>
        <time>2018-04-08T11:35:59Z</time>
      </trkpt>
      <trkpt lat="48.02309" lon="-0.68613">
        <ele>89.4</ele>
        <time>2018-04-08T11:36:03Z</time>
      </trkpt>
      <trkpt lat="48.02316" lon="-0.68625">
        <ele>89.5</ele>
        <time>2018-04-08T11:36:07Z</time>
      </trkpt>
      <trkpt lat="48.02322" lon="-0.68636">
        <ele>89.7</ele>
        <time>2018-04-08T11:36:11Z</time>
      </trkpt>
      <trkpt lat="48.02329" lon="-0.68648">
        <ele>90</ele>
        <time>2018-04-08T11:36:15Z</time>
      </trkpt>
      <trkpt lat="48.02335" lon="-0.68659">
        <ele>91.6</ele>
        <time>2018-04-08T11:36:19Z</time>
      </trkpt>
      <trkpt lat="48.02342" lon="-0.6867">
        <ele>92</ele>
        <time>2018-04-08T11:36:23Z</time>
      </trkpt>
      <trkpt lat="48.02348" lon="-0.68682">
        <ele>92.7</ele>
        <time>2018-04-08T11:36:27Z</time>
      </trkpt>
      <trkpt lat="48.02355" lon="-0.68693">
        <ele>93.3</ele>
        <time>2018-04-08T11:36:31Z</time>
      </trkpt>
      <trkpt lat="48.02362" lon="-0.68705">
        <ele>93.7</ele>
        <time>2018-04-08T11:36:35Z</time>
      </trkpt>
      <trkpt lat="48.02368" lon="-0.68716">
        <ele>93.9</ele>
        <time>2018-04-08T11:36:39Z</time>
      </trkpt>
      <trkpt lat="48.02374" lon="-0.68727">
        <ele>94.1</ele>
        <time>2018-04-08T11:36:43Z</time>
      </trkpt>
      <trkpt lat="48.0238" lon="-0.68738">
        <ele>94.3</ele>
        <time>2018-04-08T11:36:47Z</time>
      </trkpt>
      <trkpt lat="48.02385" lon="-0.68748">
        <ele>94.5</ele>
        <time>2018-04-08T11:36:51Z</time>
      </trkpt>
      <trkpt lat="48.02391" lon="-0.68758">
        <ele>95.2</ele>
        <time>2018-04-08T11:36:55Z</time>
      </trkpt>
      <trkpt lat="48.02398" lon="-0.68768">
        <ele>95.3</ele>
        <time>2018-04-08T11:36:59Z</time>
      </trkpt>
      <trkpt lat="48.02404" lon="-0.68778">
        <ele>95.4</ele>
        <time>2018-04-08T11:37:03Z</time>
      </trkpt>
      <trkpt lat="48.02408" lon="-0.68789">
        <ele>95.5</ele>
        <time>2018-04-08T11:37:07Z</time>
      </trkpt>
      <trkpt lat="48.02414" lon="-0.688">
        <ele>95.6</ele>
        <time>2018-04-08T11:37:11Z</time>
      </trkpt>
      <trkpt lat="48.0242" lon="-0.6881">
        <ele>97.2</ele>
        <time>2018-04-08T11:37:15Z</time>
      </trkpt>
      <trkpt lat="48.02425" lon="-0.6882">
        <ele>97.2</ele>
        <time>2018-04-08T11:37:19Z</time>
      </trkpt>
      <trkpt lat="48.02436" lon="-0.68821">
        <ele>97.3</ele>
        <time>2018-04-08T11:37:23Z</time>
      </trkpt>
      <trkpt lat="48.02443" lon="-0.68813">
        <ele>97.3</ele>
        <time>2018-04-08T11:37:27Z</time>
      </trkpt>
      <trkpt lat="48.0245" lon="-0.68805">
        <ele>97.4</ele>
        <time>2018-04-08T11:37:31Z</time>
      </trkpt>
      <trkpt lat="48.02459" lon="-0.68797">
        <ele>97.5</ele>
        <time>2018-04-08T11:37:35Z</time>
      </trkpt>
      <trkpt lat="48.02466" lon="-0.68788">
        <ele>97.6</ele>
        <time>2018-04-08T11:37:39Z</time>
      </trkpt>
      <trkpt lat="48.02473" lon="-0.6878">
        <ele>97.7</ele>
        <time>2018-04-08T11:37:43Z</time>
      </trkpt>
      <trkpt lat="48.02481" lon="-0.68772">
        <ele>97.9</ele>
        <time>2018-04-08T11:37:47Z</time>
      </trkpt>
      <trkpt lat="48.02489" lon="-0.68767">
        <ele>98.1</ele>
        <time>2018-04-08T11:37:51Z</time>
      </trkpt>
      <trkpt lat="48.02498" lon="-0.68764">
        <ele>98.4</ele>
        <time>2018-04-08T11:37:55Z</time>
      </trkpt>
      <trkpt lat="48.02507" lon="-0.68762">
        <ele>98.8</ele>
        <time>2018-04-08T11:37:59Z</time>
      </trkpt>
      <trkpt lat="48.02516" lon="-0.6876">
        <ele>98.8</ele>
        <time>2018-04-08T11:38:03Z</time>
      </trkpt>
      <trkpt lat="48.02524" lon="-0.6876">
        <ele>98.8</ele>
        <time>2018-04-08T11:38:07Z</time>
      </trkpt>
      <trkpt lat="48.02533" lon="-0.68759">
        <ele>98.7</ele>
        <time>2018-04-08T11:38:11Z</time>
      </trkpt>
      <trkpt lat="48.02542" lon="-0.68759">
        <ele>98.7</ele>
        <time>2018-04-08T11:38:15Z</time>
      </trkpt>
      <trkpt lat="48.02552" lon="-0.68761">
        <ele>98.6</ele>
        <time>2018-04-08T11:38:19Z</time>
      </trkpt>
      <trkpt lat="48.02561" lon="-0.68761">
        <ele>98.5</ele>
        <time>2018-04-08T11:38:23Z</time>
      </trkpt>
      <trkpt lat="48.0257" lon="-0.68764">
        <ele>98.5</ele>
        <time>2018-04-08T11:38:27Z</time>
      </trkpt>
      <trkpt lat="48.02581" lon="-0.68768">
        <ele>98.5</ele>
        <time>2018-04-08T11:38:31Z</time>
      </trkpt>
      <trkpt lat="48.02592" lon="-0.68771">
        <ele>98.8</ele>
        <time>2018-04-08T11:38:35Z</time>
      </trkpt>
      <trkpt lat="48.02601" lon="-0.68774">
        <ele>98.9</ele>
        <time>2018-04-08T11:38:39Z</time>
      </trkpt>
      <trkpt lat="48.0261" lon="-0.68778">
        <ele>99</ele>
        <time>2018-04-08T11:38:43Z</time>
      </trkpt>
      <trkpt lat="48.0262" lon="-0.6878">
        <ele>99.1</ele>
        <time>2018-04-08T11:38:47Z</time>
      </trkpt>
      <trkpt lat="48.0263" lon="-0.68784">
        <ele>99.2</ele>
        <time>2018-04-08T11:38:51Z</time>
      </trkpt>
      <trkpt lat="48.02642" lon="-0.68786">
        <ele>99.3</ele>
        <time>2018-04-08T11:38:55Z</time>
      </trkpt>
      <trkpt lat="48.02654" lon="-0.68791">
        <ele>99.3</ele>
        <time>2018-04-08T11:38:59Z</time>
      </trkpt>
      <trkpt lat="48.02668" lon="-0.68796">
        <ele>98.3</ele>
        <time>2018-04-08T11:39:03Z</time>
      </trkpt>
      <trkpt lat="48.02679" lon="-0.68799">
        <ele>98.2</ele>
        <time>2018-04-08T11:39:07Z</time>
      </trkpt>
      <trkpt lat="48.02694" lon="-0.68807">
        <ele>98</ele>
        <time>2018-04-08T11:39:11Z</time>
      </trkpt>
      <trkpt lat="48.02708" lon="-0.68816">
        <ele>97.8</ele>
        <time>2018-04-08T11:39:15Z</time>
      </trkpt>
      <trkpt lat="48.02724" lon="-0.68822">
        <ele>97.4</ele>
        <time>2018-04-08T11:39:19Z</time>
      </trkpt>
      <trkpt lat="48.0274" lon="-0.68827">
        <ele>97.2</ele>
        <time>2018-04-08T11:39:23Z</time>
      </trkpt>
      <trkpt lat="48.02755" lon="-0.68832">
        <ele>96.3</ele>
        <time>2018-04-08T11:39:27Z</time>
      </trkpt>
      <trkpt lat="48.0277" lon="-0.68839">
        <ele>96.4</ele>
        <time>2018-04-08T11:39:31Z</time>
      </trkpt>
      <trkpt lat="48.02785" lon="-0.68847">
        <ele>96.1</ele>
        <time>2018-04-08T11:39:35Z</time>
      </trkpt>
      <trkpt lat="48.02798" lon="-0.68851">
        <ele>95.7</ele>
        <time>2018-04-08T11:39:39Z</time>
      </trkpt>
      <trkpt lat="48.02814" lon="-0.68861">
        <ele>95.5</ele>
        <time>2018-04-08T11:39:43Z</time>
      </trkpt>
      <trkpt lat="48.0283" lon="-0.68871">
        <ele>95.5</ele>
        <time>2018-04-08T11:39:47Z</time>
      </trkpt>
      <trkpt lat="48.02847" lon="-0.6888">
        <ele>93.4</ele>
        <time>2018-04-08T11:39:51Z</time>
      </trkpt>
      <trkpt lat="48.02862" lon="-0.68888">
        <ele>93.3</ele>
        <time>2018-04-08T11:39:55Z</time>
      </trkpt>
      <trkpt lat="48.02874" lon="-0.68892">
        <ele>93</ele>
        <time>2018-04-08T11:39:59Z</time>
      </trkpt>
      <trkpt lat="48.02885" lon="-0.68897">
        <ele>92.8</ele>
        <time>2018-04-08T11:40:03Z</time>
      </trkpt>
      <trkpt lat="48.02896" lon="-0.68903">
        <ele>92.6</ele>
        <time>2018-04-08T11:40:07Z</time>
      </trkpt>
      <trkpt lat="48.02909" lon="-0.68908">
        <ele>92.3</ele>
        <time>2018-04-08T11:40:11Z</time>
      </trkpt>
      <trkpt lat="48.02922" lon="-0.6891">
        <ele>91.4</ele>
        <time>2018-04-08T11:40:15Z</time>
      </trkpt>
      <trkpt lat="48.02937" lon="-0.68908">
        <ele>90.8</ele>
        <time>2018-04-08T11:40:19Z</time>
      </trkpt>
      <trkpt lat="48.02952" lon="-0.68903">
        <ele>90.3</ele>
        <time>2018-04-08T11:40:23Z</time>
      </trkpt>
      <trkpt lat="48.02967" lon="-0.68899">
        <ele>90</ele>
        <time>2018-04-08T11:40:27Z</time>
      </trkpt>
      <trkpt lat="48.02982" lon="-0.68891">
        <ele>89.7</ele>
        <time>2018-04-08T11:40:31Z</time>
      </trkpt>
      <trkpt lat="48.02997" lon="-0.68883">
        <ele>89.6</ele>
        <time>2018-04-08T11:40:35Z</time>
      </trkpt>
      <trkpt lat="48.03014" lon="-0.68874">
        <ele>87.9</ele>
        <time>2018-04-08T11:40:39Z</time>
      </trkpt>
      <trkpt lat="48.03031" lon="-0.68862">
        <ele>87.8</ele>
        <time>2018-04-08T11:40:43Z</time>
      </trkpt>
      <trkpt lat="48.03044" lon="-0.68851">
        <ele>87.6</ele>
        <time>2018-04-08T11:40:47Z</time>
      </trkpt>
      <trkpt lat="48.03063" lon="-0.6884">
        <ele>87.3</ele>
        <time>2018-04-08T11:40:51Z</time>
      </trkpt>
      <trkpt lat="48.03074" lon="-0.68829">
        <ele>87.1</ele>
        <time>2018-04-08T11:40:55Z</time>
      </trkpt>
      <trkpt lat="48.03083" lon="-0.6882">
        <ele>87.1</ele>
        <time>2018-04-08T11:40:59Z</time>
      </trkpt>
      <trkpt lat="48.03093" lon="-0.6881">
        <ele>85.3</ele>
        <time>2018-04-08T11:41:03Z</time>
      </trkpt>
      <trkpt lat="48.03102" lon="-0.68802">
        <ele>84.9</ele>
        <time>2018-04-08T11:41:07Z</time>
      </trkpt>
      <trkpt lat="48.03114" lon="-0.68794">
        <ele>84.6</ele>
        <time>2018-04-08T11:41:11Z</time>
      </trkpt>
      <trkpt lat="48.03126" lon="-0.68787">
        <ele>84.2</ele>
        <time>2018-04-08T11:41:15Z</time>
      </trkpt>
      <trkpt lat="48.03139" lon="-0.6878">
        <ele>83.8</ele>
        <time>2018-04-08T11:41:19Z</time>
      </trkpt>
      <trkpt lat="48.03153" lon="-0.68772">
        <ele>83.4</ele>
        <time>2018-04-08T11:41:23Z</time>
      </trkpt>
      <trkpt lat="48.03167" lon="-0.68767">
        <ele>83</ele>
        <time>2018-04-08T11:41:27Z</time>
      </trkpt>
      <trkpt lat="48.03181" lon="-0.6876">
        <ele>81.8</ele>
        <time>2018-04-08T11:41:31Z</time>
      </trkpt>
      <trkpt lat="48.03195" lon="-0.68753">
        <ele>81.7</ele>
        <time>2018-04-08T11:41:35Z</time>
      </trkpt>
      <trkpt lat="48.0321" lon="-0.68745">
        <ele>82</ele>
        <time>2018-04-08T11:41:39Z</time>
      </trkpt>
      <trkpt lat="48.03225" lon="-0.68739">
        <ele>82</ele>
        <time>2018-04-08T11:41:43Z</time>
      </trkpt>
      <trkpt lat="48.0324" lon="-0.68733">
        <ele>81.9</ele>
        <time>2018-04-08T11:41:47Z</time>
      </trkpt>
      <trkpt lat="48.03254" lon="-0.68726">
        <ele>81.4</ele>
        <time>2018-04-08T11:41:51Z</time>
      </trkpt>
      <trkpt lat="48.03268" lon="-0.6872">
        <ele>81.2</ele>
        <time>2018-04-08T11:41:55Z</time>
      </trkpt>
      <trkpt lat="48.03282" lon="-0.68712">
        <ele>81.1</ele>
        <time>2018-04-08T11:41:59Z</time>
      </trkpt>
      <trkpt lat="48.03296" lon="-0.68705">
        <ele>81</ele>
        <time>2018-04-08T11:42:03Z</time>
      </trkpt>
      <trkpt lat="48.03308" lon="-0.68701">
        <ele>80.9</ele>
        <time>2018-04-08T11:42:07Z</time>
      </trkpt>
      <trkpt lat="48.03321" lon="-0.68697">
        <ele>80.7</ele>
        <time>2018-04-08T11:42:11Z</time>
      </trkpt>
      <trkpt lat="48.03331" lon="-0.68692">
        <ele>80.6</ele>
        <time>2018-04-08T11:42:15Z</time>
      </trkpt>
      <trkpt lat="48.03338" lon="-0.68687">
        <ele>79.6</ele>
        <time>2018-04-08T11:42:19Z</time>
      </trkpt>
      <trkpt lat="48.03343" lon="-0.68686">
        <ele>79.6</ele>
        <time>2018-04-08T11:42:23Z</time>
      </trkpt>
      <trkpt lat="48.03346" lon="-0.68691">
        <ele>79.6</ele>
        <time>2018-04-08T11:42:27Z</time>
      </trkpt>
      <trkpt lat="48.03351" lon="-0.68691">
        <ele>79.5</ele>
        <time>2018-04-08T11:42:31Z</time>
      </trkpt>
      <trkpt lat="48.03354" lon="-0.6869">
        <ele>79.5</ele>
        <time>2018-04-08T11:42:43Z</time>
      </trkpt>
      <trkpt lat="48.03358" lon="-0.68689">
        <ele>79.4</ele>
        <time>2018-04-08T11:42:47Z</time>
      </trkpt>
      <trkpt lat="48.03365" lon="-0.68687">
        <ele>79.3</ele>
        <time>2018-04-08T11:42:51Z</time>
      </trkpt>
      <trkpt lat="48.03373" lon="-0.68685">
        <ele>79.1</ele>
        <time>2018-04-08T11:42:55Z</time>
      </trkpt>
      <trkpt lat="48.03382" lon="-0.68683">
        <ele>78.9</ele>
        <time>2018-04-08T11:42:59Z</time>
      </trkpt>
      <trkpt lat="48.03395" lon="-0.68679">
        <ele>78.5</ele>
        <time>2018-04-08T11:43:03Z</time>
      </trkpt>
      <trkpt lat="48.03411" lon="-0.68674">
        <ele>77.7</ele>
        <time>2018-04-08T11:43:07Z</time>
      </trkpt>
      <trkpt lat="48.03431" lon="-0.6867">
        <ele>76.7</ele>
        <time>2018-04-08T11:43:11Z</time>
      </trkpt>
      <trkpt lat="48.03453" lon="-0.68666">
        <ele>75.2</ele>
        <time>2018-04-08T11:43:15Z</time>
      </trkpt>
      <trkpt lat="48.03475" lon="-0.68663">
        <ele>74.6</ele>
        <time>2018-04-08T11:43:19Z</time>
      </trkpt>
      <trkpt lat="48.03498" lon="-0.68661">
        <ele>74.2</ele>
        <time>2018-04-08T11:43:23Z</time>
      </trkpt>
      <trkpt lat="48.03523" lon="-0.68663">
        <ele>73.1</ele>
        <time>2018-04-08T11:43:27Z</time>
      </trkpt>
      <trkpt lat="48.03549" lon="-0.68662">
        <ele>72.6</ele>
        <time>2018-04-08T11:43:31Z</time>
      </trkpt>
      <trkpt lat="48.03575" lon="-0.68657">
        <ele>72.2</ele>
        <time>2018-04-08T11:43:35Z</time>
      </trkpt>
      <trkpt lat="48.03599" lon="-0.68649">
        <ele>70.4</ele>
        <time>2018-04-08T11:43:39Z</time>
      </trkpt>
      <trkpt lat="48.03625" lon="-0.68641">
        <ele>69.5</ele>
        <time>2018-04-08T11:43:43Z</time>
      </trkpt>
      <trkpt lat="48.03653" lon="-0.68634">
        <ele>68.8</ele>
        <time>2018-04-08T11:43:47Z</time>
      </trkpt>
      <trkpt lat="48.03684" lon="-0.68626">
        <ele>66.2</ele>
        <time>2018-04-08T11:43:51Z</time>
      </trkpt>
      <trkpt lat="48.03713" lon="-0.68618">
        <ele>65.7</ele>
        <time>2018-04-08T11:43:55Z</time>
      </trkpt>
      <trkpt lat="48.0374" lon="-0.68609">
        <ele>65.3</ele>
        <time>2018-04-08T11:43:59Z</time>
      </trkpt>
      <trkpt lat="48.03764" lon="-0.68601">
        <ele>63.8</ele>
        <time>2018-04-08T11:44:03Z</time>
      </trkpt>
      <trkpt lat="48.03789" lon="-0.68597">
        <ele>63.3</ele>
        <time>2018-04-08T11:44:07Z</time>
      </trkpt>
      <trkpt lat="48.03816" lon="-0.68599">
        <ele>63</ele>
        <time>2018-04-08T11:44:11Z</time>
      </trkpt>
      <trkpt lat="48.03846" lon="-0.68609">
        <ele>59.9</ele>
        <time>2018-04-08T11:44:15Z</time>
      </trkpt>
      <trkpt lat="48.0388" lon="-0.68612">
        <ele>58.2</ele>
        <time>2018-04-08T11:44:19Z</time>
      </trkpt>
      <trkpt lat="48.03912" lon="-0.68601">
        <ele>57</ele>
        <time>2018-04-08T11:44:23Z</time>
      </trkpt>
      <trkpt lat="48.0394" lon="-0.68583">
        <ele>57.6</ele>
        <time>2018-04-08T11:44:27Z</time>
      </trkpt>
      <trkpt lat="48.03963" lon="-0.68584">
        <ele>56.2</ele>
        <time>2018-04-08T11:44:31Z</time>
      </trkpt>
      <trkpt lat="48.03978" lon="-0.68585">
        <ele>56.6</ele>
        <time>2018-04-08T11:44:35Z</time>
      </trkpt>
      <trkpt lat="48.03993" lon="-0.68577">
        <ele>58.2</ele>
        <time>2018-04-08T11:44:39Z</time>
      </trkpt>
      <trkpt lat="48.04008" lon="-0.68568">
        <ele>58.2</ele>
        <time>2018-04-08T11:44:43Z</time>
      </trkpt>
      <trkpt lat="48.04023" lon="-0.6856">
        <ele>58.2</ele>
        <time>2018-04-08T11:44:47Z</time>
      </trkpt>
      <trkpt lat="48.04032" lon="-0.68542">
        <ele>58.4</ele>
        <time>2018-04-08T11:44:51Z</time>
      </trkpt>
      <trkpt lat="48.04026" lon="-0.68519">
        <ele>59</ele>
        <time>2018-04-08T11:44:55Z</time>
      </trkpt>
      <trkpt lat="48.04015" lon="-0.68501">
        <ele>59.7</ele>
        <time>2018-04-08T11:44:59Z</time>
      </trkpt>
      <trkpt lat="48.04006" lon="-0.68484">
        <ele>60.8</ele>
        <time>2018-04-08T11:45:03Z</time>
      </trkpt>
      <trkpt lat="48.03999" lon="-0.68465">
        <ele>61.6</ele>
        <time>2018-04-08T11:45:07Z</time>
      </trkpt>
      <trkpt lat="48.03995" lon="-0.68446">
        <ele>61.9</ele>
        <time>2018-04-08T11:45:11Z</time>
      </trkpt>
      <trkpt lat="48.03991" lon="-0.68428">
        <ele>62.4</ele>
        <time>2018-04-08T11:45:15Z</time>
      </trkpt>
      <trkpt lat="48.03987" lon="-0.6841">
        <ele>63</ele>
        <time>2018-04-08T11:45:19Z</time>
      </trkpt>
      <trkpt lat="48.03982" lon="-0.68392">
        <ele>63.1</ele>
        <time>2018-04-08T11:45:23Z</time>
      </trkpt>
      <trkpt lat="48.03978" lon="-0.68373">
        <ele>63.2</ele>
        <time>2018-04-08T11:45:27Z</time>
      </trkpt>
      <trkpt lat="48.03974" lon="-0.68355">
        <ele>63.3</ele>
        <time>2018-04-08T11:45:31Z</time>
      </trkpt>
      <trkpt lat="48.03971" lon="-0.68337">
        <ele>63.4</ele>
        <time>2018-04-08T11:45:35Z</time>
      </trkpt>
      <trkpt lat="48.03967" lon="-0.68319">
        <ele>63.9</ele>
        <time>2018-04-08T11:45:39Z</time>
      </trkpt>
      <trkpt lat="48.03964" lon="-0.683">
        <ele>63.9</ele>
        <time>2018-04-08T11:45:43Z</time>
      </trkpt>
      <trkpt lat="48.03959" lon="-0.68282">
        <ele>64</ele>
        <time>2018-04-08T11:45:47Z</time>
      </trkpt>
      <trkpt lat="48.03954" lon="-0.68263">
        <ele>64.1</ele>
        <time>2018-04-08T11:45:51Z</time>
      </trkpt>
      <trkpt lat="48.03951" lon="-0.68246">
        <ele>64.3</ele>
        <time>2018-04-08T11:45:55Z</time>
      </trkpt>
      <trkpt lat="48.03948" lon="-0.68229">
        <ele>64.4</ele>
        <time>2018-04-08T11:45:59Z</time>
      </trkpt>
      <trkpt lat="48.03944" lon="-0.68212">
        <ele>64.4</ele>
        <time>2018-04-08T11:46:03Z</time>
      </trkpt>
      <trkpt lat="48.0394" lon="-0.68197">
        <ele>64.6</ele>
        <time>2018-04-08T11:46:07Z</time>
      </trkpt>
      <trkpt lat="48.03936" lon="-0.68181">
        <ele>64.9</ele>
        <time>2018-04-08T11:46:11Z</time>
      </trkpt>
      <trkpt lat="48.03932" lon="-0.68165">
        <ele>65.7</ele>
        <time>2018-04-08T11:46:15Z</time>
      </trkpt>
      <trkpt lat="48.03929" lon="-0.6815">
        <ele>65.8</ele>
        <time>2018-04-08T11:46:19Z</time>
      </trkpt>
      <trkpt lat="48.03926" lon="-0.68132">
        <ele>66</ele>
        <time>2018-04-08T11:46:23Z</time>
      </trkpt>
      <trkpt lat="48.03928" lon="-0.68111">
        <ele>66.6</ele>
        <time>2018-04-08T11:46:27Z</time>
      </trkpt>
      <trkpt lat="48.03927" lon="-0.68085">
        <ele>67.8</ele>
        <time>2018-04-08T11:46:31Z</time>
      </trkpt>
      <trkpt lat="48.03924" lon="-0.68055">
        <ele>67.8</ele>
        <time>2018-04-08T11:46:35Z</time>
      </trkpt>
      <trkpt lat="48.03921" lon="-0.68027">
        <ele>67.9</ele>
        <time>2018-04-08T11:46:39Z</time>
      </trkpt>
      <trkpt lat="48.03915" lon="-0.6799">
        <ele>68.8</ele>
        <time>2018-04-08T11:46:43Z</time>
      </trkpt>
      <trkpt lat="48.03911" lon="-0.67954">
        <ele>68</ele>
        <time>2018-04-08T11:46:47Z</time>
      </trkpt>
      <trkpt lat="48.0391" lon="-0.67922">
        <ele>66.7</ele>
        <time>2018-04-08T11:46:51Z</time>
      </trkpt>
      <trkpt lat="48.03913" lon="-0.67902">
        <ele>66.1</ele>
        <time>2018-04-08T11:46:55Z</time>
      </trkpt>
      <trkpt lat="48.03921" lon="-0.67888">
        <ele>66.4</ele>
        <time>2018-04-08T11:46:59Z</time>
      </trkpt>
      <trkpt lat="48.03928" lon="-0.67879">
        <ele>66.4</ele>
        <time>2018-04-08T11:47:03Z</time>
      </trkpt>
      <trkpt lat="48.03935" lon="-0.67868">
        <ele>66.4</ele>
        <time>2018-04-08T11:47:07Z</time>
      </trkpt>
      <trkpt lat="48.0394" lon="-0.67858">
        <ele>66.4</ele>
        <time>2018-04-08T11:47:11Z</time>
      </trkpt>
      <trkpt lat="48.03944" lon="-0.67846">
        <ele>66.4</ele>
        <time>2018-04-08T11:47:15Z</time>
      </trkpt>
      <trkpt lat="48.03947" lon="-0.67837">
        <ele>66.5</ele>
        <time>2018-04-08T11:47:19Z</time>
      </trkpt>
      <trkpt lat="48.0395" lon="-0.67828">
        <ele>67.7</ele>
        <time>2018-04-08T11:47:23Z</time>
      </trkpt>
      <trkpt lat="48.03952" lon="-0.67821">
        <ele>68</ele>
        <time>2018-04-08T11:47:27Z</time>
      </trkpt>
      <trkpt lat="48.03954" lon="-0.67814">
        <ele>68.2</ele>
        <time>2018-04-08T11:47:31Z</time>
      </trkpt>
      <trkpt lat="48.03956" lon="-0.67808">
        <ele>68.4</ele>
        <time>2018-04-08T11:47:35Z</time>
      </trkpt>
      <trkpt lat="48.03959" lon="-0.67802">
        <ele>68.6</ele>
        <time>2018-04-08T11:47:39Z</time>
      </trkpt>
      <trkpt lat="48.03963" lon="-0.67795">
        <ele>68.9</ele>
        <time>2018-04-08T11:47:43Z</time>
      </trkpt>
      <trkpt lat="48.03967" lon="-0.67788">
        <ele>69.3</ele>
        <time>2018-04-08T11:47:47Z</time>
      </trkpt>
      <trkpt lat="48.03971" lon="-0.67782">
        <ele>69.6</ele>
        <time>2018-04-08T11:47:51Z</time>
      </trkpt>
      <trkpt lat="48.03975" lon="-0.67777">
        <ele>70</ele>
        <time>2018-04-08T11:47:55Z</time>
      </trkpt>
      <trkpt lat="48.03979" lon="-0.67771">
        <ele>70.5</ele>
        <time>2018-04-08T11:47:59Z</time>
      </trkpt>
      <trkpt lat="48.03982" lon="-0.67766">
        <ele>71</ele>
        <time>2018-04-08T11:48:03Z</time>
      </trkpt>
      <trkpt lat="48.03985" lon="-0.6776">
        <ele>71.7</ele>
        <time>2018-04-08T11:48:07Z</time>
      </trkpt>
      <trkpt lat="48.03988" lon="-0.67755">
        <ele>72.5</ele>
        <time>2018-04-08T11:48:11Z</time>
      </trkpt>
      <trkpt lat="48.03992" lon="-0.67749">
        <ele>73.8</ele>
        <time>2018-04-08T11:48:15Z</time>
      </trkpt>
      <trkpt lat="48.03997" lon="-0.67742">
        <ele>73.8</ele>
        <time>2018-04-08T11:48:19Z</time>
      </trkpt>
      <trkpt lat="48.04" lon="-0.67736">
        <ele>73.3</ele>
        <time>2018-04-08T11:48:23Z</time>
      </trkpt>
      <trkpt lat="48.04004" lon="-0.67731">
        <ele>75</ele>
        <time>2018-04-08T11:48:27Z</time>
      </trkpt>
      <trkpt lat="48.04007" lon="-0.67726">
        <ele>75</ele>
        <time>2018-04-08T11:48:31Z</time>
      </trkpt>
      <trkpt lat="48.0401" lon="-0.6772">
        <ele>75</ele>
        <time>2018-04-08T11:48:35Z</time>
      </trkpt>
      <trkpt lat="48.04013" lon="-0.67714">
        <ele>75</ele>
        <time>2018-04-08T11:48:39Z</time>
      </trkpt>
      <trkpt lat="48.04017" lon="-0.67706">
        <ele>75</ele>
        <time>2018-04-08T11:48:43Z</time>
      </trkpt>
      <trkpt lat="48.04023" lon="-0.67695">
        <ele>75</ele>
        <time>2018-04-08T11:48:47Z</time>
      </trkpt>
      <trkpt lat="48.04028" lon="-0.67686">
        <ele>75</ele>
        <time>2018-04-08T11:48:51Z</time>
      </trkpt>
      <trkpt lat="48.04033" lon="-0.67678">
        <ele>75</ele>
        <time>2018-04-08T11:48:55Z</time>
      </trkpt>
      <trkpt lat="48.04037" lon="-0.6767">
        <ele>75</ele>
        <time>2018-04-08T11:48:59Z</time>
      </trkpt>
      <trkpt lat="48.04041" lon="-0.67662">
        <ele>75</ele>
        <time>2018-04-08T11:49:03Z</time>
      </trkpt>
      <trkpt lat="48.04046" lon="-0.67655">
        <ele>75</ele>
        <time>2018-04-08T11:49:07Z</time>
      </trkpt>
      <trkpt lat="48.04052" lon="-0.67647">
        <ele>75</ele>
        <time>2018-04-08T11:49:11Z</time>
      </trkpt>
      <trkpt lat="48.04058" lon="-0.67637">
        <ele>75</ele>
        <time>2018-04-08T11:49:15Z</time>
      </trkpt>
      <trkpt lat="48.04063" lon="-0.67626">
        <ele>75</ele>
        <time>2018-04-08T11:49:19Z</time>
      </trkpt>
      <trkpt lat="48.04069" lon="-0.67616">
        <ele>75</ele>
        <time>2018-04-08T11:49:23Z</time>
      </trkpt>
      <trkpt lat="48.04074" lon="-0.67607">
        <ele>75</ele>
        <time>2018-04-08T11:49:27Z</time>
      </trkpt>
      <trkpt lat="48.0408" lon="-0.67598">
        <ele>75</ele>
        <time>2018-04-08T11:49:31Z</time>
      </trkpt>
      <trkpt lat="48.04086" lon="-0.67589">
        <ele>74.7</ele>
        <time>2018-04-08T11:49:35Z</time>
      </trkpt>
      <trkpt lat="48.0409" lon="-0.67583">
        <ele>74.7</ele>
        <time>2018-04-08T11:49:39Z</time>
      </trkpt>
      <trkpt lat="48.04097" lon="-0.67574">
        <ele>74.3</ele>
        <time>2018-04-08T11:49:43Z</time>
      </trkpt>
      <trkpt lat="48.04102" lon="-0.67567">
        <ele>74.1</ele>
        <time>2018-04-08T11:49:47Z</time>
      </trkpt>
      <trkpt lat="48.04108" lon="-0.6756">
        <ele>74</ele>
        <time>2018-04-08T11:49:51Z</time>
      </trkpt>
      <trkpt lat="48.04113" lon="-0.67552">
        <ele>73.9</ele>
        <time>2018-04-08T11:49:55Z</time>
      </trkpt>
      <trkpt lat="48.04119" lon="-0.67544">
        <ele>73.8</ele>
        <time>2018-04-08T11:49:59Z</time>
      </trkpt>
      <trkpt lat="48.04126" lon="-0.67537">
        <ele>73.8</ele>
        <time>2018-04-08T11:50:03Z</time>
      </trkpt>
      <trkpt lat="48.04133" lon="-0.67529">
        <ele>73.7</ele>
        <time>2018-04-08T11:50:07Z</time>
      </trkpt>
      <trkpt lat="48.04141" lon="-0.6752">
        <ele>73.8</ele>
        <time>2018-04-08T11:50:11Z</time>
      </trkpt>
      <trkpt lat="48.04149" lon="-0.67511">
        <ele>73.8</ele>
        <time>2018-04-08T11:50:15Z</time>
      </trkpt>
      <trkpt lat="48.04157" lon="-0.67502">
        <ele>73.9</ele>
        <time>2018-04-08T11:50:19Z</time>
      </trkpt>
      <trkpt lat="48.04165" lon="-0.67493">
        <ele>74.2</ele>
        <time>2018-04-08T11:50:23Z</time>
      </trkpt>
      <trkpt lat="48.04172" lon="-0.67484">
        <ele>75</ele>
        <time>2018-04-08T11:50:27Z</time>
      </trkpt>
      <trkpt lat="48.04179" lon="-0.67474">
        <ele>75.4</ele>
        <time>2018-04-08T11:50:31Z</time>
      </trkpt>
      <trkpt lat="48.04187" lon="-0.67465">
        <ele>75.7</ele>
        <time>2018-04-08T11:50:35Z</time>
      </trkpt>
      <trkpt lat="48.04193" lon="-0.67455">
        <ele>75.9</ele>
        <time>2018-04-08T11:50:39Z</time>
      </trkpt>
      <trkpt lat="48.04199" lon="-0.67445">
        <ele>76</ele>
        <time>2018-04-08T11:50:43Z</time>
      </trkpt>
      <trkpt lat="48.04204" lon="-0.67433">
        <ele>76.1</ele>
        <time>2018-04-08T11:50:47Z</time>
      </trkpt>
      <trkpt lat="48.04209" lon="-0.67421">
        <ele>76.2</ele>
        <time>2018-04-08T11:50:51Z</time>
      </trkpt>
      <trkpt lat="48.04215" lon="-0.67411">
        <ele>76.9</ele>
        <time>2018-04-08T11:50:55Z</time>
      </trkpt>
      <trkpt lat="48.04222" lon="-0.67399">
        <ele>77</ele>
        <time>2018-04-08T11:50:59Z</time>
      </trkpt>
      <trkpt lat="48.0423" lon="-0.67387">
        <ele>77</ele>
        <time>2018-04-08T11:51:03Z</time>
      </trkpt>
      <trkpt lat="48.04238" lon="-0.67374">
        <ele>77.2</ele>
        <time>2018-04-08T11:51:07Z</time>
      </trkpt>
      <trkpt lat="48.04246" lon="-0.6736">
        <ele>77.3</ele>
        <time>2018-04-08T11:51:11Z</time>
      </trkpt>
      <trkpt lat="48.04255" lon="-0.67347">
        <ele>77.6</ele>
        <time>2018-04-08T11:51:15Z</time>
      </trkpt>
      <trkpt lat="48.04264" lon="-0.67335">
        <ele>77.6</ele>
        <time>2018-04-08T11:51:19Z</time>
      </trkpt>
      <trkpt lat="48.04275" lon="-0.67323">
        <ele>77.6</ele>
        <time>2018-04-08T11:51:23Z</time>
      </trkpt>
      <trkpt lat="48.04287" lon="-0.67313">
        <ele>77.5</ele>
        <time>2018-04-08T11:51:27Z</time>
      </trkpt>
      <trkpt lat="48.04298" lon="-0.67303">
        <ele>77.5</ele>
        <time>2018-04-08T11:51:31Z</time>
      </trkpt>
      <trkpt lat="48.04309" lon="-0.67294">
        <ele>77.5</ele>
        <time>2018-04-08T11:51:35Z</time>
      </trkpt>
      <trkpt lat="48.0432" lon="-0.67286">
        <ele>77.5</ele>
        <time>2018-04-08T11:51:39Z</time>
      </trkpt>
      <trkpt lat="48.0433" lon="-0.67277">
        <ele>77.6</ele>
        <time>2018-04-08T11:51:43Z</time>
      </trkpt>
      <trkpt lat="48.0434" lon="-0.67265">
        <ele>77.6</ele>
        <time>2018-04-08T11:51:47Z</time>
      </trkpt>
      <trkpt lat="48.0435" lon="-0.67252">
        <ele>77.6</ele>
        <time>2018-04-08T11:51:51Z</time>
      </trkpt>
      <trkpt lat="48.04359" lon="-0.67239">
        <ele>77.6</ele>
        <time>2018-04-08T11:51:55Z</time>
      </trkpt>
      <trkpt lat="48.04365" lon="-0.67225">
        <ele>77.6</ele>
        <time>2018-04-08T11:51:59Z</time>
      </trkpt>
      <trkpt lat="48.04371" lon="-0.67212">
        <ele>77.5</ele>
        <time>2018-04-08T11:52:03Z</time>
      </trkpt>
      <trkpt lat="48.04375" lon="-0.67205">
        <ele>77.5</ele>
        <time>2018-04-08T11:52:07Z</time>
      </trkpt>
      <trkpt lat="48.04376" lon="-0.67203">
        <ele>77.5</ele>
        <time>2018-04-08T11:53:19Z</time>
      </trkpt>
      <trkpt lat="48.0438" lon="-0.67198">
        <ele>77.5</ele>
        <time>2018-04-08T11:53:23Z</time>
      </trkpt>
      <trkpt lat="48.04387" lon="-0.67189">
        <ele>77.4</ele>
        <time>2018-04-08T11:53:27Z</time>
      </trkpt>
      <trkpt lat="48.04397" lon="-0.67178">
        <ele>77.3</ele>
        <time>2018-04-08T11:53:31Z</time>
      </trkpt>
      <trkpt lat="48.04408" lon="-0.67165">
        <ele>77.2</ele>
        <time>2018-04-08T11:53:35Z</time>
      </trkpt>
      <trkpt lat="48.04419" lon="-0.67149">
        <ele>76.5</ele>
        <time>2018-04-08T11:53:39Z</time>
      </trkpt>
      <trkpt lat="48.04427" lon="-0.67132">
        <ele>76.3</ele>
        <time>2018-04-08T11:53:43Z</time>
      </trkpt>
      <trkpt lat="48.04441" lon="-0.67115">
        <ele>76.2</ele>
        <time>2018-04-08T11:53:47Z</time>
      </trkpt>
      <trkpt lat="48.04456" lon="-0.67098">
        <ele>76</ele>
        <time>2018-04-08T11:53:51Z</time>
      </trkpt>
      <trkpt lat="48.04464" lon="-0.67088">
        <ele>75.9</ele>
        <time>2018-04-08T11:53:55Z</time>
      </trkpt>
      <trkpt lat="48.0447" lon="-0.6708">
        <ele>76.1</ele>
        <time>2018-04-08T11:53:59Z</time>
      </trkpt>
      <trkpt lat="48.04478" lon="-0.6707">
        <ele>76</ele>
        <time>2018-04-08T11:54:03Z</time>
      </trkpt>
      <trkpt lat="48.04488" lon="-0.67056">
        <ele>75.9</ele>
        <time>2018-04-08T11:54:07Z</time>
      </trkpt>
      <trkpt lat="48.04499" lon="-0.67043">
        <ele>75.9</ele>
        <time>2018-04-08T11:54:11Z</time>
      </trkpt>
      <trkpt lat="48.04513" lon="-0.67034">
        <ele>74.2</ele>
        <time>2018-04-08T11:54:15Z</time>
      </trkpt>
      <trkpt lat="48.04519" lon="-0.67043">
        <ele>74.1</ele>
        <time>2018-04-08T11:54:19Z</time>
      </trkpt>
      <trkpt lat="48.04522" lon="-0.67061">
        <ele>74.1</ele>
        <time>2018-04-08T11:54:23Z</time>
      </trkpt>
      <trkpt lat="48.04525" lon="-0.67081">
        <ele>74.1</ele>
        <time>2018-04-08T11:54:27Z</time>
      </trkpt>
      <trkpt lat="48.04522" lon="-0.67098">
        <ele>73.9</ele>
        <time>2018-04-08T11:54:31Z</time>
      </trkpt>
      <trkpt lat="48.04518" lon="-0.67117">
        <ele>73.7</ele>
        <time>2018-04-08T11:54:35Z</time>
      </trkpt>
      <trkpt lat="48.04521" lon="-0.67138">
        <ele>73.7</ele>
        <time>2018-04-08T11:54:39Z</time>
      </trkpt>
      <trkpt lat="48.04529" lon="-0.67157">
        <ele>73.6</ele>
        <time>2018-04-08T11:54:43Z</time>
      </trkpt>
      <trkpt lat="48.04538" lon="-0.67175">
        <ele>73.1</ele>
        <time>2018-04-08T11:54:47Z</time>
      </trkpt>
      <trkpt lat="48.04546" lon="-0.67194">
        <ele>72.9</ele>
        <time>2018-04-08T11:54:51Z</time>
      </trkpt>
      <trkpt lat="48.0455" lon="-0.67213">
        <ele>72.8</ele>
        <time>2018-04-08T11:54:55Z</time>
      </trkpt>
      <trkpt lat="48.04552" lon="-0.67228">
        <ele>72.7</ele>
        <time>2018-04-08T11:54:59Z</time>
      </trkpt>
      <trkpt lat="48.04551" lon="-0.67241">
        <ele>72.7</ele>
        <time>2018-04-08T11:55:03Z</time>
      </trkpt>
      <trkpt lat="48.04552" lon="-0.67253">
        <ele>71.1</ele>
        <time>2018-04-08T11:55:07Z</time>
      </trkpt>
      <trkpt lat="48.04552" lon="-0.67265">
        <ele>70.9</ele>
        <time>2018-04-08T11:55:11Z</time>
      </trkpt>
      <trkpt lat="48.04551" lon="-0.67276">
        <ele>70.6</ele>
        <time>2018-04-08T11:55:19Z</time>
      </trkpt>
      <trkpt lat="48.04553" lon="-0.67282">
        <ele>70.4</ele>
        <time>2018-04-08T11:55:23Z</time>
      </trkpt>
      <trkpt lat="48.04553" lon="-0.67287">
        <ele>70.2</ele>
        <time>2018-04-08T11:55:31Z</time>
      </trkpt>
      <trkpt lat="48.04554" lon="-0.67296">
        <ele>69.8</ele>
        <time>2018-04-08T11:55:35Z</time>
      </trkpt>
      <trkpt lat="48.04554" lon="-0.67303">
        <ele>69.4</ele>
        <time>2018-04-08T11:55:39Z</time>
      </trkpt>
      <trkpt lat="48.04551" lon="-0.67317">
        <ele>68.9</ele>
        <time>2018-04-08T11:55:43Z</time>
      </trkpt>
      <trkpt lat="48.0455" lon="-0.67333">
        <ele>68.6</ele>
        <time>2018-04-08T11:55:47Z</time>
      </trkpt>
      <trkpt lat="48.04546" lon="-0.67347">
        <ele>65.3</ele>
        <time>2018-04-08T11:55:51Z</time>
      </trkpt>
      <trkpt lat="48.0454" lon="-0.67358">
        <ele>65.5</ele>
        <time>2018-04-08T11:55:55Z</time>
      </trkpt>
      <trkpt lat="48.04531" lon="-0.67376">
        <ele>65.6</ele>
        <time>2018-04-08T11:55:59Z</time>
      </trkpt>
      <trkpt lat="48.04514" lon="-0.67402">
        <ele>66.6</ele>
        <time>2018-04-08T11:56:03Z</time>
      </trkpt>
      <trkpt lat="48.045" lon="-0.6743">
        <ele>68.7</ele>
        <time>2018-04-08T11:56:07Z</time>
      </trkpt>
      <trkpt lat="48.04486" lon="-0.67456">
        <ele>67.6</ele>
        <time>2018-04-08T11:56:11Z</time>
      </trkpt>
      <trkpt lat="48.04475" lon="-0.67482">
        <ele>66.3</ele>
        <time>2018-04-08T11:56:15Z</time>
      </trkpt>
      <trkpt lat="48.04464" lon="-0.67504">
        <ele>64.2</ele>
        <time>2018-04-08T11:56:19Z</time>
      </trkpt>
      <trkpt lat="48.04457" lon="-0.67521">
        <ele>65.1</ele>
        <time>2018-04-08T11:56:23Z</time>
      </trkpt>
      <trkpt lat="48.04453" lon="-0.67534">
        <ele>65.3</ele>
        <time>2018-04-08T11:56:27Z</time>
      </trkpt>
      <trkpt lat="48.04454" lon="-0.6755">
        <ele>64.9</ele>
        <time>2018-04-08T11:56:31Z</time>
      </trkpt>
      <trkpt lat="48.04453" lon="-0.67563">
        <ele>64.9</ele>
        <time>2018-04-08T11:56:35Z</time>
      </trkpt>
      <trkpt lat="48.04449" lon="-0.67578">
        <ele>65.6</ele>
        <time>2018-04-08T11:56:39Z</time>
      </trkpt>
      <trkpt lat="48.04449" lon="-0.6759">
        <ele>63.4</ele>
        <time>2018-04-08T11:56:43Z</time>
      </trkpt>
      <trkpt lat="48.04451" lon="-0.676">
        <ele>62.7</ele>
        <time>2018-04-08T11:56:47Z</time>
      </trkpt>
      <trkpt lat="48.04457" lon="-0.67608">
        <ele>61.5</ele>
        <time>2018-04-08T11:56:51Z</time>
      </trkpt>
      <trkpt lat="48.04463" lon="-0.67615">
        <ele>60.7</ele>
        <time>2018-04-08T11:56:55Z</time>
      </trkpt>
      <trkpt lat="48.04472" lon="-0.67622">
        <ele>59.7</ele>
        <time>2018-04-08T11:56:59Z</time>
      </trkpt>
      <trkpt lat="48.04485" lon="-0.67631">
        <ele>58.5</ele>
        <time>2018-04-08T11:57:03Z</time>
      </trkpt>
      <trkpt lat="48.04493" lon="-0.67636">
        <ele>57.7</ele>
        <time>2018-04-08T11:57:07Z</time>
      </trkpt>
      <trkpt lat="48.04505" lon="-0.67642">
        <ele>52.7</ele>
        <time>2018-04-08T11:57:11Z</time>
      </trkpt>
      <trkpt lat="48.04517" lon="-0.67653">
        <ele>52.7</ele>
        <time>2018-04-08T11:57:15Z</time>
      </trkpt>
      <trkpt lat="48.04526" lon="-0.67664">
        <ele>52.8</ele>
        <time>2018-04-08T11:57:19Z</time>
      </trkpt>
      <trkpt lat="48.04535" lon="-0.67674">
        <ele>53.5</ele>
        <time>2018-04-08T11:57:23Z</time>
      </trkpt>
      <trkpt lat="48.04542" lon="-0.67684">
        <ele>53.7</ele>
        <time>2018-04-08T11:57:27Z</time>
      </trkpt>
      <trkpt lat="48.0455" lon="-0.67692">
        <ele>53.9</ele>
        <time>2018-04-08T11:57:31Z</time>
      </trkpt>
      <trkpt lat="48.04558" lon="-0.67701">
        <ele>54.1</ele>
        <time>2018-04-08T11:57:35Z</time>
      </trkpt>
      <trkpt lat="48.04566" lon="-0.67711">
        <ele>54.2</ele>
        <time>2018-04-08T11:57:39Z</time>
      </trkpt>
      <trkpt lat="48.04573" lon="-0.6772">
        <ele>54.5</ele>
        <time>2018-04-08T11:57:43Z</time>
      </trkpt>
      <trkpt lat="48.0458" lon="-0.67728">
        <ele>54.8</ele>
        <time>2018-04-08T11:57:47Z</time>
      </trkpt>
      <trkpt lat="48.04587" lon="-0.67737">
        <ele>57</ele>
        <time>2018-04-08T11:57:51Z</time>
      </trkpt>
      <trkpt lat="48.04594" lon="-0.67745">
        <ele>56.9</ele>
        <time>2018-04-08T11:57:55Z</time>
      </trkpt>
      <trkpt lat="48.04599" lon="-0.67754">
        <ele>57.6</ele>
        <time>2018-04-08T11:57:59Z</time>
      </trkpt>
      <trkpt lat="48.04605" lon="-0.67761">
        <ele>58.1</ele>
        <time>2018-04-08T11:58:03Z</time>
      </trkpt>
      <trkpt lat="48.04611" lon="-0.67769">
        <ele>58.5</ele>
        <time>2018-04-08T11:58:07Z</time>
      </trkpt>
      <trkpt lat="48.04617" lon="-0.67777">
        <ele>58.8</ele>
        <time>2018-04-08T11:58:11Z</time>
      </trkpt>
      <trkpt lat="48.04621" lon="-0.67785">
        <ele>59.1</ele>
        <time>2018-04-08T11:58:15Z</time>
      </trkpt>
      <trkpt lat="48.04626" lon="-0.67793">
        <ele>59.3</ele>
        <time>2018-04-08T11:58:19Z</time>
      </trkpt>
      <trkpt lat="48.0463" lon="-0.67801">
        <ele>59.5</ele>
        <time>2018-04-08T11:58:23Z</time>
      </trkpt>
      <trkpt lat="48.04635" lon="-0.67809">
        <ele>59.8</ele>
        <time>2018-04-08T11:58:27Z</time>
      </trkpt>
      <trkpt lat="48.0464" lon="-0.67817">
        <ele>60.2</ele>
        <time>2018-04-08T11:58:31Z</time>
      </trkpt>
      <trkpt lat="48.04646" lon="-0.67825">
        <ele>60.6</ele>
        <time>2018-04-08T11:58:35Z</time>
      </trkpt>
      <trkpt lat="48.0465" lon="-0.67833">
        <ele>61.1</ele>
        <time>2018-04-08T11:58:39Z</time>
      </trkpt>
      <trkpt lat="48.04655" lon="-0.6784">
        <ele>61.5</ele>
        <time>2018-04-08T11:58:43Z</time>
      </trkpt>
      <trkpt lat="48.04661" lon="-0.6785">
        <ele>61.3</ele>
        <time>2018-04-08T11:58:47Z</time>
      </trkpt>
      <trkpt lat="48.04665" lon="-0.67858">
        <ele>61.1</ele>
        <time>2018-04-08T11:58:51Z</time>
      </trkpt>
      <trkpt lat="48.0467" lon="-0.67867">
        <ele>63.9</ele>
        <time>2018-04-08T11:58:55Z</time>
      </trkpt>
      <trkpt lat="48.04674" lon="-0.67875">
        <ele>64</ele>
        <time>2018-04-08T11:58:59Z</time>
      </trkpt>
      <trkpt lat="48.04679" lon="-0.67883">
        <ele>64</ele>
        <time>2018-04-08T11:59:03Z</time>
      </trkpt>
      <trkpt lat="48.04684" lon="-0.6789">
        <ele>64.1</ele>
        <time>2018-04-08T11:59:07Z</time>
      </trkpt>
      <trkpt lat="48.04688" lon="-0.67899">
        <ele>64.1</ele>
        <time>2018-04-08T11:59:11Z</time>
      </trkpt>
      <trkpt lat="48.04693" lon="-0.67907">
        <ele>64.2</ele>
        <time>2018-04-08T11:59:15Z</time>
      </trkpt>
      <trkpt lat="48.04698" lon="-0.67914">
        <ele>64.3</ele>
        <time>2018-04-08T11:59:19Z</time>
      </trkpt>
      <trkpt lat="48.04703" lon="-0.67924">
        <ele>64.8</ele>
        <time>2018-04-08T11:59:23Z</time>
      </trkpt>
      <trkpt lat="48.04708" lon="-0.67932">
        <ele>65</ele>
        <time>2018-04-08T11:59:27Z</time>
      </trkpt>
      <trkpt lat="48.04712" lon="-0.6794">
        <ele>65.1</ele>
        <time>2018-04-08T11:59:31Z</time>
      </trkpt>
      <trkpt lat="48.04716" lon="-0.6795">
        <ele>65.2</ele>
        <time>2018-04-08T11:59:35Z</time>
      </trkpt>
      <trkpt lat="48.0472" lon="-0.6796">
        <ele>65.3</ele>
        <time>2018-04-08T11:59:39Z</time>
      </trkpt>
      <trkpt lat="48.04725" lon="-0.67968">
        <ele>65.5</ele>
        <time>2018-04-08T11:59:43Z</time>
      </trkpt>
      <trkpt lat="48.04729" lon="-0.67974">
        <ele>65.7</ele>
        <time>2018-04-08T11:59:47Z</time>
      </trkpt>
      <trkpt lat="48.04733" lon="-0.67982">
        <ele>66.1</ele>
        <time>2018-04-08T11:59:51Z</time>
      </trkpt>
      <trkpt lat="48.04739" lon="-0.67987">
        <ele>66.5</ele>
        <time>2018-04-08T11:59:55Z</time>
      </trkpt>
      <trkpt lat="48.04743" lon="-0.67986">
        <ele>66.6</ele>
        <time>2018-04-08T12:00:07Z</time>
      </trkpt>
      <trkpt lat="48.04744" lon="-0.67982">
        <ele>66.4</ele>
        <time>2018-04-08T12:03:19Z</time>
      </trkpt>
      <trkpt lat="48.04744" lon="-0.67984">
        <ele>66.5</ele>
        <time>2018-04-08T12:03:35Z</time>
      </trkpt>
      <trkpt lat="48.04745" lon="-0.67991">
        <ele>66.9</ele>
        <time>2018-04-08T12:03:39Z</time>
      </trkpt>
      <trkpt lat="48.04748" lon="-0.67998">
        <ele>67.6</ele>
        <time>2018-04-08T12:03:43Z</time>
      </trkpt>
      <trkpt lat="48.04751" lon="-0.68009">
        <ele>68.4</ele>
        <time>2018-04-08T12:03:47Z</time>
      </trkpt>
      <trkpt lat="48.04756" lon="-0.6802">
        <ele>68.8</ele>
        <time>2018-04-08T12:03:51Z</time>
      </trkpt>
      <trkpt lat="48.04761" lon="-0.68034">
        <ele>69</ele>
        <time>2018-04-08T12:03:55Z</time>
      </trkpt>
      <trkpt lat="48.04766" lon="-0.68046">
        <ele>69.1</ele>
        <time>2018-04-08T12:03:59Z</time>
      </trkpt>
      <trkpt lat="48.04772" lon="-0.68059">
        <ele>69.2</ele>
        <time>2018-04-08T12:04:03Z</time>
      </trkpt>
      <trkpt lat="48.04778" lon="-0.68072">
        <ele>69.2</ele>
        <time>2018-04-08T12:04:07Z</time>
      </trkpt>
      <trkpt lat="48.04783" lon="-0.68084">
        <ele>70</ele>
        <time>2018-04-08T12:04:11Z</time>
      </trkpt>
      <trkpt lat="48.04788" lon="-0.68098">
        <ele>70.2</ele>
        <time>2018-04-08T12:04:15Z</time>
      </trkpt>
      <trkpt lat="48.04793" lon="-0.6811">
        <ele>70.5</ele>
        <time>2018-04-08T12:04:19Z</time>
      </trkpt>
      <trkpt lat="48.04799" lon="-0.68123">
        <ele>70.7</ele>
        <time>2018-04-08T12:04:23Z</time>
      </trkpt>
      <trkpt lat="48.04804" lon="-0.68136">
        <ele>71</ele>
        <time>2018-04-08T12:04:27Z</time>
      </trkpt>
      <trkpt lat="48.0481" lon="-0.6815">
        <ele>71.5</ele>
        <time>2018-04-08T12:04:31Z</time>
      </trkpt>
      <trkpt lat="48.04816" lon="-0.68163">
        <ele>72.1</ele>
        <time>2018-04-08T12:04:35Z</time>
      </trkpt>
      <trkpt lat="48.04821" lon="-0.68176">
        <ele>72.3</ele>
        <time>2018-04-08T12:04:39Z</time>
      </trkpt>
      <trkpt lat="48.04826" lon="-0.68189">
        <ele>71.9</ele>
        <time>2018-04-08T12:04:43Z</time>
      </trkpt>
      <trkpt lat="48.04832" lon="-0.68202">
        <ele>71.6</ele>
        <time>2018-04-08T12:04:47Z</time>
      </trkpt>
      <trkpt lat="48.04839" lon="-0.68215">
        <ele>74.4</ele>
        <time>2018-04-08T12:04:51Z</time>
      </trkpt>
      <trkpt lat="48.04846" lon="-0.68228">
        <ele>74.3</ele>
        <time>2018-04-08T12:04:55Z</time>
      </trkpt>
      <trkpt lat="48.04853" lon="-0.68241">
        <ele>74.3</ele>
        <time>2018-04-08T12:04:59Z</time>
      </trkpt>
      <trkpt lat="48.04863" lon="-0.68254">
        <ele>74.5</ele>
        <time>2018-04-08T12:05:03Z</time>
      </trkpt>
      <trkpt lat="48.04874" lon="-0.68266">
        <ele>74.9</ele>
        <time>2018-04-08T12:05:07Z</time>
      </trkpt>
      <trkpt lat="48.04885" lon="-0.68278">
        <ele>75.2</ele>
        <time>2018-04-08T12:05:11Z</time>
      </trkpt>
      <trkpt lat="48.04896" lon="-0.6829">
        <ele>75.3</ele>
        <time>2018-04-08T12:05:15Z</time>
      </trkpt>
      <trkpt lat="48.04906" lon="-0.68302">
        <ele>75.4</ele>
        <time>2018-04-08T12:05:19Z</time>
      </trkpt>
      <trkpt lat="48.04917" lon="-0.68313">
        <ele>77.3</ele>
        <time>2018-04-08T12:05:23Z</time>
      </trkpt>
      <trkpt lat="48.04928" lon="-0.68325">
        <ele>77.1</ele>
        <time>2018-04-08T12:05:27Z</time>
      </trkpt>
      <trkpt lat="48.04937" lon="-0.68336">
        <ele>76.9</ele>
        <time>2018-04-08T12:05:31Z</time>
      </trkpt>
      <trkpt lat="48.04947" lon="-0.68346">
        <ele>77.2</ele>
        <time>2018-04-08T12:05:35Z</time>
      </trkpt>
      <trkpt lat="48.04956" lon="-0.68357">
        <ele>77.5</ele>
        <time>2018-04-08T12:05:39Z</time>
      </trkpt>
      <trkpt lat="48.04966" lon="-0.68367">
        <ele>77.6</ele>
        <time>2018-04-08T12:05:43Z</time>
      </trkpt>
      <trkpt lat="48.04974" lon="-0.68378">
        <ele>77.8</ele>
        <time>2018-04-08T12:05:47Z</time>
      </trkpt>
      <trkpt lat="48.04984" lon="-0.68389">
        <ele>78</ele>
        <time>2018-04-08T12:05:51Z</time>
      </trkpt>
      <trkpt lat="48.04994" lon="-0.68399">
        <ele>78.3</ele>
        <time>2018-04-08T12:05:55Z</time>
      </trkpt>
      <trkpt lat="48.05004" lon="-0.68409">
        <ele>79.3</ele>
        <time>2018-04-08T12:05:59Z</time>
      </trkpt>
      <trkpt lat="48.05013" lon="-0.68419">
        <ele>79.4</ele>
        <time>2018-04-08T12:06:03Z</time>
      </trkpt>
      <trkpt lat="48.05023" lon="-0.6843">
        <ele>79.7</ele>
        <time>2018-04-08T12:06:07Z</time>
      </trkpt>
      <trkpt lat="48.05033" lon="-0.68441">
        <ele>79.9</ele>
        <time>2018-04-08T12:06:11Z</time>
      </trkpt>
      <trkpt lat="48.05043" lon="-0.68452">
        <ele>80</ele>
        <time>2018-04-08T12:06:15Z</time>
      </trkpt>
      <trkpt lat="48.05053" lon="-0.68463">
        <ele>80.1</ele>
        <time>2018-04-08T12:06:19Z</time>
      </trkpt>
      <trkpt lat="48.05063" lon="-0.68475">
        <ele>80.3</ele>
        <time>2018-04-08T12:06:23Z</time>
      </trkpt>
      <trkpt lat="48.05074" lon="-0.68487">
        <ele>80.5</ele>
        <time>2018-04-08T12:06:27Z</time>
      </trkpt>
      <trkpt lat="48.05085" lon="-0.68498">
        <ele>81.1</ele>
        <time>2018-04-08T12:06:31Z</time>
      </trkpt>
      <trkpt lat="48.05096" lon="-0.6851">
        <ele>81.3</ele>
        <time>2018-04-08T12:06:35Z</time>
      </trkpt>
      <trkpt lat="48.05107" lon="-0.68523">
        <ele>81.5</ele>
        <time>2018-04-08T12:06:39Z</time>
      </trkpt>
      <trkpt lat="48.05118" lon="-0.68536">
        <ele>81.7</ele>
        <time>2018-04-08T12:06:43Z</time>
      </trkpt>
      <trkpt lat="48.0513" lon="-0.68549">
        <ele>81.8</ele>
        <time>2018-04-08T12:06:47Z</time>
      </trkpt>
      <trkpt lat="48.05142" lon="-0.68562">
        <ele>82</ele>
        <time>2018-04-08T12:06:51Z</time>
      </trkpt>
      <trkpt lat="48.05154" lon="-0.68575">
        <ele>82.4</ele>
        <time>2018-04-08T12:06:55Z</time>
      </trkpt>
      <trkpt lat="48.05166" lon="-0.68589">
        <ele>82.7</ele>
        <time>2018-04-08T12:06:59Z</time>
      </trkpt>
      <trkpt lat="48.05178" lon="-0.68604">
        <ele>82.6</ele>
        <time>2018-04-08T12:07:03Z</time>
      </trkpt>
      <trkpt lat="48.0519" lon="-0.68618">
        <ele>82.5</ele>
        <time>2018-04-08T12:07:07Z</time>
      </trkpt>
      <trkpt lat="48.05201" lon="-0.68634">
        <ele>82.4</ele>
        <time>2018-04-08T12:07:11Z</time>
      </trkpt>
      <trkpt lat="48.05211" lon="-0.68651">
        <ele>82.4</ele>
        <time>2018-04-08T12:07:15Z</time>
      </trkpt>
      <trkpt lat="48.05221" lon="-0.68668">
        <ele>82.4</ele>
        <time>2018-04-08T12:07:19Z</time>
      </trkpt>
      <trkpt lat="48.0523" lon="-0.68686">
        <ele>82.5</ele>
        <time>2018-04-08T12:07:23Z</time>
      </trkpt>
      <trkpt lat="48.0524" lon="-0.68704">
        <ele>82.6</ele>
        <time>2018-04-08T12:07:27Z</time>
      </trkpt>
      <trkpt lat="48.05249" lon="-0.68722">
        <ele>82.9</ele>
        <time>2018-04-08T12:07:31Z</time>
      </trkpt>
      <trkpt lat="48.05256" lon="-0.68737">
        <ele>83.7</ele>
        <time>2018-04-08T12:07:35Z</time>
      </trkpt>
      <trkpt lat="48.05265" lon="-0.68754">
        <ele>83.7</ele>
        <time>2018-04-08T12:07:39Z</time>
      </trkpt>
      <trkpt lat="48.05274" lon="-0.68771">
        <ele>83.6</ele>
        <time>2018-04-08T12:07:43Z</time>
      </trkpt>
      <trkpt lat="48.05283" lon="-0.6879">
        <ele>83.5</ele>
        <time>2018-04-08T12:07:47Z</time>
      </trkpt>
      <trkpt lat="48.05291" lon="-0.68808">
        <ele>83.5</ele>
        <time>2018-04-08T12:07:51Z</time>
      </trkpt>
      <trkpt lat="48.05301" lon="-0.68827">
        <ele>83.6</ele>
        <time>2018-04-08T12:07:55Z</time>
      </trkpt>
      <trkpt lat="48.05311" lon="-0.68847">
        <ele>83.7</ele>
        <time>2018-04-08T12:07:59Z</time>
      </trkpt>
      <trkpt lat="48.05321" lon="-0.68868">
        <ele>83.7</ele>
        <time>2018-04-08T12:08:03Z</time>
      </trkpt>
      <trkpt lat="48.0533" lon="-0.68887">
        <ele>83.7</ele>
        <time>2018-04-08T12:08:07Z</time>
      </trkpt>
      <trkpt lat="48.05339" lon="-0.68904">
        <ele>84.1</ele>
        <time>2018-04-08T12:08:11Z</time>
      </trkpt>
      <trkpt lat="48.05348" lon="-0.68915">
        <ele>84.1</ele>
        <time>2018-04-08T12:08:15Z</time>
      </trkpt>
      <trkpt lat="48.05361" lon="-0.68911">
        <ele>84.2</ele>
        <time>2018-04-08T12:08:19Z</time>
      </trkpt>
      <trkpt lat="48.05372" lon="-0.68905">
        <ele>84.3</ele>
        <time>2018-04-08T12:08:23Z</time>
      </trkpt>
      <trkpt lat="48.05382" lon="-0.68901">
        <ele>84.4</ele>
        <time>2018-04-08T12:08:27Z</time>
      </trkpt>
      <trkpt lat="48.05391" lon="-0.68896">
        <ele>84.4</ele>
        <time>2018-04-08T12:08:31Z</time>
      </trkpt>
      <trkpt lat="48.05402" lon="-0.68895">
        <ele>84.5</ele>
        <time>2018-04-08T12:08:35Z</time>
      </trkpt>
      <trkpt lat="48.0541" lon="-0.68905">
        <ele>84.7</ele>
        <time>2018-04-08T12:08:39Z</time>
      </trkpt>
      <trkpt lat="48.05414" lon="-0.68918">
        <ele>85</ele>
        <time>2018-04-08T12:08:43Z</time>
      </trkpt>
      <trkpt lat="48.05417" lon="-0.68931">
        <ele>85.4</ele>
        <time>2018-04-08T12:08:47Z</time>
      </trkpt>
      <trkpt lat="48.0542" lon="-0.68944">
        <ele>85.7</ele>
        <time>2018-04-08T12:08:51Z</time>
      </trkpt>
      <trkpt lat="48.05423" lon="-0.68957">
        <ele>85.8</ele>
        <time>2018-04-08T12:08:55Z</time>
      </trkpt>
      <trkpt lat="48.05427" lon="-0.6897">
        <ele>85.9</ele>
        <time>2018-04-08T12:08:59Z</time>
      </trkpt>
      <trkpt lat="48.05432" lon="-0.68981">
        <ele>86</ele>
        <time>2018-04-08T12:09:03Z</time>
      </trkpt>
      <trkpt lat="48.05438" lon="-0.68991">
        <ele>86</ele>
        <time>2018-04-08T12:09:07Z</time>
      </trkpt>
      <trkpt lat="48.05445" lon="-0.69001">
        <ele>86.4</ele>
        <time>2018-04-08T12:09:11Z</time>
      </trkpt>
      <trkpt lat="48.05451" lon="-0.69012">
        <ele>86.4</ele>
        <time>2018-04-08T12:09:15Z</time>
      </trkpt>
      <trkpt lat="48.05456" lon="-0.69023">
        <ele>86.5</ele>
        <time>2018-04-08T12:09:19Z</time>
      </trkpt>
      <trkpt lat="48.05464" lon="-0.69026">
        <ele>86.6</ele>
        <time>2018-04-08T12:09:23Z</time>
      </trkpt>
      <trkpt lat="48.05469" lon="-0.69019">
        <ele>86.6</ele>
        <time>2018-04-08T12:09:27Z</time>
      </trkpt>
      <trkpt lat="48.05474" lon="-0.69007">
        <ele>86.7</ele>
        <time>2018-04-08T12:09:31Z</time>
      </trkpt>
      <trkpt lat="48.05478" lon="-0.68995">
        <ele>86.4</ele>
        <time>2018-04-08T12:09:35Z</time>
      </trkpt>
      <trkpt lat="48.05482" lon="-0.68984">
        <ele>86.4</ele>
        <time>2018-04-08T12:09:39Z</time>
      </trkpt>
      <trkpt lat="48.05487" lon="-0.68974">
        <ele>86.3</ele>
        <time>2018-04-08T12:09:43Z</time>
      </trkpt>
      <trkpt lat="48.05492" lon="-0.68965">
        <ele>86.2</ele>
        <time>2018-04-08T12:09:47Z</time>
      </trkpt>
      <trkpt lat="48.05498" lon="-0.68958">
        <ele>86.2</ele>
        <time>2018-04-08T12:09:51Z</time>
      </trkpt>
      <trkpt lat="48.05505" lon="-0.68952">
        <ele>86.5</ele>
        <time>2018-04-08T12:09:55Z</time>
      </trkpt>
      <trkpt lat="48.05512" lon="-0.68947">
        <ele>86.4</ele>
        <time>2018-04-08T12:09:59Z</time>
      </trkpt>
      <trkpt lat="48.05518" lon="-0.68943">
        <ele>86.4</ele>
        <time>2018-04-08T12:10:03Z</time>
      </trkpt>
      <trkpt lat="48.05525" lon="-0.68939">
        <ele>86.4</ele>
        <time>2018-04-08T12:10:07Z</time>
      </trkpt>
      <trkpt lat="48.05531" lon="-0.68933">
        <ele>86.4</ele>
        <time>2018-04-08T12:10:11Z</time>
      </trkpt>
      <trkpt lat="48.05538" lon="-0.68929">
        <ele>86.5</ele>
        <time>2018-04-08T12:10:15Z</time>
      </trkpt>
      <trkpt lat="48.05545" lon="-0.68925">
        <ele>86.5</ele>
        <time>2018-04-08T12:10:19Z</time>
      </trkpt>
      <trkpt lat="48.05552" lon="-0.68922">
        <ele>86.6</ele>
        <time>2018-04-08T12:10:23Z</time>
      </trkpt>
      <trkpt lat="48.05558" lon="-0.68919">
        <ele>86.6</ele>
        <time>2018-04-08T12:10:27Z</time>
      </trkpt>
      <trkpt lat="48.05566" lon="-0.68916">
        <ele>86.5</ele>
        <time>2018-04-08T12:10:31Z</time>
      </trkpt>
      <trkpt lat="48.05573" lon="-0.68914">
        <ele>86.7</ele>
        <time>2018-04-08T12:10:35Z</time>
      </trkpt>
      <trkpt lat="48.0558" lon="-0.68911">
        <ele>86.8</ele>
        <time>2018-04-08T12:10:39Z</time>
      </trkpt>
      <trkpt lat="48.05588" lon="-0.68907">
        <ele>86.5</ele>
        <time>2018-04-08T12:10:43Z</time>
      </trkpt>
      <trkpt lat="48.05595" lon="-0.68905">
        <ele>86.4</ele>
        <time>2018-04-08T12:10:47Z</time>
      </trkpt>
      <trkpt lat="48.05604" lon="-0.68902">
        <ele>86.2</ele>
        <time>2018-04-08T12:10:51Z</time>
      </trkpt>
      <trkpt lat="48.05612" lon="-0.68899">
        <ele>86</ele>
        <time>2018-04-08T12:10:55Z</time>
      </trkpt>
      <trkpt lat="48.0562" lon="-0.68896">
        <ele>85.9</ele>
        <time>2018-04-08T12:10:59Z</time>
      </trkpt>
      <trkpt lat="48.05631" lon="-0.68892">
        <ele>85.7</ele>
        <time>2018-04-08T12:11:03Z</time>
      </trkpt>
      <trkpt lat="48.05641" lon="-0.68887">
        <ele>85.6</ele>
        <time>2018-04-08T12:11:07Z</time>
      </trkpt>
      <trkpt lat="48.05651" lon="-0.68882">
        <ele>85.5</ele>
        <time>2018-04-08T12:11:11Z</time>
      </trkpt>
      <trkpt lat="48.05662" lon="-0.68877">
        <ele>85.5</ele>
        <time>2018-04-08T12:11:15Z</time>
      </trkpt>
      <trkpt lat="48.05671" lon="-0.68871">
        <ele>84.8</ele>
        <time>2018-04-08T12:11:19Z</time>
      </trkpt>
      <trkpt lat="48.0568" lon="-0.68866">
        <ele>84.8</ele>
        <time>2018-04-08T12:11:23Z</time>
      </trkpt>
      <trkpt lat="48.05687" lon="-0.68862">
        <ele>84.8</ele>
        <time>2018-04-08T12:11:27Z</time>
      </trkpt>
      <trkpt lat="48.05694" lon="-0.68856">
        <ele>84.8</ele>
        <time>2018-04-08T12:11:31Z</time>
      </trkpt>
      <trkpt lat="48.05704" lon="-0.68848">
        <ele>84.8</ele>
        <time>2018-04-08T12:11:35Z</time>
      </trkpt>
      <trkpt lat="48.05718" lon="-0.6884">
        <ele>84.8</ele>
        <time>2018-04-08T12:11:39Z</time>
      </trkpt>
      <trkpt lat="48.05731" lon="-0.68831">
        <ele>84.8</ele>
        <time>2018-04-08T12:11:43Z</time>
      </trkpt>
      <trkpt lat="48.05742" lon="-0.68825">
        <ele>84.8</ele>
        <time>2018-04-08T12:11:47Z</time>
      </trkpt>
      <trkpt lat="48.05753" lon="-0.68818">
        <ele>84.9</ele>
        <time>2018-04-08T12:11:51Z</time>
      </trkpt>
      <trkpt lat="48.05764" lon="-0.68812">
        <ele>84.8</ele>
        <time>2018-04-08T12:11:55Z</time>
      </trkpt>
      <trkpt lat="48.05775" lon="-0.68805">
        <ele>84.8</ele>
        <time>2018-04-08T12:11:59Z</time>
      </trkpt>
      <trkpt lat="48.05786" lon="-0.68798">
        <ele>84.8</ele>
        <time>2018-04-08T12:12:03Z</time>
      </trkpt>
      <trkpt lat="48.05797" lon="-0.6879">
        <ele>84.8</ele>
        <time>2018-04-08T12:12:07Z</time>
      </trkpt>
      <trkpt lat="48.05807" lon="-0.68784">
        <ele>84.8</ele>
        <time>2018-04-08T12:12:11Z</time>
      </trkpt>
      <trkpt lat="48.05816" lon="-0.68777">
        <ele>84.8</ele>
        <time>2018-04-08T12:12:15Z</time>
      </trkpt>
      <trkpt lat="48.05821" lon="-0.68769">
        <ele>84.8</ele>
        <time>2018-04-08T12:12:19Z</time>
      </trkpt>
      <trkpt lat="48.0582" lon="-0.6876">
        <ele>84.9</ele>
        <time>2018-04-08T12:12:23Z</time>
      </trkpt>
      <trkpt lat="48.05819" lon="-0.68751">
        <ele>84.9</ele>
        <time>2018-04-08T12:12:27Z</time>
      </trkpt>
      <trkpt lat="48.05817" lon="-0.68736">
        <ele>84.3</ele>
        <time>2018-04-08T12:12:31Z</time>
      </trkpt>
      <trkpt lat="48.05817" lon="-0.68723">
        <ele>84</ele>
        <time>2018-04-08T12:12:35Z</time>
      </trkpt>
      <trkpt lat="48.05815" lon="-0.68706">
        <ele>83.8</ele>
        <time>2018-04-08T12:12:39Z</time>
      </trkpt>
      <trkpt lat="48.05819" lon="-0.68684">
        <ele>83.5</ele>
        <time>2018-04-08T12:12:43Z</time>
      </trkpt>
      <trkpt lat="48.0582" lon="-0.68663">
        <ele>82.5</ele>
        <time>2018-04-08T12:12:47Z</time>
      </trkpt>
      <trkpt lat="48.05823" lon="-0.68644">
        <ele>82.2</ele>
        <time>2018-04-08T12:12:51Z</time>
      </trkpt>
      <trkpt lat="48.05824" lon="-0.68627">
        <ele>81.9</ele>
        <time>2018-04-08T12:12:55Z</time>
      </trkpt>
      <trkpt lat="48.05828" lon="-0.68608">
        <ele>81.5</ele>
        <time>2018-04-08T12:12:59Z</time>
      </trkpt>
      <trkpt lat="48.05829" lon="-0.68592">
        <ele>81.2</ele>
        <time>2018-04-08T12:13:03Z</time>
      </trkpt>
      <trkpt lat="48.05832" lon="-0.68573">
        <ele>80.8</ele>
        <time>2018-04-08T12:13:07Z</time>
      </trkpt>
      <trkpt lat="48.05838" lon="-0.68553">
        <ele>80.6</ele>
        <time>2018-04-08T12:13:11Z</time>
      </trkpt>
      <trkpt lat="48.05847" lon="-0.68542">
        <ele>80.5</ele>
        <time>2018-04-08T12:13:15Z</time>
      </trkpt>
      <trkpt lat="48.05857" lon="-0.68534">
        <ele>80.4</ele>
        <time>2018-04-08T12:13:19Z</time>
      </trkpt>
      <trkpt lat="48.05866" lon="-0.68527">
        <ele>80.4</ele>
        <time>2018-04-08T12:13:23Z</time>
      </trkpt>
      <trkpt lat="48.05874" lon="-0.6852">
        <ele>80.4</ele>
        <time>2018-04-08T12:13:27Z</time>
      </trkpt>
      <trkpt lat="48.05883" lon="-0.68512">
        <ele>80.3</ele>
        <time>2018-04-08T12:13:31Z</time>
      </trkpt>
      <trkpt lat="48.05894" lon="-0.68506">
        <ele>80.3</ele>
        <time>2018-04-08T12:13:35Z</time>
      </trkpt>
      <trkpt lat="48.05902" lon="-0.685">
        <ele>80.2</ele>
        <time>2018-04-08T12:13:39Z</time>
      </trkpt>
      <trkpt lat="48.05911" lon="-0.68496">
        <ele>80.1</ele>
        <time>2018-04-08T12:13:43Z</time>
      </trkpt>
      <trkpt lat="48.05921" lon="-0.68491">
        <ele>80.4</ele>
        <time>2018-04-08T12:13:47Z</time>
      </trkpt>
      <trkpt lat="48.05932" lon="-0.68485">
        <ele>80.7</ele>
        <time>2018-04-08T12:13:51Z</time>
      </trkpt>
      <trkpt lat="48.05943" lon="-0.6848">
        <ele>81</ele>
        <time>2018-04-08T12:13:55Z</time>
      </trkpt>
      <trkpt lat="48.05954" lon="-0.68474">
        <ele>81.1</ele>
        <time>2018-04-08T12:13:59Z</time>
      </trkpt>
      <trkpt lat="48.05964" lon="-0.68467">
        <ele>81.3</ele>
        <time>2018-04-08T12:14:03Z</time>
      </trkpt>
      <trkpt lat="48.05967" lon="-0.68453">
        <ele>81.3</ele>
        <time>2018-04-08T12:14:07Z</time>
      </trkpt>
      <trkpt lat="48.05968" lon="-0.68438">
        <ele>81.4</ele>
        <time>2018-04-08T12:14:11Z</time>
      </trkpt>
      <trkpt lat="48.05967" lon="-0.68421">
        <ele>81.4</ele>
        <time>2018-04-08T12:14:15Z</time>
      </trkpt>
      <trkpt lat="48.05966" lon="-0.68402">
        <ele>81.9</ele>
        <time>2018-04-08T12:14:19Z</time>
      </trkpt>
      <trkpt lat="48.05966" lon="-0.68382">
        <ele>82</ele>
        <time>2018-04-08T12:14:23Z</time>
      </trkpt>
      <trkpt lat="48.05964" lon="-0.68364">
        <ele>82.1</ele>
        <time>2018-04-08T12:14:27Z</time>
      </trkpt>
      <trkpt lat="48.05962" lon="-0.68346">
        <ele>82.1</ele>
        <time>2018-04-08T12:14:31Z</time>
      </trkpt>
      <trkpt lat="48.05956" lon="-0.68328">
        <ele>82.8</ele>
        <time>2018-04-08T12:14:35Z</time>
      </trkpt>
      <trkpt lat="48.05949" lon="-0.68312">
        <ele>83</ele>
        <time>2018-04-08T12:14:39Z</time>
      </trkpt>
      <trkpt lat="48.0594" lon="-0.68297">
        <ele>83.2</ele>
        <time>2018-04-08T12:14:43Z</time>
      </trkpt>
      <trkpt lat="48.05929" lon="-0.68283">
        <ele>83.4</ele>
        <time>2018-04-08T12:14:47Z</time>
      </trkpt>
      <trkpt lat="48.0592" lon="-0.6827">
        <ele>83.9</ele>
        <time>2018-04-08T12:14:51Z</time>
      </trkpt>
      <trkpt lat="48.05911" lon="-0.68257">
        <ele>84.5</ele>
        <time>2018-04-08T12:14:55Z</time>
      </trkpt>
      <trkpt lat="48.05902" lon="-0.68243">
        <ele>84.6</ele>
        <time>2018-04-08T12:14:59Z</time>
      </trkpt>
      <trkpt lat="48.05895" lon="-0.68228">
        <ele>84.4</ele>
        <time>2018-04-08T12:15:03Z</time>
      </trkpt>
      <trkpt lat="48.05888" lon="-0.68213">
        <ele>84.3</ele>
        <time>2018-04-08T12:15:07Z</time>
      </trkpt>
      <trkpt lat="48.05884" lon="-0.68197">
        <ele>84.3</ele>
        <time>2018-04-08T12:15:11Z</time>
      </trkpt>
      <trkpt lat="48.0588" lon="-0.68181">
        <ele>84.3</ele>
        <time>2018-04-08T12:15:15Z</time>
      </trkpt>
      <trkpt lat="48.05877" lon="-0.68164">
        <ele>84.6</ele>
        <time>2018-04-08T12:15:19Z</time>
      </trkpt>
      <trkpt lat="48.05875" lon="-0.68147">
        <ele>84.7</ele>
        <time>2018-04-08T12:15:23Z</time>
      </trkpt>
      <trkpt lat="48.05873" lon="-0.68131">
        <ele>84.7</ele>
        <time>2018-04-08T12:15:27Z</time>
      </trkpt>
      <trkpt lat="48.05871" lon="-0.68116">
        <ele>84.8</ele>
        <time>2018-04-08T12:15:31Z</time>
      </trkpt>
      <trkpt lat="48.0587" lon="-0.68099">
        <ele>84.9</ele>
        <time>2018-04-08T12:15:35Z</time>
      </trkpt>
      <trkpt lat="48.05868" lon="-0.68083">
        <ele>84.8</ele>
        <time>2018-04-08T12:15:39Z</time>
      </trkpt>
      <trkpt lat="48.0587" lon="-0.68066">
        <ele>84.7</ele>
        <time>2018-04-08T12:15:43Z</time>
      </trkpt>
      <trkpt lat="48.05869" lon="-0.68047">
        <ele>84.6</ele>
        <time>2018-04-08T12:15:47Z</time>
      </trkpt>
      <trkpt lat="48.05868" lon="-0.68025">
        <ele>84.5</ele>
        <time>2018-04-08T12:15:51Z</time>
      </trkpt>
      <trkpt lat="48.05866" lon="-0.68002">
        <ele>84.5</ele>
        <time>2018-04-08T12:15:55Z</time>
      </trkpt>
      <trkpt lat="48.05862" lon="-0.67977">
        <ele>83.2</ele>
        <time>2018-04-08T12:15:59Z</time>
      </trkpt>
      <trkpt lat="48.05856" lon="-0.67953">
        <ele>82.8</ele>
        <time>2018-04-08T12:16:03Z</time>
      </trkpt>
      <trkpt lat="48.0585" lon="-0.67926">
        <ele>82.4</ele>
        <time>2018-04-08T12:16:07Z</time>
      </trkpt>
      <trkpt lat="48.05844" lon="-0.67899">
        <ele>81.3</ele>
        <time>2018-04-08T12:16:11Z</time>
      </trkpt>
      <trkpt lat="48.05837" lon="-0.67871">
        <ele>81</ele>
        <time>2018-04-08T12:16:15Z</time>
      </trkpt>
      <trkpt lat="48.05831" lon="-0.67841">
        <ele>81.1</ele>
        <time>2018-04-08T12:16:19Z</time>
      </trkpt>
      <trkpt lat="48.05825" lon="-0.6781">
        <ele>80.2</ele>
        <time>2018-04-08T12:16:23Z</time>
      </trkpt>
      <trkpt lat="48.0582" lon="-0.6778">
        <ele>79.7</ele>
        <time>2018-04-08T12:16:27Z</time>
      </trkpt>
      <trkpt lat="48.05815" lon="-0.6775">
        <ele>78.6</ele>
        <time>2018-04-08T12:16:31Z</time>
      </trkpt>
      <trkpt lat="48.0581" lon="-0.6772">
        <ele>78.3</ele>
        <time>2018-04-08T12:16:35Z</time>
      </trkpt>
      <trkpt lat="48.05805" lon="-0.67692">
        <ele>78</ele>
        <time>2018-04-08T12:16:39Z</time>
      </trkpt>
      <trkpt lat="48.05799" lon="-0.67664">
        <ele>77.7</ele>
        <time>2018-04-08T12:16:43Z</time>
      </trkpt>
      <trkpt lat="48.05793" lon="-0.67635">
        <ele>77.9</ele>
        <time>2018-04-08T12:16:47Z</time>
      </trkpt>
      <trkpt lat="48.05787" lon="-0.67608">
        <ele>78.1</ele>
        <time>2018-04-08T12:16:51Z</time>
      </trkpt>
      <trkpt lat="48.05781" lon="-0.67582">
        <ele>78.3</ele>
        <time>2018-04-08T12:16:55Z</time>
      </trkpt>
      <trkpt lat="48.05774" lon="-0.67557">
        <ele>78.2</ele>
        <time>2018-04-08T12:16:59Z</time>
      </trkpt>
      <trkpt lat="48.05767" lon="-0.67534">
        <ele>77.9</ele>
        <time>2018-04-08T12:17:03Z</time>
      </trkpt>
      <trkpt lat="48.05761" lon="-0.6751">
        <ele>77.5</ele>
        <time>2018-04-08T12:17:07Z</time>
      </trkpt>
      <trkpt lat="48.05753" lon="-0.67489">
        <ele>76.9</ele>
        <time>2018-04-08T12:17:11Z</time>
      </trkpt>
      <trkpt lat="48.05756" lon="-0.67468">
        <ele>76.6</ele>
        <time>2018-04-08T12:17:15Z</time>
      </trkpt>
      <trkpt lat="48.05769" lon="-0.6746">
        <ele>76.6</ele>
        <time>2018-04-08T12:17:19Z</time>
      </trkpt>
      <trkpt lat="48.05783" lon="-0.67452">
        <ele>76.6</ele>
        <time>2018-04-08T12:17:23Z</time>
      </trkpt>
      <trkpt lat="48.05798" lon="-0.67444">
        <ele>76.7</ele>
        <time>2018-04-08T12:17:27Z</time>
      </trkpt>
      <trkpt lat="48.05813" lon="-0.67436">
        <ele>76.8</ele>
        <time>2018-04-08T12:17:31Z</time>
      </trkpt>
      <trkpt lat="48.05827" lon="-0.67428">
        <ele>76.9</ele>
        <time>2018-04-08T12:17:35Z</time>
      </trkpt>
      <trkpt lat="48.05841" lon="-0.6742">
        <ele>76.7</ele>
        <time>2018-04-08T12:17:39Z</time>
      </trkpt>
      <trkpt lat="48.05856" lon="-0.67414">
        <ele>75.6</ele>
        <time>2018-04-08T12:17:43Z</time>
      </trkpt>
      <trkpt lat="48.05871" lon="-0.67407">
        <ele>75.1</ele>
        <time>2018-04-08T12:17:47Z</time>
      </trkpt>
      <trkpt lat="48.05887" lon="-0.67401">
        <ele>74.7</ele>
        <time>2018-04-08T12:17:51Z</time>
      </trkpt>
      <trkpt lat="48.05902" lon="-0.67395">
        <ele>74.5</ele>
        <time>2018-04-08T12:17:55Z</time>
      </trkpt>
      <trkpt lat="48.05916" lon="-0.67389">
        <ele>74.5</ele>
        <time>2018-04-08T12:17:59Z</time>
      </trkpt>
      <trkpt lat="48.05931" lon="-0.67382">
        <ele>73</ele>
        <time>2018-04-08T12:18:03Z</time>
      </trkpt>
      <trkpt lat="48.05948" lon="-0.67375">
        <ele>72.7</ele>
        <time>2018-04-08T12:18:07Z</time>
      </trkpt>
      <trkpt lat="48.05966" lon="-0.67367">
        <ele>72.4</ele>
        <time>2018-04-08T12:18:11Z</time>
      </trkpt>
      <trkpt lat="48.05989" lon="-0.67357">
        <ele>71.9</ele>
        <time>2018-04-08T12:18:15Z</time>
      </trkpt>
      <trkpt lat="48.06017" lon="-0.67346">
        <ele>71</ele>
        <time>2018-04-08T12:18:19Z</time>
      </trkpt>
      <trkpt lat="48.06044" lon="-0.67328">
        <ele>70.5</ele>
        <time>2018-04-08T12:18:23Z</time>
      </trkpt>
      <trkpt lat="48.0606" lon="-0.67298">
        <ele>70.4</ele>
        <time>2018-04-08T12:18:27Z</time>
      </trkpt>
      <trkpt lat="48.0607" lon="-0.67273">
        <ele>70.2</ele>
        <time>2018-04-08T12:18:31Z</time>
      </trkpt>
      <trkpt lat="48.06079" lon="-0.67252">
        <ele>70</ele>
        <time>2018-04-08T12:18:35Z</time>
      </trkpt>
      <trkpt lat="48.06088" lon="-0.67233">
        <ele>72.5</ele>
        <time>2018-04-08T12:18:39Z</time>
      </trkpt>
      <trkpt lat="48.06097" lon="-0.67216">
        <ele>73.7</ele>
        <time>2018-04-08T12:18:43Z</time>
      </trkpt>
      <trkpt lat="48.06108" lon="-0.67204">
        <ele>74.4</ele>
        <time>2018-04-08T12:18:47Z</time>
      </trkpt>
      <trkpt lat="48.06121" lon="-0.672">
        <ele>75</ele>
        <time>2018-04-08T12:18:51Z</time>
      </trkpt>
      <trkpt lat="48.06134" lon="-0.67202">
        <ele>75.5</ele>
        <time>2018-04-08T12:18:55Z</time>
      </trkpt>
      <trkpt lat="48.06147" lon="-0.67207">
        <ele>75.9</ele>
        <time>2018-04-08T12:18:59Z</time>
      </trkpt>
      <trkpt lat="48.06159" lon="-0.67216">
        <ele>76.1</ele>
        <time>2018-04-08T12:19:03Z</time>
      </trkpt>
      <trkpt lat="48.06174" lon="-0.6722">
        <ele>79.1</ele>
        <time>2018-04-08T12:19:07Z</time>
      </trkpt>
      <trkpt lat="48.0619" lon="-0.67221">
        <ele>79.4</ele>
        <time>2018-04-08T12:19:11Z</time>
      </trkpt>
      <trkpt lat="48.06204" lon="-0.6722">
        <ele>79.8</ele>
        <time>2018-04-08T12:19:15Z</time>
      </trkpt>
      <trkpt lat="48.06217" lon="-0.67217">
        <ele>80.1</ele>
        <time>2018-04-08T12:19:19Z</time>
      </trkpt>
      <trkpt lat="48.0623" lon="-0.67215">
        <ele>80.3</ele>
        <time>2018-04-08T12:19:23Z</time>
      </trkpt>
      <trkpt lat="48.06241" lon="-0.67212">
        <ele>80.5</ele>
        <time>2018-04-08T12:19:27Z</time>
      </trkpt>
      <trkpt lat="48.06252" lon="-0.67206">
        <ele>81.2</ele>
        <time>2018-04-08T12:19:31Z</time>
      </trkpt>
      <trkpt lat="48.06262" lon="-0.67198">
        <ele>81.3</ele>
        <time>2018-04-08T12:19:35Z</time>
      </trkpt>
      <trkpt lat="48.06272" lon="-0.67189">
        <ele>81.3</ele>
        <time>2018-04-08T12:19:39Z</time>
      </trkpt>
      <trkpt lat="48.06284" lon="-0.67181">
        <ele>81.2</ele>
        <time>2018-04-08T12:19:43Z</time>
      </trkpt>
      <trkpt lat="48.06296" lon="-0.67178">
        <ele>81.1</ele>
        <time>2018-04-08T12:19:47Z</time>
      </trkpt>
      <trkpt lat="48.06309" lon="-0.6718">
        <ele>81</ele>
        <time>2018-04-08T12:19:51Z</time>
      </trkpt>
      <trkpt lat="48.06321" lon="-0.67186">
        <ele>81</ele>
        <time>2018-04-08T12:19:55Z</time>
      </trkpt>
      <trkpt lat="48.06333" lon="-0.67195">
        <ele>80.9</ele>
        <time>2018-04-08T12:19:59Z</time>
      </trkpt>
      <trkpt lat="48.06345" lon="-0.67204">
        <ele>81.2</ele>
        <time>2018-04-08T12:20:03Z</time>
      </trkpt>
      <trkpt lat="48.06358" lon="-0.67213">
        <ele>81.3</ele>
        <time>2018-04-08T12:20:07Z</time>
      </trkpt>
      <trkpt lat="48.06371" lon="-0.67221">
        <ele>81.4</ele>
        <time>2018-04-08T12:20:11Z</time>
      </trkpt>
      <trkpt lat="48.06385" lon="-0.67225">
        <ele>81.5</ele>
        <time>2018-04-08T12:20:15Z</time>
      </trkpt>
      <trkpt lat="48.06399" lon="-0.67224">
        <ele>81.7</ele>
        <time>2018-04-08T12:20:19Z</time>
      </trkpt>
      <trkpt lat="48.06413" lon="-0.6722">
        <ele>81.8</ele>
        <time>2018-04-08T12:20:23Z</time>
      </trkpt>
      <trkpt lat="48.06426" lon="-0.67214">
        <ele>82.8</ele>
        <time>2018-04-08T12:20:27Z</time>
      </trkpt>
      <trkpt lat="48.06439" lon="-0.6722">
        <ele>82.8</ele>
        <time>2018-04-08T12:20:31Z</time>
      </trkpt>
      <trkpt lat="48.06445" lon="-0.67237">
        <ele>82.7</ele>
        <time>2018-04-08T12:20:35Z</time>
      </trkpt>
      <trkpt lat="48.06447" lon="-0.67256">
        <ele>82.8</ele>
        <time>2018-04-08T12:20:39Z</time>
      </trkpt>
      <trkpt lat="48.06448" lon="-0.67277">
        <ele>83</ele>
        <time>2018-04-08T12:20:43Z</time>
      </trkpt>
      <trkpt lat="48.0645" lon="-0.67297">
        <ele>83.2</ele>
        <time>2018-04-08T12:20:47Z</time>
      </trkpt>
      <trkpt lat="48.06451" lon="-0.67317">
        <ele>83.4</ele>
        <time>2018-04-08T12:20:51Z</time>
      </trkpt>
      <trkpt lat="48.06452" lon="-0.67339">
        <ele>83.9</ele>
        <time>2018-04-08T12:20:55Z</time>
      </trkpt>
      <trkpt lat="48.06454" lon="-0.67361">
        <ele>84</ele>
        <time>2018-04-08T12:20:59Z</time>
      </trkpt>
      <trkpt lat="48.06455" lon="-0.67383">
        <ele>84</ele>
        <time>2018-04-08T12:21:03Z</time>
      </trkpt>
      <trkpt lat="48.06456" lon="-0.67405">
        <ele>84</ele>
        <time>2018-04-08T12:21:07Z</time>
      </trkpt>
      <trkpt lat="48.06457" lon="-0.67429">
        <ele>84.5</ele>
        <time>2018-04-08T12:21:11Z</time>
      </trkpt>
      <trkpt lat="48.06459" lon="-0.67451">
        <ele>84.7</ele>
        <time>2018-04-08T12:21:15Z</time>
      </trkpt>
      <trkpt lat="48.0646" lon="-0.67475">
        <ele>84.9</ele>
        <time>2018-04-08T12:21:19Z</time>
      </trkpt>
      <trkpt lat="48.06463" lon="-0.67499">
        <ele>85.1</ele>
        <time>2018-04-08T12:21:23Z</time>
      </trkpt>
      <trkpt lat="48.06467" lon="-0.67519">
        <ele>85.2</ele>
        <time>2018-04-08T12:21:27Z</time>
      </trkpt>
      <trkpt lat="48.06469" lon="-0.67537">
        <ele>85.2</ele>
        <time>2018-04-08T12:21:31Z</time>
      </trkpt>
      <trkpt lat="48.06466" lon="-0.67551">
        <ele>85.1</ele>
        <time>2018-04-08T12:21:35Z</time>
      </trkpt>
      <trkpt lat="48.06464" lon="-0.67567">
        <ele>85</ele>
        <time>2018-04-08T12:21:39Z</time>
      </trkpt>
      <trkpt lat="48.0646" lon="-0.67579">
        <ele>84.9</ele>
        <time>2018-04-08T12:21:43Z</time>
      </trkpt>
      <trkpt lat="48.06458" lon="-0.67588">
        <ele>84</ele>
        <time>2018-04-08T12:21:47Z</time>
      </trkpt>
      <trkpt lat="48.06452" lon="-0.67604">
        <ele>83.8</ele>
        <time>2018-04-08T12:21:51Z</time>
      </trkpt>
      <trkpt lat="48.06447" lon="-0.67627">
        <ele>83.6</ele>
        <time>2018-04-08T12:21:55Z</time>
      </trkpt>
      <trkpt lat="48.06442" lon="-0.67665">
        <ele>83.1</ele>
        <time>2018-04-08T12:21:59Z</time>
      </trkpt>
      <trkpt lat="48.06444" lon="-0.67701">
        <ele>81.7</ele>
        <time>2018-04-08T12:22:03Z</time>
      </trkpt>
      <trkpt lat="48.06449" lon="-0.67731">
        <ele>81.2</ele>
        <time>2018-04-08T12:22:07Z</time>
      </trkpt>
      <trkpt lat="48.0645" lon="-0.67766">
        <ele>79.8</ele>
        <time>2018-04-08T12:22:11Z</time>
      </trkpt>
      <trkpt lat="48.06448" lon="-0.67795">
        <ele>79.5</ele>
        <time>2018-04-08T12:22:15Z</time>
      </trkpt>
      <trkpt lat="48.06443" lon="-0.67817">
        <ele>79</ele>
        <time>2018-04-08T12:22:19Z</time>
      </trkpt>
      <trkpt lat="48.06441" lon="-0.67838">
        <ele>78.5</ele>
        <time>2018-04-08T12:22:23Z</time>
      </trkpt>
      <trkpt lat="48.06438" lon="-0.67859">
        <ele>78.7</ele>
        <time>2018-04-08T12:22:27Z</time>
      </trkpt>
      <trkpt lat="48.06436" lon="-0.67882">
        <ele>79</ele>
        <time>2018-04-08T12:22:31Z</time>
      </trkpt>
      <trkpt lat="48.06434" lon="-0.67902">
        <ele>79.1</ele>
        <time>2018-04-08T12:22:35Z</time>
      </trkpt>
      <trkpt lat="48.06432" lon="-0.67922">
        <ele>79.8</ele>
        <time>2018-04-08T12:22:39Z</time>
      </trkpt>
      <trkpt lat="48.0643" lon="-0.67942">
        <ele>80.2</ele>
        <time>2018-04-08T12:22:43Z</time>
      </trkpt>
      <trkpt lat="48.06428" lon="-0.67961">
        <ele>80.6</ele>
        <time>2018-04-08T12:22:47Z</time>
      </trkpt>
      <trkpt lat="48.06427" lon="-0.67979">
        <ele>80.8</ele>
        <time>2018-04-08T12:22:51Z</time>
      </trkpt>
      <trkpt lat="48.06425" lon="-0.67997">
        <ele>81</ele>
        <time>2018-04-08T12:22:55Z</time>
      </trkpt>
      <trkpt lat="48.06423" lon="-0.68016">
        <ele>82.1</ele>
        <time>2018-04-08T12:22:59Z</time>
      </trkpt>
      <trkpt lat="48.06421" lon="-0.68035">
        <ele>82.8</ele>
        <time>2018-04-08T12:23:03Z</time>
      </trkpt>
      <trkpt lat="48.06419" lon="-0.68055">
        <ele>83.3</ele>
        <time>2018-04-08T12:23:07Z</time>
      </trkpt>
      <trkpt lat="48.06415" lon="-0.68074">
        <ele>82.9</ele>
        <time>2018-04-08T12:23:11Z</time>
      </trkpt>
      <trkpt lat="48.0641" lon="-0.68092">
        <ele>83.3</ele>
        <time>2018-04-08T12:23:15Z</time>
      </trkpt>
      <trkpt lat="48.06406" lon="-0.68108">
        <ele>82.8</ele>
        <time>2018-04-08T12:23:19Z</time>
      </trkpt>
      <trkpt lat="48.06402" lon="-0.68122">
        <ele>82.6</ele>
        <time>2018-04-08T12:23:23Z</time>
      </trkpt>
      <trkpt lat="48.06397" lon="-0.68138">
        <ele>82.6</ele>
        <time>2018-04-08T12:23:27Z</time>
      </trkpt>
      <trkpt lat="48.06394" lon="-0.68157">
        <ele>82.7</ele>
        <time>2018-04-08T12:23:31Z</time>
      </trkpt>
      <trkpt lat="48.06391" lon="-0.68174">
        <ele>83.5</ele>
        <time>2018-04-08T12:23:35Z</time>
      </trkpt>
      <trkpt lat="48.06388" lon="-0.6819">
        <ele>83.5</ele>
        <time>2018-04-08T12:23:39Z</time>
      </trkpt>
      <trkpt lat="48.06388" lon="-0.68204">
        <ele>83.6</ele>
        <time>2018-04-08T12:23:43Z</time>
      </trkpt>
      <trkpt lat="48.06388" lon="-0.68219">
        <ele>83.8</ele>
        <time>2018-04-08T12:23:47Z</time>
      </trkpt>
      <trkpt lat="48.0639" lon="-0.68233">
        <ele>84</ele>
        <time>2018-04-08T12:23:51Z</time>
      </trkpt>
      <trkpt lat="48.06391" lon="-0.68246">
        <ele>84.1</ele>
        <time>2018-04-08T12:23:55Z</time>
      </trkpt>
      <trkpt lat="48.06396" lon="-0.68255">
        <ele>85.5</ele>
        <time>2018-04-08T12:23:59Z</time>
      </trkpt>
      <trkpt lat="48.06402" lon="-0.68266">
        <ele>85.6</ele>
        <time>2018-04-08T12:24:03Z</time>
      </trkpt>
      <trkpt lat="48.06407" lon="-0.68277">
        <ele>85.8</ele>
        <time>2018-04-08T12:24:07Z</time>
      </trkpt>
      <trkpt lat="48.06412" lon="-0.68287">
        <ele>86.1</ele>
        <time>2018-04-08T12:24:11Z</time>
      </trkpt>
      <trkpt lat="48.06416" lon="-0.68297">
        <ele>86.3</ele>
        <time>2018-04-08T12:24:15Z</time>
      </trkpt>
      <trkpt lat="48.06423" lon="-0.68305">
        <ele>87.6</ele>
        <time>2018-04-08T12:24:19Z</time>
      </trkpt>
      <trkpt lat="48.06427" lon="-0.68313">
        <ele>87.8</ele>
        <time>2018-04-08T12:24:23Z</time>
      </trkpt>
      <trkpt lat="48.06432" lon="-0.68322">
        <ele>87.9</ele>
        <time>2018-04-08T12:24:27Z</time>
      </trkpt>
      <trkpt lat="48.06436" lon="-0.68329">
        <ele>88</ele>
        <time>2018-04-08T12:24:31Z</time>
      </trkpt>
      <trkpt lat="48.06443" lon="-0.68341">
        <ele>90</ele>
        <time>2018-04-08T12:24:35Z</time>
      </trkpt>
      <trkpt lat="48.06447" lon="-0.68346">
        <ele>90.2</ele>
        <time>2018-04-08T12:24:39Z</time>
      </trkpt>
      <trkpt lat="48.0645" lon="-0.68353">
        <ele>90.4</ele>
        <time>2018-04-08T12:24:43Z</time>
      </trkpt>
      <trkpt lat="48.06456" lon="-0.68361">
        <ele>90.7</ele>
        <time>2018-04-08T12:24:47Z</time>
      </trkpt>
      <trkpt lat="48.06462" lon="-0.68368">
        <ele>90.9</ele>
        <time>2018-04-08T12:24:51Z</time>
      </trkpt>
      <trkpt lat="48.06465" lon="-0.68374">
        <ele>91.1</ele>
        <time>2018-04-08T12:24:55Z</time>
      </trkpt>
      <trkpt lat="48.06468" lon="-0.68379">
        <ele>91.3</ele>
        <time>2018-04-08T12:24:59Z</time>
      </trkpt>
      <trkpt lat="48.06473" lon="-0.68386">
        <ele>91.5</ele>
        <time>2018-04-08T12:25:03Z</time>
      </trkpt>
      <trkpt lat="48.06476" lon="-0.68393">
        <ele>91.7</ele>
        <time>2018-04-08T12:25:07Z</time>
      </trkpt>
      <trkpt lat="48.06479" lon="-0.68398">
        <ele>92</ele>
        <time>2018-04-08T12:25:11Z</time>
      </trkpt>
      <trkpt lat="48.06484" lon="-0.68403">
        <ele>92.3</ele>
        <time>2018-04-08T12:25:15Z</time>
      </trkpt>
      <trkpt lat="48.06488" lon="-0.68407">
        <ele>92.6</ele>
        <time>2018-04-08T12:25:19Z</time>
      </trkpt>
      <trkpt lat="48.06493" lon="-0.68412">
        <ele>93.1</ele>
        <time>2018-04-08T12:25:23Z</time>
      </trkpt>
      <trkpt lat="48.06498" lon="-0.68416">
        <ele>93.7</ele>
        <time>2018-04-08T12:25:27Z</time>
      </trkpt>
      <trkpt lat="48.06504" lon="-0.68421">
        <ele>94</ele>
        <time>2018-04-08T12:25:31Z</time>
      </trkpt>
      <trkpt lat="48.06513" lon="-0.68429">
        <ele>94</ele>
        <time>2018-04-08T12:25:35Z</time>
      </trkpt>
      <trkpt lat="48.06521" lon="-0.68439">
        <ele>94</ele>
        <time>2018-04-08T12:25:39Z</time>
      </trkpt>
      <trkpt lat="48.06532" lon="-0.6845">
        <ele>94</ele>
        <time>2018-04-08T12:25:43Z</time>
      </trkpt>
      <trkpt lat="48.06542" lon="-0.6846">
        <ele>94</ele>
        <time>2018-04-08T12:25:47Z</time>
      </trkpt>
      <trkpt lat="48.06552" lon="-0.68467">
        <ele>94</ele>
        <time>2018-04-08T12:25:51Z</time>
      </trkpt>
      <trkpt lat="48.0656" lon="-0.68475">
        <ele>94</ele>
        <time>2018-04-08T12:25:55Z</time>
      </trkpt>
      <trkpt lat="48.0657" lon="-0.68487">
        <ele>94</ele>
        <time>2018-04-08T12:25:59Z</time>
      </trkpt>
      <trkpt lat="48.06578" lon="-0.68497">
        <ele>94</ele>
        <time>2018-04-08T12:26:03Z</time>
      </trkpt>
      <trkpt lat="48.06585" lon="-0.68508">
        <ele>93.8</ele>
        <time>2018-04-08T12:26:07Z</time>
      </trkpt>
      <trkpt lat="48.06592" lon="-0.68519">
        <ele>93.6</ele>
        <time>2018-04-08T12:26:11Z</time>
      </trkpt>
      <trkpt lat="48.06596" lon="-0.6853">
        <ele>93.5</ele>
        <time>2018-04-08T12:26:15Z</time>
      </trkpt>
      <trkpt lat="48.06602" lon="-0.68541">
        <ele>93.6</ele>
        <time>2018-04-08T12:26:19Z</time>
      </trkpt>
      <trkpt lat="48.06607" lon="-0.68551">
        <ele>93.6</ele>
        <time>2018-04-08T12:26:23Z</time>
      </trkpt>
      <trkpt lat="48.06614" lon="-0.6856">
        <ele>93.7</ele>
        <time>2018-04-08T12:26:27Z</time>
      </trkpt>
      <trkpt lat="48.0662" lon="-0.68571">
        <ele>93.7</ele>
        <time>2018-04-08T12:26:31Z</time>
      </trkpt>
      <trkpt lat="48.06624" lon="-0.6858">
        <ele>93.7</ele>
        <time>2018-04-08T12:26:35Z</time>
      </trkpt>
      <trkpt lat="48.06628" lon="-0.6859">
        <ele>95.1</ele>
        <time>2018-04-08T12:26:39Z</time>
      </trkpt>
      <trkpt lat="48.06634" lon="-0.686">
        <ele>95.1</ele>
        <time>2018-04-08T12:26:43Z</time>
      </trkpt>
      <trkpt lat="48.06641" lon="-0.6861">
        <ele>95.2</ele>
        <time>2018-04-08T12:26:47Z</time>
      </trkpt>
      <trkpt lat="48.06647" lon="-0.68619">
        <ele>95.3</ele>
        <time>2018-04-08T12:26:51Z</time>
      </trkpt>
      <trkpt lat="48.06655" lon="-0.68627">
        <ele>95.4</ele>
        <time>2018-04-08T12:26:55Z</time>
      </trkpt>
      <trkpt lat="48.06664" lon="-0.68633">
        <ele>95.5</ele>
        <time>2018-04-08T12:26:59Z</time>
      </trkpt>
      <trkpt lat="48.06673" lon="-0.68638">
        <ele>94.5</ele>
        <time>2018-04-08T12:27:03Z</time>
      </trkpt>
      <trkpt lat="48.06683" lon="-0.68643">
        <ele>94.5</ele>
        <time>2018-04-08T12:27:07Z</time>
      </trkpt>
      <trkpt lat="48.06692" lon="-0.68651">
        <ele>94.5</ele>
        <time>2018-04-08T12:27:11Z</time>
      </trkpt>
      <trkpt lat="48.06702" lon="-0.6866">
        <ele>94.5</ele>
        <time>2018-04-08T12:27:15Z</time>
      </trkpt>
      <trkpt lat="48.06709" lon="-0.68673">
        <ele>96.1</ele>
        <time>2018-04-08T12:27:19Z</time>
      </trkpt>
      <trkpt lat="48.06716" lon="-0.68686">
        <ele>96.2</ele>
        <time>2018-04-08T12:27:23Z</time>
      </trkpt>
      <trkpt lat="48.06722" lon="-0.68699">
        <ele>96.3</ele>
        <time>2018-04-08T12:27:27Z</time>
      </trkpt>
      <trkpt lat="48.06728" lon="-0.68711">
        <ele>96.4</ele>
        <time>2018-04-08T12:27:31Z</time>
      </trkpt>
      <trkpt lat="48.06733" lon="-0.68723">
        <ele>96.6</ele>
        <time>2018-04-08T12:27:35Z</time>
      </trkpt>
      <trkpt lat="48.06736" lon="-0.68731">
        <ele>96.7</ele>
        <time>2018-04-08T12:27:39Z</time>
      </trkpt>
      <trkpt lat="48.06741" lon="-0.68737">
        <ele>96.8</ele>
        <time>2018-04-08T12:27:43Z</time>
      </trkpt>
      <trkpt lat="48.06746" lon="-0.68745">
        <ele>96.9</ele>
        <time>2018-04-08T12:27:47Z</time>
      </trkpt>
      <trkpt lat="48.06751" lon="-0.68753">
        <ele>97</ele>
        <time>2018-04-08T12:27:51Z</time>
      </trkpt>
      <trkpt lat="48.06755" lon="-0.68762">
        <ele>97.1</ele>
        <time>2018-04-08T12:27:55Z</time>
      </trkpt>
      <trkpt lat="48.06759" lon="-0.68773">
        <ele>97.2</ele>
        <time>2018-04-08T12:27:59Z</time>
      </trkpt>
      <trkpt lat="48.06761" lon="-0.68782">
        <ele>97.4</ele>
        <time>2018-04-08T12:28:03Z</time>
      </trkpt>
      <trkpt lat="48.06764" lon="-0.6879">
        <ele>97.5</ele>
        <time>2018-04-08T12:28:07Z</time>
      </trkpt>
      <trkpt lat="48.06765" lon="-0.68797">
        <ele>97.5</ele>
        <time>2018-04-08T12:28:11Z</time>
      </trkpt>
      <trkpt lat="48.06769" lon="-0.68808">
        <ele>97.7</ele>
        <time>2018-04-08T12:28:15Z</time>
      </trkpt>
      <trkpt lat="48.06772" lon="-0.68819">
        <ele>97.8</ele>
        <time>2018-04-08T12:28:19Z</time>
      </trkpt>
      <trkpt lat="48.06772" lon="-0.68826">
        <ele>97.9</ele>
        <time>2018-04-08T12:28:23Z</time>
      </trkpt>
      <trkpt lat="48.06774" lon="-0.68831">
        <ele>97.9</ele>
        <time>2018-04-08T12:28:27Z</time>
      </trkpt>
      <trkpt lat="48.06778" lon="-0.6884">
        <ele>99.4</ele>
        <time>2018-04-08T12:28:31Z</time>
      </trkpt>
      <trkpt lat="48.06781" lon="-0.68848">
        <ele>99.5</ele>
        <time>2018-04-08T12:28:35Z</time>
      </trkpt>
      <trkpt lat="48.06785" lon="-0.68857">
        <ele>99.6</ele>
        <time>2018-04-08T12:28:39Z</time>
      </trkpt>
      <trkpt lat="48.06787" lon="-0.68865">
        <ele>99.8</ele>
        <time>2018-04-08T12:28:43Z</time>
      </trkpt>
      <trkpt lat="48.06795" lon="-0.68876">
        <ele>100</ele>
        <time>2018-04-08T12:28:47Z</time>
      </trkpt>
      <trkpt lat="48.068" lon="-0.68886">
        <ele>100.2</ele>
        <time>2018-04-08T12:28:51Z</time>
      </trkpt>
      <trkpt lat="48.06806" lon="-0.68895">
        <ele>100.5</ele>
        <time>2018-04-08T12:28:55Z</time>
      </trkpt>
      <trkpt lat="48.06812" lon="-0.68904">
        <ele>100.7</ele>
        <time>2018-04-08T12:28:59Z</time>
      </trkpt>
      <trkpt lat="48.06816" lon="-0.68912">
        <ele>101</ele>
        <time>2018-04-08T12:29:03Z</time>
      </trkpt>
      <trkpt lat="48.06817" lon="-0.6892">
        <ele>102.4</ele>
        <time>2018-04-08T12:29:07Z</time>
      </trkpt>
      <trkpt lat="48.06821" lon="-0.68928">
        <ele>102.5</ele>
        <time>2018-04-08T12:29:11Z</time>
      </trkpt>
      <trkpt lat="48.06824" lon="-0.68935">
        <ele>102.6</ele>
        <time>2018-04-08T12:29:15Z</time>
      </trkpt>
      <trkpt lat="48.06826" lon="-0.68942">
        <ele>102.7</ele>
        <time>2018-04-08T12:29:19Z</time>
      </trkpt>
      <trkpt lat="48.06828" lon="-0.68948">
        <ele>102.8</ele>
        <time>2018-04-08T12:29:23Z</time>
      </trkpt>
      <trkpt lat="48.06834" lon="-0.68956">
        <ele>103.4</ele>
        <time>2018-04-08T12:29:27Z</time>
      </trkpt>
      <trkpt lat="48.06839" lon="-0.68963">
        <ele>103.6</ele>
        <time>2018-04-08T12:29:31Z</time>
      </trkpt>
      <trkpt lat="48.0684" lon="-0.68971">
        <ele>103.7</ele>
        <time>2018-04-08T12:29:35Z</time>
      </trkpt>
      <trkpt lat="48.06843" lon="-0.68981">
        <ele>103.8</ele>
        <time>2018-04-08T12:29:39Z</time>
      </trkpt>
      <trkpt lat="48.06846" lon="-0.68989">
        <ele>103.9</ele>
        <time>2018-04-08T12:29:43Z</time>
      </trkpt>
      <trkpt lat="48.06848" lon="-0.68998">
        <ele>103.9</ele>
        <time>2018-04-08T12:29:47Z</time>
      </trkpt>
      <trkpt lat="48.06852" lon="-0.69007">
        <ele>104.7</ele>
        <time>2018-04-08T12:29:51Z</time>
      </trkpt>
      <trkpt lat="48.06854" lon="-0.69012">
        <ele>104.8</ele>
        <time>2018-04-08T12:29:55Z</time>
      </trkpt>
      <trkpt lat="48.06858" lon="-0.69021">
        <ele>104.9</ele>
        <time>2018-04-08T12:29:59Z</time>
      </trkpt>
      <trkpt lat="48.06862" lon="-0.6903">
        <ele>105.1</ele>
        <time>2018-04-08T12:30:03Z</time>
      </trkpt>
      <trkpt lat="48.06862" lon="-0.69038">
        <ele>105.2</ele>
        <time>2018-04-08T12:30:07Z</time>
      </trkpt>
      <trkpt lat="48.06857" lon="-0.69041">
        <ele>105.2</ele>
        <time>2018-04-08T12:30:11Z</time>
      </trkpt>
      <trkpt lat="48.06854" lon="-0.69045">
        <ele>105.2</ele>
        <time>2018-04-08T12:30:15Z</time>
      </trkpt>
      <trkpt lat="48.0685" lon="-0.69049">
        <ele>105.3</ele>
        <time>2018-04-08T12:30:19Z</time>
      </trkpt>
      <trkpt lat="48.06845" lon="-0.69053">
        <ele>105.3</ele>
        <time>2018-04-08T12:30:23Z</time>
      </trkpt>
      <trkpt lat="48.06838" lon="-0.69054">
        <ele>105.4</ele>
        <time>2018-04-08T12:30:27Z</time>
      </trkpt>
      <trkpt lat="48.06833" lon="-0.69055">
        <ele>105.2</ele>
        <time>2018-04-08T12:30:31Z</time>
      </trkpt>
      <trkpt lat="48.06826" lon="-0.69056">
        <ele>105.3</ele>
        <time>2018-04-08T12:30:35Z</time>
      </trkpt>
      <trkpt lat="48.06824" lon="-0.69057">
        <ele>105.3</ele>
        <time>2018-04-08T12:33:07Z</time>
      </trkpt>
      <trkpt lat="48.06819" lon="-0.69059">
        <ele>105.3</ele>
        <time>2018-04-08T12:33:11Z</time>
      </trkpt>
      <trkpt lat="48.06812" lon="-0.69061">
        <ele>105.3</ele>
        <time>2018-04-08T12:33:15Z</time>
      </trkpt>
      <trkpt lat="48.06808" lon="-0.69068">
        <ele>105.3</ele>
        <time>2018-04-08T12:33:19Z</time>
      </trkpt>
      <trkpt lat="48.06812" lon="-0.6907">
        <ele>105.4</ele>
        <time>2018-04-08T12:33:23Z</time>
      </trkpt>
      <trkpt lat="48.06817" lon="-0.6907">
        <ele>105.4</ele>
        <time>2018-04-08T12:33:27Z</time>
      </trkpt>
      <trkpt lat="48.06821" lon="-0.69072">
        <ele>105.5</ele>
        <time>2018-04-08T12:33:31Z</time>
      </trkpt>
      <trkpt lat="48.06822" lon="-0.69077">
        <ele>105.6</ele>
        <time>2018-04-08T12:33:39Z</time>
      </trkpt>
      <trkpt lat="48.06823" lon="-0.69082">
        <ele>105.7</ele>
        <time>2018-04-08T12:33:43Z</time>
      </trkpt>
      <trkpt lat="48.06823" lon="-0.69089">
        <ele>106.1</ele>
        <time>2018-04-08T12:33:47Z</time>
      </trkpt>
      <trkpt lat="48.06824" lon="-0.69095">
        <ele>106.1</ele>
        <time>2018-04-08T12:33:51Z</time>
      </trkpt>
      <trkpt lat="48.06824" lon="-0.69101">
        <ele>106.1</ele>
        <time>2018-04-08T12:33:55Z</time>
      </trkpt>
      <trkpt lat="48.06824" lon="-0.69107">
        <ele>106.1</ele>
        <time>2018-04-08T12:33:59Z</time>
      </trkpt>
      <trkpt lat="48.06827" lon="-0.69108">
        <ele>106.1</ele>
        <time>2018-04-08T12:34:03Z</time>
      </trkpt>
      <trkpt lat="48.06832" lon="-0.69107">
        <ele>106.1</ele>
        <time>2018-04-08T12:34:07Z</time>
      </trkpt>
      <trkpt lat="48.06836" lon="-0.69107">
        <ele>105.9</ele>
        <time>2018-04-08T12:34:11Z</time>
      </trkpt>
      <trkpt lat="48.0684" lon="-0.69105">
        <ele>105.9</ele>
        <time>2018-04-08T12:34:15Z</time>
      </trkpt>
      <trkpt lat="48.06845" lon="-0.69105">
        <ele>105.9</ele>
        <time>2018-04-08T12:34:19Z</time>
      </trkpt>
      <trkpt lat="48.06848" lon="-0.69103">
        <ele>105.9</ele>
        <time>2018-04-08T12:34:23Z</time>
      </trkpt>
      <trkpt lat="48.06852" lon="-0.69105">
        <ele>105.9</ele>
        <time>2018-04-08T12:34:27Z</time>
      </trkpt>
      <trkpt lat="48.06855" lon="-0.69108">
        <ele>105.8</ele>
        <time>2018-04-08T12:34:31Z</time>
      </trkpt>
      <trkpt lat="48.06855" lon="-0.69113">
        <ele>105.8</ele>
        <time>2018-04-08T12:34:35Z</time>
      </trkpt>
      <trkpt lat="48.06855" lon="-0.6912">
        <ele>105.8</ele>
        <time>2018-04-08T12:34:39Z</time>
      </trkpt>
      <trkpt lat="48.06855" lon="-0.69126">
        <ele>105.8</ele>
        <time>2018-04-08T12:34:43Z</time>
      </trkpt>
      <trkpt lat="48.06855" lon="-0.69133">
        <ele>105.8</ele>
        <time>2018-04-08T12:34:47Z</time>
      </trkpt>
      <trkpt lat="48.06855" lon="-0.6914">
        <ele>105.8</ele>
        <time>2018-04-08T12:34:51Z</time>
      </trkpt>
      <trkpt lat="48.06855" lon="-0.69147">
        <ele>105.8</ele>
        <time>2018-04-08T12:34:55Z</time>
      </trkpt>
      <trkpt lat="48.06855" lon="-0.69153">
        <ele>105.8</ele>
        <time>2018-04-08T12:34:59Z</time>
      </trkpt>
      <trkpt lat="48.06855" lon="-0.6916">
        <ele>105.8</ele>
        <time>2018-04-08T12:35:03Z</time>
      </trkpt>
      <trkpt lat="48.06855" lon="-0.69166">
        <ele>105.8</ele>
        <time>2018-04-08T12:35:07Z</time>
      </trkpt>
      <trkpt lat="48.06855" lon="-0.69173">
        <ele>105.5</ele>
        <time>2018-04-08T12:35:11Z</time>
      </trkpt>
      <trkpt lat="48.06855" lon="-0.6918">
        <ele>105.4</ele>
        <time>2018-04-08T12:35:15Z</time>
      </trkpt>
      <trkpt lat="48.06855" lon="-0.69186">
        <ele>105.4</ele>
        <time>2018-04-08T12:35:19Z</time>
      </trkpt>
      <trkpt lat="48.06853" lon="-0.69191">
        <ele>105.4</ele>
        <time>2018-04-08T12:35:23Z</time>
      </trkpt>
      <trkpt lat="48.0685" lon="-0.69193">
        <ele>105.4</ele>
        <time>2018-04-08T12:35:27Z</time>
      </trkpt>
      <trkpt lat="48.06845" lon="-0.69194">
        <ele>105.5</ele>
        <time>2018-04-08T12:35:31Z</time>
      </trkpt>
      <trkpt lat="48.06841" lon="-0.69194">
        <ele>105.5</ele>
        <time>2018-04-08T12:35:35Z</time>
      </trkpt>
      <trkpt lat="48.06836" lon="-0.69194">
        <ele>105.5</ele>
        <time>2018-04-08T12:35:39Z</time>
      </trkpt>
      <trkpt lat="48.06832" lon="-0.69196">
        <ele>106.7</ele>
        <time>2018-04-08T12:35:43Z</time>
      </trkpt>
      <trkpt lat="48.06828" lon="-0.69199">
        <ele>106.7</ele>
        <time>2018-04-08T12:35:47Z</time>
      </trkpt>
      <trkpt lat="48.06827" lon="-0.69198">
        <ele>106.7</ele>
        <time>2018-04-08T12:35:51Z</time>
      </trkpt>
      <trkpt lat="48.06825" lon="-0.69198">
        <ele>106.7</ele>
        <time>2018-04-08T12:35:55Z</time>
      </trkpt>
      <trkpt lat="48.06819" lon="-0.69199">
        <ele>106.8</ele>
        <time>2018-04-08T12:35:59Z</time>
      </trkpt>
      <trkpt lat="48.06814" lon="-0.69201">
        <ele>106.8</ele>
        <time>2018-04-08T12:36:03Z</time>
      </trkpt>
      <trkpt lat="48.06808" lon="-0.69205">
        <ele>106.9</ele>
        <time>2018-04-08T12:36:07Z</time>
      </trkpt>
      <trkpt lat="48.06801" lon="-0.69205">
        <ele>106.9</ele>
        <time>2018-04-08T12:36:11Z</time>
      </trkpt>
      <trkpt lat="48.06794" lon="-0.69207">
        <ele>107</ele>
        <time>2018-04-08T12:36:15Z</time>
      </trkpt>
      <trkpt lat="48.06794" lon="-0.69216">
        <ele>107</ele>
        <time>2018-04-08T12:36:19Z</time>
      </trkpt>
      <trkpt lat="48.06796" lon="-0.69225">
        <ele>107.1</ele>
        <time>2018-04-08T12:36:23Z</time>
      </trkpt>
      <trkpt lat="48.06797" lon="-0.69235">
        <ele>107.1</ele>
        <time>2018-04-08T12:36:27Z</time>
      </trkpt>
      <trkpt lat="48.06798" lon="-0.69246">
        <ele>107.1</ele>
        <time>2018-04-08T12:36:31Z</time>
      </trkpt>
      <trkpt lat="48.06799" lon="-0.69255">
        <ele>107.1</ele>
        <time>2018-04-08T12:36:35Z</time>
      </trkpt>
      <trkpt lat="48.06797" lon="-0.69264">
        <ele>107.1</ele>
        <time>2018-04-08T12:36:39Z</time>
      </trkpt>
      <trkpt lat="48.06796" lon="-0.69273">
        <ele>107.1</ele>
        <time>2018-04-08T12:36:43Z</time>
      </trkpt>
      <trkpt lat="48.06793" lon="-0.69284">
        <ele>107</ele>
        <time>2018-04-08T12:36:47Z</time>
      </trkpt>
      <trkpt lat="48.06792" lon="-0.69297">
        <ele>107</ele>
        <time>2018-04-08T12:36:51Z</time>
      </trkpt>
      <trkpt lat="48.06794" lon="-0.6931">
        <ele>106.9</ele>
        <time>2018-04-08T12:36:55Z</time>
      </trkpt>
      <trkpt lat="48.06797" lon="-0.69323">
        <ele>106.8</ele>
        <time>2018-04-08T12:36:59Z</time>
      </trkpt>
      <trkpt lat="48.068" lon="-0.69337">
        <ele>106</ele>
        <time>2018-04-08T12:37:03Z</time>
      </trkpt>
      <trkpt lat="48.06802" lon="-0.69352">
        <ele>105.9</ele>
        <time>2018-04-08T12:37:07Z</time>
      </trkpt>
      <trkpt lat="48.06804" lon="-0.69367">
        <ele>105.8</ele>
        <time>2018-04-08T12:37:11Z</time>
      </trkpt>
      <trkpt lat="48.06801" lon="-0.69383">
        <ele>105.7</ele>
        <time>2018-04-08T12:37:15Z</time>
      </trkpt>
      <trkpt lat="48.06798" lon="-0.69402">
        <ele>105.6</ele>
        <time>2018-04-08T12:37:19Z</time>
      </trkpt>
      <trkpt lat="48.0679" lon="-0.69415">
        <ele>105.4</ele>
        <time>2018-04-08T12:37:23Z</time>
      </trkpt>
      <trkpt lat="48.06778" lon="-0.69414">
        <ele>105.2</ele>
        <time>2018-04-08T12:37:27Z</time>
      </trkpt>
      <trkpt lat="48.06765" lon="-0.69417">
        <ele>104.6</ele>
        <time>2018-04-08T12:37:31Z</time>
      </trkpt>
      <trkpt lat="48.06751" lon="-0.69426">
        <ele>104.4</ele>
        <time>2018-04-08T12:37:35Z</time>
      </trkpt>
      <trkpt lat="48.06735" lon="-0.69437">
        <ele>104.7</ele>
        <time>2018-04-08T12:37:39Z</time>
      </trkpt>
      <trkpt lat="48.0672" lon="-0.69446">
        <ele>104.9</ele>
        <time>2018-04-08T12:37:43Z</time>
      </trkpt>
      <trkpt lat="48.06705" lon="-0.69455">
        <ele>105</ele>
        <time>2018-04-08T12:37:47Z</time>
      </trkpt>
      <trkpt lat="48.06696" lon="-0.69475">
        <ele>105.1</ele>
        <time>2018-04-08T12:37:51Z</time>
      </trkpt>
      <trkpt lat="48.06693" lon="-0.69502">
        <ele>105.9</ele>
        <time>2018-04-08T12:37:55Z</time>
      </trkpt>
      <trkpt lat="48.06691" lon="-0.6953">
        <ele>106.2</ele>
        <time>2018-04-08T12:37:59Z</time>
      </trkpt>
      <trkpt lat="48.06689" lon="-0.6956">
        <ele>106.4</ele>
        <time>2018-04-08T12:38:03Z</time>
      </trkpt>
      <trkpt lat="48.0669" lon="-0.69589">
        <ele>106.7</ele>
        <time>2018-04-08T12:38:07Z</time>
      </trkpt>
      <trkpt lat="48.06691" lon="-0.69616">
        <ele>106.8</ele>
        <time>2018-04-08T12:38:11Z</time>
      </trkpt>
      <trkpt lat="48.06693" lon="-0.6964">
        <ele>106.7</ele>
        <time>2018-04-08T12:38:15Z</time>
      </trkpt>
      <trkpt lat="48.0669" lon="-0.69659">
        <ele>106.6</ele>
        <time>2018-04-08T12:38:19Z</time>
      </trkpt>
      <trkpt lat="48.06688" lon="-0.69677">
        <ele>105.6</ele>
        <time>2018-04-08T12:38:23Z</time>
      </trkpt>
      <trkpt lat="48.06688" lon="-0.69698">
        <ele>105.4</ele>
        <time>2018-04-08T12:38:27Z</time>
      </trkpt>
      <trkpt lat="48.06688" lon="-0.69719">
        <ele>105</ele>
        <time>2018-04-08T12:38:31Z</time>
      </trkpt>
      <trkpt lat="48.06678" lon="-0.69725">
        <ele>104.9</ele>
        <time>2018-04-08T12:38:35Z</time>
      </trkpt>
      <trkpt lat="48.06668" lon="-0.69727">
        <ele>104.8</ele>
        <time>2018-04-08T12:38:39Z</time>
      </trkpt>
      <trkpt lat="48.06654" lon="-0.69728">
        <ele>104.7</ele>
        <time>2018-04-08T12:38:43Z</time>
      </trkpt>
      <trkpt lat="48.06641" lon="-0.6973">
        <ele>104.7</ele>
        <time>2018-04-08T12:38:47Z</time>
      </trkpt>
      <trkpt lat="48.06627" lon="-0.69731">
        <ele>104.7</ele>
        <time>2018-04-08T12:38:51Z</time>
      </trkpt>
      <trkpt lat="48.06611" lon="-0.69735">
        <ele>104.7</ele>
        <time>2018-04-08T12:38:55Z</time>
      </trkpt>
      <trkpt lat="48.06594" lon="-0.69738">
        <ele>104.5</ele>
        <time>2018-04-08T12:38:59Z</time>
      </trkpt>
      <trkpt lat="48.06581" lon="-0.69747">
        <ele>104.1</ele>
        <time>2018-04-08T12:39:03Z</time>
      </trkpt>
      <trkpt lat="48.06575" lon="-0.6977">
        <ele>104</ele>
        <time>2018-04-08T12:39:07Z</time>
      </trkpt>
      <trkpt lat="48.06577" lon="-0.69793">
        <ele>104</ele>
        <time>2018-04-08T12:39:11Z</time>
      </trkpt>
      <trkpt lat="48.06579" lon="-0.69817">
        <ele>104</ele>
        <time>2018-04-08T12:39:15Z</time>
      </trkpt>
      <trkpt lat="48.0658" lon="-0.69838">
        <ele>104</ele>
        <time>2018-04-08T12:39:19Z</time>
      </trkpt>
      <trkpt lat="48.06581" lon="-0.6986">
        <ele>104</ele>
        <time>2018-04-08T12:39:23Z</time>
      </trkpt>
      <trkpt lat="48.06582" lon="-0.69879">
        <ele>104</ele>
        <time>2018-04-08T12:39:27Z</time>
      </trkpt>
      <trkpt lat="48.06582" lon="-0.69899">
        <ele>104</ele>
        <time>2018-04-08T12:39:31Z</time>
      </trkpt>
      <trkpt lat="48.06582" lon="-0.69919">
        <ele>103.9</ele>
        <time>2018-04-08T12:39:35Z</time>
      </trkpt>
      <trkpt lat="48.06579" lon="-0.69937">
        <ele>103.6</ele>
        <time>2018-04-08T12:39:39Z</time>
      </trkpt>
      <trkpt lat="48.06569" lon="-0.69957">
        <ele>103.3</ele>
        <time>2018-04-08T12:39:43Z</time>
      </trkpt>
      <trkpt lat="48.06562" lon="-0.69976">
        <ele>103.2</ele>
        <time>2018-04-08T12:39:47Z</time>
      </trkpt>
      <trkpt lat="48.06559" lon="-0.69996">
        <ele>103.1</ele>
        <time>2018-04-08T12:39:51Z</time>
      </trkpt>
      <trkpt lat="48.0656" lon="-0.7002">
        <ele>102.5</ele>
        <time>2018-04-08T12:39:55Z</time>
      </trkpt>
      <trkpt lat="48.06565" lon="-0.70045">
        <ele>102.4</ele>
        <time>2018-04-08T12:39:59Z</time>
      </trkpt>
      <trkpt lat="48.06558" lon="-0.70071">
        <ele>102.4</ele>
        <time>2018-04-08T12:40:03Z</time>
      </trkpt>
      <trkpt lat="48.06545" lon="-0.70093">
        <ele>102.1</ele>
        <time>2018-04-08T12:40:07Z</time>
      </trkpt>
      <trkpt lat="48.06528" lon="-0.70096">
        <ele>101.8</ele>
        <time>2018-04-08T12:40:11Z</time>
      </trkpt>
      <trkpt lat="48.06513" lon="-0.70098">
        <ele>101.5</ele>
        <time>2018-04-08T12:40:15Z</time>
      </trkpt>
      <trkpt lat="48.06503" lon="-0.7011">
        <ele>101.6</ele>
        <time>2018-04-08T12:40:19Z</time>
      </trkpt>
      <trkpt lat="48.06503" lon="-0.70132">
        <ele>101.6</ele>
        <time>2018-04-08T12:40:23Z</time>
      </trkpt>
      <trkpt lat="48.06502" lon="-0.70158">
        <ele>101.3</ele>
        <time>2018-04-08T12:40:27Z</time>
      </trkpt>
      <trkpt lat="48.065" lon="-0.70187">
        <ele>100.2</ele>
        <time>2018-04-08T12:40:31Z</time>
      </trkpt>
      <trkpt lat="48.065" lon="-0.70219">
        <ele>99.8</ele>
        <time>2018-04-08T12:40:35Z</time>
      </trkpt>
      <trkpt lat="48.06501" lon="-0.7025">
        <ele>100</ele>
        <time>2018-04-08T12:40:39Z</time>
      </trkpt>
      <trkpt lat="48.06502" lon="-0.70281">
        <ele>100.2</ele>
        <time>2018-04-08T12:40:43Z</time>
      </trkpt>
      <trkpt lat="48.06508" lon="-0.70312">
        <ele>100.1</ele>
        <time>2018-04-08T12:40:47Z</time>
      </trkpt>
      <trkpt lat="48.06515" lon="-0.7034">
        <ele>99.7</ele>
        <time>2018-04-08T12:40:51Z</time>
      </trkpt>
      <trkpt lat="48.06523" lon="-0.70367">
        <ele>99.4</ele>
        <time>2018-04-08T12:40:55Z</time>
      </trkpt>
      <trkpt lat="48.06513" lon="-0.70389">
        <ele>99.2</ele>
        <time>2018-04-08T12:40:59Z</time>
      </trkpt>
      <trkpt lat="48.06498" lon="-0.70407">
        <ele>98.7</ele>
        <time>2018-04-08T12:41:03Z</time>
      </trkpt>
      <trkpt lat="48.06484" lon="-0.7043">
        <ele>97.4</ele>
        <time>2018-04-08T12:41:07Z</time>
      </trkpt>
      <trkpt lat="48.06469" lon="-0.70458">
        <ele>96.3</ele>
        <time>2018-04-08T12:41:11Z</time>
      </trkpt>
      <trkpt lat="48.0646" lon="-0.70491">
        <ele>95.8</ele>
        <time>2018-04-08T12:41:15Z</time>
      </trkpt>
      <trkpt lat="48.06463" lon="-0.70527">
        <ele>94.6</ele>
        <time>2018-04-08T12:41:19Z</time>
      </trkpt>
      <trkpt lat="48.06467" lon="-0.70563">
        <ele>94.4</ele>
        <time>2018-04-08T12:41:23Z</time>
      </trkpt>
      <trkpt lat="48.06471" lon="-0.70598">
        <ele>93.3</ele>
        <time>2018-04-08T12:41:27Z</time>
      </trkpt>
      <trkpt lat="48.06475" lon="-0.70633">
        <ele>92.8</ele>
        <time>2018-04-08T12:41:31Z</time>
      </trkpt>
      <trkpt lat="48.0648" lon="-0.70668">
        <ele>91.5</ele>
        <time>2018-04-08T12:41:35Z</time>
      </trkpt>
      <trkpt lat="48.06484" lon="-0.70703">
        <ele>91.4</ele>
        <time>2018-04-08T12:41:39Z</time>
      </trkpt>
      <trkpt lat="48.06488" lon="-0.70737">
        <ele>90.9</ele>
        <time>2018-04-08T12:41:43Z</time>
      </trkpt>
      <trkpt lat="48.06491" lon="-0.70773">
        <ele>91.1</ele>
        <time>2018-04-08T12:41:47Z</time>
      </trkpt>
      <trkpt lat="48.06504" lon="-0.70793">
        <ele>90.2</ele>
        <time>2018-04-08T12:41:51Z</time>
      </trkpt>
      <trkpt lat="48.06517" lon="-0.70803">
        <ele>90.2</ele>
        <time>2018-04-08T12:41:55Z</time>
      </trkpt>
      <trkpt lat="48.06527" lon="-0.7081">
        <ele>90.2</ele>
        <time>2018-04-08T12:41:59Z</time>
      </trkpt>
      <trkpt lat="48.06533" lon="-0.70814">
        <ele>90.1</ele>
        <time>2018-04-08T12:42:39Z</time>
      </trkpt>
      <trkpt lat="48.06534" lon="-0.70815">
        <ele>90.1</ele>
        <time>2018-04-08T12:42:47Z</time>
      </trkpt>
      <trkpt lat="48.06535" lon="-0.70816">
        <ele>90.1</ele>
        <time>2018-04-08T12:43:03Z</time>
      </trkpt>
      <trkpt lat="48.0654" lon="-0.70819">
        <ele>90</ele>
        <time>2018-04-08T12:43:07Z</time>
      </trkpt>
      <trkpt lat="48.06547" lon="-0.70822">
        <ele>89.9</ele>
        <time>2018-04-08T12:43:11Z</time>
      </trkpt>
      <trkpt lat="48.06555" lon="-0.70826">
        <ele>89.8</ele>
        <time>2018-04-08T12:43:15Z</time>
      </trkpt>
      <trkpt lat="48.06562" lon="-0.70832">
        <ele>89.6</ele>
        <time>2018-04-08T12:43:19Z</time>
      </trkpt>
      <trkpt lat="48.06571" lon="-0.70839">
        <ele>89.4</ele>
        <time>2018-04-08T12:43:23Z</time>
      </trkpt>
      <trkpt lat="48.06579" lon="-0.70845">
        <ele>89.3</ele>
        <time>2018-04-08T12:43:27Z</time>
      </trkpt>
      <trkpt lat="48.06587" lon="-0.7085">
        <ele>88.3</ele>
        <time>2018-04-08T12:43:31Z</time>
      </trkpt>
      <trkpt lat="48.06595" lon="-0.70854">
        <ele>88.1</ele>
        <time>2018-04-08T12:43:35Z</time>
      </trkpt>
      <trkpt lat="48.06603" lon="-0.70856">
        <ele>87.9</ele>
        <time>2018-04-08T12:43:39Z</time>
      </trkpt>
      <trkpt lat="48.06612" lon="-0.70863">
        <ele>87.7</ele>
        <time>2018-04-08T12:43:43Z</time>
      </trkpt>
      <trkpt lat="48.06619" lon="-0.7087">
        <ele>87.6</ele>
        <time>2018-04-08T12:43:47Z</time>
      </trkpt>
      <trkpt lat="48.06626" lon="-0.70876">
        <ele>87.5</ele>
        <time>2018-04-08T12:43:51Z</time>
      </trkpt>
      <trkpt lat="48.06633" lon="-0.70882">
        <ele>87.4</ele>
        <time>2018-04-08T12:43:55Z</time>
      </trkpt>
      <trkpt lat="48.06639" lon="-0.70885">
        <ele>87.4</ele>
        <time>2018-04-08T12:43:59Z</time>
      </trkpt>
      <trkpt lat="48.06646" lon="-0.7089">
        <ele>87.3</ele>
        <time>2018-04-08T12:44:03Z</time>
      </trkpt>
      <trkpt lat="48.06653" lon="-0.70898">
        <ele>87.2</ele>
        <time>2018-04-08T12:44:07Z</time>
      </trkpt>
      <trkpt lat="48.06661" lon="-0.70905">
        <ele>87.2</ele>
        <time>2018-04-08T12:44:11Z</time>
      </trkpt>
      <trkpt lat="48.06669" lon="-0.70908">
        <ele>86.8</ele>
        <time>2018-04-08T12:44:15Z</time>
      </trkpt>
      <trkpt lat="48.06677" lon="-0.70916">
        <ele>86.7</ele>
        <time>2018-04-08T12:44:19Z</time>
      </trkpt>
      <trkpt lat="48.06682" lon="-0.70923">
        <ele>86.7</ele>
        <time>2018-04-08T12:44:23Z</time>
      </trkpt>
      <trkpt lat="48.0669" lon="-0.70929">
        <ele>86.5</ele>
        <time>2018-04-08T12:44:27Z</time>
      </trkpt>
      <trkpt lat="48.067" lon="-0.70935">
        <ele>86.4</ele>
        <time>2018-04-08T12:44:31Z</time>
      </trkpt>
      <trkpt lat="48.06711" lon="-0.70942">
        <ele>86.3</ele>
        <time>2018-04-08T12:44:35Z</time>
      </trkpt>
      <trkpt lat="48.06721" lon="-0.70949">
        <ele>86.2</ele>
        <time>2018-04-08T12:44:39Z</time>
      </trkpt>
      <trkpt lat="48.06734" lon="-0.70958">
        <ele>86</ele>
        <time>2018-04-08T12:44:43Z</time>
      </trkpt>
      <trkpt lat="48.06745" lon="-0.70966">
        <ele>85.9</ele>
        <time>2018-04-08T12:44:47Z</time>
      </trkpt>
      <trkpt lat="48.0676" lon="-0.70976">
        <ele>85.5</ele>
        <time>2018-04-08T12:44:51Z</time>
      </trkpt>
      <trkpt lat="48.06773" lon="-0.70985">
        <ele>85.6</ele>
        <time>2018-04-08T12:44:55Z</time>
      </trkpt>
      <trkpt lat="48.06787" lon="-0.70997">
        <ele>85.8</ele>
        <time>2018-04-08T12:44:59Z</time>
      </trkpt>
      <trkpt lat="48.068" lon="-0.71008">
        <ele>86.1</ele>
        <time>2018-04-08T12:45:03Z</time>
      </trkpt>
      <trkpt lat="48.06812" lon="-0.71021">
        <ele>86.2</ele>
        <time>2018-04-08T12:45:07Z</time>
      </trkpt>
      <trkpt lat="48.06824" lon="-0.71031">
        <ele>86.3</ele>
        <time>2018-04-08T12:45:11Z</time>
      </trkpt>
      <trkpt lat="48.06835" lon="-0.71038">
        <ele>86.1</ele>
        <time>2018-04-08T12:45:15Z</time>
      </trkpt>
      <trkpt lat="48.0684" lon="-0.71039">
        <ele>86</ele>
        <time>2018-04-08T12:46:31Z</time>
      </trkpt>
      <trkpt lat="48.06843" lon="-0.71041">
        <ele>86</ele>
        <time>2018-04-08T12:48:31Z</time>
      </trkpt>
      <trkpt lat="48.06848" lon="-0.71043">
        <ele>86</ele>
        <time>2018-04-08T12:48:35Z</time>
      </trkpt>
      <trkpt lat="48.06858" lon="-0.71048">
        <ele>85.8</ele>
        <time>2018-04-08T12:48:39Z</time>
      </trkpt>
      <trkpt lat="48.06871" lon="-0.71055">
        <ele>85.7</ele>
        <time>2018-04-08T12:48:43Z</time>
      </trkpt>
      <trkpt lat="48.06883" lon="-0.71063">
        <ele>85.5</ele>
        <time>2018-04-08T12:48:47Z</time>
      </trkpt>
      <trkpt lat="48.06895" lon="-0.71069">
        <ele>85.2</ele>
        <time>2018-04-08T12:48:51Z</time>
      </trkpt>
      <trkpt lat="48.06905" lon="-0.71076">
        <ele>84.8</ele>
        <time>2018-04-08T12:48:55Z</time>
      </trkpt>
      <trkpt lat="48.0692" lon="-0.71087">
        <ele>84.1</ele>
        <time>2018-04-08T12:48:59Z</time>
      </trkpt>
      <trkpt lat="48.06931" lon="-0.71099">
        <ele>84.2</ele>
        <time>2018-04-08T12:49:03Z</time>
      </trkpt>
      <trkpt lat="48.0694" lon="-0.71107">
        <ele>84.3</ele>
        <time>2018-04-08T12:49:07Z</time>
      </trkpt>
      <trkpt lat="48.06947" lon="-0.71116">
        <ele>84.3</ele>
        <time>2018-04-08T12:49:11Z</time>
      </trkpt>
      <trkpt lat="48.06953" lon="-0.71122">
        <ele>84.3</ele>
        <time>2018-04-08T12:49:15Z</time>
      </trkpt>
      <trkpt lat="48.06961" lon="-0.71128">
        <ele>84.2</ele>
        <time>2018-04-08T12:49:19Z</time>
      </trkpt>
      <trkpt lat="48.06969" lon="-0.71134">
        <ele>84.2</ele>
        <time>2018-04-08T12:49:23Z</time>
      </trkpt>
      <trkpt lat="48.06977" lon="-0.7114">
        <ele>84.1</ele>
        <time>2018-04-08T12:49:27Z</time>
      </trkpt>
      <trkpt lat="48.0698" lon="-0.71135">
        <ele>84.1</ele>
        <time>2018-04-08T12:49:31Z</time>
      </trkpt>
      <trkpt lat="48.06985" lon="-0.71123">
        <ele>84.4</ele>
        <time>2018-04-08T12:49:35Z</time>
      </trkpt>
      <trkpt lat="48.06989" lon="-0.71111">
        <ele>84.7</ele>
        <time>2018-04-08T12:49:39Z</time>
      </trkpt>
      <trkpt lat="48.06997" lon="-0.71107">
        <ele>84.8</ele>
        <time>2018-04-08T12:49:43Z</time>
      </trkpt>
      <trkpt lat="48.07002" lon="-0.71103">
        <ele>85</ele>
        <time>2018-04-08T12:49:47Z</time>
      </trkpt>
      <trkpt lat="48.07008" lon="-0.71098">
        <ele>85.2</ele>
        <time>2018-04-08T12:49:51Z</time>
      </trkpt>
      <trkpt lat="48.07013" lon="-0.71089">
        <ele>85.3</ele>
        <time>2018-04-08T12:49:55Z</time>
      </trkpt>
      <trkpt lat="48.07019" lon="-0.71083">
        <ele>86.1</ele>
        <time>2018-04-08T12:49:59Z</time>
      </trkpt>
      <trkpt lat="48.07024" lon="-0.71072">
        <ele>86.1</ele>
        <time>2018-04-08T12:50:03Z</time>
      </trkpt>
      <trkpt lat="48.07029" lon="-0.71064">
        <ele>86.2</ele>
        <time>2018-04-08T12:50:07Z</time>
      </trkpt>
      <trkpt lat="48.07035" lon="-0.71061">
        <ele>86.2</ele>
        <time>2018-04-08T12:50:11Z</time>
      </trkpt>
      <trkpt lat="48.07038" lon="-0.71053">
        <ele>86.2</ele>
        <time>2018-04-08T12:50:15Z</time>
      </trkpt>
      <trkpt lat="48.07037" lon="-0.71042">
        <ele>86.2</ele>
        <time>2018-04-08T12:50:19Z</time>
      </trkpt>
      <trkpt lat="48.07036" lon="-0.71031">
        <ele>86.3</ele>
        <time>2018-04-08T12:50:23Z</time>
      </trkpt>
      <trkpt lat="48.07035" lon="-0.71019">
        <ele>86.3</ele>
        <time>2018-04-08T12:50:27Z</time>
      </trkpt>
      <trkpt lat="48.07034" lon="-0.71007">
        <ele>86.3</ele>
        <time>2018-04-08T12:50:31Z</time>
      </trkpt>
      <trkpt lat="48.07033" lon="-0.70996">
        <ele>87</ele>
        <time>2018-04-08T12:50:35Z</time>
      </trkpt>
      <trkpt lat="48.07032" lon="-0.70982">
        <ele>87.1</ele>
        <time>2018-04-08T12:50:39Z</time>
      </trkpt>
      <trkpt lat="48.07031" lon="-0.70969">
        <ele>87.3</ele>
        <time>2018-04-08T12:50:43Z</time>
      </trkpt>
      <trkpt lat="48.0703" lon="-0.70957">
        <ele>87.5</ele>
        <time>2018-04-08T12:50:47Z</time>
      </trkpt>
      <trkpt lat="48.07029" lon="-0.70942">
        <ele>87.6</ele>
        <time>2018-04-08T12:50:51Z</time>
      </trkpt>
      <trkpt lat="48.07028" lon="-0.70926">
        <ele>87.8</ele>
        <time>2018-04-08T12:50:55Z</time>
      </trkpt>
      <trkpt lat="48.07027" lon="-0.70911">
        <ele>89.2</ele>
        <time>2018-04-08T12:50:59Z</time>
      </trkpt>
      <trkpt lat="48.07026" lon="-0.70893">
        <ele>89.5</ele>
        <time>2018-04-08T12:51:03Z</time>
      </trkpt>
      <trkpt lat="48.07024" lon="-0.70875">
        <ele>89.8</ele>
        <time>2018-04-08T12:51:07Z</time>
      </trkpt>
      <trkpt lat="48.07023" lon="-0.70858">
        <ele>90</ele>
        <time>2018-04-08T12:51:11Z</time>
      </trkpt>
      <trkpt lat="48.07022" lon="-0.70839">
        <ele>90.2</ele>
        <time>2018-04-08T12:51:15Z</time>
      </trkpt>
      <trkpt lat="48.0702" lon="-0.70819">
        <ele>91.2</ele>
        <time>2018-04-08T12:51:19Z</time>
      </trkpt>
      <trkpt lat="48.07019" lon="-0.70797">
        <ele>91.5</ele>
        <time>2018-04-08T12:51:23Z</time>
      </trkpt>
      <trkpt lat="48.07017" lon="-0.70774">
        <ele>91.7</ele>
        <time>2018-04-08T12:51:27Z</time>
      </trkpt>
      <trkpt lat="48.07015" lon="-0.70752">
        <ele>91.9</ele>
        <time>2018-04-08T12:51:31Z</time>
      </trkpt>
      <trkpt lat="48.07013" lon="-0.70731">
        <ele>92.1</ele>
        <time>2018-04-08T12:51:35Z</time>
      </trkpt>
      <trkpt lat="48.07012" lon="-0.70709">
        <ele>92.2</ele>
        <time>2018-04-08T12:51:39Z</time>
      </trkpt>
      <trkpt lat="48.0701" lon="-0.70687">
        <ele>92.4</ele>
        <time>2018-04-08T12:51:43Z</time>
      </trkpt>
      <trkpt lat="48.07008" lon="-0.70664">
        <ele>92.5</ele>
        <time>2018-04-08T12:51:47Z</time>
      </trkpt>
      <trkpt lat="48.07007" lon="-0.70642">
        <ele>91.9</ele>
        <time>2018-04-08T12:51:51Z</time>
      </trkpt>
      <trkpt lat="48.07005" lon="-0.70621">
        <ele>91.4</ele>
        <time>2018-04-08T12:51:55Z</time>
      </trkpt>
      <trkpt lat="48.07003" lon="-0.70599">
        <ele>91.2</ele>
        <time>2018-04-08T12:51:59Z</time>
      </trkpt>
      <trkpt lat="48.07001" lon="-0.70578">
        <ele>91</ele>
        <time>2018-04-08T12:52:03Z</time>
      </trkpt>
      <trkpt lat="48.07003" lon="-0.70559">
        <ele>91.2</ele>
        <time>2018-04-08T12:52:07Z</time>
      </trkpt>
      <trkpt lat="48.07015" lon="-0.70548">
        <ele>91.3</ele>
        <time>2018-04-08T12:52:11Z</time>
      </trkpt>
      <trkpt lat="48.07024" lon="-0.70533">
        <ele>91.4</ele>
        <time>2018-04-08T12:52:15Z</time>
      </trkpt>
      <trkpt lat="48.07021" lon="-0.70514">
        <ele>91.6</ele>
        <time>2018-04-08T12:52:19Z</time>
      </trkpt>
      <trkpt lat="48.07019" lon="-0.70495">
        <ele>92.6</ele>
        <time>2018-04-08T12:52:23Z</time>
      </trkpt>
      <trkpt lat="48.07027" lon="-0.70485">
        <ele>92.7</ele>
        <time>2018-04-08T12:52:27Z</time>
      </trkpt>
      <trkpt lat="48.07041" lon="-0.70481">
        <ele>92.8</ele>
        <time>2018-04-08T12:52:31Z</time>
      </trkpt>
      <trkpt lat="48.07055" lon="-0.70477">
        <ele>92.7</ele>
        <time>2018-04-08T12:52:35Z</time>
      </trkpt>
      <trkpt lat="48.07066" lon="-0.70475">
        <ele>92.6</ele>
        <time>2018-04-08T12:52:39Z</time>
      </trkpt>
      <trkpt lat="48.07071" lon="-0.70477">
        <ele>92.6</ele>
        <time>2018-04-08T12:52:51Z</time>
      </trkpt>
      <trkpt lat="48.07073" lon="-0.70483">
        <ele>92.5</ele>
        <time>2018-04-08T12:52:55Z</time>
      </trkpt>
      <trkpt lat="48.07074" lon="-0.70494">
        <ele>92.3</ele>
        <time>2018-04-08T12:52:59Z</time>
      </trkpt>
      <trkpt lat="48.07077" lon="-0.70505">
        <ele>91.8</ele>
        <time>2018-04-08T12:53:03Z</time>
      </trkpt>
      <trkpt lat="48.07078" lon="-0.70515">
        <ele>91.6</ele>
        <time>2018-04-08T12:53:07Z</time>
      </trkpt>
      <trkpt lat="48.07079" lon="-0.70523">
        <ele>91.5</ele>
        <time>2018-04-08T12:53:11Z</time>
      </trkpt>
      <trkpt lat="48.0708" lon="-0.70531">
        <ele>91.3</ele>
        <time>2018-04-08T12:53:15Z</time>
      </trkpt>
      <trkpt lat="48.0708" lon="-0.70535">
        <ele>91.3</ele>
        <time>2018-04-08T12:53:23Z</time>
      </trkpt>
      <trkpt lat="48.07084" lon="-0.7054">
        <ele>90.4</ele>
        <time>2018-04-08T12:53:27Z</time>
      </trkpt>
      <trkpt lat="48.07088" lon="-0.7054">
        <ele>90.4</ele>
        <time>2018-04-08T12:53:35Z</time>
      </trkpt>
      <trkpt lat="48.07092" lon="-0.70541">
        <ele>90.3</ele>
        <time>2018-04-08T12:53:39Z</time>
      </trkpt>
      <trkpt lat="48.07096" lon="-0.70545">
        <ele>90.3</ele>
        <time>2018-04-08T12:53:43Z</time>
      </trkpt>
      <trkpt lat="48.071" lon="-0.70548">
        <ele>90.2</ele>
        <time>2018-04-08T12:53:47Z</time>
      </trkpt>
      <trkpt lat="48.07103" lon="-0.7055">
        <ele>90.2</ele>
        <time>2018-04-08T12:53:51Z</time>
      </trkpt>
      <trkpt lat="48.07106" lon="-0.70555">
        <ele>90.1</ele>
        <time>2018-04-08T12:54:11Z</time>
      </trkpt>
      <trkpt lat="48.07107" lon="-0.70562">
        <ele>90</ele>
        <time>2018-04-08T12:54:15Z</time>
      </trkpt>
      <trkpt lat="48.07106" lon="-0.70571">
        <ele>90</ele>
        <time>2018-04-08T12:54:19Z</time>
      </trkpt>
      <trkpt lat="48.07107" lon="-0.70581">
        <ele>90</ele>
        <time>2018-04-08T12:54:23Z</time>
      </trkpt>
      <trkpt lat="48.07109" lon="-0.70597">
        <ele>89.8</ele>
        <time>2018-04-08T12:54:27Z</time>
      </trkpt>
      <trkpt lat="48.07115" lon="-0.70613">
        <ele>89.8</ele>
        <time>2018-04-08T12:54:31Z</time>
      </trkpt>
      <trkpt lat="48.07115" lon="-0.7063">
        <ele>89.9</ele>
        <time>2018-04-08T12:54:35Z</time>
      </trkpt>
      <trkpt lat="48.07115" lon="-0.70649">
        <ele>90</ele>
        <time>2018-04-08T12:54:39Z</time>
      </trkpt>
      <trkpt lat="48.07114" lon="-0.70661">
        <ele>90</ele>
        <time>2018-04-08T12:54:43Z</time>
      </trkpt>
      <trkpt lat="48.07116" lon="-0.70677">
        <ele>90.2</ele>
        <time>2018-04-08T12:54:47Z</time>
      </trkpt>
      <trkpt lat="48.07119" lon="-0.70698">
        <ele>90.1</ele>
        <time>2018-04-08T12:54:51Z</time>
      </trkpt>
      <trkpt lat="48.07123" lon="-0.70716">
        <ele>90</ele>
        <time>2018-04-08T12:54:55Z</time>
      </trkpt>
      <trkpt lat="48.07125" lon="-0.70728">
        <ele>90</ele>
        <time>2018-04-08T12:54:59Z</time>
      </trkpt>
      <trkpt lat="48.07125" lon="-0.70742">
        <ele>90</ele>
        <time>2018-04-08T12:55:03Z</time>
      </trkpt>
      <trkpt lat="48.07127" lon="-0.70757">
        <ele>90.1</ele>
        <time>2018-04-08T12:55:07Z</time>
      </trkpt>
      <trkpt lat="48.07128" lon="-0.70771">
        <ele>90.1</ele>
        <time>2018-04-08T12:55:11Z</time>
      </trkpt>
      <trkpt lat="48.07127" lon="-0.70783">
        <ele>90.2</ele>
        <time>2018-04-08T12:55:15Z</time>
      </trkpt>
      <trkpt lat="48.07128" lon="-0.70797">
        <ele>90.2</ele>
        <time>2018-04-08T12:55:19Z</time>
      </trkpt>
      <trkpt lat="48.07127" lon="-0.70809">
        <ele>90.2</ele>
        <time>2018-04-08T12:55:23Z</time>
      </trkpt>
      <trkpt lat="48.07132" lon="-0.70819">
        <ele>90.1</ele>
        <time>2018-04-08T12:55:27Z</time>
      </trkpt>
      <trkpt lat="48.07137" lon="-0.70832">
        <ele>89.8</ele>
        <time>2018-04-08T12:55:31Z</time>
      </trkpt>
      <trkpt lat="48.07137" lon="-0.70846">
        <ele>89.2</ele>
        <time>2018-04-08T12:55:35Z</time>
      </trkpt>
      <trkpt lat="48.07135" lon="-0.7086">
        <ele>89.2</ele>
        <time>2018-04-08T12:55:39Z</time>
      </trkpt>
      <trkpt lat="48.07136" lon="-0.70873">
        <ele>89</ele>
        <time>2018-04-08T12:55:43Z</time>
      </trkpt>
      <trkpt lat="48.07139" lon="-0.70892">
        <ele>88.7</ele>
        <time>2018-04-08T12:55:47Z</time>
      </trkpt>
      <trkpt lat="48.0714" lon="-0.70911">
        <ele>88.4</ele>
        <time>2018-04-08T12:55:51Z</time>
      </trkpt>
      <trkpt lat="48.07141" lon="-0.7093">
        <ele>87.4</ele>
        <time>2018-04-08T12:55:55Z</time>
      </trkpt>
      <trkpt lat="48.07144" lon="-0.70948">
        <ele>87.4</ele>
        <time>2018-04-08T12:55:59Z</time>
      </trkpt>
      <trkpt lat="48.07146" lon="-0.70965">
        <ele>87.4</ele>
        <time>2018-04-08T12:56:03Z</time>
      </trkpt>
      <trkpt lat="48.07146" lon="-0.70981">
        <ele>87.3</ele>
        <time>2018-04-08T12:56:07Z</time>
      </trkpt>
      <trkpt lat="48.07147" lon="-0.70999">
        <ele>87.2</ele>
        <time>2018-04-08T12:56:11Z</time>
      </trkpt>
      <trkpt lat="48.07149" lon="-0.71017">
        <ele>86.7</ele>
        <time>2018-04-08T12:56:15Z</time>
      </trkpt>
      <trkpt lat="48.07151" lon="-0.71037">
        <ele>86.5</ele>
        <time>2018-04-08T12:56:19Z</time>
      </trkpt>
      <trkpt lat="48.07151" lon="-0.71059">
        <ele>86.4</ele>
        <time>2018-04-08T12:56:23Z</time>
      </trkpt>
      <trkpt lat="48.07154" lon="-0.71081">
        <ele>86.2</ele>
        <time>2018-04-08T12:56:27Z</time>
      </trkpt>
      <trkpt lat="48.07165" lon="-0.71084">
        <ele>85.8</ele>
        <time>2018-04-08T12:56:31Z</time>
      </trkpt>
      <trkpt lat="48.07177" lon="-0.71083">
        <ele>85.5</ele>
        <time>2018-04-08T12:56:35Z</time>
      </trkpt>
      <trkpt lat="48.07187" lon="-0.71081">
        <ele>85.1</ele>
        <time>2018-04-08T12:56:39Z</time>
      </trkpt>
      <trkpt lat="48.07199" lon="-0.71078">
        <ele>84.7</ele>
        <time>2018-04-08T12:56:43Z</time>
      </trkpt>
      <trkpt lat="48.07208" lon="-0.71076">
        <ele>84.3</ele>
        <time>2018-04-08T12:56:47Z</time>
      </trkpt>
      <trkpt lat="48.0722" lon="-0.71073">
        <ele>83.9</ele>
        <time>2018-04-08T12:56:51Z</time>
      </trkpt>
      <trkpt lat="48.07234" lon="-0.71071">
        <ele>83.4</ele>
        <time>2018-04-08T12:56:55Z</time>
      </trkpt>
      <trkpt lat="48.0725" lon="-0.71067">
        <ele>83.1</ele>
        <time>2018-04-08T12:56:59Z</time>
      </trkpt>
      <trkpt lat="48.07267" lon="-0.71062">
        <ele>81.5</ele>
        <time>2018-04-08T12:57:03Z</time>
      </trkpt>
      <trkpt lat="48.07286" lon="-0.71058">
        <ele>81.3</ele>
        <time>2018-04-08T12:57:07Z</time>
      </trkpt>
      <trkpt lat="48.07305" lon="-0.71055">
        <ele>81</ele>
        <time>2018-04-08T12:57:11Z</time>
      </trkpt>
      <trkpt lat="48.07325" lon="-0.7105">
        <ele>80.8</ele>
        <time>2018-04-08T12:57:15Z</time>
      </trkpt>
      <trkpt lat="48.07345" lon="-0.71046">
        <ele>79</ele>
        <time>2018-04-08T12:57:19Z</time>
      </trkpt>
      <trkpt lat="48.07363" lon="-0.71042">
        <ele>78.7</ele>
        <time>2018-04-08T12:57:23Z</time>
      </trkpt>
      <trkpt lat="48.07382" lon="-0.71037">
        <ele>78.4</ele>
        <time>2018-04-08T12:57:27Z</time>
      </trkpt>
      <trkpt lat="48.07403" lon="-0.71032">
        <ele>78</ele>
        <time>2018-04-08T12:57:31Z</time>
      </trkpt>
      <trkpt lat="48.07421" lon="-0.71028">
        <ele>76.6</ele>
        <time>2018-04-08T12:57:35Z</time>
      </trkpt>
      <trkpt lat="48.07431" lon="-0.71026">
        <ele>76.5</ele>
        <time>2018-04-08T12:57:39Z</time>
      </trkpt>
      <trkpt lat="48.0744" lon="-0.71024">
        <ele>76.5</ele>
        <time>2018-04-08T12:57:43Z</time>
      </trkpt>
      <trkpt lat="48.07453" lon="-0.71021">
        <ele>76.4</ele>
        <time>2018-04-08T12:57:47Z</time>
      </trkpt>
      <trkpt lat="48.07468" lon="-0.71019">
        <ele>76.2</ele>
        <time>2018-04-08T12:57:51Z</time>
      </trkpt>
      <trkpt lat="48.07475" lon="-0.7101">
        <ele>76.2</ele>
        <time>2018-04-08T12:57:55Z</time>
      </trkpt>
      <trkpt lat="48.07471" lon="-0.70999">
        <ele>76.5</ele>
        <time>2018-04-08T12:57:59Z</time>
      </trkpt>
      <trkpt lat="48.07469" lon="-0.70984">
        <ele>76.6</ele>
        <time>2018-04-08T12:58:03Z</time>
      </trkpt>
      <trkpt lat="48.0747" lon="-0.70964">
        <ele>76.6</ele>
        <time>2018-04-08T12:58:07Z</time>
      </trkpt>
      <trkpt lat="48.07469" lon="-0.70947">
        <ele>76.7</ele>
        <time>2018-04-08T12:58:11Z</time>
      </trkpt>
      <trkpt lat="48.07469" lon="-0.70929">
        <ele>76.7</ele>
        <time>2018-04-08T12:58:15Z</time>
      </trkpt>
      <trkpt lat="48.07466" lon="-0.70912">
        <ele>77.5</ele>
        <time>2018-04-08T12:58:19Z</time>
      </trkpt>
      <trkpt lat="48.07464" lon="-0.70897">
        <ele>77.7</ele>
        <time>2018-04-08T12:58:23Z</time>
      </trkpt>
      <trkpt lat="48.07474" lon="-0.70891">
        <ele>77.6</ele>
        <time>2018-04-08T12:58:27Z</time>
      </trkpt>
      <trkpt lat="48.07488" lon="-0.70888">
        <ele>77.5</ele>
        <time>2018-04-08T12:58:31Z</time>
      </trkpt>
      <trkpt lat="48.075" lon="-0.70883">
        <ele>77.6</ele>
        <time>2018-04-08T12:58:35Z</time>
      </trkpt>
      <trkpt lat="48.07507" lon="-0.70882">
        <ele>78.1</ele>
        <time>2018-04-08T12:58:39Z</time>
      </trkpt>
      <trkpt lat="48.07516" lon="-0.7088">
        <ele>78.3</ele>
        <time>2018-04-08T12:58:43Z</time>
      </trkpt>
      <trkpt lat="48.07527" lon="-0.70878">
        <ele>78.5</ele>
        <time>2018-04-08T12:58:47Z</time>
      </trkpt>
      <trkpt lat="48.07538" lon="-0.70878">
        <ele>78.6</ele>
        <time>2018-04-08T12:58:51Z</time>
      </trkpt>
      <trkpt lat="48.07548" lon="-0.70878">
        <ele>78.8</ele>
        <time>2018-04-08T12:58:55Z</time>
      </trkpt>
      <trkpt lat="48.07558" lon="-0.70875">
        <ele>79</ele>
        <time>2018-04-08T12:58:59Z</time>
      </trkpt>
      <trkpt lat="48.07568" lon="-0.70875">
        <ele>79.1</ele>
        <time>2018-04-08T12:59:03Z</time>
      </trkpt>
      <trkpt lat="48.07579" lon="-0.70874">
        <ele>79.2</ele>
        <time>2018-04-08T12:59:07Z</time>
      </trkpt>
      <trkpt lat="48.07592" lon="-0.70874">
        <ele>80.7</ele>
        <time>2018-04-08T12:59:11Z</time>
      </trkpt>
      <trkpt lat="48.07603" lon="-0.70873">
        <ele>80.8</ele>
        <time>2018-04-08T12:59:15Z</time>
      </trkpt>
      <trkpt lat="48.07613" lon="-0.70872">
        <ele>80.9</ele>
        <time>2018-04-08T12:59:19Z</time>
      </trkpt>
      <trkpt lat="48.07624" lon="-0.70872">
        <ele>81</ele>
        <time>2018-04-08T12:59:23Z</time>
      </trkpt>
      <trkpt lat="48.07633" lon="-0.70875">
        <ele>81.1</ele>
        <time>2018-04-08T12:59:27Z</time>
      </trkpt>
      <trkpt lat="48.07642" lon="-0.70868">
        <ele>81.2</ele>
        <time>2018-04-08T12:59:31Z</time>
      </trkpt>
      <trkpt lat="48.07644" lon="-0.7085">
        <ele>81.4</ele>
        <time>2018-04-08T12:59:35Z</time>
      </trkpt>
      <trkpt lat="48.07643" lon="-0.7083">
        <ele>81.5</ele>
        <time>2018-04-08T12:59:39Z</time>
      </trkpt>
      <trkpt lat="48.07642" lon="-0.70808">
        <ele>81.4</ele>
        <time>2018-04-08T12:59:43Z</time>
      </trkpt>
      <trkpt lat="48.07642" lon="-0.70785">
        <ele>81.4</ele>
        <time>2018-04-08T12:59:47Z</time>
      </trkpt>
      <trkpt lat="48.07642" lon="-0.70763">
        <ele>81.4</ele>
        <time>2018-04-08T12:59:51Z</time>
      </trkpt>
      <trkpt lat="48.07642" lon="-0.70742">
        <ele>81.8</ele>
        <time>2018-04-08T12:59:55Z</time>
      </trkpt>
      <trkpt lat="48.07644" lon="-0.70721">
        <ele>81.9</ele>
        <time>2018-04-08T12:59:59Z</time>
      </trkpt>
      <trkpt lat="48.07648" lon="-0.70701">
        <ele>82.2</ele>
        <time>2018-04-08T13:00:03Z</time>
      </trkpt>
      <trkpt lat="48.07652" lon="-0.70681">
        <ele>82.7</ele>
        <time>2018-04-08T13:00:07Z</time>
      </trkpt>
      <trkpt lat="48.07657" lon="-0.7066">
        <ele>83.3</ele>
        <time>2018-04-08T13:00:11Z</time>
      </trkpt>
      <trkpt lat="48.07662" lon="-0.7064">
        <ele>82.9</ele>
        <time>2018-04-08T13:00:15Z</time>
      </trkpt>
      <trkpt lat="48.07666" lon="-0.70621">
        <ele>82.7</ele>
        <time>2018-04-08T13:00:19Z</time>
      </trkpt>
      <trkpt lat="48.07671" lon="-0.70602">
        <ele>83.7</ele>
        <time>2018-04-08T13:00:23Z</time>
      </trkpt>
      <trkpt lat="48.07677" lon="-0.70584">
        <ele>83.5</ele>
        <time>2018-04-08T13:00:27Z</time>
      </trkpt>
      <trkpt lat="48.07681" lon="-0.70565">
        <ele>84.3</ele>
        <time>2018-04-08T13:00:31Z</time>
      </trkpt>
      <trkpt lat="48.07686" lon="-0.70546">
        <ele>84.7</ele>
        <time>2018-04-08T13:00:35Z</time>
      </trkpt>
      <trkpt lat="48.0769" lon="-0.70525">
        <ele>84.9</ele>
        <time>2018-04-08T13:00:39Z</time>
      </trkpt>
      <trkpt lat="48.07692" lon="-0.70503">
        <ele>85</ele>
        <time>2018-04-08T13:00:43Z</time>
      </trkpt>
      <trkpt lat="48.07693" lon="-0.7048">
        <ele>85.4</ele>
        <time>2018-04-08T13:00:47Z</time>
      </trkpt>
      <trkpt lat="48.07697" lon="-0.70456">
        <ele>85.4</ele>
        <time>2018-04-08T13:00:51Z</time>
      </trkpt>
      <trkpt lat="48.07705" lon="-0.7044">
        <ele>85.5</ele>
        <time>2018-04-08T13:00:55Z</time>
      </trkpt>
      <trkpt lat="48.07708" lon="-0.70417">
        <ele>85.5</ele>
        <time>2018-04-08T13:00:59Z</time>
      </trkpt>
      <trkpt lat="48.07712" lon="-0.70395">
        <ele>85.9</ele>
        <time>2018-04-08T13:01:03Z</time>
      </trkpt>
      <trkpt lat="48.07715" lon="-0.70373">
        <ele>86.1</ele>
        <time>2018-04-08T13:01:07Z</time>
      </trkpt>
      <trkpt lat="48.07719" lon="-0.70355">
        <ele>86.2</ele>
        <time>2018-04-08T13:01:11Z</time>
      </trkpt>
      <trkpt lat="48.07726" lon="-0.70341">
        <ele>86.4</ele>
        <time>2018-04-08T13:01:15Z</time>
      </trkpt>
      <trkpt lat="48.07734" lon="-0.70346">
        <ele>86.4</ele>
        <time>2018-04-08T13:01:19Z</time>
      </trkpt>
      <trkpt lat="48.07742" lon="-0.70348">
        <ele>86.5</ele>
        <time>2018-04-08T13:01:23Z</time>
      </trkpt>
      <trkpt lat="48.0775" lon="-0.70345">
        <ele>87.1</ele>
        <time>2018-04-08T13:01:27Z</time>
      </trkpt>
      <trkpt lat="48.07762" lon="-0.70346">
        <ele>87.1</ele>
        <time>2018-04-08T13:01:31Z</time>
      </trkpt>
      <trkpt lat="48.07773" lon="-0.70348">
        <ele>87.2</ele>
        <time>2018-04-08T13:01:35Z</time>
      </trkpt>
      <trkpt lat="48.07784" lon="-0.70351">
        <ele>87.3</ele>
        <time>2018-04-08T13:01:39Z</time>
      </trkpt>
      <trkpt lat="48.07794" lon="-0.70354">
        <ele>87.3</ele>
        <time>2018-04-08T13:01:43Z</time>
      </trkpt>
      <trkpt lat="48.078" lon="-0.70353">
        <ele>87.4</ele>
        <time>2018-04-08T13:01:55Z</time>
      </trkpt>
      <trkpt lat="48.07801" lon="-0.70349">
        <ele>87.4</ele>
        <time>2018-04-08T13:01:59Z</time>
      </trkpt>
      <trkpt lat="48.07803" lon="-0.70346">
        <ele>87.4</ele>
        <time>2018-04-08T13:02:03Z</time>
      </trkpt>
      <trkpt lat="48.07804" lon="-0.7034">
        <ele>87.5</ele>
        <time>2018-04-08T13:02:07Z</time>
      </trkpt>
      <trkpt lat="48.07805" lon="-0.70336">
        <ele>87.5</ele>
        <time>2018-04-08T13:02:11Z</time>
      </trkpt>
      <trkpt lat="48.07807" lon="-0.70332">
        <ele>87.6</ele>
        <time>2018-04-08T13:02:15Z</time>
      </trkpt>
    </trkseg>
  </trk>
</gpx>